# Wetter Temperatur Luftdruck Luftfeuchtigkeit Sichtweite Windgeschwindigkeit Windrichtung Zeit
1 Rain 4 991 86 10000 8.2 240 21:42 28.01.2020
2 Rain 4 990 80 10000 8.2 250 21:23 28.01.2020
3 Rain 4 990 80 10000 8.2 250 21:23 28.01.2020
4 Rain 4 990 80 10000 8.7 240 20:58 28.01.2020
5 Rain 4 990 80 10000 8.7 240 20:40 28.01.2020
6 Clouds 4 990 75 10000 9.3 230 20:21 28.01.2020
7 Rain 4 989 86 10000 7.7 230 19:39 28.01.2020
8 Rain 4 989 86 10000 7.7 230 19:21 28.01.2020
9 Rain 4 989 86 10000 7.7 230 19:21 28.01.2020
10 Rain 4 988 86 10000 9.8 220 18:58 28.01.2020
11 Rain 4 988 80 10000 6.7 220 18:40 28.01.2020
12 Rain 4 988 80 10000 6.7 220 18:21 28.01.2020
13 Rain 4 987 86 10000 8.7 220 17:57 28.01.2020
14 Rain 4 987 93 10000 7.7 230 17:37 28.01.2020
15 Rain 4 987 93 10000 7.7 230 17:19 28.01.2020
16 Rain 4 987 93 10000 7.2 220 16:54 28.01.2020
17 Rain 4 987 86 7000 5.1 250 16:36 28.01.2020
18 Rain 4 987 86 7000 5.1 250 16:18 28.01.2020
19 Rain 4 986 86 10000 4.1 230 15:41 28.01.2020
20 Rain 4 986 86 10000 4.1 230 15:19 28.01.2020
21 Rain 4 986 86 10000 4.1 230 15:19 28.01.2020
22 Clouds 4 986 86 10000 3.6 230 14:46 28.01.2020
23 Rain 4 986 86 10000 6.2 230 14:20 28.01.2020
24 Rain 3 985 93 10000 6.7 220 13:58 28.01.2020
25 Rain 3 985 86 10000 4.6 210 13:39 28.01.2020
26 Rain 3 985 86 10000 4.6 210 13:20 28.01.2020
27 Rain 3 985 86 10000 3.6 210 12:42 28.01.2020
28 Rain 3 985 86 10000 4.1 200 12:42 28.01.2020
29 Rain 3 985 86 10000 3.6 210 12:22 28.01.2020
30 Clouds 2 985 86 10000 2.6 250 11:48 28.01.2020
31 Rain 2 985 93 10000 3.6 220 11:23 28.01.2020
32 Clouds 2 985 93 10000 3.1 220 10:58 28.01.2020
33 Clouds 2 985 95 10000 0.5 0 10:39 28.01.2020
34 Clouds 1 985 95 10000 0.5 0 10:20 28.01.2020
35 Clouds 1 985 95 10000 1 0 09:43 28.01.2020
36 Clouds 1 985 95 10000 1 0 09:21 28.01.2020
37 Rain 1 985 95 10000 3.1 240 08:56 28.01.2020
38 Clouds 1 985 95 10000 3.1 240 08:38 28.01.2020
39 Clouds 1 985 93 10000 3.1 240 08:18 28.01.2020
40 Clouds 1 984 93 10000 2.6 260 07:36 28.01.2020
41 Clouds 1 984 93 10000 3.6 240 06:49 28.01.2020
42 Clouds 1 984 93 10000 2.1 260 06:25 28.01.2020
43 Rain 1 984 93 10000 3.6 250 05:53 28.01.2020
44 Rain 1 983 100 10000 3.1 250 05:25 28.01.2020
45 Drizzle 1 983 98 4700 1 0 03:57 28.01.2020
46 Drizzle 1 983 98 5000 1 30 02:58 28.01.2020
47 Clouds 1 983 98 3800 1.5 40 02:25 28.01.2020
48 Rain 1 983 93 5000 2.6 50 01:57 28.01.2020
49 Rain 1 983 93 10000 3.1 40 01:22 28.01.2020
50 Rain 1 983 93 10000 2.6 80 00:45 28.01.2020
51 Rain 1 983 93 10000 3.1 90 00:24 28.01.2020
52 Rain 2 984 86 10000 3.6 130 23:46 27.01.2020
53 Rain 2 984 86 10000 3.6 120 23:28 27.01.2020
54 Rain 2 984 86 10000 3.6 120 23:28 27.01.2020
55 Snow 2 985 89 10000 2.1 80 22:46 27.01.2020
56 Clouds 2 985 89 10000 1.5 0 22:22 27.01.2020
57 Clouds 2 985 89 10000 1.5 0 22:22 27.01.2020
58 Snow 2 985 89 10000 1.5 180 21:59 27.01.2020
59 Snow 2 986 89 10000 2.6 170 21:39 27.01.2020
60 Snow 2 986 89 10000 2.6 170 21:19 27.01.2020
61 Snow 2 986 89 10000 2.6 170 21:19 27.01.2020
62 Snow 2 986 89 10000 4.6 170 20:57 27.01.2020
63 Snow 3 987 89 10000 1 0 20:38 27.01.2020
64 Snow 3 987 87 10000 1 0 20:20 27.01.2020
65 Snow 3 987 80 10000 2.1 90 19:57 27.01.2020
66 Snow 3 987 80 10000 2.1 90 19:57 27.01.2020
67 Rain 3 987 80 10000 6.2 200 19:38 27.01.2020
68 Rain 3 987 80 10000 6.2 200 19:20 27.01.2020
69 Clouds 3 988 87 10000 3.1 200 18:40 27.01.2020
70 Clouds 3 988 87 10000 3.1 200 18:40 27.01.2020
71 Clouds 4 988 87 10000 3.1 200 18:21 27.01.2020
72 Clouds 4 988 80 10000 3.1 190 17:58 27.01.2020
73 Clouds 4 989 75 10000 5.7 200 17:38 27.01.2020
74 Clouds 4 989 75 10000 5.7 200 17:19 27.01.2020
75 Clouds 5 989 75 10000 5.7 200 16:56 27.01.2020
76 Clouds 5 989 75 10000 5.7 200 16:56 27.01.2020
77 Clouds 5 989 75 10000 6.2 200 16:37 27.01.2020
78 Clouds 5 989 75 10000 6.2 200 16:19 27.01.2020
79 Clouds 5 989 75 10000 6.2 220 15:41 27.01.2020
80 Clouds 5 990 76 10000 7.7 210 15:20 27.01.2020
81 Clouds 5 990 75 10000 7.2 210 14:57 27.01.2020
82 Clouds 5 990 76 10000 8.7 210 14:39 27.01.2020
83 Clouds 5 990 73 10000 8.7 210 14:20 27.01.2020
84 Clouds 5 990 75 10000 7.2 210 13:42 27.01.2020
85 Clouds 5 990 70 10000 8.7 220 13:22 27.01.2020
86 Clouds 5 991 70 10000 10.8 210 12:57 27.01.2020
87 Clouds 4 990 80 10000 10.3 210 12:39 27.01.2020
88 Clouds 4 990 80 10000 10.3 210 12:20 27.01.2020
89 Clouds 3 990 80 10000 8.2 220 11:42 27.01.2020
90 Rain 4 991 78 10000 10.3 210 11:21 27.01.2020
91 Snow 3 991 80 10000 9.3 210 10:55 27.01.2020
92 Clouds 3 991 69 10000 7.2 220 10:36 27.01.2020
93 Clouds 3 991 69 10000 7.2 220 10:18 27.01.2020
94 Snow 3 991 78 10000 8.7 220 09:39 27.01.2020
95 Snow 3 991 78 10000 8.7 220 09:19 27.01.2020
96 Clouds 3 991 78 10000 9.8 220 08:47 27.01.2020
97 Snow 3 991 74 10000 9.8 220 08:23 27.01.2020
98 Snow 3 991 80 10000 7.7 210 07:55 27.01.2020
99 Clouds 4 990 80 10000 9.8 210 07:36 27.01.2020
100 Clouds 4 990 80 10000 9.8 210 07:18 27.01.2020
101 Rain 4 991 86 10000 7.2 210 06:32 27.01.2020
102 Rain 4 992 80 10000 5.1 190 05:37 27.01.2020
103 Clouds 3 992 80 10000 6.2 200 04:20 27.01.2020
104 Snow 3 993 86 10000 6.2 180 03:27 27.01.2020
105 Clouds 2 995 89 10000 2.6 60 01:32 27.01.2020
106 Clouds 2 996 88 10000 3.6 60 00:59 27.01.2020
107 Clouds 2 996 88 10000 2.6 40 00:38 27.01.2020
108 Clouds 2 996 88 10000 2.6 40 00:19 27.01.2020
109 Clouds 2 997 88 10000 2.6 70 23:42 26.01.2020
110 Clouds 2 998 88 10000 3.1 140 23:20 26.01.2020
111 Clouds 2 998 88 10000 4.6 170 22:57 26.01.2020
112 Clouds 2 998 88 10000 3.1 160 22:37 26.01.2020
113 Clouds 2 998 88 10000 3.1 160 22:18 26.01.2020
114 Clouds 2 998 88 10000 3.6 150 21:56 26.01.2020
115 Clouds 2 998 86 10000 2.6 50 21:38 26.01.2020
116 Clouds 2 998 86 10000 2.6 50 21:19 26.01.2020
117 Clouds 2 999 88 10000 0.5 0 20:55 26.01.2020
118 Clouds 2 999 88 10000 2.6 230 20:36 26.01.2020
119 Clouds 2 999 83 10000 3.6 220 20:18 26.01.2020
120 Clouds 3 999 83 10000 4.1 220 19:56 26.01.2020
121 Clouds 3 999 86 10000 4.1 210 19:36 26.01.2020
122 Clouds 3 999 86 10000 4.1 210 19:18 26.01.2020
123 Clouds 3 999 86 10000 1 0 18:41 26.01.2020
124 Clouds 3 999 86 10000 1 0 18:22 26.01.2020
125 Clouds 3 999 86 10000 1.5 230 17:58 26.01.2020
126 Clouds 4 999 86 10000 1.5 230 17:38 26.01.2020
127 Clouds 4 999 86 10000 4.6 230 17:19 26.01.2020
128 Rain 4 999 86 10000 3.1 270 16:58 26.01.2020
129 Rain 5 999 81 10000 7.2 240 16:39 26.01.2020
130 Rain 5 999 81 10000 7.2 240 16:20 26.01.2020
131 Rain 5 999 86 0 5.81 230 15:55 26.01.2020
132 Rain 5 999 86 0 5.81 230 15:37 26.01.2020
133 Rain 5 1003 88 0 2.24 90 15:18 26.01.2020
134 Rain 6 1003 81 0 2.68 113 14:40 26.01.2020
135 Rain 6 1003 82 0 2.68 113 14:19 26.01.2020
136 Rain 6 1003 82 0 2.68 113 14:19 26.01.2020
137 Rain 7 998 81 0 6.71 240 13:42 26.01.2020
138 Rain 7 998 81 0 6.71 240 13:20 26.01.2020
139 Rain 7 998 87 0 4.47 250 12:58 26.01.2020
140 Rain 7 998 87 0 4.47 250 12:39 26.01.2020
141 Rain 7 999 92 0 0.45 202 12:21 26.01.2020
142 Rain 7 998 87 0 4.92 240 12:21 26.01.2020
143 Rain 7 998 87 0 4.92 240 11:57 26.01.2020
144 Rain 7 1001 89 0 1.79 113 11:38 26.01.2020
145 Rain 7 997 87 10000 7.7 210 11:18 26.01.2020
146 Rain 7 997 87 10000 7.7 210 11:18 26.01.2020
147 Rain 8 997 87 6000 7.7 200 10:57 26.01.2020
148 Rain 8 997 87 6000 7.7 200 10:38 26.01.2020
149 Rain 8 997 87 6000 7.7 200 10:38 26.01.2020
150 Rain 8 997 87 6000 7.7 200 10:38 26.01.2020
151 Rain 8 997 87 6000 7.7 200 10:20 26.01.2020
152 Rain 8 997 93 10000 8.2 190 09:56 26.01.2020
153 Rain 8 997 93 7000 8.2 190 09:38 26.01.2020
154 Rain 8 997 93 7000 8.2 190 09:19 26.01.2020
155 Rain 8 997 93 8000 5.7 190 08:42 26.01.2020
156 Rain 8 998 93 7000 6.7 190 08:22 26.01.2020
157 Rain 8 998 87 10000 7.2 180 07:53 26.01.2020
158 Rain 8 998 87 10000 8.7 180 07:27 26.01.2020
159 Rain 8 999 81 5000 8.2 180 06:55 26.01.2020
160 Rain 8 999 81 10000 8.7 190 06:25 26.01.2020
161 Rain 7 1000 81 10000 7.2 200 05:29 26.01.2020
162 Clouds 7 1001 81 10000 6.7 190 04:43 26.01.2020
163 Clouds 7 1003 75 10000 5.7 180 02:38 26.01.2020
164 Rain 7 1004 81 10000 6.2 180 01:45 26.01.2020
165 Rain 7 1004 81 10000 6.2 180 01:23 26.01.2020
166 Clouds 7 1005 81 10000 5.1 180 00:42 26.01.2020
167 Clouds 7 1005 81 10000 5.1 190 00:24 26.01.2020
168 Clouds 7 1010 88 0 0.45 90 23:39 25.01.2020
169 Rain 7 1010 86 0 0.89 338 23:21 25.01.2020
170 Rain 7 1010 86 0 0.45 90 22:56 25.01.2020
171 Rain 7 1010 86 0 0.89 90 22:36 25.01.2020
172 Rain 7 1011 84 0 1.34 90 22:18 25.01.2020
173 Rain 7 1013 87 0 1.79 230 21:41 25.01.2020
174 Rain 7 1013 87 0 4.02 210 21:23 25.01.2020
175 Rain 7 1007 75 0 4.02 200 20:56 25.01.2020
176 Rain 7 1007 75 0 4.02 200 20:38 25.01.2020
177 Clouds 7 1012 87 0 0.89 90 20:20 25.01.2020
178 Clouds 7 1012 78 0 4.02 113 19:44 25.01.2020
179 Clouds 7 1012 78 0 4.02 113 19:20 25.01.2020
180 Clouds 7 1014 81 0 4.68 205 18:57 25.01.2020
181 Clouds 7 1014 81 0 4.68 205 18:57 25.01.2020
182 Clouds 7 1012 81 0 1.34 90 18:39 25.01.2020
183 Clouds 7 1012 78 0 3.13 113 18:20 25.01.2020
184 Clouds 7 1008 81 0 5.36 210 17:42 25.01.2020
185 Clouds 7 1013 81 0 1.79 113 17:23 25.01.2020
186 Clouds 7 1009 81 0 5.36 230 16:58 25.01.2020
187 Clouds 7 1013 81 0 1.34 90 16:39 25.01.2020
188 Clouds 7 1009 81 0 5.81 230 16:19 25.01.2020
189 Clouds 7 1003 87 0 5.81 220 15:47 25.01.2020
190 Clouds 7 1014 84 0 1.79 113 15:25 25.01.2020
191 Clouds 7 1014 84 0 1.79 90 14:59 25.01.2020
192 Clouds 7 1002 87 0 5.36 220 14:40 25.01.2020
193 Clouds 7 1014 85 0 1.34 113 14:18 25.01.2020
194 Clouds 7 1015 87 0 1.79 113 13:42 25.01.2020
195 Clouds 7 1015 87 0 1.79 113 13:42 25.01.2020
196 Clouds 6 1011 87 0 5.81 210 13:23 25.01.2020
197 Drizzle 6 1012 93 5000 6.7 210 12:45 25.01.2020
198 Drizzle 6 1012 93 5000 6.7 210 12:26 25.01.2020
199 Clouds 6 1012 93 7000 7.7 220 11:45 25.01.2020
200 Clouds 6 1012 93 7000 7.7 220 11:22 25.01.2020
201 Clouds 6 1012 93 10000 10.8 220 10:59 25.01.2020
202 Clouds 6 1012 87 10000 8.7 220 10:40 25.01.2020
203 Clouds 6 1012 87 10000 8.7 220 10:20 25.01.2020
204 Clouds 6 1012 87 10000 4.6 210 09:41 25.01.2020
205 Clouds 6 1012 87 10000 4.6 210 09:22 25.01.2020
206 Clouds 6 1012 87 10000 5.1 210 08:47 25.01.2020
207 Clouds 7 1012 87 10000 4.6 200 08:28 25.01.2020
208 Clouds 7 1012 87 10000 3.1 210 07:50 25.01.2020
209 Clouds 6 1013 87 10000 3.6 220 06:53 25.01.2020
210 Clouds 6 1013 87 10000 6.7 200 06:28 25.01.2020
211 Clouds 6 1013 93 10000 5.7 210 05:47 25.01.2020
212 Clouds 7 1013 93 10000 5.7 210 05:18 25.01.2020
213 Clouds 7 1014 93 10000 8.2 210 03:51 25.01.2020
214 Rain 7 1014 93 6000 6.7 220 03:19 25.01.2020
215 Haze 7 1015 93 3100 7.7 220 02:20 25.01.2020
216 Rain 8 1015 100 7000 6.7 220 01:43 25.01.2020
217 Drizzle 8 1016 93 2500 5.7 220 00:44 25.01.2020
218 Drizzle 8 1016 93 1800 5.7 210 00:26 25.01.2020
219 Drizzle 8 1016 93 2400 5.7 210 23:58 24.01.2020
220 Drizzle 8 1016 93 2400 5.7 210 23:39 24.01.2020
221 Drizzle 8 1016 93 2400 5.7 210 23:39 24.01.2020
222 Mist 8 1017 93 2600 5.7 200 23:21 24.01.2020
223 Mist 8 1017 93 3500 5.7 220 22:44 24.01.2020
224 Mist 8 1017 93 4300 6.7 210 22:25 24.01.2020
225 Mist 8 1017 93 3300 5.7 210 21:43 24.01.2020
226 Mist 8 1017 93 3300 5.7 210 21:21 24.01.2020
227 Mist 8 1017 93 3300 5.7 210 21:21 24.01.2020
228 Clouds 8 1017 93 8000 5.1 210 20:57 24.01.2020
229 Clouds 8 1017 100 7000 4.1 200 20:39 24.01.2020
230 Clouds 8 1017 100 7000 4.1 200 20:20 24.01.2020
231 Mist 8 1017 100 5000 5.1 210 19:56 24.01.2020
232 Mist 8 1017 100 3300 3.6 210 19:38 24.01.2020
233 Mist 8 1017 100 3300 3.6 210 19:20 24.01.2020
234 Mist 8 1017 100 4500 3.1 220 18:43 24.01.2020
235 Clouds 8 1018 93 10000 3.6 230 18:23 24.01.2020
236 Clouds 8 1018 93 10000 5.1 220 17:46 24.01.2020
237 Clouds 8 1018 87 10000 2.6 250 17:23 24.01.2020
238 Clouds 8 1018 87 10000 2.6 260 16:58 24.01.2020
239 Clouds 9 1018 87 10000 2.6 260 16:39 24.01.2020
240 Clouds 8 1018 87 10000 2.6 270 16:19 24.01.2020
241 Clouds 9 1018 87 10000 2.6 280 15:42 24.01.2020
242 Clouds 9 1018 87 10000 2.6 280 15:22 24.01.2020
243 Clouds 9 1019 87 10000 3.1 280 14:55 24.01.2020
244 Clouds 9 1019 87 10000 3.1 260 14:37 24.01.2020
245 Clouds 9 1019 87 10000 3.1 260 14:19 24.01.2020
246 Clouds 9 1019 87 10000 3.6 250 13:41 24.01.2020
247 Clouds 9 1020 87 10000 3.6 260 13:22 24.01.2020
248 Clouds 9 1020 87 10000 3.6 260 13:22 24.01.2020
249 Clouds 9 1020 93 10000 4.1 250 12:43 24.01.2020
250 Clouds 8 1020 93 10000 4.1 230 12:21 24.01.2020
251 Clouds 8 1020 93 10000 3.1 240 11:45 24.01.2020
252 Clouds 8 1020 93 10000 4.1 240 11:19 24.01.2020
253 Clouds 8 1020 93 10000 5.1 220 10:58 24.01.2020
254 Clouds 8 1020 93 10000 5.1 220 10:40 24.01.2020
255 Clouds 8 1020 93 10000 4.1 240 10:19 24.01.2020
256 Clouds 8 1020 93 10000 4.6 230 09:41 24.01.2020
257 Clouds 8 1020 100 10000 4.6 240 09:23 24.01.2020
258 Clouds 8 1020 93 10000 4.6 230 08:41 24.01.2020
259 Clouds 8 1020 93 10000 4.6 230 08:41 24.01.2020
260 Clouds 8 1020 93 10000 4.6 230 08:21 24.01.2020
261 Clouds 8 1019 100 7000 6.2 230 07:58 24.01.2020
262 Clouds 8 1019 100 7000 6.2 230 07:39 24.01.2020
263 Clouds 8 1019 93 7000 6.7 220 06:54 24.01.2020
264 Mist 8 1020 93 5000 6.2 230 06:33 24.01.2020
265 Rain 8 1020 93 7000 7.2 230 05:59 24.01.2020
266 Clouds 8 1020 93 7000 6.7 230 05:18 24.01.2020
267 Clouds 7 1022 93 10000 4.1 210 02:54 24.01.2020
268 Clouds 7 1022 93 8000 6.2 220 02:27 24.01.2020
269 Clouds 7 1022 93 8000 6.7 230 01:53 24.01.2020
270 Clouds 7 1023 93 10000 7.2 230 01:33 24.01.2020
271 Clouds 8 1023 93 7000 7.2 220 00:31 24.01.2020
272 Clouds 8 1024 93 7000 8.2 240 23:56 23.01.2020
273 Clouds 8 1024 93 10000 6.7 240 23:37 23.01.2020
274 Clouds 8 1024 93 10000 6.7 240 23:18 23.01.2020
275 Clouds 8 1024 93 10000 5.1 230 22:39 23.01.2020
276 Clouds 7 1024 93 10000 4.1 230 22:19 23.01.2020
277 Clouds 8 1024 87 9000 5.1 230 21:58 23.01.2020
278 Clouds 8 1024 87 9000 5.1 230 21:39 23.01.2020
279 Clouds 8 1025 87 10000 4.1 230 21:21 23.01.2020
280 Clouds 8 1025 87 10000 5.1 230 20:59 23.01.2020
281 Clouds 8 1025 93 10000 5.7 230 20:39 23.01.2020
282 Clouds 8 1025 93 10000 5.7 230 20:20 23.01.2020
283 Clouds 7 1025 100 7000 4.6 230 19:56 23.01.2020
284 Clouds 7 1025 100 7000 4.6 230 19:38 23.01.2020
285 Clouds 7 1025 100 10000 6.2 220 19:19 23.01.2020
286 Clouds 7 1025 93 10000 5.7 240 18:55 23.01.2020
287 Clouds 8 1025 93 10000 6.7 240 18:37 23.01.2020
288 Clouds 8 1025 93 10000 6.7 240 18:18 23.01.2020
289 Clouds 8 1025 93 10000 5.7 230 17:43 23.01.2020
290 Clouds 8 1026 87 10000 5.7 250 17:20 23.01.2020
291 Clouds 8 1026 93 10000 5.1 230 16:57 23.01.2020
292 Clouds 8 1027 93 10000 5.7 230 16:37 23.01.2020
293 Clouds 8 1027 93 10000 5.7 230 16:18 23.01.2020
294 Clouds 9 1027 81 10000 5.7 240 15:56 23.01.2020
295 Clouds 9 1027 81 10000 7.2 240 15:37 23.01.2020
296 Clouds 9 1027 81 10000 7.2 240 15:18 23.01.2020
297 Clouds 9 1028 81 10000 6.7 240 14:55 23.01.2020
298 Clouds 9 1028 81 10000 6.7 240 14:55 23.01.2020
299 Clouds 9 1028 87 10000 5.1 240 14:37 23.01.2020
300 Clouds 9 1028 87 10000 5.1 240 14:19 23.01.2020
301 Clouds 8 1029 87 10000 6.7 230 13:43 23.01.2020
302 Clouds 8 1029 87 10000 6.7 230 13:20 23.01.2020
303 Clouds 8 1029 87 10000 5.7 240 12:47 23.01.2020
304 Clouds 8 1030 87 10000 5.7 250 12:26 23.01.2020
305 Clouds 8 1030 93 10000 6.2 240 11:59 23.01.2020
306 Clouds 8 1030 87 10000 6.2 240 11:39 23.01.2020
307 Clouds 8 1030 87 10000 6.2 240 11:20 23.01.2020
308 Clouds 8 1030 87 10000 5.7 250 10:45 23.01.2020
309 Clouds 8 1030 87 10000 6.7 250 10:23 23.01.2020
310 Clouds 8 1031 87 10000 5.7 250 09:59 23.01.2020
311 Clouds 8 1031 87 10000 5.1 240 09:39 23.01.2020
312 Clouds 8 1031 87 10000 5.1 240 09:20 23.01.2020
313 Clouds 8 1030 81 10000 5.7 250 08:42 23.01.2020
314 Clouds 8 1030 81 10000 5.1 250 08:24 23.01.2020
315 Clouds 8 1030 81 10000 5.1 250 08:24 23.01.2020
316 Clouds 8 1030 81 10000 5.7 250 07:48 23.01.2020
317 Clouds 8 1031 87 10000 4.1 250 07:27 23.01.2020
318 Clouds 8 1031 93 10000 3.6 250 06:54 23.01.2020
319 Clouds 8 1031 93 10000 4.6 230 06:23 23.01.2020
320 Clouds 8 1031 93 10000 5.1 240 05:58 23.01.2020
321 Clouds 8 1031 93 10000 5.1 240 05:58 23.01.2020
322 Clouds 8 1033 93 10000 4.1 230 04:24 23.01.2020
323 Clouds 8 1034 100 10000 4.1 240 02:35 23.01.2020
324 Mist 8 1035 100 4000 2.1 200 01:41 23.01.2020
325 Clouds 9 1035 100 8000 3.1 250 00:28 23.01.2020
326 Clouds 9 1035 100 10000 3.6 240 23:48 22.01.2020
327 Clouds 9 1035 100 9000 3.1 240 23:30 22.01.2020
328 Clouds 9 1035 100 6000 2.6 240 22:59 22.01.2020
329 Clouds 9 1035 100 6000 2.6 240 22:41 22.01.2020
330 Clouds 9 1035 100 6000 2.6 250 22:23 22.01.2020
331 Clouds 9 1036 100 10000 3.1 240 21:41 22.01.2020
332 Clouds 9 1036 100 10000 3.1 240 21:22 22.01.2020
333 Clouds 9 1036 93 10000 2.6 240 20:58 22.01.2020
334 Clouds 9 1036 93 10000 2.6 240 20:39 22.01.2020
335 Clouds 9 1036 100 10000 2.6 240 20:21 22.01.2020
336 Clouds 9 1036 93 10000 3.1 220 19:57 22.01.2020
337 Clouds 9 1036 93 10000 3.1 220 19:39 22.01.2020
338 Clouds 9 1036 93 10000 3.6 230 19:19 22.01.2020
339 Clouds 9 1036 93 10000 3.1 230 18:57 22.01.2020
340 Clouds 9 1036 93 10000 3.6 230 18:38 22.01.2020
341 Clouds 10 1036 93 10000 3.6 230 18:19 22.01.2020
342 Clouds 10 1036 93 10000 3.6 230 17:55 22.01.2020
343 Clouds 10 1036 93 10000 3.6 230 17:36 22.01.2020
344 Clouds 10 1036 93 10000 3.6 230 17:18 22.01.2020
345 Clouds 10 1036 93 10000 4.1 230 16:43 22.01.2020
346 Clouds 10 1036 93 10000 4.1 230 16:23 22.01.2020
347 Clouds 10 1037 93 10000 4.6 220 15:58 22.01.2020
348 Clouds 10 1037 93 10000 4.6 220 15:39 22.01.2020
349 Clouds 10 1037 93 10000 4.6 230 15:21 22.01.2020
350 Clouds 10 1037 93 10000 5.7 230 14:56 22.01.2020
351 Clouds 10 1037 93 10000 5.1 230 14:36 22.01.2020
352 Clouds 10 1037 93 10000 5.1 230 14:36 22.01.2020
353 Clouds 10 1037 93 10000 5.1 230 14:18 22.01.2020
354 Clouds 10 1037 93 10000 4.1 230 13:54 22.01.2020
355 Clouds 10 1038 93 10000 4.6 230 13:36 22.01.2020
356 Clouds 10 1038 93 10000 4.6 230 13:18 22.01.2020
357 Clouds 10 1038 93 10000 3.6 230 12:54 22.01.2020
358 Clouds 10 1038 93 10000 3.6 240 12:36 22.01.2020
359 Clouds 10 1038 93 10000 3.6 240 12:18 22.01.2020
360 Clouds 10 1038 93 10000 3.6 230 11:54 22.01.2020
361 Clouds 9 1038 93 10000 3.6 230 11:36 22.01.2020
362 Clouds 9 1038 93 10000 3.6 230 11:18 22.01.2020
363 Clouds 9 1038 93 10000 3.6 250 10:41 22.01.2020
364 Clouds 9 1038 93 10000 3.6 250 10:19 22.01.2020
365 Clouds 8 1038 100 10000 3.6 240 09:42 22.01.2020
366 Clouds 8 1038 100 10000 3.6 240 09:42 22.01.2020
367 Clouds 8 1037 100 10000 3.1 230 09:24 22.01.2020
368 Clouds 8 1037 100 10000 3.1 250 08:57 22.01.2020
369 Clouds 9 1037 93 10000 2.6 240 08:38 22.01.2020
370 Clouds 9 1037 93 10000 2.6 240 08:20 22.01.2020
371 Clouds 9 1037 100 10000 3.6 240 07:46 22.01.2020
372 Clouds 9 1037 100 10000 5.1 250 07:27 22.01.2020
373 Clouds 9 1037 100 10000 3.1 220 06:38 22.01.2020
374 Clouds 9 1037 100 10000 3.1 220 06:20 22.01.2020
375 Clouds 9 1037 100 10000 4.1 220 05:19 22.01.2020
376 Clouds 9 1038 93 10000 2.6 230 03:29 22.01.2020
377 Rain 9 1038 100 10000 3.1 230 02:49 22.01.2020
378 Clouds 9 1038 100 10000 3.6 260 01:35 22.01.2020
379 Rain 9 1038 93 10000 4.6 240 00:42 22.01.2020
380 Clouds 9 1038 100 10000 4.6 230 00:23 22.01.2020
381 Rain 9 1038 100 10000 3.6 240 23:38 21.01.2020
382 Rain 9 1038 100 10000 3.6 240 23:38 21.01.2020
383 Rain 9 1038 100 10000 3.6 240 23:20 21.01.2020
384 Rain 9 1038 100 7000 5.1 230 22:42 21.01.2020
385 Clouds 9 1038 93 10000 3.6 220 22:24 21.01.2020
386 Clouds 9 1038 93 10000 3.6 220 22:24 21.01.2020
387 Clouds 9 1038 93 10000 4.6 230 21:59 21.01.2020
388 Clouds 9 1038 93 10000 4.6 230 21:39 21.01.2020
389 Clouds 9 1038 100 10000 5.1 230 21:21 21.01.2020
390 Clouds 9 1038 93 10000 5.7 220 20:58 21.01.2020
391 Clouds 9 1038 93 10000 4.6 230 20:39 21.01.2020
392 Clouds 9 1038 93 10000 4.6 230 20:20 21.01.2020
393 Clouds 9 1038 100 7000 4.6 220 19:58 21.01.2020
394 Clouds 9 1037 93 10000 3.6 230 19:39 21.01.2020
395 Clouds 9 1037 93 10000 3.6 230 19:21 21.01.2020
396 Clouds 9 1037 93 10000 3.1 230 18:56 21.01.2020
397 Clouds 9 1037 93 10000 2.6 250 18:38 21.01.2020
398 Clouds 9 1037 93 10000 2.6 250 18:20 21.01.2020
399 Clouds 9 1037 93 10000 3.1 230 17:45 21.01.2020
400 Clouds 9 1037 93 10000 3.1 250 17:21 21.01.2020
401 Clouds 9 1037 93 10000 5.7 240 16:59 21.01.2020
402 Clouds 9 1037 100 10000 6.7 230 16:37 21.01.2020
403 Clouds 9 1037 100 10000 6.7 230 16:19 21.01.2020
404 Clouds 9 1038 93 10000 7.2 230 15:56 21.01.2020
405 Clouds 9 1038 100 10000 5.7 240 15:37 21.01.2020
406 Clouds 9 1038 100 10000 5.7 240 15:18 21.01.2020
407 Clouds 9 1039 93 10000 4.6 250 14:38 21.01.2020
408 Clouds 10 1039 93 10000 4.6 250 14:20 21.01.2020
409 Clouds 9 1039 93 10000 6.2 220 13:40 21.01.2020
410 Clouds 9 1039 93 10000 6.2 220 13:19 21.01.2020
411 Clouds 9 1039 100 10000 6.2 230 12:56 21.01.2020
412 Clouds 9 1039 93 10000 5.1 220 12:37 21.01.2020
413 Clouds 9 1039 93 10000 5.1 220 12:19 21.01.2020
414 Clouds 9 1039 93 10000 6.2 210 11:40 21.01.2020
415 Clouds 9 1039 93 10000 6.2 210 11:21 21.01.2020
416 Rain 9 1039 93 4900 6.7 230 10:55 21.01.2020
417 Clouds 9 1039 93 10000 6.7 230 10:37 21.01.2020
418 Clouds 9 1039 93 10000 6.7 230 10:18 21.01.2020
419 Rain 8 1039 100 10000 3.6 230 09:41 21.01.2020
420 Rain 8 1039 100 10000 3.6 230 09:22 21.01.2020
421 Clouds 8 1039 100 10000 4.6 230 08:50 21.01.2020
422 Clouds 8 1039 100 6000 5.1 230 08:30 21.01.2020
423 Clouds 8 1039 93 9000 5.1 230 07:59 21.01.2020
424 Clouds 8 1039 93 9000 5.1 230 07:40 21.01.2020
425 Clouds 8 1039 93 10000 5.1 220 07:40 21.01.2020
426 Clouds 8 1039 93 10000 5.1 220 07:21 21.01.2020
427 Clouds 8 1039 93 6000 6.2 220 06:49 21.01.2020
428 Clouds 8 1039 93 8000 5.7 220 06:29 21.01.2020
429 Clouds 8 1039 93 8000 5.7 220 06:29 21.01.2020
430 Clouds 8 1039 93 8000 5.7 220 06:29 21.01.2020
431 Clouds 8 1039 93 10000 5.1 220 05:42 21.01.2020
432 Clouds 8 1039 93 10000 5.1 220 05:42 21.01.2020
433 Clouds 8 1039 93 10000 4.1 230 04:40 21.01.2020
434 Clouds 8 1039 87 10000 6.2 220 02:56 21.01.2020
435 Clouds 8 1040 87 10000 5.1 230 01:53 21.01.2020
436 Clouds 8 1041 87 10000 4.6 240 01:18 21.01.2020
437 Clouds 8 1040 87 10000 5.1 230 00:36 21.01.2020
438 Clouds 8 1040 87 10000 6.7 220 23:58 20.01.2020
439 Clouds 8 1040 87 10000 7.2 220 23:38 20.01.2020
440 Clouds 8 1040 87 10000 7.2 220 23:19 20.01.2020
441 Clouds 8 1040 87 10000 8.7 230 22:56 20.01.2020
442 Clouds 7 1041 81 10000 6.2 240 22:37 20.01.2020
443 Clouds 8 1041 81 10000 7.2 240 22:19 20.01.2020
444 Clouds 8 1041 81 10000 7.2 240 21:57 20.01.2020
445 Clouds 7 1041 81 10000 7.7 240 21:37 20.01.2020
446 Clouds 7 1041 81 10000 7.7 240 21:37 20.01.2020
447 Clouds 7 1041 81 10000 7.7 240 21:18 20.01.2020
448 Clouds 7 1041 87 10000 7.2 230 20:55 20.01.2020
449 Clouds 7 1041 87 10000 6.2 230 20:36 20.01.2020
450 Clouds 7 1041 87 10000 6.2 230 20:18 20.01.2020
451 Clouds 7 1041 87 10000 5.1 220 19:56 20.01.2020
452 Clouds 7 1041 87 10000 5.1 210 19:37 20.01.2020
453 Clouds 7 1041 87 10000 5.1 210 19:18 20.01.2020
454 Clouds 7 1042 87 10000 6.2 210 18:42 20.01.2020
455 Clouds 7 1042 87 10000 6.2 210 18:21 20.01.2020
456 Clouds 7 1042 87 10000 6.2 210 17:39 20.01.2020
457 Clouds 7 1042 87 10000 7.2 220 17:19 20.01.2020
458 Clouds 7 1042 87 10000 7.2 220 16:58 20.01.2020
459 Clouds 7 1042 87 10000 7.2 210 16:37 20.01.2020
460 Clouds 7 1042 87 10000 7.2 210 16:18 20.01.2020
461 Clouds 7 1042 87 10000 7.2 210 16:18 20.01.2020
462 Clouds 7 1042 87 10000 7.2 220 15:41 20.01.2020
463 Clouds 7 1042 87 10000 7.2 220 15:22 20.01.2020
464 Clouds 7 1042 93 10000 8.2 220 14:59 20.01.2020
465 Clouds 7 1042 87 10000 7.7 220 14:41 20.01.2020
466 Clouds 7 1042 87 10000 7.7 220 14:21 20.01.2020
467 Clouds 7 1043 87 10000 6.7 210 13:57 20.01.2020
468 Clouds 7 1043 87 10000 7.2 210 13:38 20.01.2020
469 Clouds 7 1043 87 10000 7.2 210 13:20 20.01.2020
470 Clouds 7 1043 87 10000 6.7 210 12:44 20.01.2020
471 Clouds 7 1043 87 10000 6.7 210 12:25 20.01.2020
472 Clouds 7 1043 87 10000 6.7 210 12:25 20.01.2020
473 Clouds 7 1043 87 10000 5.7 210 11:56 20.01.2020
474 Clouds 7 1043 87 10000 6.2 220 11:37 20.01.2020
475 Clouds 7 1043 87 10000 6.2 220 11:18 20.01.2020
476 Clouds 7 1043 87 10000 5.1 220 10:46 20.01.2020
477 Clouds 7 1043 87 10000 6.7 210 10:21 20.01.2020
478 Clouds 7 1043 87 10000 5.1 220 09:42 20.01.2020
479 Clouds 7 1043 87 10000 5.1 210 09:24 20.01.2020
480 Clouds 7 1043 87 10000 5.7 220 08:56 20.01.2020
481 Clouds 6 1043 87 10000 5.7 220 08:34 20.01.2020
482 Clouds 6 1043 87 10000 6.2 210 07:59 20.01.2020
483 Clouds 6 1043 87 10000 6.2 210 07:41 20.01.2020
484 Clouds 6 1043 87 10000 7.2 210 07:21 20.01.2020
485 Clouds 6 1043 87 10000 7.7 220 06:44 20.01.2020
486 Clouds 6 1043 87 10000 7.2 220 06:22 20.01.2020
487 Clouds 6 1043 81 10000 5.7 200 05:38 20.01.2020
488 Clouds 6 1043 81 10000 5.7 200 05:19 20.01.2020
489 Clouds 6 1044 93 10000 6.2 220 04:23 20.01.2020
490 Clouds 5 1043 87 10000 5.1 230 01:59 20.01.2020
491 Clouds 5 1044 87 10000 6.2 220 01:40 20.01.2020
492 Clouds 5 1044 87 10000 6.2 220 01:18 20.01.2020
493 Clouds 5 1044 81 10000 5.7 220 00:42 20.01.2020
494 Clouds 5 1043 81 10000 5.7 240 00:20 20.01.2020
495 Clouds 5 1043 81 10000 6.7 240 23:38 19.01.2020
496 Clouds 5 1043 81 10000 6.7 240 23:19 19.01.2020
497 Clouds 5 1043 81 10000 3.6 250 22:56 19.01.2020
498 Clouds 5 1043 86 10000 6.2 230 22:37 19.01.2020
499 Clouds 5 1043 86 10000 6.2 230 22:19 19.01.2020
500 Clouds 5 1043 80 10000 6.2 250 21:56 19.01.2020
501 Clouds 5 1043 80 10000 5.7 240 21:38 19.01.2020
502 Clouds 5 1043 80 10000 5.7 240 21:19 19.01.2020
503 Clouds 5 1043 80 10000 5.1 230 20:56 19.01.2020
504 Clouds 5 1043 80 10000 3.6 240 20:38 19.01.2020
505 Clouds 5 1043 80 10000 3.6 240 20:19 19.01.2020
506 Clouds 5 1044 80 10000 2.6 250 19:55 19.01.2020
507 Clouds 5 1043 75 10000 4.6 250 19:37 19.01.2020
508 Clouds 5 1043 75 10000 4.6 250 19:19 19.01.2020
509 Clouds 5 1043 75 10000 4.1 240 18:55 19.01.2020
510 Clouds 5 1043 75 10000 4.1 250 18:37 19.01.2020
511 Clouds 5 1043 75 10000 4.1 250 18:19 19.01.2020
512 Clouds 5 1043 75 10000 4.1 250 18:19 19.01.2020
513 Clouds 5 1043 75 10000 7.7 230 17:57 19.01.2020
514 Clouds 5 1043 75 10000 7.7 230 17:38 19.01.2020
515 Clouds 5 1043 75 10000 7.7 230 17:19 19.01.2020
516 Clouds 5 1043 70 10000 6.2 220 16:57 19.01.2020
517 Clouds 6 1043 70 10000 5.7 210 16:37 19.01.2020
518 Clouds 6 1043 70 10000 5.7 210 16:19 19.01.2020
519 Clouds 6 1042 75 10000 6.7 220 15:55 19.01.2020
520 Clouds 6 1043 75 10000 7.2 220 15:37 19.01.2020
521 Clouds 6 1043 75 10000 7.2 220 15:18 19.01.2020
522 Clouds 6 1043 81 10000 2.1 230 14:41 19.01.2020
523 Clouds 5 1043 100 10000 1.5 0 14:21 19.01.2020
524 Clouds 5 1044 81 10000 3.1 190 13:59 19.01.2020
525 Clouds 5 1043 100 9000 1 0 13:40 19.01.2020
526 Clouds 5 1043 100 9000 1 0 13:22 19.01.2020
527 Clouds 5 1044 86 10000 2.1 190 12:59 19.01.2020
528 Clouds 4 1043 93 8000 1.5 0 12:41 19.01.2020
529 Clouds 4 1043 93 10000 1 50 12:21 19.01.2020
530 Clouds 4 1043 100 7000 0.5 0 11:57 19.01.2020
531 Clouds 3 1044 100 10000 2.89 217 11:38 19.01.2020
532 Clear 2 1043 94 8000 1.5 230 11:18 19.01.2020
533 Clear 1 1042 100 9000 1.5 40 10:41 19.01.2020
534 Clear 1 1042 100 9000 1.5 40 10:21 19.01.2020
535 Clear 1 1042 100 8000 0.5 0 09:57 19.01.2020
536 Clear 1 1042 94 10000 0.5 0 09:38 19.01.2020
537 Clear 1 1042 94 10000 0.5 0 09:20 19.01.2020
538 Clouds 1 1042 100 9000 1.5 210 08:55 19.01.2020
539 Clouds 0 1041 92 10000 1.5 0 08:33 19.01.2020
540 Clouds -1 1041 100 10000 0.5 0 07:58 19.01.2020
541 Clear -1 1041 92 10000 0.5 0 07:29 19.01.2020
542 Fog -1 1040 100 900 0.5 0 06:55 19.01.2020
543 Clear -1 1040 100 7000 1 340 06:22 19.01.2020
544 Clear -1 1038 100 6000 0.5 0 03:58 19.01.2020
545 Clear -1 1038 92 10000 1.5 320 02:34 19.01.2020
546 Clouds 0 1038 92 9000 0.5 0 01:42 19.01.2020
547 Clouds 0 1037 89 10000 0.5 0 01:20 19.01.2020
548 Clouds 0 1037 92 10000 2.1 0 00:44 19.01.2020
549 Clouds 1 1036 89 10000 0.5 0 00:21 19.01.2020
550 Clouds 1 1036 89 10000 0.5 0 23:47 18.01.2020
551 Clouds 1 1035 86 10000 2.1 300 23:25 18.01.2020
552 Clouds 1 1035 86 10000 2.1 220 22:59 18.01.2020
553 Clouds 1 1034 89 10000 1 0 22:41 18.01.2020
554 Clouds 1 1034 89 10000 1 0 22:21 18.01.2020
555 Clouds 1 1034 89 10000 2.1 260 21:58 18.01.2020
556 Clouds 2 1034 86 10000 1.5 0 21:38 18.01.2020
557 Clouds 2 1034 86 10000 1.5 0 21:20 18.01.2020
558 Clouds 2 1033 89 10000 2.6 260 20:56 18.01.2020
559 Clouds 3 1033 89 10000 2.6 270 20:38 18.01.2020
560 Clouds 3 1033 87 10000 2.6 270 20:18 18.01.2020
561 Clouds 3 1033 87 10000 2.6 270 20:18 18.01.2020
562 Clouds 3 1032 87 10000 4.1 250 19:42 18.01.2020
563 Clouds 3 1032 87 10000 5.1 230 19:24 18.01.2020
564 Clouds 3 1031 87 10000 3.1 220 18:43 18.01.2020
565 Clouds 4 1030 80 10000 3.1 250 18:24 18.01.2020
566 Clouds 4 1030 86 10000 3.6 240 17:58 18.01.2020
567 Clouds 4 1029 80 10000 3.6 220 17:40 18.01.2020
568 Clouds 4 1029 80 10000 3.6 220 17:20 18.01.2020
569 Clouds 5 1028 80 10000 3.1 230 16:56 18.01.2020
570 Clouds 5 1028 75 10000 3.6 260 16:37 18.01.2020
571 Clouds 5 1028 75 10000 3.6 260 16:19 18.01.2020
572 Clouds 6 1027 80 10000 3.6 240 15:43 18.01.2020
573 Clouds 6 1027 80 10000 3.1 230 15:24 18.01.2020
574 Clouds 6 1026 70 10000 3.1 270 14:58 18.01.2020
575 Clouds 6 1026 70 10000 2.6 290 14:39 18.01.2020
576 Clouds 6 1026 70 10000 2.6 290 14:19 18.01.2020
577 Clouds 6 1026 75 10000 3.6 250 13:45 18.01.2020
578 Clouds 6 1025 81 10000 1.5 0 13:27 18.01.2020
579 Clouds 5 1025 80 10000 2.6 250 12:59 18.01.2020
580 Clouds 5 1024 80 10000 4.6 260 12:40 18.01.2020
581 Clouds 4 1024 80 10000 4.6 260 12:21 18.01.2020
582 Rain 4 1024 86 10000 5.1 260 11:44 18.01.2020
583 Clouds 3 1023 86 10000 5.1 280 11:24 18.01.2020
584 Clouds 3 1023 86 10000 4.1 270 10:57 18.01.2020
585 Clouds 3 1022 86 10000 4.6 260 10:38 18.01.2020
586 Clouds 3 1022 86 10000 4.6 260 10:20 18.01.2020
587 Rain 3 1022 86 10000 3.6 240 09:48 18.01.2020
588 Clouds 2 1022 86 10000 4.6 220 09:30 18.01.2020
589 Clouds 3 1021 93 10000 3.6 230 08:56 18.01.2020
590 Rain 2 1021 86 10000 4.1 260 08:38 18.01.2020
591 Rain 2 1021 86 10000 4.1 260 08:19 18.01.2020
592 Clear 3 1020 85 10000 2.6 240 07:47 18.01.2020
593 Rain 2 1020 93 10000 3.6 250 07:29 18.01.2020
594 Clear 2 1020 85 10000 5.1 240 06:47 18.01.2020
595 Clear 2 1019 85 10000 4.1 260 05:59 18.01.2020
596 Clear 2 1018 83 10000 3.1 260 05:21 18.01.2020
597 Clear 3 1016 83 10000 3.1 270 02:55 18.01.2020
598 Rain 3 1015 81 10000 5.1 270 01:52 18.01.2020
599 Clouds 3 1014 81 10000 4.1 230 01:30 18.01.2020
600 Clear 3 1013 81 10000 4.6 250 00:36 18.01.2020
601 Clear 3 1013 81 10000 4.6 250 00:18 18.01.2020
602 Rain 3 1012 80 10000 3.6 260 23:41 17.01.2020
603 Rain 3 1012 80 10000 3.6 260 23:19 17.01.2020
604 Clouds 3 1011 86 10000 4.1 240 22:44 17.01.2020
605 Clear 3 1011 86 10000 4.6 220 22:21 17.01.2020
606 Rain 4 1011 80 10000 6.7 290 21:58 17.01.2020
607 Clear 4 1010 75 10000 3.1 250 21:40 17.01.2020
608 Clear 4 1010 75 10000 3.1 250 21:22 17.01.2020
609 Clouds 4 1010 80 10000 5.7 260 20:57 17.01.2020
610 Rain 4 1009 80 10000 5.7 260 20:37 17.01.2020
611 Rain 4 1009 80 10000 5.7 260 20:19 17.01.2020
612 Clouds 5 1009 80 10000 5.1 250 19:55 17.01.2020
613 Rain 5 1008 80 10000 6.2 260 19:37 17.01.2020
614 Rain 5 1008 80 10000 6.2 260 19:18 17.01.2020
615 Clouds 4 1008 93 10000 4.1 240 18:45 17.01.2020
616 Rain 4 1007 93 10000 6.7 240 18:27 17.01.2020
617 Clouds 4 1007 86 10000 4.6 240 17:56 17.01.2020
618 Clouds 4 1007 86 10000 4.1 240 17:38 17.01.2020
619 Clouds 5 1007 86 10000 4.1 240 17:20 17.01.2020
620 Rain 5 1006 81 10000 4.1 250 16:42 17.01.2020
621 Clouds 5 1006 86 10000 3.6 240 16:42 17.01.2020
622 Rain 6 1006 81 10000 4.1 250 16:20 17.01.2020
623 Rain 6 1006 81 10000 4.6 250 15:48 17.01.2020
624 Rain 6 1005 87 10000 7.7 240 15:28 17.01.2020
625 Rain 6 1005 87 8000 6.2 240 14:56 17.01.2020
626 Rain 6 1005 87 8000 6.2 240 14:56 17.01.2020
627 Rain 6 1005 81 10000 8.2 230 14:38 17.01.2020
628 Rain 6 1005 81 10000 8.2 230 14:20 17.01.2020
629 Rain 6 1005 81 10000 8.2 230 14:20 17.01.2020
630 Clouds 6 1004 75 10000 7.7 230 13:41 17.01.2020
631 Clouds 6 1004 75 10000 6.7 230 13:22 17.01.2020
632 Clouds 5 1004 80 10000 6.2 220 12:46 17.01.2020
633 Clouds 5 1004 80 10000 7.7 220 12:23 17.01.2020
634 Clouds 5 1004 80 10000 7.7 220 12:23 17.01.2020
635 Clouds 4 1004 86 10000 6.2 210 11:41 17.01.2020
636 Clouds 3 1004 86 10000 5.7 220 11:20 17.01.2020
637 Clouds 3 1004 86 10000 4.1 220 10:55 17.01.2020
638 Clouds 3 1003 86 10000 3.1 190 10:36 17.01.2020
639 Clouds 3 1003 86 10000 3.1 190 10:18 17.01.2020
640 Clouds 3 1003 86 10000 2.6 180 09:42 17.01.2020
641 Clouds 3 1003 86 10000 2.6 200 09:20 17.01.2020
642 Clouds 3 1002 86 10000 4.1 200 08:55 17.01.2020
643 Clouds 3 1002 86 10000 5.1 210 08:37 17.01.2020
644 Clouds 4 1002 86 10000 5.1 210 08:18 17.01.2020
645 Clouds 4 1002 86 10000 5.7 210 07:43 17.01.2020
646 Clouds 4 1002 86 10000 4.6 200 07:24 17.01.2020
647 Clouds 4 1002 93 10000 3.1 180 06:43 17.01.2020
648 Clouds 4 1001 86 10000 3.6 200 06:20 17.01.2020
649 Clouds 5 1001 81 10000 2.1 140 04:25 17.01.2020
650 Clouds 6 1000 86 0 6.71 220 02:55 17.01.2020
651 Clouds 6 1000 86 0 6.71 220 02:30 17.01.2020
652 Rain 6 1000 84 0 1.34 148 01:32 17.01.2020
653 Rain 6 1000 81 0 9.39 210 00:58 17.01.2020
654 Rain 7 998 75 0 9.39 210 00:29 17.01.2020
655 Clouds 7 997 81 10000 8.7 210 23:54 16.01.2020
656 Clouds 7 997 81 10000 8.7 210 23:54 16.01.2020
657 Clouds 7 997 81 10000 8.7 210 23:36 16.01.2020
658 Clouds 7 997 81 10000 8.7 210 23:18 16.01.2020
659 Clouds 8 997 75 10000 10.8 210 22:40 16.01.2020
660 Clouds 8 996 75 10000 11.3 210 22:21 16.01.2020
661 Clouds 8 995 81 10000 10.8 210 21:56 16.01.2020
662 Clouds 8 995 81 10000 8.7 210 21:37 16.01.2020
663 Clouds 8 995 81 10000 8.7 210 21:18 16.01.2020
664 Clouds 8 994 81 10000 8.7 230 20:56 16.01.2020
665 Clouds 9 993 87 10000 11.3 220 20:37 16.01.2020
666 Clouds 9 993 87 10000 11.3 220 20:18 16.01.2020
667 Rain 10 992 87 10000 11.8 210 19:54 16.01.2020
668 Rain 10 992 87 10000 11.8 210 19:54 16.01.2020
669 Rain 10 992 81 10000 9.8 190 19:36 16.01.2020
670 Rain 10 992 81 10000 9.8 190 19:18 16.01.2020
671 Rain 10 992 87 10000 9.8 180 18:54 16.01.2020
672 Rain 10 992 81 9000 9.3 170 18:36 16.01.2020
673 Rain 9 992 81 9000 9.3 170 18:18 16.01.2020
674 Clouds 9 991 81 10000 10.3 160 17:41 16.01.2020
675 Rain 8 992 81 10000 7.7 140 17:21 16.01.2020
676 Rain 8 993 93 10000 6.7 100 16:56 16.01.2020
677 Rain 8 994 87 10000 6.7 110 16:37 16.01.2020
678 Rain 8 994 87 10000 6.7 110 16:18 16.01.2020
679 Rain 8 996 81 10000 6.7 120 15:44 16.01.2020
680 Rain 8 997 75 10000 6.7 110 15:21 16.01.2020
681 Clouds 8 998 75 10000 7.7 110 14:55 16.01.2020
682 Clouds 8 999 81 10000 6.2 100 14:37 16.01.2020
683 Clouds 8 999 81 10000 6.2 100 14:18 16.01.2020
684 Clouds 9 1000 76 10000 6.2 110 13:43 16.01.2020
685 Clouds 8 1001 76 10000 6.7 140 13:24 16.01.2020
686 Clouds 9 1002 76 10000 7.2 130 12:45 16.01.2020
687 Clouds 9 1003 81 10000 6.2 140 12:27 16.01.2020
688 Clouds 8 1003 87 10000 7.7 150 11:54 16.01.2020
689 Clouds 8 1003 87 10000 6.2 130 11:36 16.01.2020
690 Clouds 8 1003 87 10000 6.2 130 11:18 16.01.2020
691 Rain 8 1003 81 8000 5.1 150 10:38 16.01.2020
692 Rain 8 1003 81 8000 5.1 150 10:20 16.01.2020
693 Rain 8 1003 81 10000 5.7 160 09:56 16.01.2020
694 Rain 8 1004 87 10000 4.6 160 09:37 16.01.2020
695 Rain 8 1004 87 10000 4.6 160 09:19 16.01.2020
696 Rain 8 1004 87 10000 3.6 150 08:48 16.01.2020
697 Rain 8 1004 87 10000 4.1 110 08:29 16.01.2020
698 Rain 6 1005 87 10000 3.1 140 07:44 16.01.2020
699 Rain 6 1005 87 10000 3.1 120 07:25 16.01.2020
700 Rain 6 1006 81 10000 4.1 140 06:59 16.01.2020
701 Rain 6 1006 87 10000 2.6 110 06:37 16.01.2020
702 Rain 6 1007 81 10000 3.6 150 05:58 16.01.2020
703 Rain 6 1007 81 10000 3.1 150 05:39 16.01.2020
704 Clouds 6 1008 81 10000 3.1 160 04:37 16.01.2020
705 Clouds 6 1008 81 10000 3.1 160 04:37 16.01.2020
706 Clouds 5 1007 81 10000 5.7 210 03:28 16.01.2020
707 Clouds 5 1006 81 10000 8.2 220 02:36 16.01.2020
708 Clouds 5 1005 81 10000 9.8 220 00:48 16.01.2020
709 Clouds 6 1004 81 10000 8.7 220 00:24 16.01.2020
710 Clouds 6 1004 75 10000 7.7 230 23:48 15.01.2020
711 Clouds 6 1003 81 10000 7.2 220 23:23 15.01.2020
712 Clear 6 1003 81 10000 9.3 220 22:57 15.01.2020
713 Clear 6 1002 81 10000 10.8 220 22:39 15.01.2020
714 Clear 6 1002 81 10000 10.8 220 22:19 15.01.2020
715 Clear 6 1001 81 10000 11.3 220 21:57 15.01.2020
716 Clear 6 1000 70 10000 11.3 230 21:37 15.01.2020
717 Clear 6 1000 70 10000 11.3 230 21:19 15.01.2020
718 Clouds 6 1000 70 10000 8.7 230 20:57 15.01.2020
719 Clouds 6 1000 70 10000 8.7 230 20:39 15.01.2020
720 Clouds 6 999 70 10000 8.7 220 20:39 15.01.2020
721 Clouds 7 999 70 10000 8.7 220 20:20 15.01.2020
722 Clouds 7 998 70 10000 11.3 230 19:55 15.01.2020
723 Rain 7 997 70 10000 12.9 220 19:37 15.01.2020
724 Rain 7 997 70 10000 12.9 220 19:18 15.01.2020
725 Rain 7 996 70 10000 14.9 220 18:56 15.01.2020
726 Rain 7 995 75 10000 14.4 220 18:38 15.01.2020
727 Rain 7 995 75 10000 14.4 220 18:19 15.01.2020
728 Rain 7 995 75 10000 14.4 220 18:19 15.01.2020
729 Rain 7 995 75 10000 14.4 220 18:19 15.01.2020
730 Rain 7 994 75 10000 15.4 220 17:55 15.01.2020
731 Rain 7 994 81 10000 14.9 220 17:37 15.01.2020
732 Rain 7 994 81 10000 14.9 220 17:18 15.01.2020
733 Rain 7 993 87 9000 13.4 220 16:40 15.01.2020
734 Rain 7 993 87 9000 13.4 220 16:21 15.01.2020
735 Rain 7 993 87 7000 12.9 220 15:57 15.01.2020
736 Clouds 7 992 75 10000 12.9 210 15:39 15.01.2020
737 Clouds 7 992 75 10000 12.9 210 15:18 15.01.2020
738 Rain 7 992 75 10000 12.9 220 14:43 15.01.2020
739 Clouds 7 991 75 10000 14.4 220 14:20 15.01.2020
740 Clouds 7 991 70 10000 14.9 210 13:46 15.01.2020
741 Clouds 7 990 75 10000 15.4 220 13:26 15.01.2020
742 Clouds 7 990 75 10000 13.4 210 12:59 15.01.2020
743 Clouds 7 990 75 10000 13.4 210 12:39 15.01.2020
744 Clouds 6 989 75 10000 13.9 220 12:19 15.01.2020
745 Clouds 6 989 75 10000 13.9 220 12:19 15.01.2020
746 Clouds 6 989 75 10000 14.4 210 11:56 15.01.2020
747 Clouds 6 989 75 10000 12.3 210 11:37 15.01.2020
748 Clouds 6 989 75 10000 12.3 210 11:19 15.01.2020
749 Clouds 5 988 75 10000 13.9 220 10:43 15.01.2020
750 Clouds 5 988 75 10000 13.4 220 10:25 15.01.2020
751 Clouds 5 988 75 10000 11.8 220 09:44 15.01.2020
752 Clouds 5 987 75 10000 11.8 220 09:23 15.01.2020
753 Clouds 5 987 75 10000 12.9 210 08:56 15.01.2020
754 Clouds 5 986 75 10000 11.3 210 08:38 15.01.2020
755 Clouds 5 986 75 10000 11.3 210 08:19 15.01.2020
756 Clouds 5 986 75 10000 13.9 210 07:51 15.01.2020
757 Clouds 5 986 80 10000 12.3 210 07:31 15.01.2020
758 Clouds 5 986 80 10000 12.3 210 06:45 15.01.2020
759 Clouds 4 985 80 10000 11.3 210 06:19 15.01.2020
760 Clouds 4 985 75 10000 12.3 210 04:36 15.01.2020
761 Clouds 4 984 75 10000 12.3 220 02:32 15.01.2020
762 Clouds 4 984 75 10000 11.3 220 01:27 15.01.2020
763 Clouds 4 983 75 10000 11.3 210 00:45 15.01.2020
764 Clouds 4 983 75 10000 11.3 210 00:26 15.01.2020
765 Clouds 4 982 75 10000 10.3 210 23:48 14.01.2020
766 Clouds 4 982 75 10000 11.3 210 23:29 14.01.2020
767 Clouds 4 982 80 10000 10.3 210 22:59 14.01.2020
768 Clouds 4 982 80 10000 10.3 210 22:40 14.01.2020
769 Clouds 4 982 75 10000 10.3 210 22:19 14.01.2020
770 Clouds 4 981 75 10000 9.8 220 21:58 14.01.2020
771 Clouds 4 981 80 10000 6.7 230 21:39 14.01.2020
772 Clouds 4 981 80 10000 6.7 230 21:20 14.01.2020
773 Clouds 4 980 86 10000 6.7 220 20:56 14.01.2020
774 Snow 4 979 80 10000 6.7 220 20:38 14.01.2020
775 Snow 4 979 80 10000 6.7 220 20:19 14.01.2020
776 Snow 4 979 80 10000 6.7 220 19:55 14.01.2020
777 Rain 4 979 80 10000 7.2 220 19:37 14.01.2020
778 Rain 4 979 80 10000 7.2 220 19:18 14.01.2020
779 Rain 4 979 86 10000 5.7 210 18:41 14.01.2020
780 Rain 4 978 93 10000 4.6 190 18:20 14.01.2020
781 Rain 4 978 93 10000 4.6 190 17:58 14.01.2020
782 Rain 3 979 93 10000 5.1 190 17:37 14.01.2020
783 Rain 4 979 93 10000 5.1 190 17:18 14.01.2020
784 Rain 4 979 86 10000 4.1 180 16:44 14.01.2020
785 Rain 4 979 86 10000 3.6 180 16:23 14.01.2020
786 Rain 4 979 86 10000 4.1 180 15:58 14.01.2020
787 Rain 4 979 80 10000 6.2 180 15:40 14.01.2020
788 Rain 4 979 80 10000 6.2 180 15:19 14.01.2020
789 Rain 5 980 80 10000 7.2 190 14:45 14.01.2020
790 Clouds 5 980 80 10000 7.2 190 14:21 14.01.2020
791 Rain 6 981 75 10000 8.7 200 13:57 14.01.2020
792 Clouds 6 982 75 10000 8.7 190 13:38 14.01.2020
793 Clouds 6 982 75 10000 8.7 190 13:18 14.01.2020
794 Clouds 6 982 75 10000 8.7 190 13:18 14.01.2020
795 Clouds 5 982 80 10000 7.2 190 12:42 14.01.2020
796 Rain 5 982 80 10000 8.2 200 12:21 14.01.2020
797 Clouds 5 982 80 10000 6.7 190 11:55 14.01.2020
798 Clouds 5 983 80 10000 7.2 210 11:36 14.01.2020
799 Clouds 5 983 80 10000 7.2 210 11:18 14.01.2020
800 Rain 4 982 75 10000 10.3 210 10:40 14.01.2020
801 Rain 4 982 75 10000 10.3 210 10:20 14.01.2020
802 Clouds 4 982 75 10000 10.8 210 09:58 14.01.2020
803 Clouds 4 982 75 10000 10.8 210 09:58 14.01.2020
804 Clouds 4 982 75 10000 10.8 210 09:40 14.01.2020
805 Clouds 4 983 75 10000 9.3 210 09:21 14.01.2020
806 Clouds 4 983 75 10000 11.3 210 08:48 14.01.2020
807 Clouds 4 982 77 10000 11.3 210 08:25 14.01.2020
808 Snow 4 982 75 10000 12.3 210 07:56 14.01.2020
809 Clouds 4 982 75 10000 11.3 210 07:33 14.01.2020
810 Clouds 4 982 75 10000 12.3 220 06:56 14.01.2020
811 Clouds 4 982 71 10000 11.8 220 06:33 14.01.2020
812 Clouds 4 982 71 10000 13.4 220 05:27 14.01.2020
813 Rain 4 981 75 10000 12.3 220 03:52 14.01.2020
814 Clouds 5 980 75 10000 13.4 220 02:50 14.01.2020
815 Clouds 5 980 75 10000 12.9 220 01:55 14.01.2020
816 Snow 5 978 75 10000 11.3 210 00:51 14.01.2020
817 Rain 6 978 75 10000 13.9 220 00:33 14.01.2020
818 Rain 5 978 75 10000 13.9 220 00:33 14.01.2020
819 Clouds 6 978 75 10000 14.4 220 23:55 13.01.2020
820 Clouds 6 977 75 10000 13.4 210 23:37 13.01.2020
821 Clouds 7 977 75 10000 13.4 210 23:18 13.01.2020
822 Clouds 7 977 75 10000 13.4 210 23:18 13.01.2020
823 Rain 7 977 81 10000 14.9 210 22:42 13.01.2020
824 Rain 7 977 75 10000 14.9 210 22:21 13.01.2020
825 Clouds 7 976 75 10000 14.4 200 21:57 13.01.2020
826 Rain 7 976 81 10000 13.4 200 21:38 13.01.2020
827 Rain 7 976 81 10000 13.4 200 21:38 13.01.2020
828 Rain 7 976 81 10000 13.4 200 21:19 13.01.2020
829 Clouds 7 976 81 10000 15.4 210 20:58 13.01.2020
830 Clouds 7 976 81 10000 15.4 210 20:40 13.01.2020
831 Rain 7 975 75 10000 13.9 200 20:22 13.01.2020
832 Rain 7 975 81 5000 11.8 190 19:58 13.01.2020
833 Rain 7 975 81 5000 11.8 190 19:58 13.01.2020
834 Rain 7 975 81 5000 11.8 190 19:39 13.01.2020
835 Clouds 7 975 70 10000 12.3 190 19:19 13.01.2020
836 Clouds 7 975 70 10000 13.4 200 18:56 13.01.2020
837 Rain 7 975 81 10000 12.3 200 18:37 13.01.2020
838 Rain 7 975 81 10000 12.3 200 18:37 13.01.2020
839 Rain 7 975 81 10000 12.3 200 18:18 13.01.2020
840 Rain 7 976 87 3800 14.9 160 17:40 13.01.2020
841 Rain 7 976 87 3800 14.9 160 17:40 13.01.2020
842 Rain 7 976 87 3800 14.9 160 17:22 13.01.2020
843 Rain 6 977 87 5000 12.9 160 16:56 13.01.2020
844 Rain 6 977 86 0 12.52 160 16:37 13.01.2020
845 Rain 6 979 81 0 12.52 160 16:19 13.01.2020
846 Rain 7 981 81 0 9.39 160 15:43 13.01.2020
847 Rain 7 983 81 0 11.18 160 15:22 13.01.2020
848 Rain 7 985 86 0 3.58 245 14:57 13.01.2020
849 Rain 7 988 81 0 3.58 338 14:37 13.01.2020
850 Clouds 7 987 87 0 8.49 150 14:18 13.01.2020
851 Clouds 7 989 75 0 9.39 140 13:41 13.01.2020
852 Clouds 7 993 84 0 3.13 338 13:23 13.01.2020
853 Rain 7 990 75 0 7.15 140 12:58 13.01.2020
854 Clouds 7 995 75 10000 5.7 140 12:40 13.01.2020
855 Clouds 7 995 75 10000 5.7 140 12:22 13.01.2020
856 Clouds 7 995 75 10000 5.7 140 11:56 13.01.2020
857 Clouds 7 995 75 10000 7.7 150 11:37 13.01.2020
858 Clouds 6 995 75 10000 7.7 150 11:18 13.01.2020
859 Clouds 6 997 81 10000 4.1 110 10:55 13.01.2020
860 Clouds 6 998 80 10000 4.6 110 10:36 13.01.2020
861 Clouds 5 998 80 10000 4.6 110 10:18 13.01.2020
862 Clouds 5 1000 80 10000 6.7 160 09:40 13.01.2020
863 Clouds 4 1000 80 10000 6.7 160 09:22 13.01.2020
864 Clouds 4 1000 80 10000 6.2 160 08:42 13.01.2020
865 Clouds 4 1001 80 10000 7.2 170 08:21 13.01.2020
866 Clouds 4 1002 80 10000 8.2 180 07:57 13.01.2020
867 Clouds 4 1003 86 10000 4.6 170 07:38 13.01.2020
868 Clouds 4 1003 86 10000 3.6 150 06:55 13.01.2020
869 Clouds 4 1004 80 10000 6.2 170 06:36 13.01.2020
870 Clouds 4 1004 80 10000 6.2 170 06:36 13.01.2020
871 Clouds 4 1005 86 10000 6.2 180 05:36 13.01.2020
872 Clouds 4 1006 86 10000 6.2 210 04:25 13.01.2020
873 Clouds 4 1007 86 10000 5.7 210 03:31 13.01.2020
874 Clouds 4 1007 75 10000 8.2 230 02:47 13.01.2020
875 Clouds 4 1008 86 10000 6.2 220 02:29 13.01.2020
876 Clouds 4 1008 86 10000 6.2 210 01:23 13.01.2020
877 Clouds 4 1008 86 10000 6.2 220 00:42 13.01.2020
878 Clouds 4 1009 86 10000 6.7 220 00:24 13.01.2020
879 Clouds 4 1009 81 10000 6.7 220 23:55 12.01.2020
880 Clouds 4 1009 86 10000 7.2 210 23:36 12.01.2020
881 Clouds 4 1009 86 10000 7.2 210 23:18 12.01.2020
882 Clouds 4 1009 86 10000 7.2 210 23:18 12.01.2020
883 Clouds 4 1010 86 10000 7.2 210 22:42 12.01.2020
884 Clouds 4 1010 86 10000 4.1 220 22:24 12.01.2020
885 Clouds 4 1010 80 10000 4.6 220 21:57 12.01.2020
886 Clouds 4 1010 80 10000 4.6 220 21:38 12.01.2020
887 Clouds 4 1010 80 10000 4.6 220 21:19 12.01.2020
888 Clouds 4 1010 80 10000 3.1 220 20:56 12.01.2020
889 Clouds 4 1010 80 10000 4.6 240 20:38 12.01.2020
890 Clouds 4 1010 80 10000 4.6 240 20:20 12.01.2020
891 Clouds 4 1010 80 10000 8.2 240 19:56 12.01.2020
892 Clouds 4 1010 86 10000 3.1 250 19:37 12.01.2020
893 Clouds 4 1010 86 10000 3.1 250 19:18 12.01.2020
894 Rain 4 1011 86 10000 5.1 250 18:57 12.01.2020
895 Rain 4 1011 86 10000 5.1 250 18:57 12.01.2020
896 Rain 4 1011 86 10000 5.1 250 18:39 12.01.2020
897 Clouds 4 1010 86 10000 7.2 230 18:21 12.01.2020
898 Rain 4 1011 80 10000 9.3 230 17:54 12.01.2020
899 Clouds 4 1010 86 10000 5.7 250 17:36 12.01.2020
900 Clouds 4 1010 86 10000 5.7 250 17:18 12.01.2020
901 Rain 4 1010 86 8000 4.6 260 16:54 12.01.2020
902 Rain 4 1010 80 10000 9.3 230 16:36 12.01.2020
903 Rain 5 1010 80 10000 9.3 230 16:18 12.01.2020
904 Clouds 5 1010 75 10000 7.2 240 15:40 12.01.2020
905 Clouds 5 1010 75 10000 7.2 240 15:21 12.01.2020
906 Rain 5 1010 80 10000 10.8 250 14:44 12.01.2020
907 Clouds 6 1010 75 10000 5.1 250 14:25 12.01.2020
908 Clouds 6 1010 87 10000 5.7 250 13:58 12.01.2020
909 Clouds 6 1010 81 10000 5.7 250 13:40 12.01.2020
910 Clouds 6 1010 81 10000 5.7 250 13:22 12.01.2020
911 Rain 5 1010 81 10000 6.7 240 12:58 12.01.2020
912 Rain 5 1010 86 10000 6.7 260 12:38 12.01.2020
913 Rain 5 1010 86 10000 6.7 260 12:19 12.01.2020
914 Rain 5 1009 86 10000 5.1 260 11:42 12.01.2020
915 Rain 5 1009 93 10000 6.2 270 11:22 12.01.2020
916 Rain 5 1008 81 10000 5.7 250 10:58 12.01.2020
917 Clouds 5 1008 87 10000 4.6 250 10:40 12.01.2020
918 Clouds 5 1008 87 10000 4.6 250 10:20 12.01.2020
919 Rain 5 1007 87 10000 3.6 250 09:43 12.01.2020
920 Rain 5 1007 93 9000 3.1 240 09:24 12.01.2020
921 Drizzle 4 1006 93 4700 2.1 230 08:48 12.01.2020
922 Rain 4 1007 93 10000 3.1 220 08:25 12.01.2020
923 Clouds 3 1007 100 10000 0.5 0 07:56 12.01.2020
924 Clouds 3 1007 100 10000 1.5 70 07:37 12.01.2020
925 Clouds 4 1007 100 10000 1.5 70 07:19 12.01.2020
926 Clouds 4 1008 93 10000 0.5 0 06:38 12.01.2020
927 Clouds 4 1008 93 10000 1.5 100 05:58 12.01.2020
928 Clouds 4 1008 93 10000 1 0 04:56 12.01.2020
929 Clouds 4 1009 86 10000 2.6 270 03:43 12.01.2020
930 Clouds 4 1009 93 10000 4.1 210 02:48 12.01.2020
931 Clouds 5 1009 93 10000 3.1 190 02:24 12.01.2020
932 Clouds 5 1009 86 10000 1 0 01:34 12.01.2020
933 Clouds 5 1008 86 10000 2.6 270 00:46 12.01.2020
934 Clouds 5 1008 86 10000 2.6 270 00:22 12.01.2020
935 Clouds 5 1008 87 10000 6.2 230 23:57 11.01.2020
936 Clouds 5 1008 93 10000 5.1 230 23:39 11.01.2020
937 Rain 5 1008 93 10000 5.1 230 23:18 11.01.2020
938 Rain 6 1008 93 10000 3.6 250 22:56 11.01.2020
939 Rain 6 1008 93 10000 5.1 220 22:37 11.01.2020
940 Rain 6 1008 93 10000 5.1 220 22:19 11.01.2020
941 Clouds 6 1007 93 10000 6.2 220 21:44 11.01.2020
942 Rain 7 1007 93 10000 4.1 210 21:19 11.01.2020
943 Rain 7 1006 87 9000 6.2 270 20:56 11.01.2020
944 Rain 7 1006 87 10000 5.7 250 20:38 11.01.2020
945 Rain 7 1006 87 10000 5.7 250 20:19 11.01.2020
946 Rain 8 1006 87 9000 6.7 260 19:56 11.01.2020
947 Rain 8 1005 93 8000 6.7 250 19:38 11.01.2020
948 Rain 8 1005 93 8000 6.7 250 19:20 11.01.2020
949 Rain 8 1005 93 4900 6.7 250 18:55 11.01.2020
950 Rain 8 1005 93 10000 5.7 240 18:36 11.01.2020
951 Rain 8 1005 93 10000 5.7 240 18:36 11.01.2020
952 Rain 8 1005 93 10000 5.7 240 18:18 11.01.2020
953 Rain 9 1004 87 8000 9.3 220 17:56 11.01.2020
954 Rain 9 1004 87 10000 9.8 220 17:37 11.01.2020
955 Rain 9 1004 87 10000 9.8 220 17:18 11.01.2020
956 Rain 9 1004 93 10000 7.2 220 16:43 11.01.2020
957 Rain 9 1004 93 10000 6.7 230 16:23 11.01.2020
958 Rain 9 1004 93 10000 6.7 220 15:43 11.01.2020
959 Rain 9 1004 93 10000 6.7 220 15:24 11.01.2020
960 Rain 9 1004 93 10000 8.2 220 14:59 11.01.2020
961 Rain 9 1003 93 10000 6.2 220 14:41 11.01.2020
962 Rain 9 1003 93 10000 6.2 220 14:22 11.01.2020
963 Rain 9 1004 93 10000 6.7 230 13:55 11.01.2020
964 Rain 9 1003 93 9000 5.7 220 13:37 11.01.2020
965 Rain 9 1003 93 9000 5.7 220 13:18 11.01.2020
966 Rain 9 1003 93 10000 3.6 240 12:44 11.01.2020
967 Rain 10 1003 93 6000 5.7 250 12:26 11.01.2020
968 Rain 11 1002 93 5000 8.2 260 11:55 11.01.2020
969 Rain 11 1001 87 10000 15.9 210 11:37 11.01.2020
970 Rain 11 1001 87 10000 15.9 210 11:18 11.01.2020
971 Rain 11 1001 87 10000 15.9 210 11:18 11.01.2020
972 Rain 11 1001 87 5000 13.9 200 10:43 11.01.2020
973 Rain 11 1001 87 5000 13.9 200 10:24 11.01.2020
974 Clouds 11 1002 87 10000 13.9 200 09:39 11.01.2020
975 Clouds 11 1002 87 10000 13.9 200 09:21 11.01.2020
976 Clouds 11 1002 87 10000 13.9 200 09:21 11.01.2020
977 Clouds 11 1002 81 10000 14.4 200 08:43 11.01.2020
978 Rain 11 1003 87 10000 14.9 200 08:23 11.01.2020
979 Drizzle 11 1003 93 4700 13.9 200 07:45 11.01.2020
980 Rain 11 1003 93 2400 15.4 200 07:26 11.01.2020
981 Clouds 11 1003 87 8000 14.9 200 06:56 11.01.2020
982 Rain 10 1004 93 4600 13.9 200 06:22 11.01.2020
983 Rain 10 1005 87 3800 15.9 190 04:48 11.01.2020
984 Rain 10 1005 87 10000 14.4 190 04:30 11.01.2020
985 Rain 10 1006 93 2900 13.9 190 03:49 11.01.2020
986 Rain 10 1007 87 7000 13.4 200 02:41 11.01.2020
987 Rain 10 1007 87 10000 12.9 200 01:44 11.01.2020
988 Rain 9 1008 87 10000 12.9 200 01:20 11.01.2020
989 Drizzle 9 1009 93 4200 12.3 200 00:46 11.01.2020
990 Rain 9 1009 87 4500 13.9 200 00:20 11.01.2020
991 Rain 8 1009 87 10000 14.4 200 23:41 10.01.2020
992 Rain 8 1009 87 10000 14.4 200 23:22 10.01.2020
993 Rain 8 1010 87 3600 12.9 200 22:59 10.01.2020
994 Rain 8 1010 87 3600 12.9 200 22:40 10.01.2020
995 Rain 8 1010 87 4200 8.7 190 22:21 10.01.2020
996 Rain 7 1011 93 6000 8.2 190 21:57 10.01.2020
997 Rain 7 1012 93 3700 11.8 180 21:38 10.01.2020
998 Rain 7 1012 93 3700 11.8 180 21:19 10.01.2020
999 Rain 7 1013 87 4100 10.3 190 20:43 10.01.2020
1000 Rain 7 1013 87 7000 10.3 190 20:24 10.01.2020
1001 Rain 7 1013 87 7000 10.3 190 20:24 10.01.2020
1002 Rain 6 1013 87 8000 8.2 190 19:59 10.01.2020
1003 Rain 6 1014 87 10000 7.7 190 19:38 10.01.2020
1004 Rain 6 1014 87 10000 7.7 190 19:19 10.01.2020
1005 Rain 6 1015 81 10000 9.3 190 18:43 10.01.2020
1006 Rain 6 1015 75 10000 8.2 180 18:19 10.01.2020
1007 Clouds 6 1016 75 10000 9.8 190 17:58 10.01.2020
1008 Clouds 6 1016 81 10000 6.2 170 17:39 10.01.2020
1009 Clouds 6 1016 81 10000 6.2 170 17:20 10.01.2020
1010 Clouds 5 1016 81 10000 6.2 180 16:58 10.01.2020
1011 Clouds 5 1017 75 10000 8.7 180 16:39 10.01.2020
1012 Clouds 5 1017 75 10000 8.7 180 16:20 10.01.2020
1013 Clouds 5 1017 81 10000 5.1 190 15:56 10.01.2020
1014 Clouds 5 1017 81 10000 4.1 190 15:37 10.01.2020
1015 Clouds 5 1017 81 10000 4.1 190 15:18 10.01.2020
1016 Clouds 5 1018 87 10000 6.7 200 14:55 10.01.2020
1017 Clouds 5 1018 93 8000 0.5 0 14:37 10.01.2020
1018 Clouds 5 1018 93 8000 0.5 0 14:18 10.01.2020
1019 Clouds 5 1019 100 6000 1 0 13:44 10.01.2020
1020 Clouds 5 1019 100 10000 1 0 13:26 10.01.2020
1021 Mist 4 1019 100 5000 2.1 50 12:59 10.01.2020
1022 Mist 4 1019 100 5000 2.1 10 12:39 10.01.2020
1023 Mist 3 1019 100 5000 2.1 10 12:19 10.01.2020
1024 Mist 3 1019 100 5000 2.1 10 12:19 10.01.2020
1025 Mist 3 1019 100 5000 1 0 11:56 10.01.2020
1026 Mist 2 1019 100 5000 1.5 0 11:38 10.01.2020
1027 Mist 2 1019 100 5000 1.5 0 11:18 10.01.2020
1028 Mist 2 1019 94 5000 1 0 10:57 10.01.2020
1029 Mist 1 1019 94 5000 1.5 0 10:36 10.01.2020
1030 Mist 1 1019 94 5000 1.5 0 10:18 10.01.2020
1031 Mist 1 1018 94 3300 1.5 230 09:42 10.01.2020
1032 Mist 1 1018 100 4600 1 0 09:23 10.01.2020
1033 Mist 2 1018 94 5000 2.1 260 08:43 10.01.2020
1034 Mist 1 1018 93 4700 2.1 220 08:24 10.01.2020
1035 Mist 1 1017 93 4500 1.5 230 07:46 10.01.2020
1036 Mist 1 1017 93 5000 1 0 07:28 10.01.2020
1037 Drizzle 1 1016 93 4000 1.5 50 06:50 10.01.2020
1038 Mist 0 1016 93 5000 1.5 90 06:26 10.01.2020
1039 Mist 0 1016 93 4900 1 80 05:51 10.01.2020
1040 Mist -1 1015 100 4500 1 0 03:46 10.01.2020
1041 Fog -2 1014 100 500 0.5 0 03:27 10.01.2020
1042 Fog -1 1014 100 150 0.5 0 02:50 10.01.2020
1043 Fog -1 1014 92 200 1 0 01:47 10.01.2020
1044 Fog -1 1014 92 200 1 0 01:47 10.01.2020
1045 Fog -1 1013 100 400 0.5 0 01:28 10.01.2020
1046 Fog -1 1013 100 5000 1 290 00:44 10.01.2020
1047 Fog -1 1012 100 5000 1 270 23:58 09.01.2020
1048 Fog -1 1011 100 10000 1 0 23:39 09.01.2020
1049 Fog 0 1011 100 10000 1 0 23:20 09.01.2020
1050 Clear 0 1011 92 10000 0.5 0 22:57 09.01.2020
1051 Fog 0 1011 90 10000 0.5 0 22:39 09.01.2020
1052 Fog 0 1011 90 10000 0.5 0 22:19 09.01.2020
1053 Clear 1 1010 90 10000 1.1 293 21:57 09.01.2020
1054 Clouds 0 1010 90 10000 0.5 0 21:38 09.01.2020
1055 Clouds 1 1010 90 10000 0.5 0 21:19 09.01.2020
1056 Clouds 1 1010 90 10000 1 280 20:57 09.01.2020
1057 Clouds 1 1010 90 10000 1 280 20:39 09.01.2020
1058 Clouds 1 1009 92 10000 0.5 320 20:19 09.01.2020
1059 Clouds 1 1009 92 10000 0.5 320 19:57 09.01.2020
1060 Clouds 1 1009 92 10000 0.5 0 19:37 09.01.2020
1061 Clouds 1 1008 92 10000 2.1 250 19:19 09.01.2020
1062 Clouds 1 1008 92 10000 2.6 220 18:55 09.01.2020
1063 Clouds 1 1008 92 10000 2.6 220 18:36 09.01.2020
1064 Clouds 2 1007 93 10000 1.5 250 18:18 09.01.2020
1065 Clouds 2 1007 86 10000 1.5 310 17:41 09.01.2020
1066 Clouds 3 1006 86 10000 1 280 17:18 09.01.2020
1067 Clouds 3 1006 86 10000 1.5 280 16:49 09.01.2020
1068 Clouds 4 1006 86 10000 2.1 280 16:24 09.01.2020
1069 Clouds 4 1006 93 10000 2.1 270 15:57 09.01.2020
1070 Clouds 4 1006 93 10000 2.1 270 15:57 09.01.2020
1071 Clouds 4 1006 93 10000 2.1 270 15:39 09.01.2020
1072 Clouds 4 1005 86 10000 0.5 0 15:18 09.01.2020
1073 Clouds 4 1005 80 10000 0.5 0 14:42 09.01.2020
1074 Clouds 4 1005 93 10000 2.1 230 14:21 09.01.2020
1075 Clouds 4 1005 86 10000 1.5 210 13:57 09.01.2020
1076 Clouds 4 1005 86 10000 1.5 210 13:39 09.01.2020
1077 Clouds 4 1004 80 10000 2.1 110 13:20 09.01.2020
1078 Clouds 4 1004 80 10000 2.1 110 12:58 09.01.2020
1079 Clouds 4 1005 86 10000 2.1 120 12:38 09.01.2020
1080 Rain 3 1005 93 10000 2.6 80 12:19 09.01.2020
1081 Rain 3 1005 93 9000 3.1 30 11:55 09.01.2020
1082 Rain 3 1005 93 9000 3.1 30 11:37 09.01.2020
1083 Rain 3 1005 93 10000 2.6 350 11:19 09.01.2020
1084 Rain 3 1005 93 7000 3.1 10 10:42 09.01.2020
1085 Rain 3 1005 93 6000 2.1 320 10:22 09.01.2020
1086 Rain 3 1004 93 8000 1.5 0 09:49 09.01.2020
1087 Rain 3 1004 93 8000 1.5 0 09:26 09.01.2020
1088 Rain 3 1004 93 6000 1 0 09:00 09.01.2020
1089 Rain 3 1004 93 6000 0.5 0 08:41 09.01.2020
1090 Rain 3 1004 93 8000 0.5 70 08:22 09.01.2020
1091 Rain 3 1004 93 8000 0.5 70 07:57 09.01.2020
1092 Rain 3 1004 93 10000 1 10 07:38 09.01.2020
1093 Clouds 3 1005 93 10000 1.5 10 07:19 09.01.2020
1094 Clouds 3 1005 93 10000 1.5 0 06:38 09.01.2020
1095 Clouds 3 1006 93 10000 2.1 80 06:18 09.01.2020
1096 Snow 2 1006 93 10000 2.1 80 05:40 09.01.2020
1097 Clouds 3 1008 93 10000 2.6 70 04:42 09.01.2020
1098 Clouds 3 1010 93 10000 3.1 70 03:28 09.01.2020
1099 Clouds 3 1010 93 10000 3.1 50 02:47 09.01.2020
1100 Clouds 3 1015 90 0 1.32 131 01:53 09.01.2020
1101 Clouds 3 1013 93 10000 2.6 80 01:33 09.01.2020
1102 Clouds 3 1013 93 10000 2.6 80 00:40 09.01.2020
1103 Clouds 3 1013 93 10000 2.6 60 00:19 09.01.2020
1104 Clouds 3 1014 93 10000 3.1 70 23:41 08.01.2020
1105 Clouds 3 1014 100 10000 2.1 50 23:23 08.01.2020
1106 Clouds 3 1014 93 10000 2.1 40 22:56 08.01.2020
1107 Clouds 2 1014 93 10000 2.1 40 22:38 08.01.2020
1108 Clouds 2 1014 93 10000 1.5 360 22:19 08.01.2020
1109 Clouds 3 1015 86 10000 1.5 0 21:55 08.01.2020
1110 Clouds 3 1015 86 10000 1.5 0 21:37 08.01.2020
1111 Clouds 3 1015 86 10000 3.1 260 21:18 08.01.2020
1112 Clouds 3 1015 86 10000 4.1 240 20:41 08.01.2020
1113 Rain 4 1016 86 10000 4.6 230 20:21 08.01.2020
1114 Rain 4 1016 86 10000 4.6 230 19:59 08.01.2020
1115 Rain 4 1016 86 10000 5.7 210 19:38 08.01.2020
1116 Rain 4 1017 86 10000 5.1 230 19:20 08.01.2020
1117 Rain 4 1017 86 10000 5.1 230 18:58 08.01.2020
1118 Rain 4 1017 86 10000 4.6 230 18:39 08.01.2020
1119 Rain 4 1017 80 10000 7.7 240 18:19 08.01.2020
1120 Rain 4 1017 86 10000 7.2 220 17:57 08.01.2020
1121 Rain 4 1017 86 10000 7.2 220 17:38 08.01.2020
1122 Rain 4 1016 86 10000 5.1 250 17:19 08.01.2020
1123 Rain 4 1016 86 10000 5.1 250 17:19 08.01.2020
1124 Clouds 4 1016 86 10000 6.7 220 16:55 08.01.2020
1125 Clouds 5 1016 86 10000 6.7 220 16:37 08.01.2020
1126 Rain 5 1016 86 10000 8.7 240 16:18 08.01.2020
1127 Rain 5 1016 93 10000 7.7 230 15:44 08.01.2020
1128 Rain 5 1016 93 10000 7.7 230 15:44 08.01.2020
1129 Rain 5 1016 81 10000 5.7 220 15:21 08.01.2020
1130 Rain 5 1016 81 10000 5.7 220 14:58 08.01.2020
1131 Rain 6 1016 81 10000 7.7 230 14:40 08.01.2020
1132 Rain 6 1016 81 10000 6.2 230 14:20 08.01.2020
1133 Rain 5 1016 81 10000 6.2 220 13:41 08.01.2020
1134 Rain 6 1016 81 10000 6.2 220 13:21 08.01.2020
1135 Rain 6 1016 81 10000 6.2 220 13:21 08.01.2020
1136 Rain 5 1016 86 10000 7.7 210 12:54 08.01.2020
1137 Rain 5 1016 86 10000 7.7 210 12:36 08.01.2020
1138 Rain 5 1016 81 10000 6.7 230 12:18 08.01.2020
1139 Rain 5 1015 86 10000 4.1 200 11:47 08.01.2020
1140 Rain 5 1015 86 10000 4.6 220 11:19 08.01.2020
1141 Rain 5 1014 86 10000 6.7 210 10:57 08.01.2020
1142 Rain 5 1014 86 10000 6.7 210 10:39 08.01.2020
1143 Rain 4 1014 80 10000 6.2 220 10:19 08.01.2020
1144 Rain 5 1014 80 10000 6.7 220 09:42 08.01.2020
1145 Rain 5 1013 80 10000 6.2 220 09:20 08.01.2020
1146 Rain 5 1012 75 10000 6.7 240 08:57 08.01.2020
1147 Rain 5 1012 75 10000 6.7 240 08:37 08.01.2020
1148 Rain 5 1012 80 10000 5.7 230 08:19 08.01.2020
1149 Rain 5 1012 81 10000 8.7 220 07:50 08.01.2020
1150 Rain 5 1012 81 10000 8.7 220 07:32 08.01.2020
1151 Rain 5 1011 75 10000 6.7 240 06:49 08.01.2020
1152 Rain 6 1011 75 10000 6.7 240 06:25 08.01.2020
1153 Rain 6 1010 81 10000 6.2 230 05:53 08.01.2020
1154 Clouds 6 1010 81 10000 5.1 220 04:59 08.01.2020
1155 Clouds 6 1009 75 10000 7.2 230 04:26 08.01.2020
1156 Rain 7 1007 81 10000 5.1 250 02:45 08.01.2020
1157 Rain 7 1007 81 10000 5.1 250 02:45 08.01.2020
1158 Rain 8 1006 70 10000 8.7 250 02:23 08.01.2020
1159 Rain 8 1006 76 10000 8.2 250 01:50 08.01.2020
1160 Clouds 8 1005 70 10000 7.7 240 01:23 08.01.2020
1161 Clouds 9 1004 76 10000 7.2 250 00:38 08.01.2020
1162 Rain 9 1004 81 10000 9.8 250 00:20 08.01.2020
1163 Rain 10 1003 81 10000 10.3 250 23:43 07.01.2020
1164 Rain 10 1002 76 7000 13.9 240 23:20 07.01.2020
1165 Rain 10 1002 76 7000 13.9 240 23:20 07.01.2020
1166 Clouds 11 1001 71 10000 14.4 240 22:40 07.01.2020
1167 Clouds 11 1001 81 8000 11.3 220 22:20 07.01.2020
1168 Clouds 11 1000 81 9000 11.8 220 21:57 07.01.2020
1169 Clouds 11 1000 81 9000 11.8 220 21:38 07.01.2020
1170 Clouds 11 1000 81 10000 10.8 220 21:20 07.01.2020
1171 Clouds 11 1000 81 10000 10.8 220 20:55 07.01.2020
1172 Rain 12 999 71 10000 12.3 240 20:36 07.01.2020
1173 Rain 12 999 87 10000 11.8 230 20:18 07.01.2020
1174 Rain 12 998 93 3000 10.8 230 19:38 07.01.2020
1175 Drizzle 12 998 93 3500 11.8 220 19:20 07.01.2020
1176 Drizzle 13 998 93 3500 11.8 220 18:58 07.01.2020
1177 Rain 13 998 87 10000 10.8 230 18:40 07.01.2020
1178 Rain 13 997 87 10000 16.5 210 18:19 07.01.2020
1179 Clouds 13 997 87 10000 15.4 200 17:58 07.01.2020
1180 Clouds 13 997 87 10000 15.4 200 17:39 07.01.2020
1181 Rain 12 997 87 10000 15.9 200 17:20 07.01.2020
1182 Drizzle 12 997 87 5000 16.5 200 16:56 07.01.2020
1183 Drizzle 12 997 87 5000 16.5 200 16:37 07.01.2020
1184 Clouds 12 997 87 10000 13.9 200 16:18 07.01.2020
1185 Rain 12 998 87 10000 13.9 200 15:55 07.01.2020
1186 Rain 12 998 87 10000 13.9 200 15:36 07.01.2020
1187 Clouds 12 999 87 10000 13.9 200 15:18 07.01.2020
1188 Clouds 12 1000 87 10000 13.9 200 14:41 07.01.2020
1189 Clouds 12 1001 87 10000 11.3 210 14:22 07.01.2020
1190 Clouds 12 1001 87 10000 11.3 210 13:56 07.01.2020
1191 Clouds 12 1000 87 10000 12.3 200 13:37 07.01.2020
1192 Rain 11 1001 93 10000 12.9 200 13:18 07.01.2020
1193 Rain 11 1002 87 10000 12.3 200 12:40 07.01.2020
1194 Rain 11 1002 87 10000 12.3 200 12:40 07.01.2020
1195 Rain 11 1002 87 10000 12.3 200 12:40 07.01.2020
1196 Rain 11 1002 87 10000 13.9 190 12:19 07.01.2020
1197 Rain 10 1003 93 10000 10.3 190 11:43 07.01.2020
1198 Rain 10 1004 87 10000 11.3 190 11:23 07.01.2020
1199 Rain 10 1004 87 10000 11.3 190 10:58 07.01.2020
1200 Rain 10 1004 93 6000 10.3 180 10:39 07.01.2020
1201 Rain 10 1005 87 4900 10.3 190 10:21 07.01.2020
1202 Rain 9 1006 87 7000 8.7 190 09:55 07.01.2020
1203 Rain 9 1006 87 7000 8.7 190 09:37 07.01.2020
1204 Rain 9 1006 87 10000 5.1 200 09:19 07.01.2020
1205 Rain 8 1007 81 10000 4.6 190 08:41 07.01.2020
1206 Rain 8 1007 87 9000 6.7 190 08:18 07.01.2020
1207 Rain 8 1008 87 7000 7.2 200 07:49 07.01.2020
1208 Rain 8 1008 81 10000 8.2 180 07:23 07.01.2020
1209 Rain 8 1009 81 10000 7.7 200 06:50 07.01.2020
1210 Rain 8 1009 81 10000 7.7 200 06:30 07.01.2020
1211 Rain 7 1010 81 10000 9.3 200 05:41 07.01.2020
1212 Clouds 6 1012 87 10000 4.1 190 03:52 07.01.2020
1213 Clouds 6 1012 87 10000 4.1 190 03:52 07.01.2020
1214 Clouds 6 1012 87 10000 4.1 190 03:25 07.01.2020
1215 Clear 6 1013 87 10000 6.2 200 02:20 07.01.2020
1216 Clear 6 1012 87 10000 6.2 200 01:40 07.01.2020
1217 Clear 6 1012 87 10000 6.2 200 01:40 07.01.2020
1218 Clear 6 1012 87 10000 6.2 200 01:40 07.01.2020
1219 Clear 6 1012 87 10000 6.2 200 01:40 07.01.2020
1220 Clouds 6 1013 81 10000 7.7 220 00:59 07.01.2020
1221 Clear 6 1013 81 10000 7.2 200 00:21 07.01.2020
1222 Clear 6 1013 81 10000 5.1 200 23:57 06.01.2020
1223 Clear 6 1013 81 10000 5.1 200 23:38 06.01.2020
1224 Clear 6 1012 81 10000 5.1 230 23:20 06.01.2020
1225 Clear 6 1011 81 10000 7.2 240 22:44 06.01.2020
1226 Clear 6 1011 81 10000 7.2 240 22:44 06.01.2020
1227 Clear 6 1011 81 10000 6.7 240 22:25 06.01.2020
1228 Clear 6 1011 81 10000 6.7 240 21:59 06.01.2020
1229 Clouds 6 1010 81 10000 6.2 240 21:40 06.01.2020
1230 Clouds 6 1010 81 10000 7.7 240 21:21 06.01.2020
1231 Clouds 6 1010 81 10000 7.7 240 20:58 06.01.2020
1232 Clouds 6 1010 81 10000 7.7 230 20:40 06.01.2020
1233 Clouds 6 1009 81 10000 7.2 220 20:21 06.01.2020
1234 Rain 6 1008 87 10000 5.7 230 19:57 06.01.2020
1235 Rain 6 1008 87 10000 5.7 230 19:39 06.01.2020
1236 Rain 7 1008 81 10000 6.7 260 19:20 06.01.2020
1237 Rain 7 1007 87 10000 6.2 230 18:48 06.01.2020
1238 Rain 7 1006 87 10000 5.7 250 18:25 06.01.2020
1239 Rain 7 1006 87 10000 5.7 250 18:00 06.01.2020
1240 Rain 7 1006 81 10000 6.2 250 17:39 06.01.2020
1241 Rain 7 1006 81 10000 6.2 250 17:39 06.01.2020
1242 Rain 8 1005 81 10000 7.2 240 17:19 06.01.2020
1243 Rain 8 1004 81 10000 8.2 250 16:55 06.01.2020
1244 Rain 8 1004 81 10000 8.2 250 16:36 06.01.2020
1245 Clouds 8 1004 87 10000 7.2 250 16:18 06.01.2020
1246 Rain 8 1003 87 10000 6.2 250 15:42 06.01.2020
1247 Rain 9 1002 87 10000 7.7 250 15:20 06.01.2020
1248 Rain 9 1002 87 10000 7.7 250 14:59 06.01.2020
1249 Rain 9 1002 93 5000 9.8 240 14:40 06.01.2020
1250 Rain 9 1001 93 3800 12.3 200 14:20 06.01.2020
1251 Rain 9 1001 93 3800 12.3 200 13:57 06.01.2020
1252 Rain 9 1002 93 6000 13.4 200 13:37 06.01.2020
1253 Rain 9 1002 93 5000 12.9 200 13:19 06.01.2020
1254 Rain 9 1003 93 6000 11.3 190 12:43 06.01.2020
1255 Rain 9 1003 93 6000 10.8 190 12:20 06.01.2020
1256 Rain 9 1003 93 6000 10.8 190 11:58 06.01.2020
1257 Rain 9 1004 93 3800 10.8 190 11:39 06.01.2020
1258 Rain 9 1004 81 5000 12.3 190 11:20 06.01.2020
1259 Clouds 10 1004 76 10000 10.3 190 10:46 06.01.2020
1260 Clouds 9 1004 76 10000 10.3 190 10:28 06.01.2020
1261 Clouds 9 1006 76 10000 10.8 200 09:59 06.01.2020
1262 Clouds 9 1006 76 10000 10.8 200 09:37 06.01.2020
1263 Clouds 9 1007 81 10000 7.2 190 09:19 06.01.2020
1264 Clouds 9 1007 76 10000 7.7 200 08:43 06.01.2020
1265 Clouds 9 1008 76 10000 8.2 180 08:24 06.01.2020
1266 Clouds 9 1009 76 10000 3.1 0 07:51 06.01.2020
1267 Clouds 9 1009 76 10000 3.1 0 07:26 06.01.2020
1268 Clouds 9 1011 87 6000 6.2 190 06:45 06.01.2020
1269 Clouds 8 1011 81 10000 6.7 200 06:18 06.01.2020
1270 Drizzle 9 1012 87 5000 6.2 200 05:40 06.01.2020
1271 Clouds 9 1013 76 10000 5.7 200 04:30 06.01.2020
1272 Clouds 9 1014 76 10000 5.1 190 03:58 06.01.2020
1273 Clouds 9 1015 81 10000 6.7 190 02:40 06.01.2020
1274 Clouds 9 1016 81 10000 9.8 200 02:21 06.01.2020
1275 Clouds 9 1017 87 10000 8.2 210 01:41 06.01.2020
1276 Clouds 9 1017 87 10000 6.2 210 01:20 06.01.2020
1277 Clouds 10 1018 87 10000 7.7 210 00:40 06.01.2020
1278 Clouds 10 1018 87 10000 8.2 210 00:19 06.01.2020
1279 Clouds 10 1018 87 10000 8.2 210 00:19 06.01.2020
1280 Clouds 10 1018 87 10000 6.7 210 23:41 05.01.2020
1281 Clouds 10 1018 87 10000 9.3 210 23:21 05.01.2020
1282 Clouds 11 1018 81 10000 9.8 210 22:55 05.01.2020
1283 Clouds 11 1018 81 10000 9.8 210 22:37 05.01.2020
1284 Clouds 11 1019 87 10000 9.8 210 22:18 05.01.2020
1285 Clouds 11 1019 87 10000 10.8 200 21:41 05.01.2020
1286 Clouds 11 1019 87 10000 9.8 210 21:21 05.01.2020
1287 Clouds 11 1020 87 10000 9.8 210 20:58 05.01.2020
1288 Clouds 11 1020 87 10000 9.8 210 20:39 05.01.2020
1289 Clouds 11 1020 87 10000 8.7 210 20:20 05.01.2020
1290 Clouds 10 1020 87 10000 8.7 210 19:59 05.01.2020
1291 Clouds 10 1020 87 10000 10.8 200 19:39 05.01.2020
1292 Clouds 10 1020 87 10000 8.2 200 19:20 05.01.2020
1293 Clouds 10 1020 93 10000 7.2 210 18:56 05.01.2020
1294 Clouds 10 1020 93 10000 7.2 210 18:38 05.01.2020
1295 Clouds 10 1020 93 10000 9.8 210 18:19 05.01.2020
1296 Clouds 10 1020 93 10000 9.8 210 18:19 05.01.2020
1297 Clouds 10 1020 93 10000 9.8 210 17:58 05.01.2020
1298 Clouds 10 1020 93 10000 9.8 210 17:58 05.01.2020
1299 Clouds 10 1020 93 10000 9.8 210 17:39 05.01.2020
1300 Clouds 10 1021 87 10000 8.7 200 17:20 05.01.2020
1301 Clouds 10 1021 87 10000 8.7 200 16:57 05.01.2020
1302 Clouds 10 1021 87 10000 8.7 200 16:57 05.01.2020
1303 Clouds 10 1021 87 10000 8.2 200 16:39 05.01.2020
1304 Clouds 10 1021 87 10000 8.2 210 16:19 05.01.2020
1305 Clouds 10 1021 87 10000 8.2 210 16:19 05.01.2020
1306 Clouds 9 1021 93 10000 8.7 210 15:39 05.01.2020
1307 Clouds 9 1021 93 7000 9.8 210 15:20 05.01.2020
1308 Clouds 9 1021 93 6000 10.3 210 14:56 05.01.2020
1309 Clouds 9 1021 93 6000 10.3 210 14:38 05.01.2020
1310 Clouds 9 1021 93 9000 9.8 210 14:20 05.01.2020
1311 Clouds 9 1021 93 9000 9.8 210 13:56 05.01.2020
1312 Clouds 9 1022 93 8000 9.8 220 13:38 05.01.2020
1313 Rain 9 1022 93 9000 9.3 210 13:19 05.01.2020
1314 Rain 9 1022 93 9000 9.3 210 12:56 05.01.2020
1315 Rain 9 1023 93 6000 10.3 210 12:37 05.01.2020
1316 Rain 9 1023 93 7000 12.9 210 12:19 05.01.2020
1317 Clouds 9 1023 93 7000 8.2 210 11:44 05.01.2020
1318 Clouds 8 1023 87 10000 8.2 210 11:20 05.01.2020
1319 Clouds 8 1023 87 10000 8.2 210 11:20 05.01.2020
1320 Clouds 8 1023 87 10000 8.2 210 10:58 05.01.2020
1321 Rain 8 1023 93 10000 9.8 210 10:40 05.01.2020
1322 Rain 8 1023 93 6000 7.2 220 10:19 05.01.2020
1323 Clouds 8 1023 93 10000 7.2 220 09:42 05.01.2020
1324 Clouds 8 1023 87 10000 7.7 210 09:22 05.01.2020
1325 Clouds 8 1023 93 10000 4.6 220 08:51 05.01.2020
1326 Clouds 8 1023 93 10000 4.6 220 08:32 05.01.2020
1327 Rain 8 1024 93 10000 5.1 250 07:59 05.01.2020
1328 Rain 8 1024 93 6000 5.7 250 07:39 05.01.2020
1329 Clouds 8 1024 93 10000 6.7 230 07:20 05.01.2020
1330 Clouds 8 1024 93 10000 6.7 230 06:21 05.01.2020
1331 Rain 8 1024 93 10000 6.2 230 05:34 05.01.2020
1332 Clouds 9 1025 87 10000 7.7 220 04:48 05.01.2020
1333 Clouds 9 1025 87 10000 7.7 230 04:18 05.01.2020
1334 Clouds 9 1026 87 10000 8.2 230 02:47 05.01.2020
1335 Clouds 9 1026 87 10000 8.2 240 02:24 05.01.2020
1336 Clouds 9 1026 87 10000 8.7 240 01:48 05.01.2020
1337 Clouds 8 1026 93 10000 7.2 230 01:19 05.01.2020
1338 Clouds 9 1026 87 10000 8.2 230 00:54 05.01.2020
1339 Clouds 9 1026 87 10000 8.2 230 00:36 05.01.2020
1340 Clouds 8 1026 93 10000 7.7 230 00:18 05.01.2020
1341 Clouds 8 1027 93 10000 7.7 230 23:40 04.01.2020
1342 Clouds 8 1027 93 10000 7.7 230 23:19 04.01.2020
1343 Clouds 8 1027 93 10000 7.7 230 23:19 04.01.2020
1344 Clouds 8 1027 93 10000 7.7 230 23:19 04.01.2020
1345 Clouds 8 1027 93 10000 8.2 220 22:40 04.01.2020
1346 Clouds 8 1027 93 7000 6.7 220 22:22 04.01.2020
1347 Clouds 8 1027 93 6000 8.2 220 21:58 04.01.2020
1348 Clouds 8 1027 93 6000 8.2 220 21:39 04.01.2020
1349 Clouds 8 1027 93 10000 6.7 220 21:20 04.01.2020
1350 Clouds 8 1027 93 10000 6.7 220 20:59 04.01.2020
1351 Clouds 8 1027 93 10000 7.7 230 20:40 04.01.2020
1352 Clouds 8 1027 87 10000 6.7 230 20:21 04.01.2020
1353 Clouds 8 1027 87 10000 6.7 230 19:56 04.01.2020
1354 Clouds 8 1027 100 10000 7.2 230 19:38 04.01.2020
1355 Clouds 8 1028 100 6000 7.7 230 19:19 04.01.2020
1356 Drizzle 8 1028 93 4800 7.2 220 18:54 04.01.2020
1357 Drizzle 8 1028 93 4800 7.2 220 18:36 04.01.2020
1358 Clouds 8 1028 100 10000 7.2 220 18:18 04.01.2020
1359 Clouds 8 1028 100 10000 7.2 220 18:18 04.01.2020
1360 Clouds 8 1028 93 10000 7.2 220 17:41 04.01.2020
1361 Clouds 8 1028 93 10000 7.2 220 17:23 04.01.2020
1362 Clouds 8 1028 93 10000 6.7 230 16:57 04.01.2020
1363 Clouds 8 1028 93 10000 6.7 230 16:39 04.01.2020
1364 Clouds 8 1028 93 10000 6.7 230 16:39 04.01.2020
1365 Clouds 8 1028 93 7000 6.2 220 16:21 04.01.2020
1366 Haze 8 1027 100 4900 7.2 220 15:43 04.01.2020
1367 Clouds 8 1027 87 10000 6.7 240 15:20 04.01.2020
1368 Clouds 9 1027 87 10000 6.7 240 14:59 04.01.2020
1369 Clouds 9 1027 87 10000 6.7 240 14:59 04.01.2020
1370 Clouds 9 1027 87 10000 6.7 240 14:59 04.01.2020
1371 Clouds 9 1027 87 10000 7.2 240 14:40 04.01.2020
1372 Clouds 9 1027 93 10000 4.6 240 14:20 04.01.2020
1373 Clouds 9 1027 93 10000 4.6 240 13:58 04.01.2020
1374 Clouds 9 1027 87 10000 5.7 230 13:37 04.01.2020
1375 Clouds 9 1028 87 10000 4.1 250 13:19 04.01.2020
1376 Clouds 9 1028 87 10000 4.1 250 12:42 04.01.2020
1377 Clouds 9 1028 87 10000 4.6 220 12:20 04.01.2020
1378 Clouds 9 1028 87 10000 4.6 220 12:20 04.01.2020
1379 Clouds 9 1028 87 10000 4.6 220 11:59 04.01.2020
1380 Clouds 8 1027 87 10000 4.6 240 11:41 04.01.2020
1381 Clouds 8 1027 93 10000 4.1 220 11:20 04.01.2020
1382 Clouds 8 1027 93 10000 4.1 220 10:59 04.01.2020
1383 Clouds 8 1027 87 10000 2.6 240 10:38 04.01.2020
1384 Clouds 8 1026 87 10000 5.1 240 10:19 04.01.2020
1385 Clouds 8 1026 87 10000 6.2 240 09:43 04.01.2020
1386 Clouds 8 1026 87 10000 6.2 240 09:43 04.01.2020
1387 Clouds 8 1026 87 10000 6.7 250 09:25 04.01.2020
1388 Rain 8 1026 87 10000 6.2 240 08:47 04.01.2020
1389 Rain 8 1026 87 10000 6.2 240 08:28 04.01.2020
1390 Rain 8 1025 87 9000 6.7 250 07:52 04.01.2020
1391 Rain 8 1025 87 9000 6.7 250 07:52 04.01.2020
1392 Rain 8 1025 87 9000 6.7 250 07:33 04.01.2020
1393 Rain 8 1024 87 10000 7.7 250 06:43 04.01.2020
1394 Clouds 8 1024 87 10000 8.2 250 05:52 04.01.2020
1395 Clouds 8 1024 87 10000 8.2 250 04:48 04.01.2020
1396 Clouds 7 1024 87 10000 8.2 250 04:28 04.01.2020
1397 Rain 7 1023 87 10000 8.7 250 03:19 04.01.2020
1398 Clouds 8 1024 87 10000 9.3 240 02:36 04.01.2020
1399 Rain 7 1023 81 10000 7.7 240 01:58 04.01.2020
1400 Clouds 7 1023 81 10000 7.2 260 01:32 04.01.2020
1401 Clouds 7 1023 81 10000 7.2 260 01:32 04.01.2020
1402 Rain 7 1023 87 10000 6.7 250 00:56 04.01.2020
1403 Rain 7 1024 87 10000 5.1 240 00:28 04.01.2020
1404 Rain 7 1023 87 10000 6.2 250 23:52 03.01.2020
1405 Clouds 7 1023 87 10000 6.7 240 23:27 03.01.2020
1406 Rain 7 1023 87 10000 6.7 250 22:55 03.01.2020
1407 Rain 7 1023 87 10000 6.7 250 22:37 03.01.2020
1408 Rain 7 1023 87 10000 7.2 260 22:18 03.01.2020
1409 Rain 7 1022 87 10000 7.7 250 21:56 03.01.2020
1410 Rain 7 1022 87 10000 7.7 250 21:37 03.01.2020
1411 Rain 7 1022 81 10000 7.7 250 21:18 03.01.2020
1412 Rain 7 1022 81 10000 9.3 260 20:43 03.01.2020
1413 Rain 7 1022 87 9000 9.3 240 20:19 03.01.2020
1414 Rain 7 1022 87 9000 9.3 240 20:19 03.01.2020
1415 Rain 7 1022 87 9000 9.3 240 19:59 03.01.2020
1416 Clouds 7 1022 81 10000 6.2 250 19:40 03.01.2020
1417 Clouds 6 1022 81 10000 5.7 240 19:22 03.01.2020
1418 Clouds 6 1022 81 10000 6.2 250 18:46 03.01.2020
1419 Clouds 6 1022 81 10000 6.2 250 18:26 03.01.2020
1420 Clouds 6 1022 81 10000 6.2 250 18:26 03.01.2020
1421 Clouds 5 1021 75 10000 7.7 250 17:57 03.01.2020
1422 Clouds 5 1021 75 10000 7.7 250 17:39 03.01.2020
1423 Rain 5 1021 81 10000 7.7 260 17:20 03.01.2020
1424 Rain 6 1021 81 10000 7.7 250 16:43 03.01.2020
1425 Rain 6 1021 81 10000 7.7 250 16:24 03.01.2020
1426 Rain 6 1021 81 10000 6.2 240 15:58 03.01.2020
1427 Rain 7 1020 70 10000 6.7 250 15:40 03.01.2020
1428 Rain 7 1020 70 10000 5.7 250 15:18 03.01.2020
1429 Rain 6 1020 70 10000 6.2 260 14:39 03.01.2020
1430 Rain 6 1020 81 10000 4.1 240 14:20 03.01.2020
1431 Clouds 7 1020 81 10000 5.7 220 13:56 03.01.2020
1432 Clouds 7 1020 81 10000 5.7 220 13:37 03.01.2020
1433 Rain 6 1019 81 10000 5.7 240 13:19 03.01.2020
1434 Rain 6 1019 81 10000 5.1 240 12:40 03.01.2020
1435 Rain 5 1019 86 10000 3.6 230 12:21 03.01.2020
1436 Rain 5 1019 86 6000 3.1 270 11:49 03.01.2020
1437 Clouds 4 1018 86 10000 5.1 220 11:30 03.01.2020
1438 Clouds 4 1018 80 10000 4.6 240 10:48 03.01.2020
1439 Clouds 4 1018 80 10000 4.6 240 10:28 03.01.2020
1440 Clouds 4 1017 84 10000 3.1 230 09:59 03.01.2020
1441 Clouds 4 1017 84 10000 3.1 230 09:41 03.01.2020
1442 Clouds 4 1016 75 10000 3.6 260 09:22 03.01.2020
1443 Clouds 5 1016 75 10000 4.6 280 08:57 03.01.2020
1444 Clouds 5 1016 75 10000 4.6 280 08:38 03.01.2020
1445 Clouds 4 1015 80 10000 1 0 08:20 03.01.2020
1446 Clouds 4 1015 80 10000 1.5 0 07:41 03.01.2020
1447 Clouds 4 1014 86 10000 2.1 200 07:19 03.01.2020
1448 Clouds 4 1013 86 10000 1.5 0 06:51 03.01.2020
1449 Clouds 4 1013 86 10000 1.5 0 06:33 03.01.2020
1450 Rain 5 1012 75 10000 1.5 0 05:47 03.01.2020
1451 Clouds 4 1010 80 10000 3.1 240 04:27 03.01.2020
1452 Clouds 5 1009 75 10000 3.1 260 02:59 03.01.2020
1453 Clouds 5 1008 75 10000 4.1 260 02:41 03.01.2020
1454 Clouds 6 1007 70 10000 2.6 240 01:45 03.01.2020
1455 Clouds 7 1005 81 10000 8.2 280 00:53 03.01.2020
1456 Clouds 7 1005 81 10000 8.2 280 00:31 03.01.2020
1457 Rain 8 1004 81 10000 9.3 280 23:56 02.01.2020
1458 Clouds 8 1003 87 10000 8.2 290 23:38 02.01.2020
1459 Clouds 10 1002 87 10000 8.7 290 23:19 02.01.2020
1460 Drizzle 10 1001 93 3700 9.8 220 22:45 02.01.2020
1461 Drizzle 10 1001 93 2500 9.8 220 22:22 02.01.2020
1462 Drizzle 10 1001 93 2500 9.8 220 22:00 02.01.2020
1463 Drizzle 10 1000 93 5000 9.8 220 21:41 02.01.2020
1464 Rain 10 1000 93 3300 10.8 220 21:23 02.01.2020
1465 Rain 10 1000 93 3300 10.8 220 20:59 02.01.2020
1466 Rain 10 1000 93 3800 10.8 210 20:39 02.01.2020
1467 Rain 10 1000 93 9000 10.8 210 20:21 02.01.2020
1468 Rain 10 1000 93 10000 11.8 210 19:55 02.01.2020
1469 Rain 10 1000 93 10000 11.8 210 19:55 02.01.2020
1470 Rain 10 1000 93 10000 11.8 210 19:55 02.01.2020
1471 Rain 10 1000 93 10000 11.8 210 19:37 02.01.2020
1472 Clouds 10 1000 87 6000 10.3 200 19:19 02.01.2020
1473 Clouds 10 1000 87 10000 10.8 210 18:56 02.01.2020
1474 Clouds 10 1000 87 10000 10.8 210 18:38 02.01.2020
1475 Clouds 10 1000 87 10000 10.8 210 18:20 02.01.2020
1476 Clouds 10 1000 87 10000 10.8 210 17:56 02.01.2020
1477 Clouds 10 1000 93 10000 11.8 210 17:36 02.01.2020
1478 Clouds 10 1000 93 10000 11.8 210 17:36 02.01.2020
1479 Clouds 10 1000 93 10000 12.9 210 17:18 02.01.2020
1480 Clouds 10 1000 93 10000 12.9 210 17:18 02.01.2020
1481 Rain 10 1001 93 10000 11.8 210 16:54 02.01.2020
1482 Rain 10 1001 93 10000 11.8 210 16:36 02.01.2020
1483 Drizzle 10 1001 93 5000 12.9 210 16:18 02.01.2020
1484 Rain 10 1001 93 10000 10.8 210 15:42 02.01.2020
1485 Rain 9 1002 93 5000 9.8 210 15:24 02.01.2020
1486 Rain 9 1002 87 10000 9.8 200 14:57 02.01.2020
1487 Rain 9 1002 87 10000 9.8 200 14:37 02.01.2020
1488 Rain 9 1002 87 10000 9.8 200 14:37 02.01.2020
1489 Rain 9 1003 93 7000 10.3 200 14:18 02.01.2020
1490 Rain 9 1004 93 5000 9.3 210 13:55 02.01.2020
1491 Rain 9 1004 93 5000 9.3 210 13:36 02.01.2020
1492 Rain 9 1005 87 5000 8.7 210 12:58 02.01.2020
1493 Rain 9 1005 87 5000 8.7 210 12:39 02.01.2020
1494 Clouds 9 1006 81 10000 8.2 200 12:20 02.01.2020
1495 Clouds 9 1006 81 10000 8.2 200 11:41 02.01.2020
1496 Clouds 9 1007 81 10000 7.2 210 11:20 02.01.2020
1497 Clouds 9 1008 81 10000 8.2 210 10:45 02.01.2020
1498 Clouds 9 1008 81 10000 8.2 210 10:26 02.01.2020
1499 Clouds 9 1008 81 10000 9.3 200 09:55 02.01.2020
1500 Clouds 9 1008 81 10000 9.3 200 09:34 02.01.2020
1501 Clouds 9 1009 81 10000 4.1 190 08:50 02.01.2020
1502 Clouds 9 1009 81 10000 4.1 190 08:28 02.01.2020
1503 Clouds 8 1009 81 10000 6.7 190 07:57 02.01.2020
1504 Clouds 8 1009 81 10000 5.7 190 07:31 02.01.2020
1505 Clouds 8 1010 81 10000 6.7 180 06:57 02.01.2020
1506 Clouds 8 1010 81 10000 6.7 180 06:57 02.01.2020
1507 Clouds 8 1010 81 10000 4.6 200 06:39 02.01.2020
1508 Clouds 8 1011 81 10000 7.2 200 05:36 02.01.2020
1509 Clouds 8 1012 81 10000 6.7 180 04:33 02.01.2020
1510 Clouds 8 1013 81 10000 7.2 180 02:55 02.01.2020
1511 Clouds 7 1014 81 10000 5.7 180 02:20 02.01.2020
1512 Clouds 7 1015 81 10000 5.7 170 01:46 02.01.2020
1513 Clouds 7 1016 81 10000 5.1 180 01:19 02.01.2020
1514 Clouds 7 1016 87 10000 6.2 190 00:34 02.01.2020
1515 Clouds 7 1017 81 10000 1.5 0 23:58 01.01.2020
1516 Clouds 7 1017 81 10000 2.1 210 23:40 01.01.2020
1517 Clouds 6 1018 81 10000 3.1 220 23:19 01.01.2020
1518 Clouds 6 1018 81 10000 5.7 210 22:38 01.01.2020
1519 Clouds 6 1018 81 10000 5.7 210 22:38 01.01.2020
1520 Clouds 6 1018 81 10000 5.7 210 22:20 01.01.2020
1521 Clouds 6 1018 81 10000 5.7 210 22:20 01.01.2020
1522 Clouds 6 1018 81 10000 5.7 210 22:20 01.01.2020
1523 Clouds 6 1019 75 10000 5.7 200 21:56 01.01.2020
1524 Clouds 7 1019 75 10000 5.7 200 21:38 01.01.2020
1525 Clouds 7 1019 75 10000 6.2 190 21:19 01.01.2020
1526 Clouds 7 1019 75 10000 6.2 190 21:19 01.01.2020
1527 Clouds 7 1019 75 10000 6.2 190 20:55 01.01.2020
1528 Clouds 7 1020 75 10000 8.2 190 20:37 01.01.2020
1529 Clouds 7 1020 75 10000 7.2 190 20:18 01.01.2020
1530 Clouds 7 1020 75 10000 7.2 190 19:55 01.01.2020
1531 Clouds 7 1020 75 10000 6.2 190 19:36 01.01.2020
1532 Clouds 7 1021 75 10000 6.7 210 19:18 01.01.2020
1533 Clouds 7 1021 75 10000 6.7 220 18:55 01.01.2020
1534 Clouds 7 1021 75 10000 6.7 220 18:36 01.01.2020
1535 Clouds 7 1021 81 10000 4.6 210 18:18 01.01.2020
1536 Clouds 7 1021 81 10000 4.6 210 17:55 01.01.2020
1537 Clouds 7 1021 81 10000 5.7 220 17:37 01.01.2020
1538 Clouds 7 1022 81 10000 5.7 220 17:18 01.01.2020
1539 Clouds 7 1022 75 10000 7.7 230 16:39 01.01.2020
1540 Clouds 7 1022 75 10000 7.7 230 16:39 01.01.2020
1541 Clouds 7 1022 75 10000 6.7 220 16:20 01.01.2020
1542 Clouds 7 1022 75 10000 6.7 220 15:57 01.01.2020
1543 Clouds 7 1023 75 10000 6.2 220 15:39 01.01.2020
1544 Clouds 7 1023 81 10000 7.7 230 15:20 01.01.2020
1545 Clouds 7 1023 81 10000 5.1 240 14:57 01.01.2020
1546 Clouds 7 1023 81 10000 5.1 240 14:39 01.01.2020
1547 Clouds 7 1024 81 10000 4.6 230 14:20 01.01.2020
1548 Clouds 7 1024 81 10000 5.1 220 13:55 01.01.2020
1549 Clouds 7 1024 81 10000 5.1 220 13:37 01.01.2020
1550 Clouds 7 1024 81 10000 5.1 220 13:37 01.01.2020
1551 Clouds 7 1024 81 10000 3.1 250 13:18 01.01.2020
1552 Clouds 7 1024 81 10000 4.1 220 12:55 01.01.2020
1553 Clouds 7 1024 81 10000 4.1 220 12:36 01.01.2020
1554 Clouds 7 1025 81 10000 3.6 220 12:18 01.01.2020
1555 Clouds 7 1025 81 10000 2.6 240 11:42 01.01.2020
1556 Clouds 7 1025 81 10000 1.5 0 11:21 01.01.2020
1557 Clouds 7 1025 81 10000 2.1 260 10:57 01.01.2020
1558 Clouds 7 1025 81 10000 2.1 260 10:38 01.01.2020
1559 Clouds 7 1025 93 10000 2.6 230 10:19 01.01.2020
1560 Clouds 6 1025 93 10000 2.1 240 09:42 01.01.2020
1561 Clouds 6 1026 93 7000 2.1 260 09:23 01.01.2020
1562 Mist 6 1026 100 4800 0.5 0 08:57 01.01.2020
1563 Mist 6 1026 100 4800 0.5 0 08:39 01.01.2020
1564 Mist 5 1026 100 4700 1 0 08:20 01.01.2020
1565 Mist 5 1026 100 4700 1 0 07:59 01.01.2020
1566 Mist 6 1026 100 4000 1.5 0 07:41 01.01.2020
1567 Mist 5 1026 100 4100 1 0 07:20 01.01.2020
1568 Mist 5 1026 100 2900 0.5 0 06:40 01.01.2020
1569 Mist 5 1026 100 2400 1 0 06:18 01.01.2020
1570 Mist 4 1027 100 2200 0.5 0 04:36 01.01.2020
1571 Mist 4 1028 100 2400 1 40 03:40 01.01.2020
1572 Mist 4 1028 100 2300 0.5 0 03:21 01.01.2020
1573 Mist 3 1029 100 3900 1.5 60 02:43 01.01.2020
1574 Mist 3 1029 91 4500 0.5 0 02:24 01.01.2020
1575 Mist 2 1030 83 4300 0.5 0 01:45 01.01.2020
1576 Mist 2 1030 84 5000 1 0 01:23 01.01.2020
1577 Mist 1 1030 84 4400 0.5 190 00:45 01.01.2020
1578 Mist 0 1030 84 3900 1 230 00:26 01.01.2020
1579 Mist 0 1030 84 3900 1 230 23:56 31.12.2019
1580 Mist 0 1030 84 4200 0.5 0 23:37 31.12.2019
1581 Mist 0 1030 86 4500 1 0 23:18 31.12.2019
1582 Mist 0 1030 86 4500 1 0 22:55 31.12.2019
1583 Mist -1 1030 100 3900 1 280 22:36 31.12.2019
1584 Mist 0 1031 86 5000 2.1 170 22:18 31.12.2019
1585 Fog -1 1031 100 4000 1 10 21:43 31.12.2019
1586 Fog -1 1032 100 8000 0.5 0 21:25 31.12.2019
1587 Fog -1 1032 100 8000 0.5 0 20:57 31.12.2019
1588 Fog -1 1032 100 9000 1 350 20:39 31.12.2019
1589 Fog -1 1032 92 9000 1 0 20:20 31.12.2019
1590 Fog -1 1032 92 9000 1 0 19:57 31.12.2019
1591 Fog -1 1032 92 9000 1 270 19:39 31.12.2019
1592 Fog -1 1032 100 9000 0.5 0 19:20 31.12.2019
1593 Fog -1 1032 100 9000 0.5 0 18:56 31.12.2019
1594 Fog 0 1032 92 9000 0.5 300 18:38 31.12.2019
1595 Fog 0 1032 92 9000 0.5 310 18:19 31.12.2019
1596 Clear 0 1032 85 10000 0.5 0 17:55 31.12.2019
1597 Clear 0 1032 85 10000 0.5 0 17:36 31.12.2019
1598 Clear 0 1032 85 10000 0.5 0 17:36 31.12.2019
1599 Clear 0 1032 85 10000 0.5 0 17:36 31.12.2019
1600 Clear 1 1032 84 10000 0.5 0 17:18 31.12.2019
1601 Clear 1 1032 84 10000 0.5 0 16:55 31.12.2019
1602 Clear 2 1032 84 10000 1.5 250 16:36 31.12.2019
1603 Clear 2 1033 84 10000 0.5 0 16:18 31.12.2019
1604 Clear 3 1033 84 10000 0.5 0 15:55 31.12.2019
1605 Clear 3 1033 93 10000 0.5 0 15:37 31.12.2019
1606 Clear 3 1033 84 10000 0.5 0 15:19 31.12.2019
1607 Clear 2 1033 84 10000 1 250 14:55 31.12.2019
1608 Clear 2 1033 84 10000 1 250 14:36 31.12.2019
1609 Clouds 2 1034 100 10000 1 240 14:18 31.12.2019
1610 Clouds 2 1034 100 10000 1 240 13:54 31.12.2019
1611 Clouds 2 1034 78 10000 1 0 13:36 31.12.2019
1612 Clear 1 1034 78 7000 0.5 0 13:18 31.12.2019
1613 Clear 0 1035 78 6000 1 250 12:40 31.12.2019
1614 Clear 0 1035 78 6000 1 250 12:40 31.12.2019
1615 Clear 0 1035 100 8000 0.5 320 12:21 31.12.2019
1616 Clear 0 1035 100 8000 0.5 320 11:58 31.12.2019
1617 Clear 0 1034 78 10000 1.5 300 11:40 31.12.2019
1618 Clouds -1 1035 100 6000 1 0 11:21 31.12.2019
1619 Clouds -1 1035 100 6000 1 0 10:58 31.12.2019
1620 Fog -2 1035 100 10000 1.5 230 10:39 31.12.2019
1621 Fog -2 1035 100 5000 1.5 220 10:20 31.12.2019
1622 Fog -2 1035 100 5000 1.5 220 10:20 31.12.2019
1623 Fog -2 1035 100 5000 1.5 220 09:59 31.12.2019
1624 Fog -2 1035 100 5000 1.5 220 09:59 31.12.2019
1625 Fog -2 1034 100 5000 1 0 09:40 31.12.2019
1626 Fog -2 1034 92 10000 1.5 70 09:22 31.12.2019
1627 Fog -2 1034 92 10000 1.5 70 08:59 31.12.2019
1628 Fog -2 1034 92 10000 2.1 60 08:41 31.12.2019
1629 Fog -2 1033 92 10000 1 60 08:20 31.12.2019
1630 Mist -2 1033 100 1500 1 220 07:44 31.12.2019
1631 Clouds -2 1033 92 10000 2.1 230 07:22 31.12.2019
1632 Clouds -1 1033 100 7000 0.5 0 06:51 31.12.2019
1633 Mist -1 1032 100 4200 2.1 240 05:59 31.12.2019
1634 Fog 0 1031 100 7000 1.5 90 04:30 31.12.2019
1635 Clouds 0 1032 92 10000 1 120 03:59 31.12.2019
1636 Clouds 0 1032 92 10000 1 120 03:59 31.12.2019
1637 Clouds 0 1031 92 10000 1.5 0 02:56 31.12.2019
1638 Clouds 1 1031 92 10000 1 0 02:19 31.12.2019
1639 Clouds 1 1031 89 10000 1 0 01:48 31.12.2019
1640 Clouds 1 1031 89 10000 1 0 01:48 31.12.2019
1641 Clouds 1 1031 88 10000 1 0 01:28 31.12.2019
1642 Clouds 2 1031 88 10000 1.5 0 00:47 31.12.2019
1643 Clouds 2 1031 86 10000 2.6 260 00:23 31.12.2019
1644 Clouds 3 1030 86 10000 2.1 240 23:57 30.12.2019
1645 Clouds 3 1030 86 10000 2.1 240 23:38 30.12.2019
1646 Clouds 3 1030 86 10000 4.1 260 23:20 30.12.2019
1647 Clouds 3 1030 86 10000 3.6 220 22:58 30.12.2019
1648 Clouds 3 1030 86 10000 3.6 220 22:39 30.12.2019
1649 Clouds 3 1029 80 10000 3.1 230 22:20 30.12.2019
1650 Clouds 4 1029 86 10000 4.6 240 21:57 30.12.2019
1651 Clouds 4 1029 86 10000 4.6 240 21:38 30.12.2019
1652 Clouds 4 1028 86 10000 4.1 240 21:19 30.12.2019
1653 Clouds 4 1028 86 10000 4.1 240 20:56 30.12.2019
1654 Clouds 4 1028 86 10000 4.1 240 20:56 30.12.2019
1655 Clouds 4 1028 86 10000 3.6 210 20:38 30.12.2019
1656 Clouds 5 1027 75 10000 3.6 250 20:20 30.12.2019
1657 Clouds 5 1027 80 10000 2.1 250 19:57 30.12.2019
1658 Clouds 5 1027 80 10000 2.1 250 19:37 30.12.2019
1659 Clouds 5 1027 86 10000 1 0 19:19 30.12.2019
1660 Clouds 5 1027 86 10000 1 0 19:19 30.12.2019
1661 Clouds 6 1027 86 10000 1 0 18:56 30.12.2019
1662 Clouds 6 1026 86 10000 2.6 210 18:38 30.12.2019
1663 Clouds 7 1025 81 10000 1.5 0 18:20 30.12.2019
1664 Clouds 7 1025 87 10000 3.6 270 17:55 30.12.2019
1665 Clouds 7 1025 87 10000 3.6 270 17:36 30.12.2019
1666 Clouds 7 1024 87 10000 2.6 250 17:18 30.12.2019
1667 Clouds 7 1024 81 10000 4.6 250 16:55 30.12.2019
1668 Clouds 7 1024 81 10000 4.6 250 16:55 30.12.2019
1669 Clouds 7 1024 81 10000 4.6 250 16:36 30.12.2019
1670 Clouds 7 1023 87 10000 3.6 250 16:18 30.12.2019
1671 Clouds 8 1023 87 10000 3.6 250 15:54 30.12.2019
1672 Clouds 8 1023 81 10000 3.6 270 15:36 30.12.2019
1673 Clouds 8 1022 81 10000 5.1 280 15:18 30.12.2019
1674 Clouds 8 1022 81 10000 5.1 280 15:18 30.12.2019
1675 Clouds 9 1022 81 10000 7.2 280 14:42 30.12.2019
1676 Clouds 9 1022 81 10000 7.2 280 14:42 30.12.2019
1677 Clouds 9 1022 87 10000 6.7 280 14:19 30.12.2019
1678 Clouds 9 1021 81 10000 7.2 260 13:55 30.12.2019
1679 Clouds 9 1021 81 10000 7.2 260 13:37 30.12.2019
1680 Clouds 9 1020 93 10000 5.7 270 13:18 30.12.2019
1681 Drizzle 9 1021 93 3100 7.2 250 12:42 30.12.2019
1682 Rain 10 1021 93 3700 9.3 230 12:20 30.12.2019
1683 Rain 10 1021 93 3700 9.3 230 11:58 30.12.2019
1684 Drizzle 10 1020 93 6000 9.3 230 11:40 30.12.2019
1685 Clouds 10 1020 93 7000 10.3 220 11:19 30.12.2019
1686 Clouds 10 1019 81 7000 10.3 220 10:44 30.12.2019
1687 Clouds 10 1019 81 10000 9.3 210 10:21 30.12.2019
1688 Clouds 10 1019 81 10000 9.3 210 09:57 30.12.2019
1689 Clouds 10 1019 81 10000 9.3 220 09:37 30.12.2019
1690 Clouds 10 1019 81 10000 11.3 220 09:19 30.12.2019
1691 Clouds 10 1019 81 10000 9.8 210 08:49 30.12.2019
1692 Clouds 10 1019 81 10000 9.8 220 08:23 30.12.2019
1693 Clouds 10 1019 81 10000 9.8 220 07:55 30.12.2019
1694 Clouds 10 1019 81 10000 10.3 220 07:33 30.12.2019
1695 Clouds 9 1019 81 10000 9.3 210 06:51 30.12.2019
1696 Clouds 9 1019 81 10000 8.7 210 04:50 30.12.2019
1697 Clouds 10 1020 81 10000 9.3 210 03:52 30.12.2019
1698 Clouds 10 1020 81 10000 10.3 210 02:47 30.12.2019
1699 Clouds 10 1020 81 10000 10.3 210 02:29 30.12.2019
1700 Clouds 10 1020 81 10000 9.8 210 01:47 30.12.2019
1701 Clouds 10 1021 81 10000 9.8 200 01:19 30.12.2019
1702 Clouds 10 1020 81 10000 9.3 210 00:42 30.12.2019
1703 Clouds 11 1021 81 10000 9.3 210 23:59 29.12.2019
1704 Clouds 11 1020 81 10000 7.2 220 23:38 29.12.2019
1705 Clouds 11 1020 81 10000 6.2 220 23:20 29.12.2019
1706 Clouds 11 1020 81 10000 8.2 210 22:41 29.12.2019
1707 Clouds 11 1020 81 10000 9.3 210 22:22 29.12.2019
1708 Clouds 11 1020 81 10000 9.3 210 21:57 29.12.2019
1709 Clouds 11 1021 81 10000 8.2 210 21:39 29.12.2019
1710 Clouds 11 1021 81 10000 9.3 210 21:20 29.12.2019
1711 Clouds 11 1021 81 10000 9.3 210 20:57 29.12.2019
1712 Clouds 11 1020 81 10000 8.2 210 20:38 29.12.2019
1713 Clouds 11 1021 81 10000 8.7 210 20:20 29.12.2019
1714 Clouds 10 1021 81 10000 8.7 210 19:58 29.12.2019
1715 Clouds 10 1020 81 10000 9.3 210 19:39 29.12.2019
1716 Clouds 10 1020 87 10000 7.7 200 19:20 29.12.2019
1717 Clouds 10 1020 87 10000 9.8 200 18:55 29.12.2019
1718 Clouds 10 1020 87 10000 9.8 200 18:37 29.12.2019
1719 Clouds 10 1021 87 10000 8.2 210 18:18 29.12.2019
1720 Clouds 10 1021 87 10000 8.2 220 17:56 29.12.2019
1721 Clouds 10 1021 87 10000 8.2 220 17:38 29.12.2019
1722 Clouds 10 1021 87 10000 7.7 220 17:19 29.12.2019
1723 Clouds 10 1021 87 10000 7.7 220 16:55 29.12.2019
1724 Clouds 10 1021 87 10000 8.2 210 16:36 29.12.2019
1725 Clouds 10 1021 87 10000 8.2 210 16:36 29.12.2019
1726 Clouds 11 1021 87 10000 6.2 220 16:18 29.12.2019
1727 Clouds 11 1021 87 10000 6.2 220 15:55 29.12.2019
1728 Clouds 11 1021 87 10000 8.2 220 15:37 29.12.2019
1729 Clouds 11 1021 81 10000 7.7 220 15:18 29.12.2019
1730 Clouds 11 1021 81 10000 7.7 220 14:55 29.12.2019
1731 Clouds 11 1021 81 10000 7.7 220 14:37 29.12.2019
1732 Clouds 11 1021 81 10000 8.2 220 14:18 29.12.2019
1733 Clouds 11 1021 81 10000 8.2 220 13:41 29.12.2019
1734 Clouds 11 1022 81 10000 8.2 210 13:22 29.12.2019
1735 Clouds 11 1022 81 10000 8.2 210 12:59 29.12.2019
1736 Clouds 11 1022 87 10000 7.7 220 12:41 29.12.2019
1737 Clouds 11 1022 81 10000 8.2 210 12:22 29.12.2019
1738 Clouds 11 1022 87 10000 7.2 210 11:46 29.12.2019
1739 Clouds 10 1022 87 10000 7.2 210 11:23 29.12.2019
1740 Clouds 11 1022 87 10000 7.2 210 11:00 29.12.2019
1741 Clouds 10 1022 87 10000 8.2 210 10:41 29.12.2019
1742 Clouds 11 1022 87 10000 7.7 220 10:19 29.12.2019
1743 Clouds 10 1022 81 10000 8.2 210 09:47 29.12.2019
1744 Clouds 10 1022 81 10000 8.2 210 09:28 29.12.2019
1745 Clouds 10 1022 87 10000 8.7 200 08:59 29.12.2019
1746 Clouds 10 1022 81 10000 9.8 200 08:41 29.12.2019
1747 Clouds 10 1022 81 10000 10.8 200 08:23 29.12.2019
1748 Clouds 11 1022 81 10000 11.3 200 07:49 29.12.2019
1749 Clouds 11 1022 87 10000 10.8 210 07:27 29.12.2019
1750 Rain 10 1022 87 10000 10.8 200 06:52 29.12.2019
1751 Rain 11 1022 81 10000 10.8 200 06:22 29.12.2019
1752 Rain 10 1022 81 10000 11.3 190 05:45 29.12.2019
1753 Clouds 10 1024 81 10000 10.3 200 04:33 29.12.2019
1754 Rain 10 1024 87 10000 8.2 190 03:39 29.12.2019
1755 Rain 10 1024 81 10000 4.6 190 02:36 29.12.2019
1756 Rain 10 1024 87 10000 6.7 190 02:18 29.12.2019
1757 Rain 10 1024 87 10000 7.7 180 01:31 29.12.2019
1758 Rain 10 1024 87 10000 7.7 180 01:31 29.12.2019
1759 Rain 10 1026 87 10000 6.7 200 00:51 29.12.2019
1760 Rain 10 1026 87 10000 6.7 200 00:25 29.12.2019
1761 Rain 10 1026 87 10000 5.7 190 23:56 28.12.2019
1762 Rain 10 1026 87 10000 5.7 190 23:37 28.12.2019
1763 Rain 10 1027 87 10000 4.1 220 23:18 28.12.2019
1764 Rain 10 1027 87 10000 4.1 220 23:18 28.12.2019
1765 Rain 10 1027 87 10000 4.1 220 23:18 28.12.2019
1766 Rain 10 1026 87 9000 5.1 200 22:37 28.12.2019
1767 Rain 10 1026 87 10000 2.1 230 22:18 28.12.2019
1768 Clouds 10 1025 87 10000 2.6 160 21:56 28.12.2019
1769 Clouds 10 1025 87 10000 2.6 160 21:37 28.12.2019
1770 Rain 10 1026 81 10000 2.1 150 21:19 28.12.2019
1771 Rain 10 1026 87 10000 3.6 210 20:54 28.12.2019
1772 Rain 10 1026 87 10000 3.6 210 20:36 28.12.2019
1773 Rain 10 1026 87 10000 4.6 200 20:18 28.12.2019
1774 Rain 10 1026 87 10000 2.1 200 19:41 28.12.2019
1775 Rain 10 1026 87 10000 4.1 230 19:23 28.12.2019
1776 Rain 10 1026 87 10000 4.1 230 18:59 28.12.2019
1777 Rain 10 1025 81 10000 4.1 220 18:40 28.12.2019
1778 Rain 10 1025 81 10000 5.1 200 18:20 28.12.2019
1779 Rain 10 1025 81 10000 5.1 200 17:58 28.12.2019
1780 Rain 10 1025 87 10000 5.1 200 17:39 28.12.2019
1781 Rain 10 1025 81 10000 2.6 220 17:19 28.12.2019
1782 Rain 10 1025 87 10000 1 0 16:48 28.12.2019
1783 Rain 10 1025 87 10000 1 0 16:26 28.12.2019
1784 Clouds 10 1025 81 10000 4.6 180 15:57 28.12.2019
1785 Clouds 10 1025 81 10000 4.6 180 15:39 28.12.2019
1786 Rain 10 1026 81 10000 6.2 190 15:20 28.12.2019
1787 Rain 10 1026 87 10000 5.7 180 14:45 28.12.2019
1788 Rain 10 1026 87 10000 5.1 190 14:24 28.12.2019
1789 Rain 10 1026 87 10000 5.1 190 14:24 28.12.2019
1790 Rain 10 1026 87 10000 5.1 170 13:57 28.12.2019
1791 Rain 10 1026 87 10000 5.1 170 13:38 28.12.2019
1792 Rain 10 1027 87 10000 5.1 190 13:19 28.12.2019
1793 Rain 10 1027 81 10000 5.7 190 12:44 28.12.2019
1794 Rain 10 1027 81 10000 5.1 190 12:24 28.12.2019
1795 Rain 10 1027 87 10000 8.2 200 11:58 28.12.2019
1796 Rain 10 1027 87 10000 8.2 200 11:39 28.12.2019
1797 Clouds 10 1027 87 10000 8.2 200 11:20 28.12.2019
1798 Clouds 10 1027 81 10000 8.2 200 10:46 28.12.2019
1799 Clouds 10 1026 81 10000 8.7 190 10:22 28.12.2019
1800 Clouds 10 1026 81 10000 8.7 190 10:22 28.12.2019
1801 Clouds 10 1026 81 10000 8.7 190 09:58 28.12.2019
1802 Clouds 10 1026 87 10000 8.7 200 09:40 28.12.2019
1803 Clouds 10 1025 87 10000 9.3 190 09:20 28.12.2019
1804 Clouds 10 1026 81 10000 9.3 190 08:44 28.12.2019
1805 Clouds 10 1026 81 10000 9.3 190 08:26 28.12.2019
1806 Clouds 10 1025 81 10000 8.7 190 07:55 28.12.2019
1807 Clouds 10 1025 81 10000 8.7 190 07:31 28.12.2019
1808 Clouds 10 1025 87 10000 7.7 190 06:41 28.12.2019
1809 Clouds 11 1026 87 10000 5.1 200 04:51 28.12.2019
1810 Clouds 10 1026 93 10000 1.5 0 03:47 28.12.2019
1811 Clouds 10 1025 93 10000 2.1 140 02:48 28.12.2019
1812 Clouds 10 1025 87 10000 3.6 150 01:59 28.12.2019
1813 Clouds 10 1026 93 10000 4.1 160 01:30 28.12.2019
1814 Rain 10 1026 93 7000 3.6 160 00:58 28.12.2019
1815 Rain 10 1026 93 10000 3.1 140 00:38 28.12.2019
1816 Clouds 10 1026 93 10000 3.1 150 00:19 28.12.2019
1817 Rain 10 1026 93 10000 3.6 190 23:43 27.12.2019
1818 Rain 10 1026 93 10000 5.1 190 23:20 27.12.2019
1819 Rain 10 1026 93 10000 5.1 190 22:58 27.12.2019
1820 Rain 10 1026 93 8000 2.1 240 22:38 27.12.2019
1821 Clouds 10 1026 87 10000 3.6 200 22:20 27.12.2019
1822 Clouds 10 1026 87 10000 3.6 200 22:20 27.12.2019
1823 Clouds 10 1025 93 10000 1.5 0 21:55 27.12.2019
1824 Clouds 10 1025 93 10000 1.5 0 21:37 27.12.2019
1825 Clouds 10 1025 87 10000 1.5 0 21:18 27.12.2019
1826 Clouds 10 1024 93 10000 2.1 180 20:41 27.12.2019
1827 Drizzle 10 1024 93 3700 2.1 0 20:22 27.12.2019
1828 Rain 10 1024 93 6000 1.5 0 19:43 27.12.2019
1829 Clouds 9 1024 93 10000 3.1 120 19:21 27.12.2019
1830 Clouds 9 1024 93 10000 3.1 120 18:59 27.12.2019
1831 Rain 9 1024 93 10000 2.6 90 18:39 27.12.2019
1832 Rain 9 1024 93 6000 1.5 120 18:21 27.12.2019
1833 Rain 9 1024 93 6000 1.5 120 17:57 27.12.2019
1834 Rain 9 1024 93 7000 1.5 0 17:39 27.12.2019
1835 Drizzle 9 1023 93 4900 1 0 17:19 27.12.2019
1836 Drizzle 9 1023 93 4900 1 0 16:58 27.12.2019
1837 Rain 9 1023 93 8000 3.1 150 16:38 27.12.2019
1838 Clouds 9 1023 87 10000 3.6 150 16:19 27.12.2019
1839 Clouds 8 1023 87 10000 2.6 140 15:44 27.12.2019
1840 Clouds 8 1023 87 10000 1.5 0 15:22 27.12.2019
1841 Clouds 8 1023 87 10000 2.1 150 14:57 27.12.2019
1842 Clouds 8 1023 87 10000 2.1 150 14:39 27.12.2019
1843 Clouds 8 1023 93 10000 2.6 130 14:20 27.12.2019
1844 Clouds 8 1023 93 10000 2.6 130 14:20 27.12.2019
1845 Clouds 7 1023 93 10000 2.1 100 13:48 27.12.2019
1846 Clouds 7 1023 100 10000 2.6 80 13:25 27.12.2019
1847 Clouds 7 1023 100 10000 2.6 80 12:58 27.12.2019
1848 Rain 7 1023 93 10000 2.1 40 12:40 27.12.2019
1849 Rain 7 1023 93 6000 2.1 50 12:21 27.12.2019
1850 Rain 7 1022 93 8000 2.1 80 11:45 27.12.2019
1851 Rain 7 1022 93 8000 2.1 80 11:26 27.12.2019
1852 Rain 7 1022 100 8000 2.6 60 10:56 27.12.2019
1853 Rain 6 1022 100 8000 2.6 60 10:38 27.12.2019
1854 Rain 6 1022 100 8000 3.1 60 10:20 27.12.2019
1855 Rain 6 1022 100 8000 3.6 60 09:42 27.12.2019
1856 Rain 6 1022 93 5000 2.6 50 09:21 27.12.2019
1857 Rain 6 1022 93 5000 2.6 50 08:56 27.12.2019
1858 Rain 6 1022 93 3800 3.1 50 08:36 27.12.2019
1859 Rain 6 1021 93 10000 3.1 50 07:51 27.12.2019
1860 Rain 5 1021 93 10000 3.1 50 07:31 27.12.2019
1861 Rain 5 1021 93 10000 2.1 60 06:37 27.12.2019
1862 Clouds 5 1021 87 10000 3.6 110 05:37 27.12.2019
1863 Clouds 5 1021 93 10000 2.1 110 03:40 27.12.2019
1864 Clouds 5 1020 87 10000 2.1 50 02:20 27.12.2019
1865 Clouds 5 1020 87 10000 3.1 60 01:37 27.12.2019
1866 Clouds 5 1020 87 10000 3.1 90 01:18 27.12.2019
1867 Clouds 5 1019 87 10000 4.1 80 00:41 27.12.2019
1868 Clouds 5 1019 87 10000 3.1 80 00:23 27.12.2019
1869 Clouds 5 1019 87 10000 3.6 70 23:41 26.12.2019
1870 Clouds 5 1018 86 10000 3.6 70 23:22 26.12.2019
1871 Clouds 6 1018 81 10000 3.6 60 22:47 26.12.2019
1872 Clouds 5 1017 87 10000 4.1 80 22:23 26.12.2019
1873 Clouds 5 1017 81 10000 5.1 80 21:59 26.12.2019
1874 Clouds 6 1017 81 10000 5.1 80 21:39 26.12.2019
1875 Clouds 5 1017 81 10000 4.6 80 21:20 26.12.2019
1876 Clouds 5 1016 81 10000 5.1 80 20:46 26.12.2019
1877 Clouds 5 1016 81 10000 6.2 80 20:23 26.12.2019
1878 Clouds 5 1015 81 10000 5.1 80 19:59 26.12.2019
1879 Clouds 5 1015 81 10000 5.1 80 19:40 26.12.2019
1880 Clouds 5 1015 86 10000 5.7 80 19:21 26.12.2019
1881 Clouds 5 1015 86 10000 5.7 80 18:58 26.12.2019
1882 Clouds 5 1015 86 10000 5.1 70 18:39 26.12.2019
1883 Rain 5 1015 86 10000 6.2 70 18:19 26.12.2019
1884 Rain 5 1014 81 10000 5.7 70 17:55 26.12.2019
1885 Rain 6 1014 81 10000 5.7 70 17:37 26.12.2019
1886 Rain 6 1014 81 10000 4.6 70 17:18 26.12.2019
1887 Rain 6 1014 81 10000 6.2 70 16:41 26.12.2019
1888 Clouds 6 1014 81 10000 5.7 70 16:22 26.12.2019
1889 Clouds 6 1014 81 10000 5.1 80 15:55 26.12.2019
1890 Clouds 6 1014 81 10000 5.1 80 15:37 26.12.2019
1891 Clouds 6 1014 81 10000 5.7 70 15:18 26.12.2019
1892 Clouds 6 1014 75 10000 6.2 70 14:39 26.12.2019
1893 Clouds 6 1014 81 10000 4.6 80 14:21 26.12.2019
1894 Clouds 5 1014 86 10000 5.7 70 13:43 26.12.2019
1895 Clouds 5 1014 86 10000 6.2 70 13:21 26.12.2019
1896 Clouds 5 1014 86 10000 6.2 70 12:58 26.12.2019
1897 Clouds 5 1014 80 10000 7.2 60 12:38 26.12.2019
1898 Clouds 5 1014 80 10000 6.7 60 12:19 26.12.2019
1899 Clouds 5 1014 80 10000 6.7 60 11:57 26.12.2019
1900 Clouds 5 1014 80 10000 6.7 60 11:38 26.12.2019
1901 Clouds 5 1014 80 10000 7.2 70 11:19 26.12.2019
1902 Clouds 5 1015 80 10000 7.2 70 10:42 26.12.2019
1903 Clouds 4 1015 80 10000 6.2 70 10:18 26.12.2019
1904 Clouds 4 1015 80 10000 7.2 70 09:45 26.12.2019
1905 Clouds 4 1015 80 10000 7.2 70 09:26 26.12.2019
1906 Clouds 4 1016 86 10000 7.7 60 08:42 26.12.2019
1907 Clouds 4 1016 86 10000 8.2 70 08:24 26.12.2019
1908 Clouds 4 1016 86 10000 7.2 70 07:53 26.12.2019
1909 Clouds 4 1017 86 10000 7.2 70 07:26 26.12.2019
1910 Clouds 4 1017 86 10000 6.2 60 06:52 26.12.2019
1911 Clouds 4 1018 86 10000 5.1 60 06:31 26.12.2019
1912 Clouds 4 1018 86 10000 6.2 60 05:45 26.12.2019
1913 Clouds 4 1019 86 10000 4.6 60 04:48 26.12.2019
1914 Clouds 4 1019 86 10000 4.6 60 04:29 26.12.2019
1915 Clouds 3 1020 93 10000 3.6 80 02:54 26.12.2019
1916 Clouds 3 1020 93 10000 3.6 80 02:32 26.12.2019
1917 Clouds 3 1021 86 10000 3.1 110 01:46 26.12.2019
1918 Clouds 4 1021 86 10000 3.6 110 01:26 26.12.2019
1919 Clouds 4 1021 81 10000 3.6 90 00:48 26.12.2019
1920 Clouds 4 1021 81 10000 3.6 90 00:24 26.12.2019
1921 Clouds 4 1021 81 10000 3.6 90 00:24 26.12.2019
1922 Clouds 4 1021 81 10000 3.6 90 23:58 25.12.2019
1923 Clouds 4 1022 81 10000 4.1 90 23:38 25.12.2019
1924 Clouds 4 1022 87 10000 3.1 80 23:20 25.12.2019
1925 Clouds 4 1022 93 10000 2.1 70 22:57 25.12.2019
1926 Clouds 4 1022 93 10000 2.1 70 22:37 25.12.2019
1927 Clouds 4 1022 93 10000 2.6 60 22:19 25.12.2019
1928 Clouds 4 1022 93 10000 2.6 60 21:57 25.12.2019
1929 Clouds 4 1022 93 10000 2.1 60 21:39 25.12.2019
1930 Clouds 4 1022 93 10000 2.6 70 21:19 25.12.2019
1931 Clouds 4 1023 93 10000 1 0 20:41 25.12.2019
1932 Clouds 4 1023 93 10000 1 0 20:21 25.12.2019
1933 Clouds 4 1023 93 10000 1 0 19:59 25.12.2019
1934 Clouds 4 1023 93 10000 1.5 0 19:41 25.12.2019
1935 Clouds 4 1023 93 10000 1.5 70 19:21 25.12.2019
1936 Clouds 4 1023 93 10000 0.5 0 18:40 25.12.2019
1937 Clouds 4 1023 93 10000 1 240 18:21 25.12.2019
1938 Clouds 4 1023 93 10000 0.5 0 17:57 25.12.2019
1939 Clouds 4 1023 93 10000 0.5 0 17:39 25.12.2019
1940 Clouds 5 1023 87 10000 1 240 17:18 25.12.2019
1941 Clouds 5 1023 87 10000 2.6 230 16:39 25.12.2019
1942 Clouds 6 1022 93 10000 3.1 230 16:20 25.12.2019
1943 Clouds 6 1022 93 10000 3.1 230 15:59 25.12.2019
1944 Clouds 7 1022 93 10000 2.1 250 15:40 25.12.2019
1945 Clear 6 1022 87 10000 1.5 240 15:22 25.12.2019
1946 Clear 7 1022 87 10000 1.5 240 14:59 25.12.2019
1947 Clear 7 1022 87 10000 2.1 240 14:40 25.12.2019
1948 Clouds 6 1022 87 10000 1.5 250 14:22 25.12.2019
1949 Clouds 6 1022 87 10000 1.5 250 13:57 25.12.2019
1950 Clouds 6 1022 87 10000 1.5 250 13:57 25.12.2019
1951 Clouds 6 1022 93 10000 2.1 230 13:39 25.12.2019
1952 Clear 5 1022 93 10000 2.6 250 13:19 25.12.2019
1953 Clear 4 1022 93 10000 2.6 220 12:43 25.12.2019
1954 Clear 4 1022 93 10000 0.5 0 12:21 25.12.2019
1955 Clear 3 1022 93 10000 0.5 0 11:57 25.12.2019
1956 Clear 3 1022 93 10000 0.5 0 11:39 25.12.2019
1957 Clouds 3 1021 93 10000 2.1 260 11:18 25.12.2019
1958 Clouds 3 1021 100 10000 2.1 240 10:38 25.12.2019
1959 Clouds 3 1021 100 10000 1 0 10:20 25.12.2019
1960 Clouds 3 1020 93 10000 1 0 09:51 25.12.2019
1961 Clouds 3 1020 93 10000 1 0 09:32 25.12.2019
1962 Clear 4 1019 93 10000 1 250 08:51 25.12.2019
1963 Clear 4 1019 93 10000 1 250 08:31 25.12.2019
1964 Clouds 5 1018 93 10000 3.1 280 07:53 25.12.2019
1965 Clouds 5 1018 93 10000 3.1 280 07:34 25.12.2019
1966 Clouds 5 1018 87 10000 3.6 270 06:58 25.12.2019
1967 Clouds 5 1016 93 10000 2.1 270 06:23 25.12.2019
1968 Clouds 5 1015 93 10000 3.1 250 05:31 25.12.2019
1969 Clouds 5 1015 93 10000 0.5 0 04:39 25.12.2019
1970 Clouds 5 1015 93 10000 3.1 220 04:20 25.12.2019
1971 Clouds 5 1015 93 10000 4.6 230 03:42 25.12.2019
1972 Clouds 4 1014 100 10000 3.1 230 02:54 25.12.2019
1973 Clouds 4 1014 100 10000 3.1 230 02:27 25.12.2019
1974 Clouds 4 1013 100 10000 2.6 250 01:25 25.12.2019
1975 Clouds 4 1013 100 10000 1 0 00:54 25.12.2019
1976 Clouds 4 1013 100 10000 1 0 00:33 25.12.2019
1977 Rain 4 1013 100 6000 1 0 23:57 24.12.2019
1978 Clouds 4 1012 100 10000 1 0 23:38 24.12.2019
1979 Rain 4 1012 93 10000 1.5 0 23:20 24.12.2019
1980 Clouds 4 1011 93 10000 2.6 270 22:41 24.12.2019
1981 Clouds 4 1011 93 10000 2.6 270 22:41 24.12.2019
1982 Clouds 4 1011 93 10000 1 0 22:21 24.12.2019
1983 Clouds 4 1010 93 10000 1.5 0 21:44 24.12.2019
1984 Clouds 4 1010 93 10000 1.5 0 21:44 24.12.2019
1985 Clouds 4 1010 86 10000 1 0 21:23 24.12.2019
1986 Clouds 4 1010 86 10000 1 0 20:59 24.12.2019
1987 Clouds 4 1010 93 10000 1.5 260 20:40 24.12.2019
1988 Clouds 4 1009 86 10000 2.6 250 20:19 24.12.2019
1989 Clouds 4 1009 93 10000 2.1 250 19:45 24.12.2019
1990 Clouds 4 1008 93 10000 3.6 220 19:21 24.12.2019
1991 Clouds 4 1007 93 10000 3.1 230 18:57 24.12.2019
1992 Clouds 4 1007 93 10000 3.1 230 18:38 24.12.2019
1993 Clouds 4 1007 93 10000 2.1 230 18:18 24.12.2019
1994 Clouds 4 1006 93 10000 2.1 240 17:39 24.12.2019
1995 Clouds 5 1006 93 10000 3.1 230 17:21 24.12.2019
1996 Clouds 5 1005 93 10000 2.1 240 16:55 24.12.2019
1997 Clouds 5 1005 93 10000 2.1 240 16:37 24.12.2019
1998 Clouds 6 1005 87 10000 2.6 240 16:19 24.12.2019
1999 Clouds 6 1004 93 10000 2.1 240 15:55 24.12.2019
2000 Clouds 6 1004 93 10000 2.1 240 15:36 24.12.2019
2001 Clouds 6 1004 87 10000 1.5 250 15:18 24.12.2019
2002 Rain 6 1004 93 10000 1.5 240 14:55 24.12.2019
2003 Rain 5 1004 93 10000 1.5 240 14:37 24.12.2019
2004 Clouds 5 1003 100 10000 1.5 250 14:19 24.12.2019
2005 Clouds 5 1003 100 9000 1.5 260 13:55 24.12.2019
2006 Clouds 5 1003 100 9000 1.5 260 13:37 24.12.2019
2007 Clouds 5 1003 100 9000 1.5 260 13:37 24.12.2019
2008 Clouds 5 1003 100 9000 1.5 260 13:37 24.12.2019
2009 Clouds 5 1002 100 7000 1 260 13:19 24.12.2019
2010 Rain 5 1002 100 6000 0.5 0 12:55 24.12.2019
2011 Rain 5 1002 100 6000 0.5 0 12:36 24.12.2019
2012 Rain 5 1002 93 8000 0.5 350 12:18 24.12.2019
2013 Clouds 5 1002 93 8000 0.5 350 11:55 24.12.2019
2014 Clouds 5 1002 93 8000 0.5 350 11:36 24.12.2019
2015 Clouds 4 1001 100 8000 0.5 0 11:18 24.12.2019
2016 Clouds 4 1001 100 8000 0.5 0 10:55 24.12.2019
2017 Clouds 4 1001 100 8000 0.5 0 10:55 24.12.2019
2018 Clouds 4 1001 100 10000 1.5 0 10:36 24.12.2019
2019 Rain 4 1001 93 10000 1.5 100 10:18 24.12.2019
2020 Rain 4 1000 93 10000 1.5 40 09:54 24.12.2019
2021 Rain 4 1000 93 10000 1.5 40 09:36 24.12.2019
2022 Rain 4 1001 100 8000 1 330 09:18 24.12.2019
2023 Rain 4 1000 100 7000 0.5 0 08:42 24.12.2019
2024 Rain 4 1000 100 7000 0.5 0 08:42 24.12.2019
2025 Rain 4 1000 93 4300 1 270 08:19 24.12.2019
2026 Rain 4 1000 93 10000 2.1 150 07:45 24.12.2019
2027 Clouds 4 1000 93 10000 1.5 110 07:24 24.12.2019
2028 Clouds 4 1000 93 10000 1.5 110 07:23 24.12.2019
2029 Clouds 4 1000 100 10000 2.1 120 06:44 24.12.2019
2030 Clouds 4 1000 100 10000 1.5 70 06:22 24.12.2019
2031 Clouds 4 1000 100 10000 1.5 70 05:56 24.12.2019
2032 Clouds 5 1001 100 10000 1 0 05:20 24.12.2019
2033 Clouds 5 1001 93 10000 1 30 04:33 24.12.2019
2034 Clouds 5 1001 93 10000 0.5 0 03:50 24.12.2019
2035 Clouds 5 1002 93 10000 1.5 210 02:59 24.12.2019
2036 Clouds 6 1002 93 10000 4.6 220 02:18 24.12.2019
2037 Clouds 6 1002 86 10000 3.6 220 01:42 24.12.2019
2038 Clouds 6 1002 86 10000 3.6 220 01:42 24.12.2019
2039 Clouds 6 1002 87 10000 4.6 240 01:19 24.12.2019
2040 Clouds 6 1002 87 10000 4.6 230 00:40 24.12.2019
2041 Clouds 6 1002 87 10000 6.2 230 00:20 24.12.2019
2042 Clouds 6 1002 87 10000 3.6 220 23:43 23.12.2019
2043 Clouds 7 1002 87 10000 4.1 220 23:24 23.12.2019
2044 Clouds 7 1002 87 10000 4.1 220 22:58 23.12.2019
2045 Clouds 7 1002 87 10000 4.1 220 22:58 23.12.2019
2046 Clouds 7 1002 87 10000 5.7 220 22:38 23.12.2019
2047 Clouds 7 1002 87 10000 6.2 240 22:20 23.12.2019
2048 Clouds 7 1002 87 10000 6.2 240 21:57 23.12.2019
2049 Clouds 7 1002 87 10000 5.7 230 21:37 23.12.2019
2050 Clouds 7 1002 87 10000 5.7 230 21:37 23.12.2019
2051 Rain 7 1001 93 10000 7.2 230 21:19 23.12.2019
2052 Rain 7 1001 93 10000 7.2 230 20:59 23.12.2019
2053 Clouds 8 1001 87 10000 6.7 240 20:41 23.12.2019
2054 Clouds 8 1001 87 10000 6.7 250 20:19 23.12.2019
2055 Clouds 8 1001 87 10000 6.7 250 19:59 23.12.2019
2056 Rain 7 1001 93 9000 5.7 250 19:40 23.12.2019
2057 Rain 7 1001 87 10000 6.2 240 19:22 23.12.2019
2058 Rain 7 1001 87 10000 6.2 240 18:58 23.12.2019
2059 Rain 7 1001 87 10000 6.2 240 18:58 23.12.2019
2060 Rain 8 1000 87 10000 5.7 250 18:39 23.12.2019
2061 Rain 8 1000 87 10000 8.7 250 18:21 23.12.2019
2062 Rain 8 1000 87 10000 8.7 250 17:59 23.12.2019
2063 Rain 8 1000 87 10000 8.7 250 17:40 23.12.2019
2064 Rain 8 999 87 7000 8.2 250 17:19 23.12.2019
2065 Rain 8 999 87 7000 8.2 250 17:19 23.12.2019
2066 Rain 8 999 87 7000 8.2 250 16:58 23.12.2019
2067 Rain 8 999 93 10000 8.2 250 16:40 23.12.2019
2068 Rain 8 998 87 10000 9.8 240 16:19 23.12.2019
2069 Rain 8 998 81 10000 9.8 250 15:58 23.12.2019
2070 Rain 8 998 81 10000 9.8 250 15:37 23.12.2019
2071 Rain 8 998 93 10000 8.2 250 15:19 23.12.2019
2072 Rain 8 997 81 10000 7.7 250 14:56 23.12.2019
2073 Rain 8 997 81 10000 7.7 250 14:38 23.12.2019
2074 Rain 8 997 87 10000 8.2 250 14:19 23.12.2019
2075 Rain 8 997 93 10000 6.7 250 13:56 23.12.2019
2076 Rain 8 997 93 10000 6.7 250 13:38 23.12.2019
2077 Rain 8 996 87 6000 7.2 240 13:20 23.12.2019
2078 Rain 8 996 87 10000 6.7 240 12:54 23.12.2019
2079 Rain 8 996 87 10000 6.7 240 12:36 23.12.2019
2080 Rain 8 996 87 10000 6.7 240 12:36 23.12.2019
2081 Rain 7 995 93 10000 8.2 230 12:18 23.12.2019
2082 Rain 7 995 93 10000 8.2 230 11:42 23.12.2019
2083 Rain 7 995 93 5000 9.3 220 11:22 23.12.2019
2084 Rain 7 994 93 7000 10.3 220 10:56 23.12.2019
2085 Rain 7 994 93 7000 10.3 220 10:37 23.12.2019
2086 Rain 7 994 93 6000 8.2 210 10:18 23.12.2019
2087 Rain 7 994 93 4500 9.3 210 09:56 23.12.2019
2088 Rain 7 994 93 4500 9.3 210 09:37 23.12.2019
2089 Rain 7 994 93 5000 9.8 220 09:19 23.12.2019
2090 Rain 7 994 93 10000 7.7 220 08:41 23.12.2019
2091 Rain 7 993 87 10000 7.2 220 08:22 23.12.2019
2092 Rain 6 993 93 7000 4.6 210 07:56 23.12.2019
2093 Rain 6 993 93 7000 4.6 210 07:38 23.12.2019
2094 Rain 6 993 93 10000 3.1 220 07:18 23.12.2019
2095 Rain 6 993 93 7000 2.1 180 06:39 23.12.2019
2096 Rain 6 993 93 10000 3.6 190 06:21 23.12.2019
2097 Rain 6 992 87 10000 2.6 190 05:44 23.12.2019
2098 Rain 6 992 87 10000 4.1 240 04:40 23.12.2019
2099 Rain 6 992 93 10000 3.6 240 03:58 23.12.2019
2100 Rain 6 990 100 5000 2.1 240 02:46 23.12.2019
2101 Rain 5 990 100 1900 0.5 0 02:19 23.12.2019
2102 Mist 5 989 100 3800 0.5 0 01:46 23.12.2019
2103 Rain 5 989 93 6000 1 0 01:27 23.12.2019
2104 Drizzle 5 989 100 5000 1 40 00:46 23.12.2019
2105 Rain 5 989 93 8000 1.5 0 00:25 23.12.2019
2106 Rain 5 988 100 6000 1.5 0 23:56 22.12.2019
2107 Rain 5 988 100 6000 1.5 0 23:37 22.12.2019
2108 Clouds 5 988 100 6000 1.5 0 23:18 22.12.2019
2109 Drizzle 5 988 100 6000 1.5 80 22:41 22.12.2019
2110 Mist 5 988 100 5000 1.5 40 22:22 22.12.2019
2111 Clouds 5 987 93 6000 1.5 340 21:59 22.12.2019
2112 Clouds 5 987 93 6000 1.5 340 21:40 22.12.2019
2113 Clouds 5 987 100 6000 1.5 270 21:21 22.12.2019
2114 Clouds 5 987 100 6000 1.5 270 21:21 22.12.2019
2115 Clouds 5 987 100 6000 1.5 270 20:59 22.12.2019
2116 Clouds 5 986 93 6000 1 0 20:39 22.12.2019
2117 Clouds 5 986 100 8000 1 0 20:19 22.12.2019
2118 Clouds 5 986 93 10000 0.5 0 19:57 22.12.2019
2119 Clouds 5 986 93 10000 0.5 0 19:39 22.12.2019
2120 Clouds 5 985 100 10000 0.5 210 19:20 22.12.2019
2121 Clouds 5 985 93 7000 0.5 0 18:42 22.12.2019
2122 Clouds 5 984 93 7000 1.5 40 18:24 22.12.2019
2123 Clouds 5 984 93 7000 1.5 40 17:57 22.12.2019
2124 Clouds 6 984 93 9000 1.5 200 17:39 22.12.2019
2125 Drizzle 5 984 93 4400 1 280 17:19 22.12.2019
2126 Clouds 6 983 93 10000 0.5 340 16:57 22.12.2019
2127 Clouds 6 983 93 10000 0.5 340 16:57 22.12.2019
2128 Clouds 6 983 93 10000 0.5 340 16:39 22.12.2019
2129 Clouds 6 983 93 10000 0.5 30 16:21 22.12.2019
2130 Clouds 6 983 93 10000 0.5 30 15:56 22.12.2019
2131 Clouds 6 982 93 10000 0.5 10 15:38 22.12.2019
2132 Clouds 6 982 93 10000 1 20 15:20 22.12.2019
2133 Clouds 6 982 93 10000 0.5 0 14:55 22.12.2019
2134 Clouds 6 982 93 10000 1 20 14:55 22.12.2019
2135 Clouds 6 982 93 10000 0.5 0 14:37 22.12.2019
2136 Clouds 6 982 93 10000 0.5 0 14:18 22.12.2019
2137 Clouds 6 981 100 7000 0.5 0 13:55 22.12.2019
2138 Clouds 6 981 100 7000 0.5 0 13:36 22.12.2019
2139 Clouds 6 981 100 7000 0.5 0 13:36 22.12.2019
2140 Clouds 6 981 100 9000 0.5 70 13:18 22.12.2019
2141 Clouds 5 981 100 9000 1.5 0 12:55 22.12.2019
2142 Clouds 5 981 100 9000 1.5 0 12:55 22.12.2019
2143 Clouds 5 981 100 9000 1.5 0 12:37 22.12.2019
2144 Clouds 5 981 100 7000 1 0 12:18 22.12.2019
2145 Clouds 5 981 100 7000 1 0 11:55 22.12.2019
2146 Clouds 5 981 100 6000 1 0 11:36 22.12.2019
2147 Mist 5 980 93 5000 1 120 11:18 22.12.2019
2148 Mist 5 980 93 5000 0.5 0 10:54 22.12.2019
2149 Mist 5 980 93 5000 0.5 0 10:36 22.12.2019
2150 Mist 4 980 100 5000 1 20 10:18 22.12.2019
2151 Mist 4 979 93 5000 0.5 0 09:41 22.12.2019
2152 Drizzle 4 979 93 5000 0.5 0 09:22 22.12.2019
2153 Drizzle 4 979 93 5000 0.5 0 08:59 22.12.2019
2154 Clouds 4 979 93 10000 1.5 60 08:38 22.12.2019
2155 Clouds 4 979 93 10000 1.5 60 08:38 22.12.2019
2156 Mist 4 978 93 4300 2.1 70 08:20 22.12.2019
2157 Mist 4 978 100 3600 1.5 50 07:39 22.12.2019
2158 Drizzle 4 978 100 3700 1 50 07:20 22.12.2019
2159 Mist 4 978 100 5000 0.5 0 06:41 22.12.2019
2160 Mist 4 977 100 4700 1.5 50 05:54 22.12.2019
2161 Mist 4 977 93 5000 2.1 70 05:23 22.12.2019
2162 Rain 4 977 93 3600 1.5 50 04:29 22.12.2019
2163 Clouds 4 977 93 6000 2.1 60 03:53 22.12.2019
2164 Clouds 5 976 93 6000 2.1 50 02:40 22.12.2019
2165 Clouds 4 976 93 7000 2.1 60 01:47 22.12.2019
2166 Clouds 4 976 93 7000 2.1 60 01:28 22.12.2019
2167 Clouds 4 975 93 7000 2.6 60 00:47 22.12.2019
2168 Clouds 4 975 93 7000 2.6 50 00:23 22.12.2019
2169 Rain 4 975 93 8000 3.1 50 23:56 21.12.2019
2170 Rain 5 975 93 8000 3.1 50 23:38 21.12.2019
2171 Rain 5 975 93 7000 2.6 70 23:19 21.12.2019
2172 Rain 5 975 93 10000 2.1 80 22:41 21.12.2019
2173 Rain 5 974 93 10000 3.6 60 22:19 21.12.2019
2174 Clouds 5 974 93 10000 3.6 60 21:57 21.12.2019
2175 Clouds 5 974 93 10000 3.6 60 21:37 21.12.2019
2176 Clouds 5 974 87 10000 3.1 60 21:19 21.12.2019
2177 Clouds 5 974 87 10000 3.1 60 20:58 21.12.2019
2178 Clouds 5 974 87 10000 3.1 70 20:39 21.12.2019
2179 Clouds 5 974 87 10000 3.1 70 20:39 21.12.2019
2180 Clouds 5 974 87 10000 3.1 60 20:21 21.12.2019
2181 Clouds 5 974 87 10000 3.1 60 19:58 21.12.2019
2182 Clouds 5 974 93 10000 2.1 50 19:40 21.12.2019
2183 Clouds 5 974 87 10000 2.6 70 19:19 21.12.2019
2184 Clouds 5 974 87 10000 2.6 70 19:19 21.12.2019
2185 Clouds 5 974 87 10000 2.6 60 18:44 21.12.2019
2186 Clouds 5 974 87 10000 4.1 60 18:24 21.12.2019
2187 Clouds 5 974 93 10000 3.1 60 17:57 21.12.2019
2188 Clouds 5 974 93 10000 3.1 60 17:39 21.12.2019
2189 Clouds 5 974 93 10000 3.6 60 17:21 21.12.2019
2190 Clouds 5 974 93 10000 3.6 60 16:58 21.12.2019
2191 Clouds 5 974 87 10000 3.6 60 16:39 21.12.2019
2192 Clouds 6 974 81 10000 3.6 90 16:18 21.12.2019
2193 Clouds 6 974 87 10000 3.1 60 15:56 21.12.2019
2194 Clouds 6 974 87 10000 3.1 60 15:38 21.12.2019
2195 Clouds 6 974 93 10000 3.6 50 15:19 21.12.2019
2196 Clouds 6 974 93 10000 2.6 70 14:44 21.12.2019
2197 Clouds 6 974 93 10000 2.1 60 14:25 21.12.2019
2198 Clouds 6 975 87 10000 2.6 70 13:59 21.12.2019
2199 Clouds 6 975 87 10000 2.6 70 13:40 21.12.2019
2200 Clouds 5 975 93 10000 3.1 60 13:20 21.12.2019
2201 Clouds 5 975 93 10000 3.1 60 12:57 21.12.2019
2202 Clouds 5 975 93 10000 2.6 60 12:39 21.12.2019
2203 Clouds 4 975 93 10000 2.6 60 12:21 21.12.2019
2204 Clouds 4 975 93 10000 2.6 60 11:57 21.12.2019
2205 Clouds 4 975 86 10000 2.1 50 11:39 21.12.2019
2206 Clouds 3 976 93 10000 2.1 50 11:21 21.12.2019
2207 Clouds 3 976 93 10000 2.6 60 10:41 21.12.2019
2208 Clouds 3 976 93 10000 1.5 60 10:23 21.12.2019
2209 Clouds 3 976 93 10000 1.5 60 10:23 21.12.2019
2210 Clouds 3 976 93 10000 1.5 60 09:58 21.12.2019
2211 Clouds 3 976 86 10000 2.6 110 09:40 21.12.2019
2212 Clouds 3 976 86 10000 2.1 140 09:20 21.12.2019
2213 Clouds 3 976 86 10000 4.1 170 08:52 21.12.2019
2214 Clouds 3 976 86 10000 4.1 170 08:27 21.12.2019
2215 Clouds 3 975 93 10000 2.6 90 07:58 21.12.2019
2216 Clouds 3 975 93 10000 2.6 90 07:40 21.12.2019
2217 Clouds 3 976 93 10000 1.5 30 07:21 21.12.2019
2218 Clouds 3 976 93 10000 1.5 0 06:41 21.12.2019
2219 Clouds 4 976 93 10000 4.6 180 06:23 21.12.2019
2220 Clouds 4 976 93 10000 2.1 220 05:37 21.12.2019
2221 Clouds 4 976 93 10000 4.1 190 04:55 21.12.2019
2222 Clouds 5 976 93 10000 5.7 210 03:56 21.12.2019
2223 Clouds 5 975 93 10000 5.7 220 02:26 21.12.2019
2224 Rain 6 975 93 10000 5.7 230 01:50 21.12.2019
2225 Clouds 6 975 87 10000 5.7 230 01:25 21.12.2019
2226 Clouds 6 975 100 10000 4.1 240 00:49 21.12.2019
2227 Clouds 6 975 100 10000 4.1 240 00:28 21.12.2019
2228 Clouds 6 975 93 10000 2.6 250 23:39 20.12.2019
2229 Clouds 6 975 93 10000 2.6 250 23:39 20.12.2019
2230 Rain 6 975 93 10000 4.1 230 23:21 20.12.2019
2231 Rain 6 974 93 10000 3.1 230 22:59 20.12.2019
2232 Rain 6 974 93 10000 3.1 230 22:39 20.12.2019
2233 Rain 7 974 87 10000 4.1 250 22:19 20.12.2019
2234 Rain 6 974 93 10000 3.6 240 21:54 20.12.2019
2235 Rain 6 974 93 10000 3.6 240 21:36 20.12.2019
2236 Clouds 6 974 93 10000 3.1 240 21:18 20.12.2019
2237 Clouds 6 974 93 10000 3.1 240 21:18 20.12.2019
2238 Clouds 6 974 93 10000 3.6 230 20:38 20.12.2019
2239 Clouds 6 974 93 10000 3.6 230 20:38 20.12.2019
2240 Clouds 6 974 93 10000 3.6 230 20:19 20.12.2019
2241 Clouds 6 974 93 10000 4.1 230 19:56 20.12.2019
2242 Clouds 6 974 93 10000 4.1 230 19:38 20.12.2019
2243 Clouds 6 974 93 10000 2.6 240 19:18 20.12.2019
2244 Clouds 6 974 93 10000 2.6 240 19:18 20.12.2019
2245 Clouds 6 974 93 10000 1.5 250 18:41 20.12.2019
2246 Clouds 7 973 93 10000 2.6 240 18:22 20.12.2019
2247 Clouds 7 973 93 10000 2.6 240 17:57 20.12.2019
2248 Rain 7 973 93 10000 3.1 230 17:39 20.12.2019
2249 Rain 7 973 93 10000 3.1 230 17:39 20.12.2019
2250 Rain 7 973 93 10000 3.1 230 17:20 20.12.2019
2251 Clouds 7 973 93 10000 3.1 230 16:56 20.12.2019
2252 Clouds 7 973 87 10000 2.6 230 16:38 20.12.2019
2253 Clouds 7 973 87 10000 2.6 230 16:38 20.12.2019
2254 Clouds 7 973 87 10000 2.6 230 16:38 20.12.2019
2255 Clouds 7 973 87 10000 2.6 230 16:19 20.12.2019
2256 Clouds 7 974 93 10000 2.1 240 15:54 20.12.2019
2257 Clouds 7 974 87 10000 4.1 220 15:36 20.12.2019
2258 Clouds 8 974 87 10000 4.1 220 15:18 20.12.2019
2259 Clouds 7 974 93 10000 3.1 230 14:42 20.12.2019
2260 Clouds 8 974 87 10000 3.1 230 14:23 20.12.2019
2261 Clouds 8 975 87 10000 1.5 0 13:57 20.12.2019
2262 Clouds 8 975 87 10000 1.5 0 13:37 20.12.2019
2263 Clouds 8 975 87 10000 1.5 0 13:18 20.12.2019
2264 Clouds 7 976 93 10000 1.5 0 12:55 20.12.2019
2265 Clouds 7 976 93 10000 2.1 170 12:36 20.12.2019
2266 Clouds 7 976 93 10000 2.1 170 12:18 20.12.2019
2267 Clouds 7 976 87 10000 2.1 190 11:57 20.12.2019
2268 Clouds 7 976 93 10000 3.1 150 11:38 20.12.2019
2269 Clouds 7 976 93 10000 3.1 150 11:18 20.12.2019
2270 Rain 7 976 93 10000 3.6 180 10:55 20.12.2019
2271 Drizzle 7 976 93 5000 3.6 190 10:37 20.12.2019
2272 Drizzle 7 976 93 5000 3.6 190 10:18 20.12.2019
2273 Rain 7 976 93 7000 2.6 170 09:42 20.12.2019
2274 Rain 7 976 87 9000 3.6 160 09:21 20.12.2019
2275 Clouds 8 976 87 9000 4.1 150 08:54 20.12.2019
2276 Rain 8 976 87 10000 3.1 140 08:36 20.12.2019
2277 Rain 8 976 87 10000 3.1 140 08:18 20.12.2019
2278 Rain 8 976 87 7000 4.6 160 07:41 20.12.2019
2279 Rain 8 976 87 7000 4.6 160 07:20 20.12.2019
2280 Clouds 8 976 87 10000 4.1 140 06:52 20.12.2019
2281 Clouds 8 976 81 10000 5.1 150 06:33 20.12.2019
2282 Clouds 8 976 81 10000 5.1 150 05:56 20.12.2019
2283 Clouds 8 976 81 10000 4.1 140 05:38 20.12.2019
2284 Clouds 8 977 81 10000 4.6 160 04:34 20.12.2019
2285 Clouds 8 977 87 10000 4.1 140 03:31 20.12.2019
2286 Clouds 8 977 81 10000 5.7 130 02:45 20.12.2019
2287 Rain 8 978 87 10000 4.6 130 01:54 20.12.2019
2288 Rain 8 978 93 10000 3.6 100 01:34 20.12.2019
2289 Rain 8 978 93 10000 3.6 100 00:49 20.12.2019
2290 Rain 8 978 93 9000 2.6 100 00:30 20.12.2019
2291 Rain 8 979 93 7000 2.1 110 23:56 19.12.2019
2292 Rain 8 979 100 6000 2.1 110 23:38 19.12.2019
2293 Rain 8 979 100 6000 2.1 110 23:18 19.12.2019
2294 Rain 8 981 93 8000 6.2 60 22:38 19.12.2019
2295 Rain 8 981 93 8000 6.2 60 22:20 19.12.2019
2296 Rain 8 981 93 6000 7.2 60 21:56 19.12.2019
2297 Rain 8 983 93 7000 5.1 60 21:37 19.12.2019
2298 Rain 8 983 93 7000 5.1 60 21:18 19.12.2019
2299 Rain 8 984 93 7000 5.1 80 20:56 19.12.2019
2300 Rain 8 984 93 10000 4.6 80 20:37 19.12.2019
2301 Rain 8 984 93 10000 4.6 80 20:18 19.12.2019
2302 Rain 8 985 93 10000 5.1 60 19:57 19.12.2019
2303 Rain 8 985 93 10000 5.1 60 19:57 19.12.2019
2304 Rain 8 985 93 10000 5.1 60 19:39 19.12.2019
2305 Rain 8 985 93 10000 5.1 60 19:39 19.12.2019
2306 Rain 8 986 93 10000 4.6 70 19:19 19.12.2019
2307 Rain 8 986 93 10000 4.6 70 19:19 19.12.2019
2308 Clouds 8 987 93 10000 4.6 60 18:41 19.12.2019
2309 Clouds 8 987 93 10000 4.6 60 18:23 19.12.2019
2310 Rain 8 988 93 10000 4.1 50 17:58 19.12.2019
2311 Rain 8 988 93 10000 4.1 50 17:40 19.12.2019
2312 Clouds 8 989 93 10000 3.1 60 17:19 19.12.2019
2313 Clouds 8 989 93 10000 3.1 60 17:19 19.12.2019
2314 Clouds 8 989 87 10000 3.1 80 16:59 19.12.2019
2315 Clouds 8 989 87 10000 3.1 80 16:41 19.12.2019
2316 Clouds 8 989 87 10000 4.1 90 16:22 19.12.2019
2317 Rain 8 990 81 10000 4.6 100 15:59 19.12.2019
2318 Rain 8 990 81 10000 4.6 100 15:59 19.12.2019
2319 Rain 9 990 81 10000 4.6 100 15:40 19.12.2019
2320 Rain 9 990 81 10000 4.1 120 15:20 19.12.2019
2321 Clouds 9 991 76 10000 4.6 140 14:59 19.12.2019
2322 Clouds 9 991 81 10000 4.6 130 14:41 19.12.2019
2323 Clouds 9 991 81 10000 4.6 130 14:41 19.12.2019
2324 Clouds 9 991 81 10000 4.6 130 14:19 19.12.2019
2325 Clouds 9 991 81 10000 3.6 130 13:57 19.12.2019
2326 Clouds 9 991 81 10000 3.1 90 13:37 19.12.2019
2327 Clouds 9 991 81 10000 3.1 90 13:18 19.12.2019
2328 Rain 9 992 81 10000 2.6 90 12:55 19.12.2019
2329 Rain 9 992 81 10000 2.6 90 12:55 19.12.2019
2330 Clouds 9 992 81 10000 2.1 110 12:37 19.12.2019
2331 Clouds 9 992 81 10000 2.1 110 12:18 19.12.2019
2332 Clouds 9 992 81 10000 2.1 110 12:18 19.12.2019
2333 Clouds 9 992 81 10000 2.1 110 12:18 19.12.2019
2334 Clouds 9 992 87 10000 3.1 100 11:57 19.12.2019
2335 Clouds 9 991 81 10000 3.1 100 11:38 19.12.2019
2336 Clouds 8 991 81 10000 3.1 100 11:18 19.12.2019
2337 Clouds 8 991 81 10000 3.6 130 10:39 19.12.2019
2338 Clouds 8 991 81 10000 3.6 130 10:20 19.12.2019
2339 Clouds 8 991 81 10000 3.1 130 09:59 19.12.2019
2340 Clouds 8 991 81 10000 2.6 130 09:38 19.12.2019
2341 Clouds 8 991 81 10000 2.6 130 09:20 19.12.2019
2342 Clouds 8 991 81 10000 2.6 130 09:20 19.12.2019
2343 Clouds 8 991 87 10000 3.6 130 08:57 19.12.2019
2344 Clouds 8 991 81 10000 3.1 130 08:39 19.12.2019
2345 Rain 9 991 81 10000 3.1 130 08:18 19.12.2019
2346 Clouds 9 991 87 10000 3.6 110 07:55 19.12.2019
2347 Clouds 9 991 87 10000 3.6 110 07:55 19.12.2019
2348 Clouds 9 991 81 10000 3.1 120 07:37 19.12.2019
2349 Clouds 9 991 81 10000 3.1 120 07:19 19.12.2019
2350 Clouds 9 991 87 10000 2.6 100 06:45 19.12.2019
2351 Rain 9 990 81 10000 1.5 0 06:26 19.12.2019
2352 Rain 9 990 81 10000 3.6 140 05:49 19.12.2019
2353 Rain 9 990 81 10000 6.2 170 05:28 19.12.2019
2354 Rain 9 990 81 10000 5.7 160 04:41 19.12.2019
2355 Clouds 9 990 81 10000 7.2 160 02:48 19.12.2019
2356 Clouds 8 989 87 10000 4.6 110 01:46 19.12.2019
2357 Rain 8 989 87 10000 6.7 100 01:21 19.12.2019
2358 Clouds 7 990 87 10000 7.7 100 00:39 19.12.2019
2359 Clouds 7 990 87 10000 7.7 100 00:39 19.12.2019
2360 Clouds 7 990 87 10000 7.7 100 00:39 19.12.2019
2361 Clouds 7 990 87 10000 7.7 100 00:19 19.12.2019
2362 Rain 6 991 87 10000 5.7 70 23:45 18.12.2019
2363 Rain 6 991 87 10000 7.7 80 23:19 18.12.2019
2364 Rain 6 992 93 4600 6.7 70 22:58 18.12.2019
2365 Rain 5 992 86 5000 6.7 70 22:40 18.12.2019
2366 Rain 5 992 86 5000 6.7 70 22:22 18.12.2019
2367 Rain 5 993 86 10000 8.2 70 21:59 18.12.2019
2368 Rain 5 993 86 10000 8.2 70 21:41 18.12.2019
2369 Rain 5 994 86 10000 7.7 80 21:21 18.12.2019
2370 Rain 5 994 86 10000 7.7 80 21:21 18.12.2019
2371 Rain 5 994 86 10000 8.2 80 20:57 18.12.2019
2372 Rain 4 995 93 10000 7.2 80 20:39 18.12.2019
2373 Rain 4 995 93 10000 7.2 80 20:20 18.12.2019
2374 Rain 4 996 93 10000 6.7 80 19:57 18.12.2019
2375 Rain 4 997 93 6000 7.7 70 19:39 18.12.2019
2376 Rain 4 997 93 6000 7.7 70 19:19 18.12.2019
2377 Rain 4 998 93 6000 7.2 70 18:56 18.12.2019
2378 Rain 4 998 93 6000 7.2 70 18:56 18.12.2019
2379 Rain 4 998 86 9000 7.7 70 18:38 18.12.2019
2380 Rain 4 998 86 9000 7.7 70 18:20 18.12.2019
2381 Rain 4 999 86 10000 7.2 70 17:55 18.12.2019
2382 Rain 4 999 86 10000 7.2 70 17:55 18.12.2019
2383 Rain 4 1000 93 10000 6.2 80 17:37 18.12.2019
2384 Rain 4 1000 93 10000 6.2 80 17:19 18.12.2019
2385 Rain 4 1001 93 10000 6.2 70 16:42 18.12.2019
2386 Rain 3 1001 93 10000 6.7 60 16:24 18.12.2019
2387 Rain 3 1001 93 10000 6.7 60 15:59 18.12.2019
2388 Rain 3 1002 93 7000 4.6 60 15:39 18.12.2019
2389 Clouds 4 1002 93 10000 5.1 70 15:21 18.12.2019
2390 Clouds 3 1003 93 10000 4.6 60 14:57 18.12.2019
2391 Clouds 3 1003 93 10000 4.6 60 14:39 18.12.2019
2392 Clouds 3 1003 93 10000 4.6 70 14:19 18.12.2019
2393 Clouds 3 1003 93 10000 4.1 60 13:55 18.12.2019
2394 Clouds 3 1003 93 10000 4.1 60 13:37 18.12.2019
2395 Clouds 3 1003 100 10000 4.1 70 13:18 18.12.2019
2396 Clouds 3 1004 93 10000 3.6 50 12:41 18.12.2019
2397 Clouds 2 1004 100 10000 3.6 60 12:22 18.12.2019
2398 Clouds 2 1004 100 10000 3.6 60 11:57 18.12.2019
2399 Clouds 1 1005 100 9000 3.1 80 11:39 18.12.2019
2400 Clouds 1 1005 95 10000 3.1 70 11:20 18.12.2019
2401 Clouds 1 1004 95 7000 3.1 60 10:58 18.12.2019
2402 Clouds 1 1004 95 7000 3.1 60 10:39 18.12.2019
2403 Clouds 0 1004 100 10000 3.1 70 10:21 18.12.2019
2404 Clouds 0 1004 100 10000 3.1 70 09:59 18.12.2019
2405 Clouds 0 1004 100 10000 3.1 70 09:59 18.12.2019
2406 Clouds 0 1004 100 10000 2.6 60 09:21 18.12.2019
2407 Clouds 0 1004 100 10000 2.6 60 08:55 18.12.2019
2408 Clouds 0 1004 100 10000 2.6 60 08:37 18.12.2019
2409 Clouds 0 1004 92 6000 3.1 40 08:19 18.12.2019
2410 Mist 0 1004 92 2600 2.6 60 07:42 18.12.2019
2411 Clouds 0 1004 100 6000 2.1 80 07:21 18.12.2019
2412 Mist 0 1004 92 1200 2.1 60 06:52 18.12.2019
2413 Fog 0 1004 100 250 2.1 40 06:26 18.12.2019
2414 Mist 1 1004 95 5000 1.5 40 05:37 18.12.2019
2415 Clouds 1 1003 95 7000 1 0 04:33 18.12.2019
2416 Mist 1 1002 92 1400 2.1 20 02:48 18.12.2019
2417 Clouds 1 1002 93 10000 2.1 190 02:29 18.12.2019
2418 Fog 0 1002 100 200 0.5 140 01:46 18.12.2019
2419 Fog 0 1001 100 350 1 0 01:27 18.12.2019
2420 Fog 1 1001 100 350 1 0 00:59 18.12.2019
2421 Fog 1 1001 100 450 1 0 00:39 18.12.2019
2422 Mist 1 1001 86 5000 1 0 00:21 18.12.2019
2423 Clouds 1 1001 86 10000 1 0 23:43 17.12.2019
2424 Clouds 1 1000 87 8000 1 0 23:24 17.12.2019
2425 Clouds 1 1000 87 10000 1 0 22:57 17.12.2019
2426 Clouds 1 1000 87 10000 1 0 22:39 17.12.2019
2427 Clouds 1 1000 87 10000 0.5 0 22:20 17.12.2019
2428 Clouds 1 999 87 10000 3.6 260 21:57 17.12.2019
2429 Clouds 1 999 87 10000 3.6 260 21:39 17.12.2019
2430 Clouds 1 999 92 10000 2.6 250 21:20 17.12.2019
2431 Clouds 1 999 92 10000 2.6 250 20:59 17.12.2019
2432 Clouds 2 999 87 10000 2.6 250 20:40 17.12.2019
2433 Clear 2 998 89 10000 3.1 250 20:19 17.12.2019
2434 Clear 2 998 89 10000 3.1 250 19:58 17.12.2019
2435 Clouds 2 998 89 10000 3.6 230 19:39 17.12.2019
2436 Clouds 2 998 93 10000 2.6 240 19:20 17.12.2019
2437 Clouds 3 998 93 10000 3.1 230 18:57 17.12.2019
2438 Clouds 3 998 93 10000 3.1 230 18:38 17.12.2019
2439 Clouds 3 997 86 10000 2.6 210 18:20 17.12.2019
2440 Clear 4 997 86 10000 3.1 210 17:55 17.12.2019
2441 Clear 4 997 86 10000 3.1 210 17:37 17.12.2019
2442 Clouds 4 997 80 10000 2.6 210 17:18 17.12.2019
2443 Clouds 5 996 86 10000 2.1 180 16:55 17.12.2019
2444 Clouds 5 996 86 10000 2.1 180 16:36 17.12.2019
2445 Clouds 5 996 81 10000 2.6 230 16:18 17.12.2019
2446 Clouds 5 996 81 10000 2.6 230 16:18 17.12.2019
2447 Clouds 6 996 81 10000 3.1 280 15:38 17.12.2019
2448 Clouds 6 995 87 10000 2.6 250 15:20 17.12.2019
2449 Clouds 6 995 87 10000 4.1 250 14:56 17.12.2019
2450 Clouds 5 995 87 10000 4.1 250 14:38 17.12.2019
2451 Clouds 6 995 87 10000 3.6 280 14:19 17.12.2019
2452 Clouds 6 995 87 10000 3.6 280 13:58 17.12.2019
2453 Clouds 6 995 87 10000 3.1 270 13:39 17.12.2019
2454 Rain 6 995 87 10000 4.1 270 13:19 17.12.2019
2455 Rain 6 995 87 10000 4.1 270 13:19 17.12.2019
2456 Clouds 6 994 87 10000 2.1 270 12:59 17.12.2019
2457 Clouds 6 994 87 10000 2.1 270 12:38 17.12.2019
2458 Clouds 5 994 93 10000 4.6 220 12:18 17.12.2019
2459 Rain 5 994 100 10000 5.1 240 11:56 17.12.2019
2460 Rain 5 994 100 10000 5.1 240 11:36 17.12.2019
2461 Clouds 5 993 93 8000 8.2 220 11:18 17.12.2019
2462 Clouds 5 993 93 10000 7.2 230 10:56 17.12.2019
2463 Clouds 5 993 93 10000 7.2 230 10:37 17.12.2019
2464 Rain 5 993 93 10000 5.7 220 10:19 17.12.2019
2465 Rain 5 992 87 9000 7.2 220 09:42 17.12.2019
2466 Rain 5 992 87 10000 5.7 210 09:22 17.12.2019
2467 Rain 5 992 87 10000 5.7 210 08:58 17.12.2019
2468 Rain 5 992 93 10000 4.1 220 08:40 17.12.2019
2469 Rain 5 992 93 9000 6.7 200 08:21 17.12.2019
2470 Rain 5 992 93 9000 6.7 200 07:58 17.12.2019
2471 Rain 5 991 87 6000 7.7 190 07:39 17.12.2019
2472 Rain 5 991 93 7000 7.7 170 07:20 17.12.2019
2473 Rain 5 991 93 10000 7.7 170 06:41 17.12.2019
2474 Rain 5 992 86 9000 7.2 180 06:22 17.12.2019
2475 Rain 4 992 86 5000 6.7 180 05:40 17.12.2019
2476 Rain 5 992 93 6000 6.7 190 04:48 17.12.2019
2477 Clouds 5 992 86 10000 7.7 170 03:31 17.12.2019
2478 Clouds 4 993 86 10000 5.1 170 01:59 17.12.2019
2479 Clouds 4 993 80 10000 5.7 170 01:21 17.12.2019
2480 Clouds 4 993 80 10000 7.7 190 00:39 17.12.2019
2481 Clouds 4 993 80 10000 7.7 190 00:39 17.12.2019
2482 Clouds 4 993 86 10000 6.2 180 00:21 17.12.2019
2483 Clouds 4 993 86 10000 6.7 180 23:43 16.12.2019
2484 Clouds 4 993 86 10000 5.7 190 23:19 16.12.2019
2485 Clouds 4 993 86 10000 5.7 180 22:58 16.12.2019
2486 Clouds 4 993 86 10000 5.7 180 22:38 16.12.2019
2487 Rain 5 993 86 10000 6.7 190 22:20 16.12.2019
2488 Rain 4 993 86 10000 6.7 190 21:56 16.12.2019
2489 Rain 4 993 86 10000 6.2 190 21:38 16.12.2019
2490 Rain 5 993 86 10000 6.2 200 21:20 16.12.2019
2491 Clouds 5 993 86 10000 4.6 180 20:58 16.12.2019
2492 Clouds 5 993 86 10000 4.6 180 20:38 16.12.2019
2493 Rain 5 993 86 10000 5.1 190 20:19 16.12.2019
2494 Rain 5 993 93 10000 5.7 190 19:56 16.12.2019
2495 Rain 5 993 93 10000 5.7 190 19:37 16.12.2019
2496 Rain 5 992 93 6000 8.2 210 19:19 16.12.2019
2497 Clouds 5 992 81 10000 8.2 210 18:56 16.12.2019
2498 Clouds 5 992 81 10000 8.2 210 18:56 16.12.2019
2499 Clouds 5 992 81 10000 8.2 210 18:38 16.12.2019
2500 Clouds 5 992 81 10000 8.2 210 18:38 16.12.2019
2501 Clouds 5 992 81 10000 8.7 210 18:19 16.12.2019
2502 Clouds 5 992 81 10000 8.2 210 17:57 16.12.2019
2503 Clouds 5 992 81 10000 8.2 210 17:38 16.12.2019
2504 Clouds 5 991 87 10000 8.7 210 17:20 16.12.2019
2505 Clouds 5 991 87 10000 8.7 210 16:57 16.12.2019
2506 Clouds 6 991 87 10000 8.7 210 16:38 16.12.2019
2507 Clouds 6 991 87 10000 8.7 210 16:19 16.12.2019
2508 Clouds 6 991 87 10000 8.7 210 15:57 16.12.2019
2509 Clouds 6 990 87 10000 7.7 210 15:38 16.12.2019
2510 Rain 6 990 81 10000 9.8 220 15:20 16.12.2019
2511 Rain 6 990 87 10000 10.3 220 14:55 16.12.2019
2512 Rain 6 990 87 10000 10.3 220 14:37 16.12.2019
2513 Rain 6 990 87 10000 10.3 220 14:37 16.12.2019
2514 Rain 6 990 87 10000 10.8 210 14:18 16.12.2019
2515 Rain 5 990 87 10000 10.3 210 13:56 16.12.2019
2516 Rain 5 990 87 10000 10.8 210 13:56 16.12.2019
2517 Rain 5 990 87 10000 10.3 210 13:37 16.12.2019
2518 Rain 5 990 87 10000 9.8 210 13:19 16.12.2019
2519 Rain 5 990 87 10000 8.2 200 12:56 16.12.2019
2520 Rain 5 990 87 10000 8.2 200 12:38 16.12.2019
2521 Rain 4 990 86 10000 7.2 210 12:18 16.12.2019
2522 Rain 4 990 86 10000 7.2 210 12:18 16.12.2019
2523 Clouds 4 990 93 10000 6.7 210 11:55 16.12.2019
2524 Clouds 4 990 93 10000 6.7 210 11:37 16.12.2019
2525 Clouds 4 990 93 10000 4.1 200 11:19 16.12.2019
2526 Drizzle 3 989 93 10000 3.6 180 10:40 16.12.2019
2527 Drizzle 3 989 93 10000 3.6 180 10:40 16.12.2019
2528 Drizzle 3 989 93 10000 3.6 180 10:40 16.12.2019
2529 Drizzle 3 989 93 10000 2.6 130 10:21 16.12.2019
2530 Drizzle 2 989 93 10000 2.6 130 09:56 16.12.2019
2531 Drizzle 2 989 96 3500 1.5 0 09:38 16.12.2019
2532 Mist 2 989 96 5000 1.5 0 09:20 16.12.2019
2533 Mist 2 988 96 5000 1 0 08:40 16.12.2019
2534 Mist 2 988 99 5000 1 0 08:19 16.12.2019
2535 Mist 2 988 99 3100 1.5 280 07:51 16.12.2019
2536 Mist 2 988 99 3100 1.5 280 07:31 16.12.2019
2537 Drizzle 2 987 99 3600 1 0 06:49 16.12.2019
2538 Clouds 2 987 99 8000 1 20 06:27 16.12.2019
2539 Rain 2 987 99 10000 2.1 360 05:58 16.12.2019
2540 Rain 2 987 99 10000 2.1 360 05:39 16.12.2019
2541 Snow 2 987 97 10000 1.5 40 05:21 16.12.2019
2542 Rain 2 987 97 7000 2.6 50 02:59 16.12.2019
2543 Rain 2 987 96 10000 3.1 40 01:45 16.12.2019
2544 Clouds 2 987 97 10000 3.1 50 00:56 16.12.2019
2545 Clouds 2 987 97 10000 3.1 50 00:37 16.12.2019
2546 Clouds 2 987 97 10000 2.6 60 00:18 16.12.2019
2547 Snow 2 988 97 10000 3.6 60 23:40 15.12.2019
2548 Clouds 2 988 91 10000 3.1 60 23:22 15.12.2019
2549 Clouds 2 988 91 10000 2.6 60 22:56 15.12.2019
2550 Clouds 2 988 91 10000 2.6 60 22:38 15.12.2019
2551 Clouds 2 988 91 10000 2.6 160 22:19 15.12.2019
2552 Clouds 2 988 91 10000 2.6 50 21:57 15.12.2019
2553 Clouds 2 988 86 10000 2.1 40 21:38 15.12.2019
2554 Clouds 2 988 91 10000 1 70 21:19 15.12.2019
2555 Clouds 2 988 91 10000 1 70 20:57 15.12.2019
2556 Clouds 1 988 91 10000 1 0 20:38 15.12.2019
2557 Clouds 2 988 86 10000 2.1 210 20:19 15.12.2019
2558 Clouds 2 988 84 10000 2.1 210 19:57 15.12.2019
2559 Clouds 1 988 86 10000 5.1 180 19:39 15.12.2019
2560 Clouds 1 988 84 10000 5.1 180 19:39 15.12.2019
2561 Clouds 2 988 86 10000 1 0 19:18 15.12.2019
2562 Clouds 2 987 84 10000 2.6 170 18:56 15.12.2019
2563 Clouds 2 987 86 10000 2.6 170 18:38 15.12.2019
2564 Clouds 2 987 86 10000 3.1 170 18:18 15.12.2019
2565 Clouds 3 987 86 10000 4.1 160 17:56 15.12.2019
2566 Clouds 3 987 86 10000 4.1 160 17:37 15.12.2019
2567 Clouds 3 987 93 10000 3.6 160 17:18 15.12.2019
2568 Snow 3 987 86 10000 4.6 230 16:56 15.12.2019
2569 Snow 3 987 86 10000 4.6 230 16:38 15.12.2019
2570 Clouds 4 987 86 10000 4.6 220 16:19 15.12.2019
2571 Clouds 4 987 80 10000 7.2 220 15:54 15.12.2019
2572 Clouds 4 987 80 10000 7.2 220 15:36 15.12.2019
2573 Snow 4 986 80 10000 8.2 220 15:18 15.12.2019
2574 Clouds 5 986 81 10000 6.2 220 14:54 15.12.2019
2575 Clouds 5 986 81 10000 6.2 220 14:36 15.12.2019
2576 Rain 5 986 80 10000 6.2 210 14:18 15.12.2019
2577 Rain 5 986 80 10000 6.2 210 14:18 15.12.2019
2578 Clouds 5 985 86 10000 5.1 240 13:54 15.12.2019
2579 Rain 4 985 86 10000 5.1 240 13:36 15.12.2019
2580 Clouds 4 985 86 10000 5.1 250 13:18 15.12.2019
2581 Rain 4 985 93 10000 2.6 280 12:55 15.12.2019
2582 Rain 4 985 93 10000 2.6 280 12:36 15.12.2019
2583 Clouds 4 984 93 10000 3.6 250 12:18 15.12.2019
2584 Rain 3 984 93 10000 5.1 240 11:38 15.12.2019
2585 Rain 3 984 93 10000 5.1 240 11:38 15.12.2019
2586 Rain 3 984 93 10000 5.1 240 11:38 15.12.2019
2587 Rain 3 983 93 10000 2.1 250 11:19 15.12.2019
2588 Rain 3 982 93 10000 1.5 0 10:56 15.12.2019
2589 Rain 2 982 93 10000 1.5 0 10:37 15.12.2019
2590 Rain 2 982 93 10000 1 0 10:19 15.12.2019
2591 Rain 2 982 93 10000 1 0 09:57 15.12.2019
2592 Clouds 2 982 93 10000 1.5 0 09:37 15.12.2019
2593 Rain 2 981 93 10000 2.6 230 09:19 15.12.2019
2594 Rain 2 981 93 10000 5.7 210 08:42 15.12.2019
2595 Rain 2 980 93 4900 3.6 220 08:23 15.12.2019
2596 Snow 2 980 91 10000 2.1 200 07:57 15.12.2019
2597 Snow 2 980 91 10000 2.1 200 07:38 15.12.2019
2598 Snow 2 979 91 10000 3.6 190 06:59 15.12.2019
2599 Snow 2 978 91 10000 4.1 220 06:24 15.12.2019
2600 Clouds 3 978 86 10000 3.1 260 05:42 15.12.2019
2601 Clouds 2 978 93 10000 5.1 230 05:20 15.12.2019
2602 Clouds 2 977 93 10000 2.1 260 04:18 15.12.2019
2603 Clouds 3 978 86 10000 3.6 230 02:35 15.12.2019
2604 Rain 3 977 86 10000 4.1 260 01:57 15.12.2019
2605 Rain 3 977 86 10000 4.1 260 01:39 15.12.2019
2606 Rain 3 977 93 10000 7.7 240 01:18 15.12.2019
2607 Rain 3 977 93 10000 9.8 240 00:44 15.12.2019
2608 Rain 3 977 93 10000 9.8 240 00:44 15.12.2019
2609 Rain 3 977 93 10000 8.7 230 00:25 15.12.2019
2610 Rain 3 977 93 5000 8.2 230 23:41 14.12.2019
2611 Rain 3 977 93 10000 9.8 220 23:22 14.12.2019
2612 Snow 3 978 93 4500 9.8 220 22:59 14.12.2019
2613 Snow 3 978 93 4500 9.8 220 22:41 14.12.2019
2614 Rain 3 978 93 3600 8.7 240 22:21 14.12.2019
2615 Rain 3 977 93 3000 12.3 230 21:56 14.12.2019
2616 Rain 3 977 93 3000 12.3 230 21:38 14.12.2019
2617 Rain 3 977 93 4100 12.9 220 21:19 14.12.2019
2618 Rain 3 977 93 3400 12.3 220 20:57 14.12.2019
2619 Rain 3 977 93 3400 12.3 220 20:39 14.12.2019
2620 Rain 4 977 86 5000 12.9 230 20:19 14.12.2019
2621 Rain 4 977 86 3500 10.8 220 19:56 14.12.2019
2622 Rain 4 977 86 3500 10.8 220 19:37 14.12.2019
2623 Clouds 4 977 93 6000 8.2 240 19:18 14.12.2019
2624 Rain 4 977 86 10000 9.8 210 18:56 14.12.2019
2625 Rain 4 977 86 10000 9.8 210 18:36 14.12.2019
2626 Rain 4 977 86 3500 7.7 230 18:18 14.12.2019
2627 Rain 4 977 93 7000 8.7 230 17:43 14.12.2019
2628 Snow 4 977 86 10000 11.3 230 17:23 14.12.2019
2629 Rain 4 977 86 10000 11.3 220 16:56 14.12.2019
2630 Rain 4 977 86 10000 11.3 220 16:38 14.12.2019
2631 Rain 4 977 86 10000 9.3 220 16:18 14.12.2019
2632 Rain 4 977 93 4300 9.8 230 15:42 14.12.2019
2633 Rain 4 977 86 10000 4.1 240 15:21 14.12.2019
2634 Rain 5 977 86 10000 4.1 240 14:58 14.12.2019
2635 Rain 5 976 86 10000 7.7 230 14:38 14.12.2019
2636 Rain 5 976 80 10000 10.3 220 14:19 14.12.2019
2637 Rain 5 976 86 7000 10.3 230 13:45 14.12.2019
2638 Rain 4 976 80 10000 9.8 220 13:20 14.12.2019
2639 Rain 4 976 80 10000 9.8 220 12:59 14.12.2019
2640 Rain 4 976 80 10000 8.7 220 12:40 14.12.2019
2641 Rain 4 976 80 10000 9.3 220 12:21 14.12.2019
2642 Rain 4 976 80 10000 9.3 220 12:21 14.12.2019
2643 Rain 4 976 80 10000 9.3 220 12:21 14.12.2019
2644 Rain 3 976 86 10000 8.2 220 11:59 14.12.2019
2645 Rain 3 976 86 10000 8.2 220 11:39 14.12.2019
2646 Rain 3 975 93 10000 7.2 210 11:19 14.12.2019
2647 Rain 3 976 93 10000 7.2 220 10:57 14.12.2019
2648 Rain 3 976 93 10000 7.2 220 10:39 14.12.2019
2649 Rain 3 975 93 3400 4.6 210 10:20 14.12.2019
2650 Rain 3 975 93 10000 6.2 230 09:55 14.12.2019
2651 Rain 3 975 93 10000 6.2 230 09:37 14.12.2019
2652 Rain 4 975 86 5000 6.7 240 09:18 14.12.2019
2653 Rain 3 975 86 10000 6.2 230 08:42 14.12.2019
2654 Rain 3 974 86 10000 7.2 240 08:19 14.12.2019
2655 Rain 3 974 93 10000 6.7 230 07:43 14.12.2019
2656 Rain 3 974 93 10000 7.2 240 07:23 14.12.2019
2657 Rain 4 974 93 10000 4.6 250 06:55 14.12.2019
2658 Rain 4 974 93 10000 4.6 250 06:36 14.12.2019
2659 Rain 4 973 93 10000 5.1 240 05:56 14.12.2019
2660 Rain 4 973 93 10000 4.1 240 04:42 14.12.2019
2661 Rain 3 972 93 10000 2.1 260 02:31 14.12.2019
2662 Rain 3 973 100 10000 2.1 270 01:46 14.12.2019
2663 Rain 3 973 100 10000 2.1 270 01:28 14.12.2019
2664 Rain 3 973 93 4300 3.6 280 00:44 14.12.2019
2665 Rain 3 973 93 6000 2.6 250 00:26 14.12.2019
2666 Rain 4 972 93 10000 3.6 240 23:43 13.12.2019
2667 Rain 3 972 100 8000 1.5 160 23:22 13.12.2019
2668 Rain 3 972 100 8000 1.5 160 22:59 13.12.2019
2669 Rain 3 973 93 6000 1 0 22:40 13.12.2019
2670 Rain 2 973 100 10000 0.5 90 22:19 13.12.2019
2671 Clouds 2 973 100 10000 1 0 21:55 13.12.2019
2672 Clouds 2 973 100 10000 1 0 21:36 13.12.2019
2673 Clouds 2 973 94 10000 1 0 21:18 13.12.2019
2674 Clouds 2 973 94 10000 1.5 0 20:40 13.12.2019
2675 Clear 2 974 92 10000 1 0 20:21 13.12.2019
2676 Clear 2 974 92 10000 1 0 19:58 13.12.2019
2677 Clear 2 974 93 10000 1 0 19:40 13.12.2019
2678 Clear 2 974 93 10000 1 0 19:20 13.12.2019
2679 Clear 3 974 93 10000 2.1 260 18:57 13.12.2019
2680 Clear 3 974 86 10000 3.1 250 18:39 13.12.2019
2681 Clear 3 974 86 10000 3.1 250 18:18 13.12.2019
2682 Clear 4 974 86 10000 3.6 230 17:41 13.12.2019
2683 Clear 4 974 93 10000 2.6 270 17:19 13.12.2019
2684 Clear 5 974 80 10000 2.6 260 16:58 13.12.2019
2685 Clear 5 974 86 10000 5.1 290 16:39 13.12.2019
2686 Clear 5 974 86 10000 5.1 290 16:39 13.12.2019
2687 Clear 5 974 86 10000 5.1 290 16:20 13.12.2019
2688 Clear 6 975 81 10000 3.6 270 15:43 13.12.2019
2689 Clear 6 974 81 10000 4.1 270 15:23 13.12.2019
2690 Clear 6 974 81 10000 2.6 270 14:58 13.12.2019
2691 Clear 6 974 81 10000 3.1 260 14:39 13.12.2019
2692 Clouds 6 974 81 10000 3.1 260 14:20 13.12.2019
2693 Clouds 6 974 81 10000 3.1 260 14:20 13.12.2019
2694 Clouds 6 974 81 10000 3.1 260 14:20 13.12.2019
2695 Clouds 5 974 86 10000 3.6 250 13:56 13.12.2019
2696 Clouds 5 974 86 10000 4.1 270 13:37 13.12.2019
2697 Clouds 5 974 86 10000 4.1 270 13:37 13.12.2019
2698 Clouds 5 974 86 10000 4.1 270 13:18 13.12.2019
2699 Clouds 4 973 93 10000 3.6 260 12:42 13.12.2019
2700 Clouds 4 973 93 10000 3.6 260 12:19 13.12.2019
2701 Clouds 4 973 93 10000 2.6 230 11:57 13.12.2019
2702 Clouds 3 973 93 10000 3.1 250 11:39 13.12.2019
2703 Clouds 3 973 93 10000 3.1 250 11:19 13.12.2019
2704 Clouds 3 973 93 10000 3.6 240 10:41 13.12.2019
2705 Clouds 3 973 93 10000 3.6 240 10:21 13.12.2019
2706 Clouds 2 972 93 10000 2.6 260 09:43 13.12.2019
2707 Clouds 3 972 93 10000 1.5 240 09:22 13.12.2019
2708 Clouds 3 972 93 10000 3.1 250 08:59 13.12.2019
2709 Clouds 3 971 100 10000 3.1 250 08:40 13.12.2019
2710 Clouds 3 971 100 10000 3.1 250 08:22 13.12.2019
2711 Clouds 3 971 100 10000 2.6 250 07:43 13.12.2019
2712 Clouds 3 971 93 10000 2.1 260 07:20 13.12.2019
2713 Clouds 3 971 100 10000 2.6 260 06:50 13.12.2019
2714 Clouds 3 971 100 10000 3.6 240 06:28 13.12.2019
2715 Clouds 3 971 93 10000 2.6 250 05:43 13.12.2019
2716 Clouds 3 970 93 10000 3.1 250 05:20 13.12.2019
2717 Rain 3 970 93 10000 3.1 270 04:33 13.12.2019
2718 Rain 3 970 100 10000 2.1 270 03:29 13.12.2019
2719 Rain 3 970 100 10000 3.1 300 02:31 13.12.2019
2720 Rain 3 970 100 7000 2.1 270 01:39 13.12.2019
2721 Rain 3 971 100 7000 2.1 260 00:51 13.12.2019
2722 Rain 3 971 93 9000 1.5 260 00:29 13.12.2019
2723 Rain 3 971 93 9000 1 280 23:46 12.12.2019
2724 Rain 3 971 93 10000 1 300 23:27 12.12.2019
2725 Rain 3 972 100 7000 1 310 22:57 12.12.2019
2726 Rain 3 972 100 7000 1 340 22:39 12.12.2019
2727 Rain 3 972 100 7000 1 340 22:21 12.12.2019
2728 Rain 3 972 100 8000 1.5 40 21:56 12.12.2019
2729 Rain 3 973 93 8000 2.1 60 21:37 12.12.2019
2730 Rain 3 973 93 8000 2.1 60 21:19 12.12.2019
2731 Rain 3 973 93 8000 2.1 60 21:19 12.12.2019
2732 Rain 3 973 93 10000 2.6 70 20:59 12.12.2019
2733 Rain 3 974 93 10000 2.6 80 20:40 12.12.2019
2734 Rain 4 974 93 10000 2.6 80 20:22 12.12.2019
2735 Rain 4 974 93 10000 3.1 80 19:56 12.12.2019
2736 Rain 4 975 86 10000 4.6 70 19:37 12.12.2019
2737 Rain 4 975 86 10000 4.6 70 19:18 12.12.2019
2738 Rain 4 975 86 10000 5.1 60 18:56 12.12.2019
2739 Clouds 4 976 86 10000 5.1 60 18:37 12.12.2019
2740 Clouds 4 976 86 10000 5.1 60 18:37 12.12.2019
2741 Clouds 4 976 86 10000 5.1 60 18:19 12.12.2019
2742 Clouds 4 976 93 10000 4.6 60 17:56 12.12.2019
2743 Clouds 4 977 93 10000 4.6 70 17:38 12.12.2019
2744 Clouds 4 977 93 10000 4.6 70 17:19 12.12.2019
2745 Clouds 4 978 86 10000 5.1 70 16:54 12.12.2019
2746 Clouds 4 978 93 10000 4.6 70 16:36 12.12.2019
2747 Clouds 4 978 93 10000 4.6 70 16:18 12.12.2019
2748 Clouds 4 979 86 10000 4.6 80 15:42 12.12.2019
2749 Clouds 5 979 86 10000 4.1 60 15:20 12.12.2019
2750 Clouds 5 980 86 10000 3.1 90 14:57 12.12.2019
2751 Clouds 5 981 86 10000 3.1 60 14:37 12.12.2019
2752 Clouds 5 981 86 10000 3.1 60 14:19 12.12.2019
2753 Clouds 5 981 86 10000 3.1 60 13:55 12.12.2019
2754 Clouds 5 982 86 10000 2.6 90 13:37 12.12.2019
2755 Clouds 5 982 86 10000 2.6 90 13:19 12.12.2019
2756 Clouds 4 983 93 10000 2.6 70 12:55 12.12.2019
2757 Clouds 4 983 93 10000 3.1 50 12:36 12.12.2019
2758 Clouds 4 983 93 10000 3.1 50 12:18 12.12.2019
2759 Clouds 3 985 86 10000 3.1 80 11:40 12.12.2019
2760 Clouds 3 985 86 10000 3.1 80 11:22 12.12.2019
2761 Clouds 3 985 86 10000 3.1 100 10:59 12.12.2019
2762 Clouds 3 985 86 10000 3.1 100 10:59 12.12.2019
2763 Rain 3 986 93 10000 3.1 100 10:41 12.12.2019
2764 Rain 3 986 93 10000 3.1 100 10:22 12.12.2019
2765 Clouds 3 986 86 10000 3.6 120 09:56 12.12.2019
2766 Clouds 3 986 86 10000 3.6 120 09:56 12.12.2019
2767 Clouds 3 986 86 10000 3.6 140 09:38 12.12.2019
2768 Clouds 3 986 86 10000 3.6 140 09:20 12.12.2019
2769 Rain 3 987 86 10000 3.1 200 08:48 12.12.2019
2770 Rain 3 987 86 10000 2.1 140 08:29 12.12.2019
2771 Rain 3 988 86 9000 4.1 210 07:56 12.12.2019
2772 Rain 3 988 86 9000 4.1 210 07:56 12.12.2019
2773 Rain 3 988 93 4900 1 0 07:37 12.12.2019
2774 Rain 3 988 93 4900 1 0 07:19 12.12.2019
2775 Rain 3 989 93 6000 3.6 180 06:41 12.12.2019
2776 Rain 3 989 93 6000 3.6 180 06:22 12.12.2019
2777 Rain 3 990 80 10000 5.1 190 05:32 12.12.2019
2778 Rain 3 990 86 10000 6.2 180 04:47 12.12.2019
2779 Rain 3 992 86 10000 2.1 240 02:43 12.12.2019
2780 Rain 3 992 93 10000 2.6 290 02:24 12.12.2019
2781 Rain 3 993 93 10000 3.6 260 01:59 12.12.2019
2782 Rain 3 993 93 10000 3.6 260 01:59 12.12.2019
2783 Rain 4 993 93 10000 6.7 220 01:36 12.12.2019
2784 Drizzle 3 993 93 3400 4.1 240 00:49 12.12.2019
2785 Rain 3 993 86 8000 6.2 260 00:22 12.12.2019
2786 Rain 3 993 86 10000 7.7 210 23:58 11.12.2019
2787 Rain 3 993 86 10000 7.7 210 23:37 11.12.2019
2788 Rain 3 993 86 10000 7.7 210 23:18 11.12.2019
2789 Rain 3 993 86 10000 8.7 210 22:55 11.12.2019
2790 Rain 3 993 86 10000 7.2 220 22:37 11.12.2019
2791 Rain 3 993 86 10000 7.2 220 22:18 11.12.2019
2792 Rain 3 993 80 10000 8.7 220 21:39 11.12.2019
2793 Rain 3 993 80 10000 8.7 220 21:39 11.12.2019
2794 Rain 3 993 80 10000 8.7 220 21:20 11.12.2019
2795 Rain 4 993 86 10000 6.7 230 21:20 11.12.2019
2796 Rain 4 993 86 10000 6.7 230 20:58 11.12.2019
2797 Rain 4 993 86 10000 6.7 200 20:40 11.12.2019
2798 Rain 3 993 86 10000 6.7 200 20:20 11.12.2019
2799 Rain 3 993 86 10000 6.7 210 19:59 11.12.2019
2800 Rain 3 993 86 10000 8.7 210 19:40 11.12.2019
2801 Rain 3 993 86 10000 8.7 210 19:21 11.12.2019
2802 Rain 3 993 86 10000 8.2 220 18:58 11.12.2019
2803 Rain 3 993 86 10000 7.7 220 18:39 11.12.2019
2804 Rain 4 993 86 10000 7.7 220 18:18 11.12.2019
2805 Rain 4 993 86 10000 7.7 230 17:55 11.12.2019
2806 Rain 4 993 86 10000 6.7 220 17:37 11.12.2019
2807 Rain 4 993 86 10000 6.7 220 17:18 11.12.2019
2808 Rain 4 993 86 10000 6.2 230 16:55 11.12.2019
2809 Rain 4 993 80 10000 8.7 240 16:36 11.12.2019
2810 Rain 4 993 80 10000 8.7 240 16:18 11.12.2019
2811 Rain 5 993 86 10000 7.7 230 15:54 11.12.2019
2812 Rain 5 992 81 10000 8.2 220 15:36 11.12.2019
2813 Rain 5 992 81 10000 8.2 220 15:18 11.12.2019
2814 Clouds 5 992 80 10000 8.2 230 14:54 11.12.2019
2815 Rain 5 993 80 10000 9.8 230 14:36 11.12.2019
2816 Rain 5 993 80 10000 9.8 230 14:36 11.12.2019
2817 Rain 5 993 80 10000 9.8 230 14:18 11.12.2019
2818 Rain 5 993 75 10000 9.8 220 13:41 11.12.2019
2819 Rain 5 993 75 10000 9.8 220 13:21 11.12.2019
2820 Rain 5 993 80 10000 9.3 230 12:57 11.12.2019
2821 Rain 5 993 80 10000 8.7 230 12:38 11.12.2019
2822 Rain 5 993 80 10000 8.7 230 12:38 11.12.2019
2823 Rain 5 993 80 10000 8.7 230 12:20 11.12.2019
2824 Rain 5 993 80 10000 9.8 220 11:58 11.12.2019
2825 Rain 5 993 80 10000 8.7 220 11:38 11.12.2019
2826 Rain 4 993 80 10000 8.7 220 11:18 11.12.2019
2827 Rain 4 993 80 10000 10.3 220 10:56 11.12.2019
2828 Rain 4 993 80 10000 7.7 230 10:38 11.12.2019
2829 Rain 4 993 80 10000 7.7 230 10:19 11.12.2019
2830 Rain 4 993 80 10000 11.3 220 09:41 11.12.2019
2831 Rain 4 993 80 10000 11.3 220 09:21 11.12.2019
2832 Clouds 4 993 80 10000 11.3 220 08:58 11.12.2019
2833 Rain 4 993 80 10000 11.3 220 08:38 11.12.2019
2834 Rain 5 993 80 10000 11.3 220 08:19 11.12.2019
2835 Rain 5 993 80 10000 10.3 220 07:56 11.12.2019
2836 Clouds 5 993 75 10000 8.7 210 07:38 11.12.2019
2837 Clouds 5 993 75 10000 8.7 210 07:19 11.12.2019
2838 Clouds 5 994 75 10000 9.3 210 06:44 11.12.2019
2839 Clouds 5 994 80 10000 9.8 220 06:22 11.12.2019
2840 Rain 5 994 80 10000 10.3 220 05:41 11.12.2019
2841 Clouds 5 994 80 10000 11.3 220 05:20 11.12.2019
2842 Rain 5 994 86 10000 8.2 230 04:28 11.12.2019
2843 Rain 4 994 86 10000 5.7 220 02:49 11.12.2019
2844 Clouds 4 994 86 10000 6.7 230 01:25 11.12.2019
2845 Rain 4 994 86 10000 5.1 240 00:47 11.12.2019
2846 Rain 5 993 80 10000 4.1 260 00:22 11.12.2019
2847 Rain 5 993 86 9000 11.3 240 23:50 10.12.2019
2848 Rain 5 992 81 10000 10.3 230 23:30 10.12.2019
2849 Clouds 5 991 81 10000 8.2 230 22:59 10.12.2019
2850 Clouds 5 991 81 10000 8.2 230 22:59 10.12.2019
2851 Clouds 5 991 81 10000 8.2 230 22:40 10.12.2019
2852 Clouds 5 991 81 10000 8.2 230 22:40 10.12.2019
2853 Clouds 5 991 81 10000 9.8 230 22:22 10.12.2019
2854 Clouds 5 990 75 10000 8.7 240 21:57 10.12.2019
2855 Clouds 5 990 87 10000 7.7 240 21:39 10.12.2019
2856 Clouds 6 990 87 10000 7.7 240 21:21 10.12.2019
2857 Rain 6 989 81 10000 9.3 240 20:57 10.12.2019
2858 Rain 6 988 75 10000 9.3 240 20:37 10.12.2019
2859 Rain 6 988 75 10000 9.3 240 20:37 10.12.2019
2860 Rain 6 988 75 10000 9.3 240 20:19 10.12.2019
2861 Rain 6 988 81 10000 7.2 240 19:55 10.12.2019
2862 Rain 6 987 81 10000 8.7 240 19:37 10.12.2019
2863 Rain 6 987 81 10000 8.7 240 19:18 10.12.2019
2864 Rain 6 987 93 10000 7.2 260 18:40 10.12.2019
2865 Rain 6 987 93 10000 7.2 260 18:20 10.12.2019
2866 Rain 6 986 87 10000 9.3 250 17:58 10.12.2019
2867 Rain 7 986 87 10000 8.7 250 17:39 10.12.2019
2868 Rain 7 986 87 10000 8.7 250 17:20 10.12.2019
2869 Rain 7 985 87 10000 8.2 260 16:44 10.12.2019
2870 Rain 8 984 87 10000 10.3 260 16:21 10.12.2019
2871 Rain 9 983 87 10000 13.9 270 15:59 10.12.2019
2872 Rain 11 982 87 6000 15.4 200 15:38 10.12.2019
2873 Rain 12 982 87 6000 15.4 200 15:18 10.12.2019
2874 Rain 12 983 87 4600 14.4 200 14:56 10.12.2019
2875 Rain 12 984 93 2700 12.3 200 14:37 10.12.2019
2876 Rain 12 984 93 2700 12.3 200 14:37 10.12.2019
2877 Rain 12 984 93 2700 12.3 200 14:19 10.12.2019
2878 Rain 12 984 93 2700 12.3 200 14:19 10.12.2019
2879 Rain 12 985 93 2400 12.9 190 13:56 10.12.2019
2880 Rain 12 985 93 2400 12.9 190 13:56 10.12.2019
2881 Rain 11 986 93 6000 14.4 190 13:38 10.12.2019
2882 Rain 11 986 93 6000 14.4 190 13:18 10.12.2019
2883 Rain 11 988 87 10000 11.3 200 12:41 10.12.2019
2884 Rain 11 988 87 10000 11.3 200 12:22 10.12.2019
2885 Rain 11 989 93 10000 11.8 190 11:44 10.12.2019
2886 Rain 10 990 87 7000 10.8 190 11:25 10.12.2019
2887 Rain 10 991 87 3400 12.3 180 10:57 10.12.2019
2888 Rain 10 993 93 9000 10.3 190 10:39 10.12.2019
2889 Rain 10 993 93 9000 10.3 190 10:39 10.12.2019
2890 Rain 10 993 93 9000 10.3 190 10:21 10.12.2019
2891 Rain 9 994 93 6000 9.3 190 09:56 10.12.2019
2892 Rain 9 994 93 6000 9.3 190 09:56 10.12.2019
2893 Rain 9 996 93 7000 10.3 180 09:38 10.12.2019
2894 Rain 9 996 93 7000 10.3 180 09:38 10.12.2019
2895 Rain 9 996 93 7000 10.3 180 09:38 10.12.2019
2896 Rain 9 996 93 7000 10.3 180 09:20 10.12.2019
2897 Rain 9 997 93 5000 9.8 190 08:55 10.12.2019
2898 Rain 9 998 93 8000 9.8 190 08:37 10.12.2019
2899 Rain 8 998 93 8000 9.8 190 08:18 10.12.2019
2900 Rain 8 1000 87 7000 9.8 200 07:44 10.12.2019
2901 Rain 8 1001 87 9000 9.3 190 07:25 10.12.2019
2902 Rain 8 1002 93 4700 9.8 190 06:48 10.12.2019
2903 Rain 8 1003 93 3800 9.8 190 06:21 10.12.2019
2904 Rain 8 1004 87 6000 9.8 180 05:55 10.12.2019
2905 Rain 8 1007 81 10000 7.2 180 04:56 10.12.2019
2906 Clouds 7 1010 81 10000 4.6 180 03:39 10.12.2019
2907 Clouds 6 1011 87 10000 6.2 170 02:46 10.12.2019
2908 Clouds 5 1013 81 10000 5.7 170 01:45 10.12.2019
2909 Clouds 5 1013 81 10000 4.6 160 01:24 10.12.2019
2910 Clouds 5 1014 87 10000 7.7 190 00:42 10.12.2019
2911 Clouds 5 1015 81 10000 6.7 190 00:22 10.12.2019
2912 Clouds 4 1016 81 10000 4.1 180 23:42 09.12.2019
2913 Clouds 4 1016 81 10000 4.1 180 23:24 09.12.2019
2914 Clouds 4 1016 93 10000 1 0 22:58 09.12.2019
2915 Clouds 4 1016 93 10000 1 0 22:40 09.12.2019
2916 Clouds 3 1017 93 10000 1.5 0 22:20 09.12.2019
2917 Clouds 3 1017 86 10000 1.5 0 21:57 09.12.2019
2918 Clouds 3 1017 93 10000 2.1 40 21:39 09.12.2019
2919 Clouds 3 1017 93 10000 2.1 40 21:19 09.12.2019
2920 Clouds 3 1018 86 10000 2.1 40 20:57 09.12.2019
2921 Clouds 3 1018 86 10000 2.1 40 20:57 09.12.2019
2922 Clouds 3 1018 93 10000 1 0 20:39 09.12.2019
2923 Clouds 3 1018 93 10000 1 0 20:20 09.12.2019
2924 Clouds 3 1018 85 10000 0.5 0 19:56 09.12.2019
2925 Clouds 3 1018 85 10000 1 0 19:37 09.12.2019
2926 Clouds 3 1018 85 10000 1 0 19:19 09.12.2019
2927 Clouds 3 1018 85 10000 1 0 19:19 09.12.2019
2928 Clouds 2 1018 85 10000 1 0 18:56 09.12.2019
2929 Clouds 2 1017 85 10000 2.1 240 18:38 09.12.2019
2930 Clouds 2 1017 85 10000 2.1 240 18:19 09.12.2019
2931 Clouds 3 1017 85 10000 3.6 230 17:57 09.12.2019
2932 Clouds 3 1017 85 10000 3.6 250 17:38 09.12.2019
2933 Clear 3 1017 81 10000 3.6 250 17:20 09.12.2019
2934 Clear 4 1017 80 10000 3.6 260 16:56 09.12.2019
2935 Clear 4 1016 75 10000 3.6 260 16:37 09.12.2019
2936 Clear 5 1016 75 10000 3.6 260 16:19 09.12.2019
2937 Clear 5 1016 70 10000 3.1 250 15:55 09.12.2019
2938 Clear 5 1016 70 10000 3.1 250 15:55 09.12.2019
2939 Clouds 5 1016 70 10000 3.6 210 15:37 09.12.2019
2940 Clouds 5 1016 70 10000 3.6 210 15:37 09.12.2019
2941 Clouds 6 1016 70 10000 3.6 210 15:19 09.12.2019
2942 Clear 6 1015 70 10000 3.6 210 14:42 09.12.2019
2943 Clouds 6 1015 70 10000 3.6 220 14:19 09.12.2019
2944 Clouds 6 1015 70 10000 2.6 270 13:58 09.12.2019
2945 Clouds 6 1014 70 10000 4.1 290 13:38 09.12.2019
2946 Clear 5 1014 70 10000 4.1 290 13:19 09.12.2019
2947 Clear 6 1013 70 10000 4.1 290 12:57 09.12.2019
2948 Clear 5 1013 75 10000 3.6 290 12:38 09.12.2019
2949 Clear 5 1013 75 10000 3.6 290 12:20 09.12.2019
2950 Clear 4 1012 80 10000 3.6 230 11:58 09.12.2019
2951 Clear 4 1012 75 10000 4.1 290 11:39 09.12.2019
2952 Clear 4 1012 75 10000 4.1 290 11:21 09.12.2019
2953 Clear 4 1011 80 10000 5.1 300 10:54 09.12.2019
2954 Clear 4 1010 80 10000 4.6 300 10:36 09.12.2019
2955 Clear 4 1010 80 10000 4.6 300 10:18 09.12.2019
2956 Clouds 3 1007 80 10000 2.1 280 09:41 09.12.2019
2957 Clouds 3 1007 80 10000 2.1 280 09:21 09.12.2019
2958 Clouds 4 1006 75 10000 1.5 0 08:54 09.12.2019
2959 Clouds 4 1005 75 10000 3.1 340 08:36 09.12.2019
2960 Clouds 4 1005 75 10000 3.1 340 08:18 09.12.2019
2961 Clouds 4 1005 75 10000 3.1 340 08:18 09.12.2019
2962 Rain 4 1004 86 10000 4.6 280 07:42 09.12.2019
2963 Rain 5 1003 80 10000 4.1 300 07:23 09.12.2019
2964 Rain 5 1001 80 10000 4.6 300 06:49 09.12.2019
2965 Rain 5 1000 93 10000 4.6 290 06:25 09.12.2019
2966 Clouds 5 997 86 10000 3.6 290 05:29 09.12.2019
2967 Clouds 5 996 86 10000 3.6 300 04:46 09.12.2019
2968 Clouds 5 991 81 10000 4.1 280 03:21 09.12.2019
2969 Rain 5 988 86 10000 3.1 250 02:24 09.12.2019
2970 Rain 4 987 93 10000 2.6 240 01:42 09.12.2019
2971 Rain 4 984 93 10000 3.1 260 00:46 09.12.2019
2972 Rain 4 983 93 10000 2.1 250 00:27 09.12.2019
2973 Rain 4 982 100 10000 3.1 250 23:43 08.12.2019
2974 Rain 5 981 93 10000 0.5 0 23:24 08.12.2019
2975 Rain 5 980 93 10000 2.6 300 22:57 08.12.2019
2976 Rain 5 979 93 10000 8.7 230 22:39 08.12.2019
2977 Rain 5 979 93 10000 8.7 230 22:19 08.12.2019
2978 Rain 5 979 93 10000 6.2 230 21:58 08.12.2019
2979 Rain 5 979 87 9000 6.7 220 21:40 08.12.2019
2980 Rain 5 979 87 9000 6.7 220 21:20 08.12.2019
2981 Rain 5 979 87 10000 8.2 220 20:57 08.12.2019
2982 Rain 5 978 87 8000 9.8 220 20:38 08.12.2019
2983 Rain 5 978 87 8000 9.8 220 20:20 08.12.2019
2984 Rain 5 978 87 10000 7.7 220 19:59 08.12.2019
2985 Rain 5 978 87 10000 7.7 220 19:41 08.12.2019
2986 Rain 5 978 93 10000 9.8 220 19:22 08.12.2019
2987 Rain 5 978 93 10000 9.3 220 18:55 08.12.2019
2988 Rain 5 978 93 10000 9.3 220 18:55 08.12.2019
2989 Rain 5 979 93 7000 11.3 230 18:37 08.12.2019
2990 Rain 5 979 93 7000 11.3 230 18:19 08.12.2019
2991 Rain 5 979 87 3900 12.3 230 17:56 08.12.2019
2992 Rain 5 979 87 10000 12.3 220 17:38 08.12.2019
2993 Rain 6 979 87 10000 12.3 220 17:19 08.12.2019
2994 Rain 6 979 87 10000 10.8 220 16:56 08.12.2019
2995 Rain 6 979 87 7000 11.3 230 16:38 08.12.2019
2996 Rain 6 979 87 7000 11.3 230 16:20 08.12.2019
2997 Rain 6 980 87 10000 11.8 220 15:54 08.12.2019
2998 Rain 6 980 87 10000 9.3 230 15:36 08.12.2019
2999 Rain 6 980 87 10000 9.3 230 15:18 08.12.2019
3000 Rain 6 981 87 10000 11.3 220 14:41 08.12.2019
3001 Rain 6 981 87 10000 11.3 220 14:22 08.12.2019
3002 Rain 6 981 87 10000 12.9 220 13:57 08.12.2019
3003 Rain 6 982 87 10000 9.8 210 13:38 08.12.2019
3004 Rain 6 982 87 10000 9.8 210 13:20 08.12.2019
3005 Rain 6 982 86 10000 8.7 230 12:54 08.12.2019
3006 Rain 6 983 81 10000 11.3 220 12:36 08.12.2019
3007 Rain 6 983 81 10000 11.3 220 12:18 08.12.2019
3008 Rain 6 983 87 7000 10.8 240 11:39 08.12.2019
3009 Rain 6 983 87 7000 10.8 240 11:39 08.12.2019
3010 Rain 6 983 87 7000 10.8 240 11:20 08.12.2019
3011 Rain 6 983 87 8000 10.3 220 10:59 08.12.2019
3012 Rain 6 983 87 10000 10.3 240 10:38 08.12.2019
3013 Rain 6 983 87 10000 10.3 240 10:20 08.12.2019
3014 Rain 5 983 87 10000 7.7 230 09:57 08.12.2019
3015 Rain 6 983 87 10000 7.7 230 09:57 08.12.2019
3016 Rain 5 983 87 10000 7.7 230 09:57 08.12.2019
3017 Rain 6 984 81 10000 7.2 230 09:38 08.12.2019
3018 Rain 6 984 81 10000 7.2 230 09:19 08.12.2019
3019 Rain 6 984 87 10000 10.3 240 08:58 08.12.2019
3020 Rain 6 984 81 7000 10.8 250 08:37 08.12.2019
3021 Rain 6 984 81 7000 10.8 250 08:19 08.12.2019
3022 Rain 6 984 81 10000 10.3 250 07:43 08.12.2019
3023 Rain 6 984 81 10000 8.2 240 07:20 08.12.2019
3024 Rain 6 984 75 10000 6.7 240 06:50 08.12.2019
3025 Rain 7 984 81 10000 8.2 270 06:22 08.12.2019
3026 Rain 7 984 75 10000 8.7 250 05:48 08.12.2019
3027 Rain 7 984 81 10000 6.2 250 05:18 08.12.2019
3028 Rain 8 984 81 10000 9.3 260 03:50 08.12.2019
3029 Rain 8 983 81 10000 8.2 260 03:22 08.12.2019
3030 Rain 9 983 87 10000 6.7 240 02:38 08.12.2019
3031 Rain 10 984 81 10000 10.3 260 01:54 08.12.2019
3032 Rain 10 983 93 4900 13.9 220 01:19 08.12.2019
3033 Rain 10 984 93 5000 13.4 210 00:40 08.12.2019
3034 Rain 10 984 93 5000 13.4 210 00:20 08.12.2019
3035 Drizzle 10 985 93 2700 12.3 200 23:40 07.12.2019
3036 Rain 10 986 93 5000 11.3 200 23:21 07.12.2019
3037 Rain 10 987 93 2300 10.8 210 22:56 07.12.2019
3038 Rain 10 988 93 3600 10.8 190 22:38 07.12.2019
3039 Rain 11 988 93 3600 10.8 190 22:20 07.12.2019
3040 Rain 11 989 93 7000 10.8 200 21:56 07.12.2019
3041 Rain 11 990 87 10000 11.3 200 21:38 07.12.2019
3042 Rain 11 990 87 10000 11.3 200 21:38 07.12.2019
3043 Rain 11 990 87 10000 11.3 200 21:19 07.12.2019
3044 Rain 11 992 93 5000 11.8 200 20:56 07.12.2019
3045 Rain 11 993 87 10000 10.8 190 20:36 07.12.2019
3046 Rain 11 993 87 10000 10.8 190 20:18 07.12.2019
3047 Rain 11 994 93 8000 9.3 200 19:56 07.12.2019
3048 Rain 11 995 93 7000 10.3 200 19:37 07.12.2019
3049 Rain 11 995 93 7000 10.3 200 19:19 07.12.2019
3050 Rain 10 996 87 10000 9.8 210 18:44 07.12.2019
3051 Rain 10 997 93 6000 10.8 210 18:19 07.12.2019
3052 Rain 10 997 93 5000 10.8 210 17:58 07.12.2019
3053 Rain 10 998 93 5000 10.8 210 17:39 07.12.2019
3054 Rain 10 998 93 5000 10.8 210 17:21 07.12.2019
3055 Rain 10 998 93 5000 10.8 210 16:56 07.12.2019
3056 Rain 10 998 93 5000 10.8 210 16:56 07.12.2019
3057 Rain 10 999 93 5000 10.3 210 16:37 07.12.2019
3058 Rain 9 999 93 5000 10.3 210 16:19 07.12.2019
3059 Rain 9 1000 93 5000 8.7 210 15:42 07.12.2019
3060 Rain 9 1000 93 5000 8.7 210 15:23 07.12.2019
3061 Rain 9 1000 93 5000 8.7 210 15:23 07.12.2019
3062 Rain 9 1001 93 5000 7.7 210 14:57 07.12.2019
3063 Rain 9 1001 93 5000 7.7 210 14:39 07.12.2019
3064 Drizzle 9 1001 93 5000 7.7 210 14:18 07.12.2019
3065 Drizzle 9 1002 93 4900 7.2 210 13:41 07.12.2019
3066 Clouds 9 1003 93 10000 7.2 210 13:21 07.12.2019
3067 Clouds 9 1003 93 10000 7.7 210 12:58 07.12.2019
3068 Clouds 9 1004 93 10000 6.2 210 12:40 07.12.2019
3069 Clouds 9 1004 93 10000 6.2 210 12:22 07.12.2019
3070 Clouds 9 1004 93 10000 7.7 210 11:57 07.12.2019
3071 Clouds 9 1004 93 10000 8.2 230 11:38 07.12.2019
3072 Clouds 8 1004 93 10000 8.2 230 11:20 07.12.2019
3073 Drizzle 8 1005 100 4100 4.6 230 10:38 07.12.2019
3074 Drizzle 8 1005 100 4100 4.6 230 10:19 07.12.2019
3075 Clouds 8 1005 93 10000 5.7 240 09:41 07.12.2019
3076 Clouds 8 1005 93 10000 5.7 240 09:22 07.12.2019
3077 Clouds 8 1005 93 10000 5.7 230 08:56 07.12.2019
3078 Clouds 8 1005 93 10000 4.6 230 08:37 07.12.2019
3079 Clouds 8 1005 93 10000 4.6 230 08:19 07.12.2019
3080 Clouds 8 1005 93 10000 5.1 230 07:44 07.12.2019
3081 Clouds 8 1005 87 10000 4.1 230 07:23 07.12.2019
3082 Clouds 8 1005 93 10000 4.1 230 06:45 07.12.2019
3083 Clouds 8 1005 87 10000 4.6 250 06:24 07.12.2019
3084 Clouds 8 1004 93 10000 5.1 230 05:19 07.12.2019
3085 Drizzle 8 1003 93 4600 5.1 250 03:54 07.12.2019
3086 Clouds 8 1003 93 10000 4.1 230 02:59 07.12.2019
3087 Clouds 7 1003 93 10000 4.1 240 02:21 07.12.2019
3088 Clouds 8 1002 93 10000 3.1 260 01:34 07.12.2019
3089 Clouds 8 1002 93 10000 3.6 230 00:52 07.12.2019
3090 Clouds 8 1002 87 10000 4.1 250 00:19 07.12.2019
3091 Clouds 8 1001 87 10000 5.1 240 23:48 06.12.2019
3092 Clouds 7 1001 87 10000 5.7 250 23:25 06.12.2019
3093 Clouds 8 1001 93 10000 4.1 240 22:59 06.12.2019
3094 Clouds 8 1000 87 10000 4.1 240 22:37 06.12.2019
3095 Clouds 8 1000 87 10000 4.1 240 22:19 06.12.2019
3096 Clouds 8 1000 93 10000 3.6 240 21:57 06.12.2019
3097 Rain 8 1000 93 10000 3.1 210 21:38 06.12.2019
3098 Rain 8 1000 93 10000 3.1 210 21:19 06.12.2019
3099 Clouds 8 999 87 10000 4.1 240 20:42 06.12.2019
3100 -273 0 0 0 0 0 20:23 06.12.2019
3101 Clouds 8 998 87 10000 5.1 250 19:58 06.12.2019
3102 Clouds 8 998 87 10000 5.7 250 19:39 06.12.2019
3103 Clouds 8 998 87 10000 5.7 250 19:21 06.12.2019
3104 Clouds 8 997 93 10000 4.6 250 18:55 06.12.2019
3105 Clouds 8 997 93 10000 4.6 250 18:55 06.12.2019
3106 Clouds 8 996 87 10000 5.7 250 18:36 06.12.2019
3107 Clouds 8 996 87 10000 5.7 250 18:18 06.12.2019
3108 Clouds 8 996 87 10000 5.7 260 17:55 06.12.2019
3109 Clouds 8 995 87 10000 6.2 230 17:37 06.12.2019
3110 Clouds 8 995 87 10000 6.2 230 17:19 06.12.2019
3111 Clouds 9 994 87 10000 5.7 250 16:42 06.12.2019
3112 Clouds 9 994 87 10000 5.7 250 16:23 06.12.2019
3113 Clouds 9 994 81 10000 5.1 260 15:56 06.12.2019
3114 Clouds 9 994 81 10000 5.1 250 15:38 06.12.2019
3115 Clouds 10 994 81 10000 5.1 250 15:18 06.12.2019
3116 Rain 9 993 93 10000 5.1 230 14:41 06.12.2019
3117 Rain 10 993 93 10000 5.1 230 14:20 06.12.2019
3118 Rain 10 993 87 10000 3.6 250 13:58 06.12.2019
3119 Rain 10 993 87 10000 3.1 260 13:40 06.12.2019
3120 Rain 10 993 87 10000 3.1 260 13:22 06.12.2019
3121 Rain 9 993 93 10000 3.1 280 12:41 06.12.2019
3122 Rain 9 993 87 10000 4.6 240 12:22 06.12.2019
3123 Clouds 10 993 87 10000 5.1 240 11:55 06.12.2019
3124 Clouds 10 993 87 10000 6.2 240 11:37 06.12.2019
3125 Clouds 10 993 87 10000 6.2 240 11:19 06.12.2019
3126 Clouds 10 992 87 10000 5.7 250 10:42 06.12.2019
3127 Rain 10 992 87 10000 5.1 250 10:21 06.12.2019
3128 Clouds 10 992 87 10000 5.7 250 09:56 06.12.2019
3129 Rain 11 991 87 10000 6.7 250 09:37 06.12.2019
3130 Rain 11 991 87 10000 6.7 250 09:19 06.12.2019
3131 Drizzle 11 992 93 4700 7.7 230 08:44 06.12.2019
3132 Drizzle 11 992 93 4700 7.7 230 08:44 06.12.2019
3133 Drizzle 11 992 93 4700 7.7 230 08:44 06.12.2019
3134 Rain 11 992 93 10000 7.7 220 08:25 06.12.2019
3135 Rain 11 992 93 7000 8.7 210 07:44 06.12.2019
3136 Drizzle 12 993 93 3500 7.7 220 07:23 06.12.2019
3137 Drizzle 12 993 93 3500 7.7 220 07:23 06.12.2019
3138 Drizzle 12 993 93 3500 7.7 220 07:23 06.12.2019
3139 Drizzle 12 993 93 3500 7.7 220 07:23 06.12.2019
3140 Drizzle 12 993 93 3500 7.7 220 07:23 06.12.2019
3141 Rain 12 993 93 10000 7.2 220 06:53 06.12.2019
3142 Drizzle 12 994 93 5000 8.7 230 06:26 06.12.2019
3143 Rain 11 994 93 9000 8.2 230 05:51 06.12.2019
3144 Clouds 11 995 93 10000 8.7 230 03:57 06.12.2019
3145 Clouds 11 996 93 10000 10.3 250 01:48 06.12.2019
3146 Clouds 11 997 93 9000 8.2 250 00:57 06.12.2019
3147 Clouds 11 997 93 8000 9.8 240 00:24 06.12.2019
3148 Clouds 12 997 93 9000 8.7 230 23:56 05.12.2019
3149 Clouds 12 996 93 10000 8.7 230 23:21 05.12.2019
3150 Rain 12 996 93 10000 7.7 230 22:59 05.12.2019
3151 Clouds 12 996 93 10000 8.2 230 22:39 05.12.2019
3152 Clouds 12 996 93 10000 8.2 230 22:39 05.12.2019
3153 Clouds 12 996 93 10000 8.2 230 22:20 05.12.2019
3154 Clouds 12 995 93 10000 8.7 240 21:58 05.12.2019
3155 Clouds 12 995 93 10000 8.7 240 21:58 05.12.2019
3156 Clouds 12 995 93 10000 8.7 240 21:58 05.12.2019
3157 Clouds 12 995 93 7000 9.8 240 21:40 05.12.2019
3158 Clouds 12 995 93 7000 9.8 240 21:22 05.12.2019
3159 Rain 12 994 93 8000 11.8 240 20:58 05.12.2019
3160 Rain 12 997 93 6000 10.3 210 20:39 05.12.2019
3161 Drizzle 12 994 93 4000 13.4 240 20:19 05.12.2019
3162 Rain 12 994 100 4400 10.3 230 19:43 05.12.2019
3163 Rain 12 994 100 4400 10.3 230 19:25 05.12.2019
3164 Rain 12 994 100 4000 11.8 220 18:59 05.12.2019
3165 Rain 12 994 100 5000 10.8 220 18:39 05.12.2019
3166 Drizzle 11 994 93 3800 10.8 210 18:20 05.12.2019
3167 Drizzle 11 994 93 3800 10.8 210 18:20 05.12.2019
3168 Drizzle 11 995 93 3600 12.9 210 17:57 05.12.2019
3169 Drizzle 11 995 93 3600 12.9 210 17:38 05.12.2019
3170 Rain 10 995 93 5000 12.3 210 17:18 05.12.2019
3171 Rain 10 995 93 8000 13.9 220 16:54 05.12.2019
3172 Rain 10 995 93 8000 13.9 220 16:36 05.12.2019
3173 Drizzle 9 996 100 3500 13.9 210 16:18 05.12.2019
3174 Rain 9 997 93 3400 13.9 210 15:40 05.12.2019
3175 Rain 9 998 93 3400 13.9 210 15:21 05.12.2019
3176 Rain 9 999 100 3800 14.9 210 14:57 05.12.2019
3177 Rain 9 999 100 3800 14.9 210 14:38 05.12.2019
3178 Rain 8 1000 93 5000 13.9 210 14:20 05.12.2019
3179 Rain 8 1000 93 5000 13.9 210 13:58 05.12.2019
3180 Rain 8 1001 93 5000 11.8 210 13:40 05.12.2019
3181 Rain 8 1002 93 5000 10.8 210 13:21 05.12.2019
3182 Rain 8 1002 93 5000 10.8 210 12:59 05.12.2019
3183 Rain 7 1003 93 3900 9.3 200 12:40 05.12.2019
3184 Rain 7 1004 87 6000 9.8 200 12:21 05.12.2019
3185 Rain 7 1005 87 7000 9.3 200 11:41 05.12.2019
3186 -273 0 0 0 0 0 11:23 05.12.2019
3187 Rain 8 1006 87 7000 9.3 210 10:59 05.12.2019
3188 Rain 8 1007 87 10000 9.3 210 10:41 05.12.2019
3189 Rain 8 1007 87 10000 10.3 220 10:19 05.12.2019
3190 Rain 7 1007 87 10000 10.3 220 09:57 05.12.2019
3191 Clouds 8 1007 81 10000 10.3 220 09:39 05.12.2019
3192 Clouds 8 1007 81 10000 10.3 220 09:20 05.12.2019
3193 Clouds 8 1007 81 10000 10.3 220 08:56 05.12.2019
3194 Clouds 8 1007 81 10000 12.3 230 08:37 05.12.2019
3195 Clouds 7 1008 87 10000 9.8 230 08:19 05.12.2019
3196 Clouds 7 1008 87 10000 10.3 220 07:41 05.12.2019
3197 Clouds 7 1009 87 10000 6.7 200 07:22 05.12.2019
3198 Clouds 7 1009 87 10000 7.7 210 06:48 05.12.2019
3199 Clouds 7 1009 87 9000 9.8 220 06:24 05.12.2019
3200 Clouds 6 1009 87 10000 8.2 230 05:54 05.12.2019
3201 Clouds 7 1010 87 10000 7.7 210 05:24 05.12.2019
3202 Rain 7 1010 87 10000 6.7 210 04:40 05.12.2019
3203 Rain 7 1011 81 10000 5.1 190 03:40 05.12.2019
3204 Rain 7 1011 87 10000 7.7 200 02:42 05.12.2019
3205 Rain 7 1011 87 10000 7.2 210 02:22 05.12.2019
3206 Rain 7 1011 87 10000 5.7 220 01:51 05.12.2019
3207 Rain 7 1011 87 10000 6.7 220 01:23 05.12.2019
3208 Rain 7 1011 87 10000 8.2 220 00:44 05.12.2019
3209 Rain 7 1012 87 10000 8.2 230 00:21 05.12.2019
3210 Rain 7 1012 87 9000 8.7 230 23:47 04.12.2019
3211 Rain 7 1012 87 9000 8.7 230 23:47 04.12.2019
3212 Rain 7 1012 81 10000 6.2 220 23:23 04.12.2019
3213 Rain 7 1012 81 10000 6.2 220 22:59 04.12.2019
3214 Rain 7 1012 81 10000 5.7 210 22:38 04.12.2019
3215 Rain 7 1012 81 10000 6.2 230 22:20 04.12.2019
3216 Rain 7 1012 81 10000 6.2 230 21:58 04.12.2019
3217 Rain 7 1012 87 10000 5.7 220 21:38 04.12.2019
3218 Rain 7 1012 81 10000 6.7 210 21:19 04.12.2019
3219 Rain 7 1012 87 10000 4.1 210 20:57 04.12.2019
3220 Rain 7 1012 87 10000 4.1 210 20:39 04.12.2019
3221 Clouds 7 1012 87 10000 4.6 200 20:21 04.12.2019
3222 Clouds 7 1012 87 10000 4.6 200 19:55 04.12.2019
3223 Rain 7 1012 75 10000 8.7 240 19:55 04.12.2019
3224 Rain 7 1012 75 10000 8.7 240 19:37 04.12.2019
3225 Clouds 7 1012 81 10000 3.1 180 19:19 04.12.2019
3226 Clouds 7 1012 81 10000 4.6 220 18:42 04.12.2019
3227 Clouds 6 1011 81 10000 4.1 210 18:24 04.12.2019
3228 Clouds 6 1011 81 10000 4.1 210 17:58 04.12.2019
3229 Clouds 7 1011 81 10000 7.7 230 17:39 04.12.2019
3230 Clouds 7 1011 81 10000 7.7 230 17:20 04.12.2019
3231 Clouds 8 1011 75 10000 6.2 240 16:56 04.12.2019
3232 Clouds 8 1011 75 10000 6.2 240 16:38 04.12.2019
3233 Clouds 8 1011 76 10000 7.2 250 16:19 04.12.2019
3234 Clouds 8 1011 76 10000 7.2 250 16:19 04.12.2019
3235 Clouds 8 1011 81 10000 6.7 230 15:55 04.12.2019
3236 Clouds 8 1011 81 10000 6.7 230 15:36 04.12.2019
3237 Clouds 8 1011 87 10000 5.1 240 15:18 04.12.2019
3238 Clouds 9 1011 93 10000 4.6 240 14:42 04.12.2019
3239 Rain 8 1011 100 10000 6.2 230 14:23 04.12.2019
3240 Drizzle 8 1010 100 3800 8.2 220 13:57 04.12.2019
3241 Drizzle 8 1010 100 3800 8.2 220 13:37 04.12.2019
3242 Rain 8 1010 87 10000 9.3 220 13:19 04.12.2019
3243 Rain 8 1010 93 10000 10.3 210 12:43 04.12.2019
3244 Rain 8 1011 93 7000 9.8 210 12:23 04.12.2019
3245 Rain 8 1011 93 4900 9.8 210 11:45 04.12.2019
3246 Rain 8 1011 93 5000 8.7 210 11:27 04.12.2019
3247 Drizzle 8 1011 93 3400 8.7 210 10:59 04.12.2019
3248 Drizzle 8 1011 93 3400 8.7 210 10:40 04.12.2019
3249 Drizzle 8 1011 87 4600 8.7 210 10:22 04.12.2019
3250 Rain 8 1011 87 5000 8.2 210 09:45 04.12.2019
3251 Rain 8 1011 81 9000 8.2 200 09:25 04.12.2019
3252 Clouds 8 1011 76 10000 5.7 200 08:56 04.12.2019
3253 Clouds 8 1011 76 10000 5.7 200 08:38 04.12.2019
3254 Clouds 8 1011 76 10000 6.7 200 08:19 04.12.2019
3255 Clouds 8 1011 81 10000 6.7 210 07:42 04.12.2019
3256 Clouds 8 1012 75 10000 8.7 200 07:22 04.12.2019
3257 Clouds 8 1012 75 10000 6.2 200 06:33 04.12.2019
3258 Clouds 7 1012 75 10000 7.7 190 05:48 04.12.2019
3259 Clouds 7 1013 75 10000 6.2 200 04:43 04.12.2019
3260 Clouds 7 1014 75 10000 6.2 210 03:54 04.12.2019
3261 Clouds 7 1014 75 10000 6.2 210 03:54 04.12.2019
3262 Clouds 8 1015 75 10000 4.6 200 02:21 04.12.2019
3263 Clouds 7 1016 81 10000 5.1 190 00:50 04.12.2019
3264 Clouds 6 1016 81 10000 5.7 210 00:23 04.12.2019
3265 Clouds 6 1016 81 10000 5.7 210 23:56 03.12.2019
3266 Clouds 6 1017 81 10000 6.2 190 23:37 03.12.2019
3267 Clouds 5 1017 81 10000 5.1 200 23:18 03.12.2019
3268 Clouds 5 1017 81 10000 5.1 200 23:18 03.12.2019
3269 Clear 5 1017 81 10000 4.6 180 22:40 03.12.2019
3270 Clouds 4 1017 81 10000 5.1 190 22:19 03.12.2019
3271 Clouds 4 1018 87 10000 5.1 180 21:57 03.12.2019
3272 Clouds 4 1018 87 10000 5.1 180 21:37 03.12.2019
3273 Clouds 4 1018 87 10000 7.2 210 21:19 03.12.2019
3274 Clear 4 1018 86 10000 2.1 230 20:56 03.12.2019
3275 Clear 4 1018 86 10000 2.1 230 20:38 03.12.2019
3276 Clouds 5 1018 81 10000 3.1 180 20:18 03.12.2019
3277 Clouds 5 1018 81 10000 5.1 190 19:54 03.12.2019
3278 Clouds 5 1018 81 10000 5.1 190 19:54 03.12.2019
3279 Clouds 5 1018 81 10000 6.7 180 19:36 03.12.2019
3280 Clouds 5 1018 81 10000 6.7 180 19:18 03.12.2019
3281 Clouds 5 1018 81 10000 5.1 190 18:55 03.12.2019
3282 Clouds 5 1018 81 10000 5.1 190 18:36 03.12.2019
3283 Clouds 5 1019 87 10000 5.7 200 18:18 03.12.2019
3284 Clouds 5 1019 87 10000 5.1 200 17:40 03.12.2019
3285 Clouds 5 1019 87 10000 5.1 210 17:19 03.12.2019
3286 Clouds 5 1019 87 10000 5.1 210 16:59 03.12.2019
3287 Clouds 5 1019 87 10000 5.1 210 16:59 03.12.2019
3288 Clouds 6 1019 81 10000 5.7 200 16:40 03.12.2019
3289 Clouds 6 1019 81 10000 4.6 230 16:21 03.12.2019
3290 Clouds 6 1019 81 10000 4.6 230 15:59 03.12.2019
3291 Clouds 6 1020 81 10000 6.2 230 15:38 03.12.2019
3292 Clouds 6 1020 81 10000 5.7 220 15:19 03.12.2019
3293 Clouds 6 1021 81 10000 6.2 230 14:44 03.12.2019
3294 Clouds 6 1021 81 10000 5.1 230 14:21 03.12.2019
3295 Clouds 7 1021 81 10000 5.1 230 13:59 03.12.2019
3296 Clouds 6 1021 81 10000 5.7 220 13:38 03.12.2019
3297 Clouds 6 1022 81 10000 4.1 240 13:20 03.12.2019
3298 Clouds 6 1022 81 10000 4.1 240 12:57 03.12.2019
3299 Clouds 7 1022 81 10000 4.1 240 12:37 03.12.2019
3300 Clouds 6 1023 81 10000 4.6 230 12:18 03.12.2019
3301 -273 0 0 0 0 0 11:55 03.12.2019
3302 Clouds 6 1023 75 10000 5.1 230 11:37 03.12.2019
3303 Clouds 6 1023 81 10000 5.1 230 11:18 03.12.2019
3304 Clouds 6 1023 81 10000 5.7 230 10:43 03.12.2019
3305 Clouds 6 1023 81 10000 5.7 220 10:21 03.12.2019
3306 Clouds 7 1023 81 10000 5.7 220 09:59 03.12.2019
3307 Clouds 7 1023 81 10000 6.2 220 09:40 03.12.2019
3308 Clouds 7 1023 81 10000 5.7 220 09:21 03.12.2019
3309 Clouds 7 1023 81 10000 6.7 240 08:55 03.12.2019
3310 Clouds 7 1023 81 10000 6.7 240 08:37 03.12.2019
3311 Clouds 7 1023 87 10000 5.7 230 08:18 03.12.2019
3312 Clouds 7 1023 87 10000 5.1 220 07:49 03.12.2019
3313 Clouds 7 1023 87 10000 6.2 220 07:24 03.12.2019
3314 Clouds 7 1024 87 10000 6.2 220 06:23 03.12.2019
3315 Clouds 7 1024 87 10000 6.2 220 05:59 03.12.2019
3316 Clouds 7 1024 87 10000 3.1 240 04:50 03.12.2019
3317 Clouds 7 1025 87 10000 3.1 250 03:40 03.12.2019
3318 Clouds 7 1025 87 10000 4.6 250 03:19 03.12.2019
3319 Clouds 8 1025 76 10000 5.1 250 02:48 03.12.2019
3320 Clouds 8 1025 76 10000 5.1 250 02:27 03.12.2019
3321 Clouds 8 1026 87 10000 3.6 250 01:43 03.12.2019
3322 Clouds 8 1026 87 10000 4.1 230 01:24 03.12.2019
3323 Clouds 8 1026 87 10000 4.6 230 00:56 03.12.2019
3324 Clouds 8 1026 87 10000 4.6 230 00:37 03.12.2019
3325 Clouds 8 1026 87 10000 4.1 230 00:19 03.12.2019
3326 Clouds 8 1026 87 10000 4.1 240 23:42 02.12.2019
3327 Clouds 8 1026 81 10000 6.2 240 23:19 02.12.2019
3328 Clouds 8 1026 81 10000 5.7 240 22:41 02.12.2019
3329 Clouds 8 1026 81 10000 6.2 250 22:22 02.12.2019
3330 Clouds 7 1026 87 10000 5.7 250 21:58 02.12.2019
3331 Clouds 7 1026 87 10000 5.7 250 21:37 02.12.2019
3332 Clouds 7 1026 93 10000 5.7 220 21:18 02.12.2019
3333 Clouds 7 1026 87 10000 5.1 220 20:56 02.12.2019
3334 Clouds 7 1026 87 10000 5.1 220 20:38 02.12.2019
3335 Clouds 7 1026 87 10000 5.1 220 20:19 02.12.2019
3336 Clouds 7 1026 87 10000 5.7 230 19:43 02.12.2019
3337 Clouds 7 1026 93 10000 5.7 220 19:23 02.12.2019
3338 Clouds 7 1026 93 10000 5.7 220 18:59 02.12.2019
3339 Clouds 7 1026 93 10000 6.2 230 18:59 02.12.2019
3340 Clouds 7 1026 93 10000 6.2 230 18:41 02.12.2019
3341 Clouds 7 1027 93 10000 5.7 240 18:19 02.12.2019
3342 Clouds 7 1027 93 10000 5.7 240 17:58 02.12.2019
3343 Clouds 7 1027 93 10000 6.2 230 17:39 02.12.2019
3344 Clouds 7 1027 87 10000 6.2 240 17:19 02.12.2019
3345 Clouds 7 1027 87 10000 6.2 230 16:40 02.12.2019
3346 Clouds 7 1027 87 10000 6.2 240 16:19 02.12.2019
3347 Clouds 7 1027 87 10000 6.7 240 15:58 02.12.2019
3348 Clouds 7 1027 87 10000 6.7 240 15:40 02.12.2019
3349 Clouds 7 1027 87 10000 6.2 250 15:22 02.12.2019
3350 Clouds 7 1027 87 10000 6.2 250 14:59 02.12.2019
3351 Clouds 7 1028 87 10000 6.2 240 14:38 02.12.2019
3352 Clouds 7 1028 93 10000 4.6 220 14:20 02.12.2019
3353 Clouds 6 1028 93 10000 4.6 220 13:57 02.12.2019
3354 Rain 6 1028 93 10000 4.1 220 13:39 02.12.2019
3355 Clouds 6 1028 100 10000 3.1 240 13:19 02.12.2019
3356 Clouds 6 1029 100 8000 1 30 12:55 02.12.2019
3357 Clouds 6 1029 100 8000 1 30 12:37 02.12.2019
3358 Clouds 6 1029 100 10000 0.5 0 12:18 02.12.2019
3359 Clouds 5 1029 93 10000 1.55 234 11:38 02.12.2019
3360 Clouds 4 1029 100 10000 1.5 260 11:20 02.12.2019
3361 Clouds 4 1029 100 10000 1.5 260 11:20 02.12.2019
3362 Clouds 4 1029 100 10000 1.5 260 10:58 02.12.2019
3363 Clouds 4 1029 100 10000 3.6 220 10:40 02.12.2019
3364 Rain 3 1029 100 10000 1.5 0 10:21 02.12.2019
3365 Clouds 3 1029 100 10000 3.1 250 09:56 02.12.2019
3366 Clouds 3 1029 100 10000 3.1 250 09:38 02.12.2019
3367 Clouds 2 1029 93 7000 0.5 0 09:18 02.12.2019
3368 Rain 2 1029 100 7000 1 0 08:55 02.12.2019
3369 Rain 2 1029 100 7000 1 0 08:36 02.12.2019
3370 Clouds 2 1030 100 7000 1 0 08:18 02.12.2019
3371 Clouds 2 1029 100 9000 1 0 07:39 02.12.2019
3372 Clouds 2 1029 100 10000 0.5 0 07:20 02.12.2019
3373 Clouds 2 1029 100 10000 1.5 200 06:42 02.12.2019
3374 Clouds 1 1030 100 10000 1 0 05:49 02.12.2019
3375 Rain 1 1029 100 10000 2.1 240 05:19 02.12.2019
3376 Clouds 0 1030 94 10000 1.5 0 03:28 02.12.2019
3377 Clouds 0 1030 94 9000 2.6 230 02:50 02.12.2019
3378 Clouds -1 1030 92 7000 1 80 01:47 02.12.2019
3379 Clouds -1 1030 100 8000 0.5 0 01:21 02.12.2019
3380 Clouds -2 1030 92 7000 1 0 00:37 02.12.2019
3381 Clouds -2 1030 92 7000 1.5 250 00:19 02.12.2019
3382 Clouds -2 1030 92 6000 2.1 200 23:42 01.12.2019
3383 Mist -2 1030 92 5000 2.1 230 23:21 01.12.2019
3384 Mist -1 1030 92 4500 1 0 22:56 01.12.2019
3385 Mist -1 1030 92 4500 1 0 22:38 01.12.2019
3386 Mist -1 1030 92 5000 1.5 0 22:19 01.12.2019
3387 Mist -1 1030 92 5000 1.5 0 21:56 01.12.2019
3388 Mist -1 1030 92 4400 1 0 21:56 01.12.2019
3389 Mist -1 1030 92 4400 1 0 21:38 01.12.2019
3390 Mist -2 1030 92 4400 1 0 21:38 01.12.2019
3391 Clear -2 1030 92 6000 1 0 21:19 01.12.2019
3392 Clear -2 1030 92 10000 0.5 0 20:58 01.12.2019
3393 Clear -2 1030 92 10000 0.5 0 20:39 01.12.2019
3394 Clear -2 1030 100 10000 1.5 0 20:21 01.12.2019
3395 Clear -1 1030 92 10000 1 0 19:56 01.12.2019
3396 Clear -2 1030 92 10000 1 0 19:37 01.12.2019
3397 Clear -2 1030 92 10000 1 0 19:37 01.12.2019
3398 Fog -2 1030 100 8000 1 0 19:19 01.12.2019
3399 Fog -2 1030 92 400 1 20 18:55 01.12.2019
3400 Fog -1 1030 92 400 1 20 18:37 01.12.2019
3401 Fog -1 1030 100 400 0.5 80 18:18 01.12.2019
3402 Fog -1 1030 100 400 0.5 80 17:56 01.12.2019
3403 Fog -1 1030 100 300 1 360 17:38 01.12.2019
3404 Fog -1 1030 100 200 1 0 17:19 01.12.2019
3405 Fog 0 1030 92 100 0.5 0 16:44 01.12.2019
3406 Fog 1 1030 100 150 0.5 0 16:24 01.12.2019
3407 Fog 1 1030 92 150 0.5 0 15:54 01.12.2019
3408 Fog 1 1030 92 150 0.5 0 15:34 01.12.2019
3409 Fog 1 1030 92 150 0.5 0 14:59 01.12.2019
3410 Fog 1 1030 92 300 1 0 14:38 01.12.2019
3411 Fog 1 1030 100 300 0.5 0 14:19 01.12.2019
3412 Fog 1 1029 100 300 0.5 0 13:40 01.12.2019
3413 Fog 0 1029 100 300 1 0 13:21 01.12.2019
3414 Fog 0 1029 100 300 1 0 13:21 01.12.2019
3415 Fog 0 1029 100 300 0.5 0 12:47 01.12.2019
3416 Fog -1 1029 100 300 0.5 0 12:19 01.12.2019
3417 Fog -2 1029 100 300 0.5 0 11:44 01.12.2019
3418 Fog -3 1029 100 300 0.5 0 11:24 01.12.2019
3419 Fog -4 1029 100 300 0.5 0 10:55 01.12.2019
3420 Fog -4 1029 100 300 0.5 0 10:37 01.12.2019
3421 Fog -4 1028 92 500 0.5 100 10:18 01.12.2019
3422 Fog -5 1028 100 500 1.5 0 09:41 01.12.2019
3423 Fog -5 1027 92 500 1 0 09:21 01.12.2019
3424 Fog -5 1027 100 200 0.5 0 08:49 01.12.2019
3425 Fog -5 1027 100 100 0.5 0 08:23 01.12.2019
3426 Fog -5 1027 100 300 0.5 0 07:53 01.12.2019
3427 Fog -4 1027 100 300 0.5 0 07:32 01.12.2019
3428 Clouds -5 1027 92 10000 0.5 0 06:58 01.12.2019
3429 Clouds -5 1027 92 10000 1.5 0 06:40 01.12.2019
3430 Clouds -4 1026 92 10000 1.5 308 05:55 01.12.2019
3431 Fog -4 1027 100 300 0.5 0 04:53 01.12.2019
3432 Clouds -4 1027 92 6000 0.5 210 04:21 01.12.2019
3433 Clouds -3 1026 92 9000 0.5 0 02:38 01.12.2019
3434 Clouds -3 1026 100 7000 1 240 02:20 01.12.2019
3435 Clouds -3 1027 92 8000 0.5 280 01:52 01.12.2019
3436 Fog -3 1027 92 10000 1 250 01:26 01.12.2019
3437 Fog -3 1027 92 10000 1 250 01:26 01.12.2019
3438 Fog -3 1027 92 10000 1 0 00:44 01.12.2019
3439 Fog -3 1027 92 800 0.5 0 00:24 01.12.2019
3440 Clouds -3 1026 92 8000 1 10 23:44 30.11.2019
3441 Clouds -3 1026 100 10000 0.5 310 23:25 30.11.2019
3442 Clouds -3 1026 100 10000 0.5 310 22:58 30.11.2019
3443 Clouds -3 1026 92 10000 0.5 190 22:39 30.11.2019
3444 Clouds -3 1026 100 10000 1 190 22:20 30.11.2019
3445 Clouds -3 1026 100 10000 1 240 21:47 30.11.2019
3446 Clouds -3 1026 100 6000 1.5 240 21:28 30.11.2019
3447 Fog -3 1026 92 5000 1.5 220 20:57 30.11.2019
3448 Fog -3 1026 92 5000 1.5 220 20:39 30.11.2019
3449 Fog -2 1025 92 8000 1 0 20:19 30.11.2019
3450 Fog -3 1025 100 8000 1.5 240 19:56 30.11.2019
3451 Fog -2 1025 100 8000 1.5 240 19:38 30.11.2019
3452 Fog -2 1025 92 8000 1.5 240 19:20 30.11.2019
3453 Clouds -2 1025 92 6000 0.5 250 18:57 30.11.2019
3454 Clouds -2 1025 92 6000 0.5 250 18:38 30.11.2019
3455 Clouds -1 1025 92 10000 1 0 18:19 30.11.2019
3456 Haze -1 1025 92 5000 0.5 270 17:57 30.11.2019
3457 Haze -1 1025 92 5000 0.5 270 17:38 30.11.2019
3458 Clouds -1 1025 92 10000 1 220 17:19 30.11.2019
3459 Clouds 0 1025 86 10000 1.5 220 16:56 30.11.2019
3460 Clouds 0 1025 86 10000 1.5 220 16:56 30.11.2019
3461 Clouds 0 1025 86 10000 1.5 220 16:38 30.11.2019
3462 Clouds 1 1025 92 10000 1.5 240 16:19 30.11.2019
3463 Clouds 2 1025 79 10000 1.5 250 15:42 30.11.2019
3464 Clouds 2 1025 79 10000 1 250 15:19 30.11.2019
3465 Clouds 2 1025 79 10000 1 250 15:19 30.11.2019
3466 Clouds 2 1025 79 10000 1 250 14:57 30.11.2019
3467 Clouds 2 1025 100 10000 1.5 220 14:38 30.11.2019
3468 Clear 2 1025 100 9000 1 240 14:19 30.11.2019
3469 Clear 1 1025 92 8000 0.5 0 13:57 30.11.2019
3470 Clear 1 1025 92 8000 0.5 0 13:37 30.11.2019
3471 Clear 1 1025 92 8000 0.5 0 13:37 30.11.2019
3472 Clear 0 1025 92 7000 1 270 13:19 30.11.2019
3473 Clear 0 1025 100 8000 1.3 49 12:46 30.11.2019
3474 Clear 0 1025 100 8000 1.3 49 12:27 30.11.2019
3475 Clear -2 1025 92 9000 1 280 11:55 30.11.2019
3476 Clear -2 1025 92 9000 1 280 11:36 30.11.2019
3477 Clear -3 1025 92 10000 1 230 11:18 30.11.2019
3478 Clear -4 1025 92 10000 2.1 230 10:42 30.11.2019
3479 Clear -5 1024 92 9000 1.35 36 10:21 30.11.2019
3480 Clouds -5 1024 92 9000 1.5 240 09:49 30.11.2019
3481 Clouds -5 1024 92 9000 1.5 240 09:29 30.11.2019
3482 Clear -5 1024 92 9000 0.5 120 08:55 30.11.2019
3483 Clear -5 1024 92 9000 0.5 120 08:55 30.11.2019
3484 Clear -5 1024 92 9000 0.5 120 08:37 30.11.2019
3485 Clear -5 1024 92 6000 1 360 08:18 30.11.2019
3486 Clear -5 1023 86 10000 2.1 80 07:42 30.11.2019
3487 Clear -5 1023 92 10000 0.5 240 07:23 30.11.2019
3488 Clear -5 1023 100 6000 0.5 0 06:45 30.11.2019
3489 Clear -5 1023 92 10000 1.5 240 06:26 30.11.2019
3490 Clear -4 1023 100 10000 1 320 03:56 30.11.2019
3491 Clear -4 1023 100 10000 1 320 03:37 30.11.2019
3492 Haze -4 1023 92 2300 1 230 02:25 30.11.2019
3493 Haze -4 1023 100 5000 1 0 01:50 30.11.2019
3494 Clear -3 1023 92 8000 1.5 230 01:24 30.11.2019
3495 Clear -3 1023 92 10000 1.5 0 00:38 30.11.2019
3496 Mist -3 1023 92 4900 0.5 190 00:20 30.11.2019
3497 Clear -3 1023 100 10000 1 310 23:44 29.11.2019
3498 Fog -3 1023 92 6000 1 240 23:23 29.11.2019
3499 Fog -3 1022 100 6000 1 210 22:48 29.11.2019
3500 Fog -3 1022 100 6000 1 210 22:27 29.11.2019
3501 Fog -2 1022 100 6000 1 260 21:56 29.11.2019
3502 Clear -2 1022 100 10000 1 260 21:38 29.11.2019
3503 Fog -2 1022 100 6000 1 0 21:19 29.11.2019
3504 Fog -2 1022 100 6000 0.5 260 20:56 29.11.2019
3505 Fog -2 1022 100 6000 0.5 260 20:36 29.11.2019
3506 Fog -2 1022 92 10000 0.5 0 20:18 29.11.2019
3507 Fog -1 1022 100 10000 1.5 210 19:41 29.11.2019
3508 Clear -1 1021 92 10000 0.5 300 19:22 29.11.2019
3509 Clear -1 1021 92 10000 0.5 300 18:59 29.11.2019
3510 Clear -1 1021 92 10000 1 260 18:41 29.11.2019
3511 Clear 0 1021 83 10000 1 230 18:23 29.11.2019
3512 Clear 0 1021 86 10000 0.54 25 17:54 29.11.2019
3513 Clear 1 1021 86 10000 0.54 25 17:36 29.11.2019
3514 Clear 1 1020 80 10000 0.5 240 17:18 29.11.2019
3515 Clear 3 1020 69 10000 1 190 16:42 29.11.2019
3516 Clear 3 1020 78 10000 1 220 16:21 29.11.2019
3517 Clear 3 1020 80 10000 1 230 15:43 29.11.2019
3518 Clear 3 1019 78 10000 1.5 230 15:25 29.11.2019
3519 Clear 4 1019 78 10000 1.5 230 14:59 29.11.2019
3520 Clear 4 1019 78 10000 1 220 14:40 29.11.2019
3521 Clouds 4 1019 70 10000 0.5 0 14:21 29.11.2019
3522 Clouds 4 1019 70 10000 0.5 0 13:55 29.11.2019
3523 Clouds 4 1019 72 10000 0.5 0 13:37 29.11.2019
3524 Clouds 3 1019 80 10000 1 210 13:19 29.11.2019
3525 Clouds 3 1019 80 10000 0.32 49 12:41 29.11.2019
3526 Clouds 2 1019 86 10000 0.5 0 12:23 29.11.2019
3527 Clouds 0 1018 72 10000 0.32 49 11:55 29.11.2019
3528 Clouds 0 1018 72 10000 0.32 49 11:55 29.11.2019
3529 Clouds 0 1018 72 10000 0.32 49 11:37 29.11.2019
3530 Clouds -1 1018 81 10000 0.5 0 11:18 29.11.2019
3531 Clouds -1 1018 81 10000 0.5 0 10:56 29.11.2019
3532 Clouds -2 1017 100 10000 1 240 10:38 29.11.2019
3533 Clouds -2 1017 100 10000 1.5 250 10:19 29.11.2019
3534 Clouds -2 1017 100 10000 1 0 09:56 29.11.2019
3535 Clouds -2 1017 100 10000 1 0 09:37 29.11.2019
3536 Clouds -2 1016 92 10000 1.5 220 09:19 29.11.2019
3537 Clouds -2 1016 92 10000 1 240 08:40 29.11.2019
3538 Clear -1 1015 92 10000 1.5 250 08:22 29.11.2019
3539 Clear -1 1015 92 10000 1.5 250 07:59 29.11.2019
3540 Clear -1 1015 92 10000 1 250 07:40 29.11.2019
3541 Clear -1 1015 92 10000 2.1 250 07:22 29.11.2019
3542 Clear -1 1014 92 10000 2.1 220 06:43 29.11.2019
3543 Clear -1 1013 92 10000 1.5 0 05:48 29.11.2019
3544 Clear -1 1013 92 10000 1.5 0 05:25 29.11.2019
3545 Clear 0 1013 92 10000 2.1 260 04:35 29.11.2019
3546 Clear 0 1012 92 10000 2.6 230 03:22 29.11.2019
3547 Clear 0 1011 92 10000 2.6 250 02:32 29.11.2019
3548 Clear 1 1011 86 10000 1 0 01:53 29.11.2019
3549 Clear 0 1010 86 10000 2.1 220 01:26 29.11.2019
3550 Clear 0 1010 92 10000 2.1 270 00:44 29.11.2019
3551 Clear 1 1010 86 10000 2.1 290 00:21 29.11.2019
3552 Clear 0 1009 86 10000 3.1 230 23:56 28.11.2019
3553 Clear 1 1009 86 10000 3.1 230 23:38 28.11.2019
3554 Clear 1 1009 85 10000 2.1 330 23:19 28.11.2019
3555 Clouds 2 1009 74 10000 2.1 0 22:38 28.11.2019
3556 Clear 1 1008 85 10000 1.5 0 22:20 28.11.2019
3557 Clear 1 1008 85 10000 1.5 0 21:59 28.11.2019
3558 Clear 2 1008 80 10000 2.6 350 21:40 28.11.2019
3559 Clear 2 1007 80 10000 3.1 350 21:20 28.11.2019
3560 Clear 2 1007 80 10000 3.1 350 20:57 28.11.2019
3561 Clear 3 1007 84 10000 2.6 350 20:38 28.11.2019
3562 Clouds 3 1007 84 10000 4.1 350 20:18 28.11.2019
3563 Clouds 3 1006 84 10000 4.1 360 19:55 28.11.2019
3564 Clouds 4 1006 84 10000 4.1 360 19:36 28.11.2019
3565 Clouds 4 1006 75 10000 4.6 350 19:18 28.11.2019
3566 Clouds 4 1006 75 10000 4.6 350 18:55 28.11.2019
3567 Clouds 4 1005 84 10000 4.1 350 18:37 28.11.2019
3568 Clouds 4 1005 84 10000 1 0 18:18 28.11.2019
3569 Clouds 4 1005 84 10000 2.6 340 17:42 28.11.2019
3570 Clouds 5 1004 79 10000 1.5 0 17:23 28.11.2019
3571 Clouds 5 1004 79 10000 1.5 0 17:23 28.11.2019
3572 Clouds 5 1004 79 10000 2.6 360 16:58 28.11.2019
3573 Clouds 5 1004 79 10000 2.6 360 16:38 28.11.2019
3574 Clouds 6 1003 79 10000 2.1 20 16:19 28.11.2019
3575 Clouds 6 1003 79 10000 2.1 20 15:55 28.11.2019
3576 Clouds 6 1003 79 10000 2.1 20 15:55 28.11.2019
3577 Clouds 7 1003 65 10000 3.1 40 15:36 28.11.2019
3578 Clouds 7 1002 79 10000 4.6 40 15:18 28.11.2019
3579 Clouds 6 1002 79 10000 5.7 50 14:41 28.11.2019
3580 Clouds 6 1002 70 10000 4.6 30 14:22 28.11.2019
3581 Clouds 6 1002 70 10000 4.6 30 13:59 28.11.2019
3582 Clouds 7 1002 70 10000 3.6 40 13:41 28.11.2019
3583 Clouds 7 1001 65 10000 5.1 40 13:21 28.11.2019
3584 Clouds 6 1001 70 10000 4.1 50 12:48 28.11.2019
3585 Clouds 6 1001 70 10000 5.7 40 12:29 28.11.2019
3586 Clouds 6 1001 70 10000 5.7 40 11:59 28.11.2019
3587 Clouds 6 1000 70 10000 6.2 40 11:40 28.11.2019
3588 Clouds 6 1000 70 10000 6.7 40 11:21 28.11.2019
3589 Clouds 6 999 70 10000 5.7 50 10:57 28.11.2019
3590 Clouds 6 999 70 10000 5.7 50 10:38 28.11.2019
3591 Clouds 6 998 75 10000 5.1 40 10:18 28.11.2019
3592 Clouds 7 998 75 10000 5.1 60 09:41 28.11.2019
3593 Clouds 7 998 75 10000 5.1 60 09:41 28.11.2019
3594 Clouds 7 997 70 10000 6.2 50 09:22 28.11.2019
3595 Clouds 7 996 75 10000 7.7 40 08:57 28.11.2019
3596 Clouds 7 996 75 10000 7.7 40 08:38 28.11.2019
3597 Clouds 7 996 75 10000 6.2 40 08:19 28.11.2019
3598 Clouds 7 995 81 10000 4.6 30 07:42 28.11.2019
3599 Clouds 7 995 87 10000 2.6 30 07:23 28.11.2019
3600 Clouds 8 994 87 10000 1.5 340 06:44 28.11.2019
3601 Rain 8 994 93 10000 3.1 40 06:23 28.11.2019
3602 Clouds 8 993 87 10000 2.1 330 05:49 28.11.2019
3603 Clouds 8 992 87 10000 2.6 310 05:18 28.11.2019
3604 Clouds 8 991 87 10000 1 0 02:37 28.11.2019
3605 Clouds 7 990 87 10000 2.1 260 01:40 28.11.2019
3606 Clouds 7 990 93 10000 2.6 270 00:44 28.11.2019
3607 Rain 7 990 100 10000 2.1 280 00:22 28.11.2019
3608 Clouds 7 990 100 10000 2.1 280 23:55 27.11.2019
3609 Clouds 7 990 100 10000 2.1 280 23:36 27.11.2019
3610 Clouds 7 990 93 10000 2.1 280 23:18 27.11.2019
3611 Clouds 7 989 93 10000 2.1 300 22:38 27.11.2019
3612 Clouds 7 989 100 9000 1 0 22:20 27.11.2019
3613 Clouds 7 989 100 9000 1 0 21:56 27.11.2019
3614 Clouds 7 989 100 10000 1.5 270 21:37 27.11.2019
3615 Clouds 7 989 100 9000 2.6 270 21:19 27.11.2019
3616 Clouds 7 989 100 9000 2.6 270 20:58 27.11.2019
3617 Clouds 7 989 93 8000 1.5 230 20:39 27.11.2019
3618 Clouds 7 988 100 8000 1.5 260 20:21 27.11.2019
3619 Clouds 7 988 100 6000 1 0 19:57 27.11.2019
3620 Clouds 7 988 100 6000 1 0 19:57 27.11.2019
3621 Clouds 7 988 100 6000 1 0 19:39 27.11.2019
3622 Clouds 7 988 100 7000 0.5 20 19:19 27.11.2019
3623 Clouds 7 988 100 10000 0.5 70 18:58 27.11.2019
3624 Clouds 7 988 100 7000 0.5 20 18:58 27.11.2019
3625 Clouds 7 988 100 10000 0.5 70 18:37 27.11.2019
3626 Clouds 7 988 100 9000 1 300 18:19 27.11.2019
3627 Clouds 7 988 93 10000 0.5 0 17:56 27.11.2019
3628 Clouds 7 988 93 10000 0.5 0 17:37 27.11.2019
3629 Clouds 7 988 93 10000 0.5 0 17:37 27.11.2019
3630 Clouds 7 988 93 10000 1.5 0 17:18 27.11.2019
3631 Clouds 8 988 93 10000 1 0 16:56 27.11.2019
3632 -273 0 0 0 0 0 16:55 27.11.2019
3633 Clouds 8 988 93 10000 1 0 16:55 27.11.2019
3634 Clouds 8 988 93 10000 1 0 16:36 27.11.2019
3635 Clear 8 987 93 10000 1 130 16:18 27.11.2019
3636 Clear 8 988 87 10000 1 160 15:56 27.11.2019
3637 Clear 8 988 87 10000 1 160 15:37 27.11.2019
3638 Clouds 8 988 93 10000 1.5 230 15:19 27.11.2019
3639 Clouds 8 988 93 10000 1 240 14:55 27.11.2019
3640 Clouds 8 988 93 10000 1 240 14:55 27.11.2019
3641 Clouds 8 988 93 10000 1 240 14:37 27.11.2019
3642 Clouds 8 987 87 10000 1 220 14:19 27.11.2019
3643 Clouds 8 987 93 10000 1.5 260 13:55 27.11.2019
3644 Clouds 8 987 93 10000 1.5 260 13:36 27.11.2019
3645 Clouds 7 987 100 10000 1 260 13:18 27.11.2019
3646 Clouds 7 988 93 9000 1 0 12:41 27.11.2019
3647 Clouds 7 988 100 6000 2.1 340 12:21 27.11.2019
3648 Mist 7 988 100 3700 2.1 340 11:55 27.11.2019
3649 Mist 6 988 100 3700 2.1 340 11:36 27.11.2019
3650 Mist 6 988 100 1100 1.5 0 11:18 27.11.2019
3651 Fog 6 988 100 400 2.1 90 10:42 27.11.2019
3652 Fog 6 988 100 400 2.1 90 10:42 27.11.2019
3653 Fog 6 987 100 400 1.5 0 10:24 27.11.2019
3654 Mist 5 987 100 1200 2.1 20 09:50 27.11.2019
3655 Clouds 5 987 100 6000 1.5 40 09:27 27.11.2019
3656 Mist 5 987 93 5000 1.5 350 08:59 27.11.2019
3657 Mist 5 987 93 5000 1.5 350 08:41 27.11.2019
3658 Mist 5 987 93 5000 1.5 350 08:41 27.11.2019
3659 Mist 6 987 100 4800 1.5 0 08:22 27.11.2019
3660 Mist 6 987 100 3300 2.1 10 07:47 27.11.2019
3661 Mist 6 987 100 4700 1.5 350 07:28 27.11.2019
3662 Clouds 6 987 100 6000 1.5 10 06:54 27.11.2019
3663 Clouds 6 987 100 6000 1.5 10 06:35 27.11.2019
3664 Clouds 6 986 93 7000 2.6 50 05:46 27.11.2019
3665 Clouds 6 986 93 7000 3.1 80 05:20 27.11.2019
3666 Clouds 6 986 100 6000 4.6 60 04:47 27.11.2019
3667 Clouds 6 986 100 6000 4.6 60 04:29 27.11.2019
3668 Mist 7 986 100 5000 2.1 70 03:39 27.11.2019
3669 Clouds 7 987 100 6000 1 100 03:19 27.11.2019
3670 Clouds 7 987 100 9000 1.5 70 02:20 27.11.2019
3671 Clouds 8 987 100 10000 2.6 70 00:47 27.11.2019
3672 Rain 8 987 100 10000 2.1 90 00:29 27.11.2019
3673 Rain 8 987 100 10000 3.1 90 23:54 26.11.2019
3674 Rain 8 987 100 10000 3.1 90 23:36 26.11.2019
3675 Rain 8 987 93 10000 4.1 70 23:18 26.11.2019
3676 Rain 9 987 93 7000 4.1 70 22:39 26.11.2019
3677 Rain 9 987 93 10000 4.1 80 22:19 26.11.2019
3678 Rain 9 987 93 10000 4.1 80 22:19 26.11.2019
3679 Rain 9 987 93 10000 4.1 80 21:59 26.11.2019
3680 Drizzle 9 987 93 5000 4.1 80 21:38 26.11.2019
3681 Rain 9 987 93 7000 5.1 80 21:20 26.11.2019
3682 Rain 8 987 93 10000 5.7 80 20:57 26.11.2019
3683 Rain 8 987 93 10000 5.7 80 20:57 26.11.2019
3684 Rain 8 987 93 10000 5.7 80 20:57 26.11.2019
3685 Rain 8 987 93 10000 5.7 80 20:37 26.11.2019
3686 Rain 8 987 93 10000 5.7 80 20:37 26.11.2019
3687 Rain 8 987 93 10000 5.7 70 20:19 26.11.2019
3688 Rain 8 987 93 10000 5.7 70 19:55 26.11.2019
3689 Rain 8 987 93 10000 5.7 70 19:37 26.11.2019
3690 Rain 8 987 93 4900 5.7 70 19:19 26.11.2019
3691 Rain 8 987 93 4900 5.7 70 19:19 26.11.2019
3692 Rain 8 987 93 7000 5.1 70 18:56 26.11.2019
3693 Rain 8 987 93 7000 5.1 70 18:38 26.11.2019
3694 Drizzle 9 987 100 7000 6.2 80 18:20 26.11.2019
3695 Drizzle 9 987 100 7000 6.2 80 18:20 26.11.2019
3696 Rain 9 987 100 7000 5.7 80 17:56 26.11.2019
3697 Rain 9 987 100 7000 5.7 80 17:37 26.11.2019
3698 Rain 9 987 93 10000 5.7 70 17:19 26.11.2019
3699 Rain 9 987 93 10000 6.7 70 16:56 26.11.2019
3700 Rain 9 987 93 10000 6.7 70 16:37 26.11.2019
3701 Rain 9 987 93 10000 7.2 60 16:18 26.11.2019
3702 Rain 9 988 93 10000 6.2 70 15:57 26.11.2019
3703 Rain 10 988 93 10000 6.2 70 15:37 26.11.2019
3704 Rain 9 988 93 10000 6.2 70 15:18 26.11.2019
3705 Rain 9 988 93 10000 6.2 70 14:45 26.11.2019
3706 Rain 10 989 93 8000 5.1 70 14:24 26.11.2019
3707 Rain 10 989 93 9000 5.1 60 13:44 26.11.2019
3708 Clouds 9 990 93 10000 5.1 60 13:24 26.11.2019
3709 Clouds 10 990 93 9000 5.1 60 12:58 26.11.2019
3710 Clouds 10 990 93 9000 5.1 60 12:37 26.11.2019
3711 Clouds 9 991 93 8000 4.1 80 12:19 26.11.2019
3712 Clouds 9 991 100 7000 4.1 70 11:55 26.11.2019
3713 Clouds 9 991 100 7000 4.1 70 11:37 26.11.2019
3714 Rain 9 991 93 8000 4.6 70 11:18 26.11.2019
3715 Rain 9 992 93 6000 4.1 80 10:56 26.11.2019
3716 Rain 9 992 93 6000 4.1 80 10:37 26.11.2019
3717 Clouds 9 992 93 7000 4.1 80 10:19 26.11.2019
3718 Clouds 9 992 93 6000 4.6 70 09:42 26.11.2019
3719 Clouds 9 992 93 6000 3.6 80 09:23 26.11.2019
3720 Clouds 9 992 93 6000 4.6 80 08:47 26.11.2019
3721 Clouds 9 992 93 6000 4.6 80 08:28 26.11.2019
3722 Drizzle 8 993 100 4300 3.6 80 07:57 26.11.2019
3723 Drizzle 8 993 100 4300 3.6 80 07:38 26.11.2019
3724 Drizzle 8 993 100 2600 3.1 70 07:19 26.11.2019
3725 Mist 8 994 100 3400 3.6 80 06:46 26.11.2019
3726 Clouds 8 994 100 9000 3.1 70 05:58 26.11.2019
3727 Mist 8 995 100 5000 3.1 70 05:19 26.11.2019
3728 Clouds 8 996 100 6000 3.1 70 03:21 26.11.2019
3729 Clouds 8 996 100 6000 3.1 70 03:21 26.11.2019
3730 Drizzle 8 997 100 2800 3.6 70 01:37 26.11.2019
3731 Mist 8 997 100 5000 3.6 60 01:18 26.11.2019
3732 Mist 8 997 100 5000 3.6 70 00:40 26.11.2019
3733 Rain 8 998 100 7000 4.1 60 23:59 25.11.2019
3734 Rain 8 998 100 7000 4.1 60 23:38 25.11.2019
3735 Clouds 8 998 100 9000 4.1 70 23:19 25.11.2019
3736 Clouds 8 998 100 9000 4.6 70 22:39 25.11.2019
3737 Drizzle 8 998 100 5000 5.1 60 22:19 25.11.2019
3738 Drizzle 8 998 100 5000 5.1 60 21:59 25.11.2019
3739 Rain 8 998 100 6000 5.7 60 21:40 25.11.2019
3740 Rain 8 999 100 8000 5.1 60 21:22 25.11.2019
3741 Rain 8 999 100 8000 5.1 60 20:58 25.11.2019
3742 Clouds 8 999 100 10000 4.6 60 20:40 25.11.2019
3743 Clouds 8 999 100 10000 4.6 60 20:40 25.11.2019
3744 Clouds 8 999 100 10000 4.6 70 20:20 25.11.2019
3745 Clouds 8 999 100 10000 5.7 60 19:56 25.11.2019
3746 Clouds 8 999 100 10000 5.7 60 19:38 25.11.2019
3747 Rain 8 999 93 8000 5.1 70 19:19 25.11.2019
3748 Rain 8 999 93 8000 5.1 70 18:57 25.11.2019
3749 Rain 8 999 93 8000 5.1 70 18:39 25.11.2019
3750 Drizzle 8 999 93 5000 6.2 60 18:21 25.11.2019
3751 Drizzle 8 999 93 5000 5.1 70 17:58 25.11.2019
3752 Drizzle 8 999 93 5000 5.1 70 17:39 25.11.2019
3753 Rain 8 999 93 7000 5.1 70 17:20 25.11.2019
3754 Rain 9 999 93 6000 5.1 70 16:57 25.11.2019
3755 Rain 9 999 93 6000 5.1 70 16:39 25.11.2019
3756 Rain 9 999 93 6000 4.6 70 16:21 25.11.2019
3757 Rain 8 999 93 6000 4.6 70 15:55 25.11.2019
3758 Rain 8 999 100 6000 5.7 70 15:37 25.11.2019
3759 Rain 9 999 100 5000 5.7 60 15:18 25.11.2019
3760 Rain 8 1000 100 5000 5.1 60 14:42 25.11.2019
3761 Rain 8 1000 93 4900 4.6 70 14:23 25.11.2019
3762 Drizzle 8 1000 93 5000 4.6 70 13:56 25.11.2019
3763 Drizzle 8 1000 93 5000 4.6 70 13:36 25.11.2019
3764 Drizzle 8 1000 93 4500 4.6 70 13:18 25.11.2019
3765 Clouds 8 1001 93 7000 3.1 70 12:55 25.11.2019
3766 Clouds 8 1001 93 7000 3.1 70 12:36 25.11.2019
3767 Drizzle 8 1001 93 6000 4.1 80 12:18 25.11.2019
3768 Drizzle 8 1001 93 6000 3.6 70 11:40 25.11.2019
3769 Drizzle 8 1001 93 6000 3.6 70 11:40 25.11.2019
3770 Rain 7 1001 93 6000 3.1 80 11:21 25.11.2019
3771 Rain 7 1001 100 6000 4.1 80 10:57 25.11.2019
3772 Rain 7 1001 100 6000 4.1 80 10:38 25.11.2019
3773 Drizzle 7 1001 93 5000 5.1 70 10:18 25.11.2019
3774 Mist 7 1001 93 5000 4.6 80 09:42 25.11.2019
3775 Rain 6 1001 100 5000 4.6 70 09:23 25.11.2019
3776 Mist 6 1001 100 5000 4.1 90 08:42 25.11.2019
3777 Mist 6 1001 100 5000 3.6 90 08:23 25.11.2019
3778 Mist 6 1001 100 4500 3.6 70 07:47 25.11.2019
3779 Drizzle 6 1001 100 3800 3.6 60 07:29 25.11.2019
3780 Rain 6 1001 100 4000 2.6 70 06:59 25.11.2019
3781 Rain 6 1001 100 3800 3.6 70 06:24 25.11.2019
3782 Rain 7 1001 100 3800 3.1 70 05:51 25.11.2019
3783 Rain 7 1001 93 4100 2.6 90 05:31 25.11.2019
3784 Rain 7 1001 100 3600 4.1 60 04:48 25.11.2019
3785 Drizzle 7 1001 93 3400 3.1 80 02:36 25.11.2019
3786 Rain 7 1002 93 2100 2.6 70 01:43 25.11.2019
3787 Rain 8 1002 93 2900 2.1 70 01:24 25.11.2019
3788 Rain 8 1002 100 3600 1.5 90 00:42 25.11.2019
3789 Mist 8 1001 100 3400 2.6 70 00:18 25.11.2019
3790 Drizzle 8 1001 100 3300 2.6 60 23:44 24.11.2019
3791 Rain 8 1001 100 3300 3.1 60 23:20 24.11.2019
3792 Rain 8 1001 100 2900 3.6 60 22:57 24.11.2019
3793 Rain 8 1001 100 2900 3.6 60 22:38 24.11.2019
3794 Drizzle 8 1001 100 2800 3.1 60 22:19 24.11.2019
3795 Drizzle 8 1001 100 3200 3.1 60 21:56 24.11.2019
3796 Drizzle 8 1001 100 3200 3.1 60 21:36 24.11.2019
3797 Drizzle 8 1001 100 3500 2.6 70 21:18 24.11.2019
3798 Drizzle 8 1001 100 4100 3.6 60 20:55 24.11.2019
3799 Drizzle 8 1001 100 4100 3.6 60 20:37 24.11.2019
3800 Mist 8 1001 100 3800 3.1 60 20:18 24.11.2019
3801 Drizzle 8 1001 100 2600 2.6 70 19:54 24.11.2019
3802 Drizzle 8 1001 100 2700 3.1 60 19:36 24.11.2019
3803 Drizzle 8 1001 100 2600 2.6 70 19:36 24.11.2019
3804 Drizzle 8 1001 100 2700 3.1 60 19:18 24.11.2019
3805 Drizzle 8 1001 93 2600 3.1 70 18:54 24.11.2019
3806 Drizzle 8 1001 93 2600 3.1 70 18:36 24.11.2019
3807 Drizzle 8 1001 100 2400 3.1 60 18:18 24.11.2019
3808 Mist 8 1001 93 2700 3.6 60 17:54 24.11.2019
3809 Mist 9 1001 93 4900 3.6 70 17:36 24.11.2019
3810 Mist 9 1001 93 4900 3.6 70 17:18 24.11.2019
3811 Mist 9 1001 93 4400 2.6 60 16:41 24.11.2019
3812 Mist 9 1001 100 5000 2.6 70 16:23 24.11.2019
3813 Mist 9 1001 100 5000 2.6 70 15:57 24.11.2019
3814 Mist 9 1001 100 5000 2.1 60 15:39 24.11.2019
3815 Drizzle 9 1001 100 5000 2.6 70 15:21 24.11.2019
3816 Drizzle 9 1001 100 3700 2.1 60 14:40 24.11.2019
3817 Drizzle 9 1002 100 4700 1 40 14:20 24.11.2019
3818 Clouds 9 1002 93 7000 1 60 13:59 24.11.2019
3819 Clouds 9 1002 93 7000 1 60 13:38 24.11.2019
3820 Clouds 9 1002 93 10000 2.1 60 13:20 24.11.2019
3821 Clouds 9 1002 93 9000 1 30 12:56 24.11.2019
3822 Clouds 9 1002 93 9000 1 30 12:38 24.11.2019
3823 Clouds 9 1002 93 9000 1 30 12:38 24.11.2019
3824 Clouds 9 1002 93 8000 0.5 0 12:18 24.11.2019
3825 Clouds 9 1002 100 8000 1 20 11:54 24.11.2019
3826 Clouds 9 1002 100 8000 1 20 11:36 24.11.2019
3827 Clouds 8 1002 100 8000 1 0 11:18 24.11.2019
3828 Clouds 8 1002 93 7000 1 50 10:42 24.11.2019
3829 Mist 8 1002 100 5000 1.5 0 10:24 24.11.2019
3830 Mist 8 1002 93 5000 2.6 60 09:40 24.11.2019
3831 Mist 8 1002 93 5000 2.6 70 09:20 24.11.2019
3832 Mist 8 1002 100 4900 1.5 0 08:57 24.11.2019
3833 Mist 8 1002 100 4900 1.5 0 08:39 24.11.2019
3834 Mist 8 1002 93 4600 1 80 08:20 24.11.2019
3835 Rain 8 1002 100 7000 2.1 70 07:52 24.11.2019
3836 Mist 8 1002 100 2900 1.5 70 07:22 24.11.2019
3837 Mist 8 1001 100 3600 1 60 06:52 24.11.2019
3838 Mist 8 1001 93 5000 1.5 60 05:39 24.11.2019
3839 Mist 8 1002 93 4100 1.5 50 04:41 24.11.2019
3840 Clouds 8 1001 100 7000 1.5 50 02:42 24.11.2019
3841 Clouds 8 1002 100 8000 2.1 50 01:56 24.11.2019
3842 Clouds 8 1002 100 9000 1.5 80 01:34 24.11.2019
3843 Clouds 8 1001 100 10000 3.1 80 00:52 24.11.2019
3844 Clouds 8 1001 93 10000 2.6 70 00:25 24.11.2019
3845 Clouds 8 1001 93 10000 3.1 70 23:57 23.11.2019
3846 Clouds 9 1001 93 10000 3.1 70 23:38 23.11.2019
3847 Clouds 9 1002 93 10000 3.1 70 23:20 23.11.2019
3848 Clouds 9 1002 93 10000 4.1 70 22:55 23.11.2019
3849 Clouds 9 1002 93 10000 4.1 70 22:37 23.11.2019
3850 Clouds 9 1002 93 10000 4.6 50 22:19 23.11.2019
3851 Clouds 9 1002 87 10000 3.6 30 21:55 23.11.2019
3852 Clouds 9 1002 87 10000 3.6 30 21:36 23.11.2019
3853 Clouds 9 1002 87 10000 3.1 40 21:18 23.11.2019
3854 Clouds 9 1002 87 10000 4.6 50 20:38 23.11.2019
3855 Rain 9 1002 87 10000 6.2 60 20:20 23.11.2019
3856 Rain 9 1002 87 10000 5.7 60 19:56 23.11.2019
3857 Rain 8 1002 87 10000 5.7 60 19:38 23.11.2019
3858 Rain 8 1002 87 10000 6.2 60 19:18 23.11.2019
3859 Rain 8 1002 87 10000 6.2 60 19:18 23.11.2019
3860 Rain 8 1002 87 10000 6.2 60 19:18 23.11.2019
3861 Rain 8 1002 87 10000 6.2 60 18:55 23.11.2019
3862 Rain 8 1002 87 10000 6.2 60 18:36 23.11.2019
3863 Clouds 8 1002 87 10000 7.2 60 18:18 23.11.2019
3864 Clouds 8 1002 87 10000 6.2 60 17:41 23.11.2019
3865 Clouds 8 1002 87 10000 7.7 60 17:21 23.11.2019
3866 Clouds 8 1002 87 10000 7.7 60 16:56 23.11.2019
3867 Clouds 8 1002 87 10000 7.7 60 16:38 23.11.2019
3868 Rain 8 1002 87 10000 7.2 60 16:20 23.11.2019
3869 Rain 8 1002 87 10000 7.2 60 15:57 23.11.2019
3870 Rain 8 1002 87 10000 6.7 60 15:38 23.11.2019
3871 Rain 9 1002 87 10000 7.2 60 15:19 23.11.2019
3872 Rain 9 1002 87 10000 6.7 60 14:55 23.11.2019
3873 Rain 9 1002 87 10000 6.7 60 14:37 23.11.2019
3874 Rain 9 1002 87 10000 6.2 60 14:18 23.11.2019
3875 Rain 9 1002 87 10000 6.2 60 13:42 23.11.2019
3876 Rain 9 1002 87 10000 6.2 50 13:19 23.11.2019
3877 Rain 9 1002 87 10000 6.7 50 12:55 23.11.2019
3878 Rain 9 1002 87 10000 6.7 50 12:37 23.11.2019
3879 Rain 9 1002 87 10000 6.2 50 12:19 23.11.2019
3880 Rain 9 1002 87 10000 7.2 60 11:42 23.11.2019
3881 Rain 9 1002 87 10000 6.7 50 11:19 23.11.2019
3882 Clouds 9 1002 87 10000 7.7 50 10:43 23.11.2019
3883 Clouds 8 1002 93 10000 6.7 50 10:21 23.11.2019
3884 Clouds 8 1002 93 10000 6.2 50 09:42 23.11.2019
3885 Clouds 8 1002 93 10000 6.2 50 09:20 23.11.2019
3886 Clouds 8 1002 93 10000 6.2 50 09:20 23.11.2019
3887 Clouds 8 1001 93 10000 6.7 60 08:42 23.11.2019
3888 Clouds 8 1001 93 10000 6.2 50 08:19 23.11.2019
3889 Clouds 8 1001 93 10000 5.7 60 07:52 23.11.2019
3890 Clouds 8 1001 93 10000 5.7 60 07:34 23.11.2019
3891 Rain 7 1001 93 10000 4.1 50 06:45 23.11.2019
3892 Rain 7 1000 93 10000 5.1 50 06:19 23.11.2019
3893 Rain 7 1000 93 10000 5.7 60 05:48 23.11.2019
3894 Rain 7 1000 93 10000 5.7 60 05:28 23.11.2019
3895 Rain 7 1000 93 10000 4.6 70 04:47 23.11.2019
3896 Rain 7 1000 93 10000 5.1 70 04:26 23.11.2019
3897 Rain 6 999 93 10000 5.7 70 02:39 23.11.2019
3898 Rain 6 999 87 10000 6.2 60 01:42 23.11.2019
3899 Rain 6 999 87 10000 5.1 60 00:57 23.11.2019
3900 Rain 6 999 87 10000 5.1 60 00:57 23.11.2019
3901 Rain 6 999 87 10000 5.1 60 00:38 23.11.2019
3902 Rain 6 999 87 10000 5.7 60 00:18 23.11.2019
3903 Clouds 6 999 93 10000 4.1 70 23:39 22.11.2019
3904 Rain 6 999 93 10000 3.6 80 23:20 22.11.2019
3905 Clouds 6 998 93 10000 4.1 70 22:57 22.11.2019
3906 Clouds 6 998 93 10000 4.1 70 22:38 22.11.2019
3907 Clouds 6 998 93 10000 2.6 80 22:19 22.11.2019
3908 Clouds 6 998 87 10000 2.6 80 21:57 22.11.2019
3909 Clouds 6 998 87 10000 2.6 80 21:38 22.11.2019
3910 Clouds 6 997 93 10000 3.6 80 21:18 22.11.2019
3911 Clouds 6 997 93 10000 5.7 70 20:42 22.11.2019
3912 Clouds 6 997 93 10000 5.1 70 20:22 22.11.2019
3913 Rain 6 997 93 9000 4.6 60 19:55 22.11.2019
3914 Rain 6 997 93 9000 4.6 60 19:36 22.11.2019
3915 Rain 7 996 93 10000 4.1 80 19:18 22.11.2019
3916 Clouds 6 996 93 10000 3.6 80 18:39 22.11.2019
3917 Clouds 7 996 93 9000 5.7 60 18:21 22.11.2019
3918 Rain 7 996 87 8000 6.2 60 17:43 22.11.2019
3919 Clouds 7 995 93 8000 6.7 60 17:24 22.11.2019
3920 Clouds 7 996 93 9000 7.2 60 16:59 22.11.2019
3921 Clouds 7 996 93 9000 7.2 60 16:40 22.11.2019
3922 Rain 7 996 93 8000 6.2 70 16:22 22.11.2019
3923 Rain 7 996 93 8000 6.2 70 15:41 22.11.2019
3924 Rain 7 996 93 9000 6.2 70 15:23 22.11.2019
3925 Rain 7 996 87 10000 6.2 60 14:56 22.11.2019
3926 Rain 7 996 87 10000 6.2 60 14:37 22.11.2019
3927 Clouds 7 996 87 10000 6.2 60 14:19 22.11.2019
3928 Clouds 7 996 87 10000 6.2 60 13:40 22.11.2019
3929 Clouds 7 997 87 10000 6.7 60 13:20 22.11.2019
3930 Clouds 7 997 87 10000 6.7 60 12:59 22.11.2019
3931 Clouds 7 997 81 10000 5.7 70 12:40 22.11.2019
3932 Clouds 6 997 81 10000 4.6 70 12:20 22.11.2019
3933 Clouds 7 997 81 10000 4.6 70 11:59 22.11.2019
3934 Clouds 6 997 81 10000 3.6 80 11:38 22.11.2019
3935 Clouds 5 997 81 10000 4.6 60 11:19 22.11.2019
3936 Clouds 5 997 81 10000 4.6 60 11:19 22.11.2019
3937 Clouds 5 997 81 10000 4.6 60 10:57 22.11.2019
3938 Clouds 5 998 81 10000 3.1 90 10:39 22.11.2019
3939 Clouds 5 998 86 10000 3.6 90 10:21 22.11.2019
3940 Clouds 5 998 86 10000 3.6 90 09:55 22.11.2019
3941 Clouds 4 998 80 10000 2.6 90 09:37 22.11.2019
3942 Clouds 4 998 86 10000 3.6 80 09:18 22.11.2019
3943 Clouds 4 998 86 10000 5.1 50 08:42 22.11.2019
3944 Clouds 4 998 86 10000 5.7 60 08:22 22.11.2019
3945 Clouds 4 998 86 10000 5.7 60 07:44 22.11.2019
3946 Clouds 4 998 93 10000 4.1 60 07:22 22.11.2019
3947 Clouds 5 998 86 10000 5.7 60 06:49 22.11.2019
3948 Clouds 4 998 86 10000 5.7 60 06:29 22.11.2019
3949 Clouds 4 998 86 10000 5.7 70 05:44 22.11.2019
3950 Clouds 4 999 80 10000 5.7 60 04:18 22.11.2019
3951 Clouds 4 1000 80 10000 6.2 70 02:47 22.11.2019
3952 Clouds 4 1000 80 10000 5.1 70 02:28 22.11.2019
3953 Clouds 4 1000 80 10000 5.1 70 02:28 22.11.2019
3954 Clouds 4 1001 80 10000 6.2 70 01:44 22.11.2019
3955 Clouds 4 1001 80 10000 5.7 70 01:19 22.11.2019
3956 Clouds 5 1001 80 10000 5.1 70 00:49 22.11.2019
3957 Clouds 5 1002 80 10000 6.7 60 00:23 22.11.2019
3958 Clouds 5 1002 80 10000 6.7 70 23:44 21.11.2019
3959 Clouds 5 1002 75 10000 7.7 80 23:25 21.11.2019
3960 Clouds 5 1003 81 10000 6.2 70 22:57 21.11.2019
3961 Clouds 5 1003 81 10000 6.2 70 22:38 21.11.2019
3962 Clouds 6 1003 75 10000 6.2 70 22:20 21.11.2019
3963 Clouds 6 1003 75 10000 6.2 70 21:55 21.11.2019
3964 Clouds 6 1003 75 10000 6.2 70 21:37 21.11.2019
3965 Clouds 6 1003 75 10000 6.2 70 21:18 21.11.2019
3966 Clouds 6 1003 75 10000 6.2 70 20:57 21.11.2019
3967 Clouds 6 1003 70 10000 6.2 70 20:37 21.11.2019
3968 Clouds 6 1003 75 10000 5.1 70 20:18 21.11.2019
3969 Clouds 6 1003 75 10000 6.2 70 19:56 21.11.2019
3970 Clouds 6 1003 75 10000 6.2 70 19:37 21.11.2019
3971 Clouds 6 1004 75 10000 5.7 60 19:19 21.11.2019
3972 Clouds 6 1004 75 10000 4.6 50 18:54 21.11.2019
3973 Clouds 6 1004 75 10000 4.6 50 18:36 21.11.2019
3974 Clouds 6 1004 80 10000 5.1 60 18:18 21.11.2019
3975 Clouds 6 1004 75 10000 6.7 70 17:39 21.11.2019
3976 Clouds 6 1004 75 10000 6.7 80 17:21 21.11.2019
3977 Clouds 6 1004 75 10000 5.7 60 16:57 21.11.2019
3978 Clouds 6 1004 75 10000 5.7 60 16:39 21.11.2019
3979 Clouds 6 1004 70 10000 4.6 70 16:20 21.11.2019
3980 Clouds 7 1005 75 10000 6.2 70 15:44 21.11.2019
3981 Clouds 7 1005 70 10000 5.7 70 15:22 21.11.2019
3982 Clouds 7 1005 70 10000 5.7 60 14:59 21.11.2019
3983 Clouds 7 1005 70 10000 5.7 60 14:38 21.11.2019
3984 Clouds 7 1005 70 10000 5.7 60 14:20 21.11.2019
3985 Clouds 7 1005 70 10000 5.7 60 13:59 21.11.2019
3986 Clouds 6 1006 75 10000 6.2 70 13:37 21.11.2019
3987 Clouds 6 1006 70 10000 5.1 70 13:19 21.11.2019
3988 Clouds 6 1006 70 10000 4.6 70 12:42 21.11.2019
3989 Clouds 6 1007 70 10000 5.7 70 12:24 21.11.2019
3990 Clouds 6 1007 70 10000 5.7 70 11:56 21.11.2019
3991 Clouds 6 1007 75 10000 5.7 70 11:37 21.11.2019
3992 Clouds 6 1007 75 10000 5.7 70 11:37 21.11.2019
3993 Clouds 6 1007 75 10000 5.7 70 11:37 21.11.2019
3994 Clear 5 1007 75 10000 7.2 70 11:19 21.11.2019
3995 Clear 5 1007 75 10000 7.7 70 10:43 21.11.2019
3996 Clear 4 1007 94 10000 6.2 70 10:24 21.11.2019
3997 Clear 4 1007 94 10000 6.2 70 09:59 21.11.2019
3998 Clear 4 1007 94 10000 5.7 70 09:41 21.11.2019
3999 Clear 4 1007 94 10000 6.7 70 09:22 21.11.2019
4000 Clear 4 1007 94 10000 7.2 70 08:46 21.11.2019
4001 Clouds 3 1007 93 10000 7.7 70 08:24 21.11.2019
4002 Clouds 4 1007 93 10000 7.7 70 07:59 21.11.2019
4003 Clouds 4 1006 93 10000 7.7 60 07:37 21.11.2019
4004 Clouds 4 1006 93 10000 9.8 70 07:18 21.11.2019
4005 Clouds 4 1006 93 10000 8.2 70 06:42 21.11.2019
4006 Clouds 4 1006 93 10000 8.2 70 06:24 21.11.2019
4007 Clouds 4 1007 69 10000 5.1 60 04:34 21.11.2019
4008 Clouds 4 1007 93 10000 3.6 50 02:42 21.11.2019
4009 Clouds 3 1008 94 10000 3.6 40 02:24 21.11.2019
4010 Clouds 3 1008 94 10000 3.6 40 02:24 21.11.2019
4011 Clouds 3 1008 94 10000 4.1 60 01:52 21.11.2019
4012 Clouds 4 1008 94 10000 5.7 60 01:20 21.11.2019
4013 Clouds 4 1008 94 10000 6.2 70 00:38 21.11.2019
4014 Clouds 4 1008 94 10000 4.6 50 00:20 21.11.2019
4015 Clouds 4 1008 94 10000 4.6 60 23:46 20.11.2019
4016 Clouds 4 1008 80 10000 4.6 70 23:21 20.11.2019
4017 Clouds 4 1008 80 10000 4.6 70 22:58 20.11.2019
4018 Clouds 4 1009 80 10000 5.1 60 22:38 20.11.2019
4019 Clouds 4 1009 86 10000 4.6 50 22:19 20.11.2019
4020 Clouds 4 1009 86 10000 4.6 50 21:58 20.11.2019
4021 Clouds 4 1009 80 10000 5.1 50 21:39 20.11.2019
4022 Clouds 4 1008 80 10000 4.6 50 21:20 20.11.2019
4023 Clouds 4 1008 80 10000 4.6 50 20:57 20.11.2019
4024 Clouds 4 1008 80 10000 4.6 50 20:38 20.11.2019
4025 Clouds 5 1008 80 10000 3.1 60 20:20 20.11.2019
4026 Clouds 5 1008 80 10000 3.1 60 20:20 20.11.2019
4027 Clouds 5 1008 75 10000 4.1 60 19:56 20.11.2019
4028 Clouds 5 1008 75 10000 4.1 60 19:37 20.11.2019
4029 Clouds 5 1008 75 10000 4.1 60 19:37 20.11.2019
4030 Clouds 5 1008 86 10000 3.1 50 19:18 20.11.2019
4031 Clouds 5 1008 86 10000 3.1 50 19:18 20.11.2019
4032 Clouds 5 1008 86 10000 3.1 50 18:58 20.11.2019
4033 Clouds 5 1008 81 10000 4.6 70 18:38 20.11.2019
4034 Clouds 6 1008 75 10000 5.7 70 18:20 20.11.2019
4035 Clouds 6 1008 75 10000 5.7 70 17:56 20.11.2019
4036 Clouds 6 1008 75 10000 5.7 70 17:56 20.11.2019
4037 Clouds 6 1008 81 10000 4.6 70 17:38 20.11.2019
4038 Clouds 6 1008 81 10000 3.6 70 17:19 20.11.2019
4039 Clouds 6 1008 81 10000 4.6 80 16:43 20.11.2019
4040 Clouds 6 1007 87 10000 5.7 70 16:21 20.11.2019
4041 Clouds 6 1007 87 10000 5.7 70 15:59 20.11.2019
4042 Clouds 7 1008 87 10000 5.1 60 15:41 20.11.2019
4043 Clouds 6 1008 87 10000 5.1 60 15:20 20.11.2019
4044 Clouds 6 1008 87 10000 5.1 60 14:58 20.11.2019
4045 Clouds 6 1008 87 10000 5.1 60 14:39 20.11.2019
4046 Clouds 6 1008 87 10000 5.1 60 14:39 20.11.2019
4047 Clouds 6 1008 87 10000 5.1 50 14:21 20.11.2019
4048 Clouds 6 1009 87 10000 4.6 40 13:57 20.11.2019
4049 Clouds 6 1009 87 10000 4.6 40 13:38 20.11.2019
4050 Clouds 6 1009 87 10000 4.6 60 13:19 20.11.2019
4051 Rain 6 1008 93 9000 5.1 60 12:42 20.11.2019
4052 Clouds 6 1009 87 10000 5.7 40 12:24 20.11.2019
4053 Clouds 5 1009 93 9000 4.6 50 11:57 20.11.2019
4054 Clouds 5 1009 93 9000 4.6 50 11:38 20.11.2019
4055 Clouds 5 1009 93 10000 6.2 50 11:18 20.11.2019
4056 Clouds 5 1008 86 9000 6.2 60 10:55 20.11.2019
4057 Clouds 5 1008 86 9000 6.2 60 10:36 20.11.2019
4058 Clouds 5 1009 86 6000 5.7 50 10:18 20.11.2019
4059 Clouds 5 1009 86 6000 5.7 50 10:18 20.11.2019
4060 Clouds 5 1009 86 6000 5.1 60 09:42 20.11.2019
4061 Clouds 4 1008 86 10000 5.1 70 09:21 20.11.2019
4062 Rain 4 1008 93 9000 5.1 60 08:48 20.11.2019
4063 Rain 4 1008 93 9000 5.1 60 08:28 20.11.2019
4064 Rain 4 1008 93 6000 4.1 50 07:59 20.11.2019
4065 Rain 3 1008 93 6000 4.1 50 07:38 20.11.2019
4066 Clouds 3 1008 93 10000 4.1 70 07:20 20.11.2019
4067 Clouds 3 1008 93 10000 5.7 60 06:45 20.11.2019
4068 Clouds 3 1008 93 10000 5.7 60 06:45 20.11.2019
4069 Rain 3 1008 93 10000 4.6 70 06:19 20.11.2019
4070 Rain 3 1009 93 10000 5.1 60 04:50 20.11.2019
4071 Clouds 4 1009 93 8000 2.1 70 02:47 20.11.2019
4072 Rain 3 1009 93 10000 4.1 60 01:39 20.11.2019
4073 Rain 3 1010 93 3700 4.1 60 00:59 20.11.2019
4074 Rain 3 1010 93 4600 3.1 70 00:34 20.11.2019
4075 Rain 3 1010 86 7000 1.5 60 23:43 19.11.2019
4076 Rain 3 1010 86 10000 2.6 60 23:23 19.11.2019
4077 Rain 3 1010 86 10000 1.5 0 22:56 19.11.2019
4078 Rain 3 1010 86 10000 1.5 0 22:38 19.11.2019
4079 Rain 3 1010 86 10000 2.1 70 22:18 19.11.2019
4080 Rain 3 1010 86 10000 2.1 70 22:18 19.11.2019
4081 Rain 3 1010 86 6000 2.6 80 21:55 19.11.2019
4082 Rain 3 1010 86 6000 2.6 80 21:36 19.11.2019
4083 Rain 3 1010 86 5000 2.1 70 21:18 19.11.2019
4084 Rain 3 1010 86 3500 4.1 60 20:54 19.11.2019
4085 Rain 3 1010 86 3500 4.1 60 20:36 19.11.2019
4086 Rain 2 1010 86 7000 5.1 70 20:18 19.11.2019
4087 Rain 2 1010 67 10000 4.6 60 19:41 19.11.2019
4088 Rain 2 1010 67 10000 4.1 70 19:20 19.11.2019
4089 Rain 2 1010 67 10000 4.1 70 19:20 19.11.2019
4090 Rain 2 1010 67 10000 4.1 80 18:58 19.11.2019
4091 Rain 2 1010 67 10000 4.1 80 18:58 19.11.2019
4092 Rain 2 1010 67 10000 4.1 80 18:39 19.11.2019
4093 Rain 2 1010 67 10000 5.1 70 18:20 19.11.2019
4094 Clouds 2 1010 67 10000 5.7 70 17:57 19.11.2019
4095 Clouds 2 1010 67 10000 5.7 70 17:38 19.11.2019
4096 Clouds 2 1011 74 10000 4.6 60 17:19 19.11.2019
4097 Clouds 2 1011 74 10000 5.1 60 16:57 19.11.2019
4098 Clouds 2 1011 74 10000 5.1 60 16:38 19.11.2019
4099 Clouds 2 1011 80 10000 4.1 70 16:18 19.11.2019
4100 Clouds 3 1011 80 10000 4.1 70 15:44 19.11.2019
4101 Clouds 3 1011 80 10000 4.1 70 15:25 19.11.2019
4102 Clouds 3 1011 65 10000 3.1 60 14:57 19.11.2019
4103 Clouds 2 1012 100 10000 2.6 60 14:39 19.11.2019
4104 Clouds 2 1012 62 10000 0.5 0 14:20 19.11.2019
4105 Clouds 1 1012 62 9000 1 0 13:42 19.11.2019
4106 Clouds 1 1013 100 10000 0.5 0 13:20 19.11.2019
4107 Clouds 0 1013 100 10000 2.1 230 12:42 19.11.2019
4108 Clouds 0 1013 92 10000 0.5 0 12:23 19.11.2019
4109 Clouds -1 1013 92 10000 0.5 0 11:59 19.11.2019
4110 Clouds -1 1014 100 10000 0.5 260 11:39 19.11.2019
4111 Clouds -2 1014 92 10000 0.5 0 11:20 19.11.2019
4112 Clouds -2 1014 92 10000 0.5 0 10:58 19.11.2019
4113 Clouds -2 1014 92 10000 0.5 0 10:40 19.11.2019
4114 Clouds -3 1014 100 7000 0.5 0 10:20 19.11.2019
4115 Clouds -3 1014 100 6000 0.5 0 09:42 19.11.2019
4116 Haze -3 1014 92 5000 0.5 0 09:20 19.11.2019
4117 Haze -3 1014 92 5000 0.5 0 08:56 19.11.2019
4118 Haze -3 1014 92 4600 0.5 0 08:37 19.11.2019
4119 Haze -3 1014 92 4600 0.5 0 08:37 19.11.2019
4120 Clouds -4 1014 92 7000 1 0 08:19 19.11.2019
4121 Clouds -3 1014 100 7000 0.5 0 07:42 19.11.2019
4122 Clouds -4 1014 92 6000 1 0 07:23 19.11.2019
4123 Clouds -3 1014 100 6000 1.5 240 06:52 19.11.2019
4124 Clouds -4 1014 100 6000 1.5 240 06:33 19.11.2019
4125 Haze -4 1015 92 3900 1 0 05:49 19.11.2019
4126 Fog -4 1015 92 100 2.1 230 04:46 19.11.2019
4127 Clouds -4 1015 100 6000 0.5 270 03:35 19.11.2019
4128 Clouds -4 1015 86 10000 2.6 50 02:59 19.11.2019
4129 Fog -4 1016 92 100 0.5 260 02:33 19.11.2019
4130 Clouds -4 1016 86 10000 3.6 30 01:45 19.11.2019
4131 Clouds -4 1017 92 6000 1.5 240 00:22 19.11.2019
4132 Fog -4 1017 100 9000 1 230 23:59 18.11.2019
4133 Fog -4 1017 100 9000 1 230 23:37 18.11.2019
4134 Clouds -3 1017 92 10000 1 10 23:18 18.11.2019
4135 Fog -3 1017 92 9000 1.5 240 22:45 18.11.2019
4136 Clouds -3 1017 92 10000 1.5 10 22:23 18.11.2019
4137 Fog -3 1017 92 7000 0.5 0 21:56 18.11.2019
4138 Fog -3 1017 92 7000 0.5 0 21:38 18.11.2019
4139 Fog -3 1017 100 7000 0.5 210 21:20 18.11.2019
4140 Fog -2 1017 100 7000 0.5 210 20:57 18.11.2019
4141 Fog -2 1018 100 7000 1 250 20:38 18.11.2019
4142 Fog -2 1018 100 7000 1 250 20:38 18.11.2019
4143 Fog -2 1018 92 7000 1 0 20:18 18.11.2019
4144 Fog -2 1018 100 8000 0.5 260 19:56 18.11.2019
4145 Fog -2 1018 100 8000 0.5 260 19:37 18.11.2019
4146 Fog -2 1018 100 8000 0.5 0 19:18 18.11.2019
4147 Fog -1 1017 92 8000 0.77 62 18:55 18.11.2019
4148 Fog -1 1017 92 8000 0.77 62 18:36 18.11.2019
4149 Fog -1 1017 92 8000 0.5 20 18:18 18.11.2019
4150 Clouds 0 1017 92 10000 1 270 17:39 18.11.2019
4151 Clear 1 1017 86 10000 0.5 300 17:20 18.11.2019
4152 Clear 2 1018 80 10000 1 0 16:55 18.11.2019
4153 Clear 2 1018 80 10000 1 0 16:55 18.11.2019
4154 Clear 2 1018 80 10000 1 0 16:37 18.11.2019
4155 Clear 3 1018 78 10000 0.45 193 16:19 18.11.2019
4156 Clear 4 1018 78 10000 0.5 0 15:56 18.11.2019
4157 Clear 4 1018 78 10000 0.45 193 15:56 18.11.2019
4158 Clear 4 1018 78 10000 0.5 0 15:37 18.11.2019
4159 Clear 4 1018 78 10000 0.5 0 15:37 18.11.2019
4160 Clear 4 1018 78 10000 1 120 15:18 18.11.2019
4161 Clear 4 1019 78 10000 1 0 14:42 18.11.2019
4162 Clear 3 1019 68 10000 0.5 0 14:23 18.11.2019
4163 Clear 3 1019 68 8000 0.5 0 13:55 18.11.2019
4164 Clear 3 1019 68 8000 0.5 0 13:54 18.11.2019
4165 Clear 3 1019 68 8000 0.5 0 13:36 18.11.2019
4166 Clear 2 1019 100 7000 1 0 13:18 18.11.2019
4167 Clear 1 1019 100 9000 1 0 12:38 18.11.2019
4168 Clear 1 1019 92 7000 0.5 0 12:19 18.11.2019
4169 Clear -1 1020 100 6000 0.5 0 11:44 18.11.2019
4170 Clear -1 1020 100 6000 0.5 60 11:25 18.11.2019
4171 Clear -2 1020 100 6000 0.5 60 10:56 18.11.2019
4172 Clear -2 1020 100 6000 0.5 60 10:56 18.11.2019
4173 Clear -3 1020 100 10000 0.5 0 10:38 18.11.2019
4174 Mist -4 1020 100 4900 1 0 10:18 18.11.2019
4175 Mist -4 1020 92 3000 1 40 09:54 18.11.2019
4176 Mist -4 1020 92 3000 1 40 09:36 18.11.2019
4177 Fog -4 1020 92 6000 1.5 50 09:18 18.11.2019
4178 Fog -4 1019 100 6000 1 90 08:43 18.11.2019
4179 Fog -4 1019 92 250 1.5 100 08:20 18.11.2019
4180 Fog -4 1020 92 300 0.5 200 07:47 18.11.2019
4181 Fog -4 1020 92 300 0.5 200 07:27 18.11.2019
4182 Fog -4 1020 92 250 0.5 0 06:53 18.11.2019
4183 Fog -4 1020 92 250 0.5 0 06:32 18.11.2019
4184 Fog -3 1020 100 150 0.5 140 05:47 18.11.2019
4185 Fog -3 1020 92 250 0.5 20 04:39 18.11.2019
4186 Fog -2 1020 92 200 1.5 70 01:49 18.11.2019
4187 Fog -1 1020 92 200 1.5 70 01:31 18.11.2019
4188 Clear -1 1020 100 10000 0.5 220 00:23 18.11.2019
4189 Clear -1 1020 100 8000 1 250 23:43 17.11.2019
4190 Clear -1 1020 92 10000 1 250 23:24 17.11.2019
4191 Clear -1 1020 92 10000 1 250 22:58 17.11.2019
4192 Clouds -1 1020 100 10000 1.5 240 22:40 17.11.2019
4193 Clear 0 1020 100 10000 1.5 0 22:22 17.11.2019
4194 Clear 0 1020 92 10000 1.5 250 21:57 17.11.2019
4195 Clear 1 1020 92 10000 1.5 250 21:39 17.11.2019
4196 Clear 0 1020 92 10000 1 230 21:19 17.11.2019
4197 Clear 1 1019 91 10000 2.6 210 20:55 17.11.2019
4198 Clear 1 1020 92 10000 1 230 20:55 17.11.2019
4199 Clear 1 1019 91 10000 2.6 210 20:37 17.11.2019
4200 Clouds 1 1019 92 10000 2.1 240 20:19 17.11.2019
4201 Clouds 1 1019 100 10000 2.1 230 19:55 17.11.2019
4202 Clouds 1 1019 100 10000 2.1 230 19:37 17.11.2019
4203 Clouds 1 1019 100 10000 2.1 230 19:37 17.11.2019
4204 Clouds 2 1019 100 10000 1.5 0 19:19 17.11.2019
4205 Clouds 2 1018 92 10000 0.5 0 18:54 17.11.2019
4206 Clouds 2 1018 92 10000 0.5 0 18:36 17.11.2019
4207 Clouds 2 1018 92 10000 0.5 0 18:36 17.11.2019
4208 Clouds 3 1018 93 10000 2.1 330 18:18 17.11.2019
4209 Clouds 3 1018 80 10000 1.5 320 17:57 17.11.2019
4210 Clouds 3 1018 80 10000 1.5 320 17:38 17.11.2019
4211 Clouds 4 1018 80 10000 1.5 320 17:19 17.11.2019
4212 Clouds 5 1017 81 10000 2.6 300 16:55 17.11.2019
4213 Clouds 5 1017 81 10000 2.6 300 16:37 17.11.2019
4214 Clouds 6 1017 81 10000 1 0 16:19 17.11.2019
4215 Clouds 6 1017 75 10000 1 0 15:41 17.11.2019
4216 Clouds 6 1017 81 10000 0.5 220 15:19 17.11.2019
4217 Clouds 6 1017 75 10000 1.23 331 14:57 17.11.2019
4218 Clouds 6 1017 75 10000 1.23 331 14:39 17.11.2019
4219 Clouds 5 1017 80 10000 0.5 0 14:21 17.11.2019
4220 Clouds 5 1017 80 10000 0.5 0 13:59 17.11.2019
4221 Clouds 5 1016 93 10000 1 0 13:40 17.11.2019
4222 Clouds 4 1016 93 9000 1 0 13:20 17.11.2019
4223 Clouds 3 1016 100 9000 0.5 0 12:45 17.11.2019
4224 Clouds 2 1016 100 7000 0.5 0 12:24 17.11.2019
4225 Clouds 2 1016 72 9000 0.5 280 11:59 17.11.2019
4226 Clouds 2 1016 72 9000 0.5 280 11:40 17.11.2019
4227 Clouds 0 1015 100 7000 0.5 220 11:21 17.11.2019
4228 Clouds -1 1015 100 10000 0.5 0 10:58 17.11.2019
4229 Clouds -1 1015 100 10000 0.5 0 10:40 17.11.2019
4230 Clouds 0 1015 82 10000 1 360 10:21 17.11.2019
4231 Fog -1 1014 92 5000 0.5 40 09:42 17.11.2019
4232 Fog -1 1014 100 5000 0.5 0 09:23 17.11.2019
4233 Fog -1 1013 100 9000 0.5 0 08:44 17.11.2019
4234 Fog -1 1013 100 9000 0.5 0 08:44 17.11.2019
4235 Fog -1 1013 100 9000 0.5 0 08:25 17.11.2019
4236 Fog 0 1012 100 9000 1 290 07:57 17.11.2019
4237 Fog 0 1012 100 9000 1 290 07:39 17.11.2019
4238 Fog 0 1012 100 9000 1 200 07:19 17.11.2019
4239 Fog 0 1012 100 7000 0.5 330 06:50 17.11.2019
4240 Clouds 0 1012 100 7000 1 260 06:28 17.11.2019
4241 Clouds 1 1011 100 9000 2.1 230 04:57 17.11.2019
4242 Clouds 1 1011 92 8000 0.5 290 03:59 17.11.2019
4243 Clouds 1 1011 100 10000 0.5 330 03:33 17.11.2019
4244 Clouds 1 1010 100 10000 0.5 210 02:41 17.11.2019
4245 Clouds 2 1010 85 10000 1 10 01:49 17.11.2019
4246 Clouds 2 1010 84 10000 1 20 00:57 17.11.2019
4247 Clouds 2 1009 84 10000 1 200 00:23 17.11.2019
4248 Mist 2 1009 84 1100 0.5 0 23:54 16.11.2019
4249 Mist 2 1009 84 1100 0.5 0 23:36 16.11.2019
4250 Clouds 2 1009 87 10000 0.5 0 23:18 16.11.2019
4251 Fog 3 1009 87 10000 1 260 22:41 16.11.2019
4252 Fog 3 1009 87 10000 0.5 260 22:20 16.11.2019
4253 Fog 3 1009 87 10000 0.5 260 22:20 16.11.2019
4254 Fog 3 1009 87 10000 0.5 260 21:57 16.11.2019
4255 Fog 3 1009 100 10000 0.5 230 21:38 16.11.2019
4256 Fog 3 1009 93 10000 0.5 220 21:20 16.11.2019
4257 Fog 3 1009 93 10000 0.5 220 20:56 16.11.2019
4258 Fog 3 1009 100 10000 0.5 300 20:38 16.11.2019
4259 Clouds 3 1009 93 8000 0.5 0 20:18 16.11.2019
4260 Clouds 3 1009 100 10000 0.5 0 19:40 16.11.2019
4261 Clouds 4 1009 93 10000 1 240 19:22 16.11.2019
4262 Clouds 3 1009 100 6000 1 230 18:48 16.11.2019
4263 Clouds 4 1009 100 6000 1 230 18:30 16.11.2019
4264 Clouds 4 1009 93 10000 0.5 230 17:58 16.11.2019
4265 Clouds 4 1009 93 10000 0.5 230 17:39 16.11.2019
4266 Clouds 4 1009 86 10000 1.5 240 17:21 16.11.2019
4267 Clouds 5 1009 93 10000 1 0 16:56 16.11.2019
4268 Clouds 5 1009 93 10000 1 0 16:37 16.11.2019
4269 Clouds 5 1009 93 10000 1.17 322 16:19 16.11.2019
4270 Clouds 5 1009 86 10000 1.17 322 15:41 16.11.2019
4271 Clouds 5 1009 86 10000 1.17 322 15:41 16.11.2019
4272 Clouds 5 1009 93 10000 1 100 15:22 16.11.2019
4273 Clouds 5 1009 93 10000 1 100 14:58 16.11.2019
4274 Clouds 5 1009 93 10000 0.5 0 14:40 16.11.2019
4275 Clouds 5 1009 86 10000 1 110 14:21 16.11.2019
4276 Clouds 5 1009 93 10000 0.52 24 13:56 16.11.2019
4277 Clouds 5 1009 93 10000 0.52 24 13:38 16.11.2019
4278 Clouds 5 1009 93 10000 0.5 30 13:19 16.11.2019
4279 Clouds 4 1010 93 10000 0.5 240 12:55 16.11.2019
4280 Clouds 4 1010 93 10000 0.5 240 12:36 16.11.2019
4281 Clouds 3 1010 100 10000 0.5 0 12:18 16.11.2019
4282 Clouds 3 1010 100 10000 0.5 200 11:42 16.11.2019
4283 Clouds 2 1010 85 10000 0.5 260 11:23 16.11.2019
4284 Clouds 2 1011 85 10000 0.5 0 10:56 16.11.2019
4285 Clouds 1 1011 85 10000 0.5 0 10:37 16.11.2019
4286 Clouds 1 1011 92 10000 1 230 10:18 16.11.2019
4287 Clouds 1 1011 92 10000 1.5 170 09:40 16.11.2019
4288 Clouds 0 1011 92 9000 1 0 09:20 16.11.2019
4289 Clouds 0 1011 92 9000 1 0 08:56 16.11.2019
4290 Clouds 0 1011 92 10000 1 240 08:36 16.11.2019
4291 Clouds 0 1011 92 10000 0.5 0 08:18 16.11.2019
4292 Clouds 1 1011 92 9000 1.5 220 07:41 16.11.2019
4293 Clouds 1 1011 92 9000 2.1 230 07:19 16.11.2019
4294 Clouds 0 1011 100 10000 1 0 06:43 16.11.2019
4295 Clouds 1 1011 100 10000 2.1 210 06:23 16.11.2019
4296 Clouds 1 1012 100 10000 3.1 220 04:47 16.11.2019
4297 Clouds 1 1013 90 10000 1.5 0 03:26 16.11.2019
4298 Clouds 2 1013 92 10000 2.6 220 02:54 16.11.2019
4299 Clouds 2 1013 100 10000 1 0 01:41 16.11.2019
4300 Clouds 2 1014 92 10000 2.1 260 00:56 16.11.2019
4301 Clouds 2 1014 92 10000 2.1 260 00:36 16.11.2019
4302 Clouds 3 1014 90 10000 2.6 240 00:18 16.11.2019
4303 Rain 4 1014 86 10000 0.5 0 23:39 15.11.2019
4304 Clouds 4 1015 86 10000 1.5 210 23:20 15.11.2019
4305 Clouds 4 1015 80 10000 1.5 0 22:42 15.11.2019
4306 Clouds 4 1015 80 10000 3.1 340 22:20 15.11.2019
4307 Clouds 4 1015 80 10000 3.1 340 21:58 15.11.2019
4308 Clouds 4 1015 86 10000 1.5 0 21:40 15.11.2019
4309 Clouds 5 1015 80 10000 1 0 21:20 15.11.2019
4310 Clouds 4 1015 80 10000 2.6 350 20:56 15.11.2019
4311 Clouds 5 1015 80 10000 2.6 350 20:38 15.11.2019
4312 Clouds 5 1015 80 10000 2.1 50 20:20 15.11.2019
4313 Clouds 5 1015 80 10000 2.1 50 19:57 15.11.2019
4314 Clouds 5 1015 70 10000 2.1 360 19:38 15.11.2019
4315 Clouds 6 1015 70 10000 2.6 20 19:19 15.11.2019
4316 Clouds 6 1015 75 10000 2.6 20 18:55 15.11.2019
4317 Clouds 6 1015 75 10000 2.6 20 18:37 15.11.2019
4318 Clouds 6 1015 70 10000 4.1 30 18:19 15.11.2019
4319 Clouds 6 1016 75 10000 3.6 30 17:41 15.11.2019
4320 Clouds 6 1016 70 10000 4.1 20 17:23 15.11.2019
4321 Clouds 7 1016 70 10000 4.1 40 16:56 15.11.2019
4322 Clouds 7 1016 70 10000 4.1 40 16:37 15.11.2019
4323 Clouds 7 1016 70 10000 4.6 20 16:18 15.11.2019
4324 Clouds 8 1016 65 10000 4.6 20 15:38 15.11.2019
4325 Clouds 8 1016 65 10000 5.7 40 15:19 15.11.2019
4326 Clear 8 1016 65 10000 4.1 50 14:56 15.11.2019
4327 Clear 8 1016 65 10000 4.1 50 14:38 15.11.2019
4328 Clouds 8 1016 65 10000 4.1 50 14:19 15.11.2019
4329 Clouds 8 1016 65 10000 4.1 50 14:19 15.11.2019
4330 Clouds 7 1016 65 10000 5.7 40 13:57 15.11.2019
4331 Clouds 7 1016 65 10000 5.7 40 13:38 15.11.2019
4332 Clouds 7 1016 65 10000 4.6 40 13:20 15.11.2019
4333 Clouds 7 1017 70 10000 4.1 10 12:57 15.11.2019
4334 Clouds 6 1017 70 10000 4.1 10 12:38 15.11.2019
4335 Clouds 6 1017 70 10000 4.6 10 12:19 15.11.2019
4336 Clouds 6 1017 75 10000 1 0 11:56 15.11.2019
4337 Clouds 6 1017 75 10000 1 0 11:37 15.11.2019
4338 Clouds 5 1017 86 10000 1 0 11:19 15.11.2019
4339 Clouds 5 1017 86 10000 1 0 11:19 15.11.2019
4340 Clouds 4 1017 86 10000 2.1 340 10:40 15.11.2019
4341 Clear 4 1017 74 10000 1.5 320 10:21 15.11.2019
4342 Clear 4 1017 74 10000 1.5 320 09:58 15.11.2019
4343 Clear 3 1017 80 10000 1.5 270 09:40 15.11.2019
4344 Clear 3 1016 80 10000 1.5 0 09:19 15.11.2019
4345 Clear 3 1016 80 10000 1 0 08:42 15.11.2019
4346 Clouds 2 1016 86 10000 1 0 08:21 15.11.2019
4347 Clouds 2 1016 86 10000 1 0 08:21 15.11.2019
4348 Clouds 2 1016 92 10000 1.5 300 07:46 15.11.2019
4349 Clouds 2 1016 92 10000 1.5 300 07:26 15.11.2019
4350 Clouds 2 1016 86 10000 1 0 06:37 15.11.2019
4351 Clouds 2 1015 80 10000 2.1 120 05:57 15.11.2019
4352 Clouds 2 1015 80 10000 2.1 120 05:39 15.11.2019
4353 Clear 3 1015 74 10000 1 0 04:55 15.11.2019
4354 Clear 3 1015 74 10000 1 0 03:44 15.11.2019
4355 Clear 3 1015 74 10000 1.5 0 02:37 15.11.2019
4356 Clear 2 1015 69 10000 3.1 320 01:57 15.11.2019
4357 Clouds 2 1015 69 10000 3.1 320 01:32 15.11.2019
4358 Clouds 2 1015 69 10000 3.1 320 01:32 15.11.2019
4359 Clouds 2 1014 69 10000 2.6 270 00:41 15.11.2019
4360 Clouds 2 1014 69 10000 2.6 270 00:41 15.11.2019
4361 Clouds 3 1014 69 10000 2.1 290 00:23 15.11.2019
4362 Clouds 2 1014 74 10000 3.6 310 23:46 14.11.2019
4363 Clouds 1 1014 74 10000 2.6 310 23:26 14.11.2019
4364 Clouds 1 1014 74 10000 3.1 300 22:43 14.11.2019
4365 Clouds 1 1014 74 10000 3.1 310 22:23 14.11.2019
4366 Clouds 1 1014 74 10000 3.1 310 21:59 14.11.2019
4367 Clouds 1 1014 74 10000 2.6 310 21:41 14.11.2019
4368 Clouds 1 1014 80 10000 2.6 250 21:22 14.11.2019
4369 Clouds 1 1014 74 10000 1.5 0 20:55 14.11.2019
4370 Clouds 1 1014 74 10000 1.5 0 20:55 14.11.2019
4371 Clouds 1 1014 74 10000 1.5 0 20:37 14.11.2019
4372 Clouds 2 1013 74 10000 3.1 310 20:19 14.11.2019
4373 Clouds 2 1013 74 10000 2.6 310 19:56 14.11.2019
4374 Clouds 2 1013 74 10000 2.6 310 19:37 14.11.2019
4375 Clouds 2 1013 69 10000 3.6 310 19:18 14.11.2019
4376 Clouds 3 1013 69 10000 2.6 340 18:42 14.11.2019
4377 Clouds 3 1012 69 10000 2.6 330 18:23 14.11.2019
4378 Clouds 3 1012 69 10000 2.6 330 17:57 14.11.2019
4379 Clouds 4 1011 69 10000 2.6 360 17:38 14.11.2019
4380 Clouds 4 1011 69 10000 2.6 360 17:20 14.11.2019
4381 Clouds 4 1011 65 10000 3.1 360 16:58 14.11.2019
4382 Clouds 5 1011 65 10000 3.1 360 16:37 14.11.2019
4383 Clouds 6 1011 60 10000 4.1 30 16:19 14.11.2019
4384 Clouds 6 1011 60 10000 4.1 30 15:58 14.11.2019
4385 Clouds 6 1010 60 10000 5.7 30 15:38 14.11.2019
4386 Clouds 6 1010 60 10000 5.1 40 15:20 14.11.2019
4387 Clouds 6 1010 60 10000 3.1 30 14:55 14.11.2019
4388 Clouds 6 1010 60 10000 3.1 30 14:55 14.11.2019
4389 Clouds 6 1010 60 10000 3.1 30 14:37 14.11.2019
4390 Clouds 6 1009 60 10000 3.6 350 14:18 14.11.2019
4391 Clouds 5 1009 60 10000 3.1 340 13:41 14.11.2019
4392 Clouds 5 1009 60 10000 2.1 300 13:22 14.11.2019
4393 Clouds 5 1009 60 10000 2.6 310 12:57 14.11.2019
4394 Clouds 4 1009 60 10000 2.6 310 12:38 14.11.2019
4395 Clouds 4 1009 64 10000 3.1 350 12:19 14.11.2019
4396 Clouds 3 1009 69 10000 1 0 11:54 14.11.2019
4397 Clouds 3 1009 69 10000 1 0 11:36 14.11.2019
4398 Clouds 2 1008 69 10000 1.5 0 11:18 14.11.2019
4399 Clouds 0 1008 80 10000 2.6 250 10:41 14.11.2019
4400 Clouds 0 1008 80 10000 2.6 250 10:41 14.11.2019
4401 Clouds -1 1008 86 10000 1.5 0 10:21 14.11.2019
4402 Clouds -1 1008 86 10000 1.5 0 09:59 14.11.2019
4403 Clouds -1 1007 80 10000 2.1 210 09:41 14.11.2019
4404 Clouds -1 1006 86 10000 1 0 09:22 14.11.2019
4405 Clouds -1 1006 86 10000 1 0 08:48 14.11.2019
4406 Clouds -1 1006 86 10000 3.1 210 08:26 14.11.2019
4407 Clouds -1 1006 86 10000 3.1 210 07:57 14.11.2019
4408 Clouds -1 1005 74 10000 2.1 330 07:38 14.11.2019
4409 Clouds 0 1005 74 10000 1.5 330 07:20 14.11.2019
4410 Clouds 0 1004 74 10000 3.6 340 06:44 14.11.2019
4411 Clouds 0 1004 80 10000 3.6 340 06:19 14.11.2019
4412 Clouds 0 1002 92 10000 2.1 30 04:48 14.11.2019
4413 Clouds 1 1001 92 7000 1 0 04:26 14.11.2019
4414 Clouds 1 1001 100 9000 1 0 02:49 14.11.2019
4415 Clouds 1 1001 100 9000 1 0 02:28 14.11.2019
4416 Clouds 1 1000 100 6000 1.5 0 01:33 14.11.2019
4417 Mist 1 999 100 5000 1.5 220 00:55 14.11.2019
4418 Mist 1 999 100 5000 1.5 220 00:33 14.11.2019
4419 Clouds 1 998 100 10000 0.5 0 23:44 13.11.2019
4420 Clouds 1 998 100 10000 0.5 0 23:26 13.11.2019
4421 Clear 1 998 94 10000 1 0 22:59 13.11.2019
4422 Clear 1 998 94 10000 1 0 22:59 13.11.2019
4423 Clouds 1 998 94 10000 2.1 110 22:41 13.11.2019
4424 Clouds 2 997 94 10000 1.5 30 22:22 13.11.2019
4425 Clouds 1 997 93 10000 2.6 80 21:56 13.11.2019
4426 Clouds 1 997 93 10000 2.6 80 21:38 13.11.2019
4427 Clouds 1 997 93 10000 2.6 110 21:20 13.11.2019
4428 Clouds 1 997 93 10000 2.6 110 20:57 13.11.2019
4429 Clouds 2 996 93 10000 2.6 80 20:37 13.11.2019
4430 Clouds 2 996 93 10000 2.6 80 20:37 13.11.2019
4431 Clouds 2 996 86 10000 4.1 60 20:19 13.11.2019
4432 Clouds 2 996 93 10000 3.6 50 19:56 13.11.2019
4433 Clouds 2 996 93 10000 3.6 50 19:37 13.11.2019
4434 Clouds 2 996 93 10000 4.1 70 19:18 13.11.2019
4435 Clouds 2 995 93 10000 4.6 60 18:54 13.11.2019
4436 Clouds 2 995 93 10000 4.6 60 18:54 13.11.2019
4437 Clouds 2 995 93 10000 4.6 60 18:36 13.11.2019
4438 Clouds 2 995 86 10000 4.1 70 18:18 13.11.2019
4439 Clouds 2 995 86 10000 4.1 70 18:18 13.11.2019
4440 Clouds 2 995 86 10000 4.1 70 18:18 13.11.2019
4441 Clouds 2 995 86 10000 4.1 80 17:54 13.11.2019
4442 Clouds 3 995 86 10000 4.1 80 17:36 13.11.2019
4443 Clouds 3 994 80 10000 6.2 60 17:18 13.11.2019
4444 Clouds 3 994 86 10000 4.6 70 16:40 13.11.2019
4445 Clouds 4 994 86 10000 5.1 60 16:22 13.11.2019
4446 Clouds 4 995 93 10000 3.6 60 15:58 13.11.2019
4447 Clouds 4 995 93 10000 3.6 60 15:40 13.11.2019
4448 Clouds 4 995 93 10000 2.6 50 15:22 13.11.2019
4449 Clouds 3 995 86 10000 3.1 50 14:57 13.11.2019
4450 Clouds 3 995 86 10000 3.1 50 14:37 13.11.2019
4451 Clouds 3 995 93 10000 2.6 60 14:19 13.11.2019
4452 Clouds 2 995 93 10000 2.1 60 13:37 13.11.2019
4453 Clouds 2 996 93 10000 2.1 70 13:19 13.11.2019
4454 Clouds 2 996 93 10000 2.1 70 12:58 13.11.2019
4455 Clouds 2 996 100 10000 2.1 80 12:38 13.11.2019
4456 Rain 1 996 87 10000 2.6 80 12:20 13.11.2019
4457 Rain 1 996 87 10000 2.6 80 12:20 13.11.2019
4458 Clouds 1 997 87 10000 1.5 0 11:41 13.11.2019
4459 Clouds 0 997 94 10000 1.5 0 11:21 13.11.2019
4460 Clouds 0 997 94 10000 1.5 0 10:59 13.11.2019
4461 Clouds -1 997 100 10000 1.5 70 10:41 13.11.2019
4462 Clouds -1 997 100 10000 2.1 60 10:21 13.11.2019
4463 Clouds -1 997 100 10000 2.1 60 09:59 13.11.2019
4464 Clouds -2 998 100 10000 1 0 09:39 13.11.2019
4465 Clouds -2 998 100 10000 2.6 40 09:20 13.11.2019
4466 Mist -2 998 92 2200 1.5 60 08:41 13.11.2019
4467 Fog -2 998 100 350 1.5 50 08:21 13.11.2019
4468 Fog -2 998 92 450 1 0 07:43 13.11.2019
4469 Fog -2 998 100 350 1 100 07:22 13.11.2019
4470 Fog -1 998 92 300 1.5 60 06:47 13.11.2019
4471 Fog -1 999 100 500 0.5 0 06:20 13.11.2019
4472 Fog -1 999 100 500 0.5 0 06:20 13.11.2019
4473 Fog -1 999 100 500 0.5 0 06:20 13.11.2019
4474 Fog -1 999 92 750 1.5 40 05:57 13.11.2019
4475 Fog -1 999 92 750 1.5 40 05:38 13.11.2019
4476 Mist -1 999 100 2900 1 20 04:56 13.11.2019
4477 Clear 0 1000 92 10000 1 0 03:23 13.11.2019
4478 Clouds 0 1000 95 10000 1.5 260 01:46 13.11.2019
4479 Clouds 0 1000 95 10000 1.5 0 01:18 13.11.2019
4480 Clouds 1 1001 95 10000 2.6 220 00:37 13.11.2019
4481 Clouds 1 1001 100 10000 2.6 230 23:42 12.11.2019
4482 Clouds 1 1001 93 10000 2.1 210 23:22 12.11.2019
4483 Clouds 1 1001 93 10000 2.1 210 23:22 12.11.2019
4484 Clouds 1 1001 93 10000 2.1 210 22:58 12.11.2019
4485 Clouds 2 1001 100 10000 1.5 0 22:40 12.11.2019
4486 Clouds 2 1001 100 10000 1.5 0 22:40 12.11.2019
4487 Clouds 2 1001 100 10000 0.5 0 22:18 12.11.2019
4488 Clouds 3 1000 100 10000 1.5 0 21:44 12.11.2019
4489 Clouds 3 1000 100 10000 1.5 260 21:25 12.11.2019
4490 Clouds 3 1000 100 10000 2.6 230 20:58 12.11.2019
4491 Clouds 4 1000 100 10000 2.6 230 20:38 12.11.2019
4492 Clouds 4 1000 93 10000 2.1 230 20:19 12.11.2019
4493 Clouds 5 1000 86 10000 1.58 305 19:58 12.11.2019
4494 Clouds 5 999 86 10000 2.1 270 19:39 12.11.2019
4495 Clouds 5 999 86 10000 2.1 270 19:39 12.11.2019
4496 Clouds 5 999 86 10000 1.5 290 19:19 12.11.2019
4497 Clouds 5 999 86 10000 1.5 290 18:59 12.11.2019
4498 Clouds 5 999 86 10000 1.5 0 18:40 12.11.2019
4499 Clouds 5 999 86 10000 1.5 0 18:40 12.11.2019
4500 Clouds 6 999 86 10000 1.5 0 18:22 12.11.2019
4501 Clouds 6 999 86 10000 1.5 0 18:22 12.11.2019
4502 Clouds 6 998 75 10000 2.6 310 17:57 12.11.2019
4503 Clouds 6 998 75 10000 2.6 310 17:39 12.11.2019
4504 Clouds 7 998 70 10000 3.6 330 17:21 12.11.2019
4505 Clouds 7 998 70 10000 3.6 330 17:21 12.11.2019
4506 Clouds 7 998 70 10000 3.6 330 16:57 12.11.2019
4507 Clouds 7 998 70 10000 3.6 330 16:39 12.11.2019
4508 Clouds 8 997 66 10000 4.1 310 16:20 12.11.2019
4509 Clouds 8 997 66 10000 3.6 340 15:41 12.11.2019
4510 Clouds 8 996 61 10000 4.6 310 15:21 12.11.2019
4511 Clouds 8 996 66 10000 5.7 330 14:56 12.11.2019
4512 Clouds 8 996 66 10000 5.7 330 14:37 12.11.2019
4513 Clouds 8 996 66 10000 7.2 330 14:19 12.11.2019
4514 Clouds 8 996 70 10000 5.7 320 13:56 12.11.2019
4515 Clouds 8 996 70 10000 5.7 320 13:37 12.11.2019
4516 Clouds 8 996 75 10000 6.7 320 13:18 12.11.2019
4517 Clouds 8 996 75 10000 5.1 320 12:42 12.11.2019
4518 Clouds 7 995 75 10000 4.1 320 12:19 12.11.2019
4519 Clouds 7 995 75 10000 4.6 300 11:58 12.11.2019
4520 Clouds 7 995 75 10000 4.6 300 11:40 12.11.2019
4521 Clouds 7 994 75 10000 5.1 300 11:21 12.11.2019
4522 Clouds 7 994 75 10000 5.1 300 11:21 12.11.2019
4523 Clouds 6 994 81 10000 4.6 300 10:56 12.11.2019
4524 Clouds 7 994 81 10000 4.6 300 10:37 12.11.2019
4525 Clouds 6 993 87 10000 3.1 300 10:19 12.11.2019
4526 Clouds 5 992 87 10000 4.1 300 09:40 12.11.2019
4527 Rain 5 992 93 10000 3.1 280 09:21 12.11.2019
4528 Rain 5 991 93 10000 2.6 310 08:52 12.11.2019
4529 Rain 5 991 86 10000 3.6 300 08:30 12.11.2019
4530 Rain 4 991 86 10000 3.6 300 07:55 12.11.2019
4531 Rain 4 991 86 10000 3.6 300 07:36 12.11.2019
4532 Rain 4 990 86 10000 4.6 300 07:18 12.11.2019
4533 Rain 3 990 93 10000 4.6 290 06:39 12.11.2019
4534 Rain 3 989 93 10000 4.1 290 06:21 12.11.2019
4535 Rain 3 989 93 10000 3.6 300 05:45 12.11.2019
4536 Rain 3 989 100 10000 1.5 0 04:42 12.11.2019
4537 Rain 3 989 93 10000 2.1 270 03:39 12.11.2019
4538 Clouds 4 989 86 10000 4.1 270 01:44 12.11.2019
4539 Clouds 4 989 86 10000 3.6 270 01:21 12.11.2019
4540 Rain 5 990 86 10000 4.6 270 00:47 12.11.2019
4541 Rain 5 990 93 10000 6.2 270 00:22 12.11.2019
4542 Rain 5 990 87 10000 5.1 270 23:43 11.11.2019
4543 Rain 5 990 87 10000 5.1 240 23:22 11.11.2019
4544 Rain 5 990 87 10000 5.1 250 22:40 11.11.2019
4545 Rain 5 991 81 10000 5.7 250 22:21 11.11.2019
4546 Rain 5 991 81 10000 5.7 250 21:59 11.11.2019
4547 Rain 5 991 81 10000 4.6 250 21:40 11.11.2019
4548 Rain 5 991 81 10000 4.6 260 21:22 11.11.2019
4549 Rain 5 991 81 10000 4.6 260 21:22 11.11.2019
4550 Rain 5 991 81 10000 4.6 260 20:59 11.11.2019
4551 Rain 5 991 81 10000 4.6 260 20:59 11.11.2019
4552 Rain 5 991 81 10000 4.6 260 20:59 11.11.2019
4553 Rain 5 991 86 10000 3.6 250 20:41 11.11.2019
4554 Clouds 5 991 93 10000 5.1 260 20:20 11.11.2019
4555 Rain 5 991 93 10000 5.7 260 19:56 11.11.2019
4556 Rain 5 991 93 10000 5.7 260 19:38 11.11.2019
4557 Rain 5 991 93 10000 5.7 260 19:38 11.11.2019
4558 Rain 5 991 81 10000 6.7 270 19:18 11.11.2019
4559 Rain 5 991 81 10000 6.7 270 19:18 11.11.2019
4560 Rain 5 991 81 10000 3.1 250 18:42 11.11.2019
4561 Rain 5 991 81 10000 6.2 260 18:22 11.11.2019
4562 Rain 5 991 81 10000 5.1 260 18:00 11.11.2019
4563 Rain 5 991 81 10000 5.1 260 17:41 11.11.2019
4564 Clouds 5 991 81 10000 5.7 270 17:22 11.11.2019
4565 Rain 6 991 81 10000 4.6 250 16:39 11.11.2019
4566 Rain 6 991 81 10000 4.6 240 16:20 11.11.2019
4567 Rain 6 991 81 10000 4.6 240 15:57 11.11.2019
4568 Rain 6 991 81 10000 5.1 260 15:38 11.11.2019
4569 Rain 6 991 81 10000 6.2 260 15:19 11.11.2019
4570 Clouds 5 991 81 10000 5.1 270 14:42 11.11.2019
4571 Clouds 5 991 81 10000 5.1 270 14:24 11.11.2019
4572 Rain 6 991 81 10000 5.7 260 13:57 11.11.2019
4573 Clouds 5 991 81 10000 5.1 260 13:37 11.11.2019
4574 Clouds 6 991 81 10000 3.6 250 13:19 11.11.2019
4575 Clouds 5 991 81 10000 3.6 250 12:56 11.11.2019
4576 Clouds 5 990 87 10000 7.2 300 12:38 11.11.2019
4577 Rain 6 990 87 10000 8.7 290 12:20 11.11.2019
4578 Rain 5 989 93 8000 8.7 290 11:41 11.11.2019
4579 Rain 6 988 87 10000 7.7 260 11:22 11.11.2019
4580 -273 0 0 0 0 0 10:55 11.11.2019
4581 Rain 5 988 87 10000 7.2 250 10:37 11.11.2019
4582 Rain 5 989 87 10000 9.8 240 10:18 11.11.2019
4583 Rain 5 989 87 10000 11.8 220 09:42 11.11.2019
4584 Rain 5 990 87 10000 9.3 230 09:21 11.11.2019
4585 Rain 5 991 81 10000 8.2 240 08:43 11.11.2019
4586 Rain 5 992 81 10000 7.2 240 08:23 11.11.2019
4587 Rain 5 992 81 10000 7.2 240 07:58 11.11.2019
4588 Rain 5 992 87 10000 7.2 250 07:39 11.11.2019
4589 Rain 5 992 100 10000 1 0 07:19 11.11.2019
4590 Rain 4 992 100 10000 0.5 0 06:56 11.11.2019
4591 Rain 4 992 100 10000 0.5 0 06:38 11.11.2019
4592 Rain 4 993 100 7000 1 0 06:19 11.11.2019
4593 Rain 4 993 100 3400 2.6 30 05:48 11.11.2019
4594 Rain 3 994 93 8000 3.1 60 03:27 11.11.2019
4595 Rain 3 995 100 10000 4.6 100 02:39 11.11.2019
4596 Rain 3 995 93 9000 7.2 80 01:58 11.11.2019
4597 Rain 3 997 93 4200 5.7 90 01:36 11.11.2019
4598 Rain 3 999 100 7000 4.6 90 00:55 11.11.2019
4599 Rain 3 999 100 7000 4.6 90 00:33 11.11.2019
4600 Rain 3 1000 93 9000 3.6 100 23:58 10.11.2019
4601 Rain 3 1001 93 5000 4.1 100 23:37 10.11.2019
4602 Rain 3 1002 93 6000 3.1 90 23:19 10.11.2019
4603 Rain 3 1002 93 6000 3.1 90 22:55 10.11.2019
4604 Rain 3 1003 93 6000 3.6 90 22:37 10.11.2019
4605 Rain 3 1003 93 6000 3.6 90 22:37 10.11.2019
4606 Rain 3 1005 93 7000 3.1 90 22:18 10.11.2019
4607 Rain 3 1005 93 7000 3.1 90 21:55 10.11.2019
4608 Rain 3 1006 80 7000 3.6 90 21:36 10.11.2019
4609 Rain 3 1006 80 7000 3.6 90 21:36 10.11.2019
4610 Rain 3 1007 80 10000 4.1 90 21:18 10.11.2019
4611 Snow 3 1008 86 10000 4.1 100 20:40 10.11.2019
4612 Clouds 3 1009 86 10000 3.6 100 20:22 10.11.2019
4613 Clouds 3 1009 86 10000 3.6 100 19:56 10.11.2019
4614 Clouds 3 1009 86 10000 3.6 100 19:56 10.11.2019
4615 Clouds 3 1009 86 10000 3.1 90 19:37 10.11.2019
4616 Clouds 3 1010 86 10000 2.6 90 19:18 10.11.2019
4617 Clouds 3 1010 86 10000 2.6 90 18:57 10.11.2019
4618 Clouds 3 1011 87 10000 2.6 80 18:38 10.11.2019
4619 Clouds 3 1011 87 10000 2.6 90 18:19 10.11.2019
4620 Clouds 3 1012 74 10000 1.5 0 17:56 10.11.2019
4621 Clouds 3 1012 74 10000 1.5 0 17:37 10.11.2019
4622 Clouds 3 1012 73 10000 2.6 100 17:19 10.11.2019
4623 Clouds 4 1013 69 10000 3.1 100 16:57 10.11.2019
4624 Clouds 4 1013 69 10000 3.1 100 16:37 10.11.2019
4625 Clouds 4 1013 69 10000 3.6 90 16:19 10.11.2019
4626 Clouds 5 1014 65 10000 4.6 90 15:54 10.11.2019
4627 Clouds 5 1014 65 10000 4.6 90 15:36 10.11.2019
4628 Clouds 5 1015 65 10000 3.1 100 15:18 10.11.2019
4629 Clouds 5 1016 65 10000 2.1 90 14:40 10.11.2019
4630 Clear 4 1016 65 10000 2.6 100 14:22 10.11.2019
4631 Clear 4 1016 65 10000 2.6 100 13:56 10.11.2019
4632 Clear 4 1016 69 10000 2.6 110 13:38 10.11.2019
4633 Clear 4 1017 69 10000 2.1 80 13:19 10.11.2019
4634 Clear 4 1017 69 10000 2.1 90 12:42 10.11.2019
4635 Clear 3 1017 74 10000 1 0 12:20 10.11.2019
4636 Clear 2 1017 80 10000 1 90 11:57 10.11.2019
4637 Clear 2 1017 80 10000 1 90 11:38 10.11.2019
4638 Clear 1 1018 80 10000 0.5 0 11:20 10.11.2019
4639 Clear 0 1018 92 10000 1.5 210 10:43 10.11.2019
4640 Clear -1 1018 100 10000 1 220 10:22 10.11.2019
4641 Clear -1 1018 100 10000 1 220 09:59 10.11.2019
4642 Clear -1 1018 92 10000 1.5 240 09:40 10.11.2019
4643 Clear -1 1018 92 10000 3.1 240 09:21 10.11.2019
4644 Clear -2 1018 100 10000 1 230 08:40 10.11.2019
4645 Clouds -2 1017 86 10000 1.5 280 08:21 10.11.2019
4646 Clouds -2 1017 92 10000 1 220 07:53 10.11.2019
4647 Clouds -2 1017 92 10000 1 220 07:34 10.11.2019
4648 Clouds -1 1017 92 10000 3.1 220 06:59 10.11.2019
4649 Clouds -1 1016 92 10000 2.1 240 06:21 10.11.2019
4650 Clouds 0 1015 86 10000 1 0 03:38 10.11.2019
4651 Clouds 2 1014 80 10000 3.6 30 02:30 10.11.2019
4652 Clouds 3 1014 69 10000 5.1 40 01:37 10.11.2019
4653 Clouds 3 1014 91 10000 4.1 10 01:18 10.11.2019
4654 Clouds 3 1013 93 10000 1 0 00:25 10.11.2019
4655 Clouds 3 1013 86 10000 1.5 230 23:40 09.11.2019
4656 Clouds 3 1012 86 10000 0.5 0 23:19 09.11.2019
4657 Rain 3 1012 86 10000 2.6 50 22:42 09.11.2019
4658 Clouds 3 1011 80 10000 3.1 40 22:22 09.11.2019
4659 Clouds 3 1011 80 10000 3.1 40 21:58 09.11.2019
4660 Clouds 3 1011 80 10000 3.6 20 21:39 09.11.2019
4661 Rain 3 1010 80 10000 3.1 40 21:20 09.11.2019
4662 Rain 3 1010 80 10000 5.1 50 20:56 09.11.2019
4663 Rain 3 1010 80 10000 5.1 50 20:37 09.11.2019
4664 Clouds 3 1010 80 10000 2.1 40 20:18 09.11.2019
4665 Clouds 3 1009 80 10000 3.6 30 19:41 09.11.2019
4666 Clouds 3 1009 86 10000 3.6 50 19:22 09.11.2019
4667 Clouds 3 1009 86 10000 3.6 50 18:58 09.11.2019
4668 Clouds 3 1008 82 10000 2.6 40 18:38 09.11.2019
4669 Clouds 3 1008 86 10000 3.1 40 18:18 09.11.2019
4670 Clouds 3 1007 80 10000 3.1 50 17:42 09.11.2019
4671 Clouds 4 1007 74 10000 3.1 50 17:23 09.11.2019
4672 Clouds 4 1007 74 10000 3.1 50 16:57 09.11.2019
4673 Clouds 5 1007 69 10000 3.6 60 16:38 09.11.2019
4674 Clouds 5 1006 69 10000 5.1 60 16:18 09.11.2019
4675 Clouds 5 1006 69 10000 4.6 60 15:42 09.11.2019
4676 Clouds 5 1006 69 10000 4.1 50 15:23 09.11.2019
4677 Clouds 5 1006 69 10000 4.6 60 14:47 09.11.2019
4678 Clouds 5 1006 65 10000 4.6 60 14:23 09.11.2019
4679 Clouds 5 1006 65 10000 4.6 60 13:58 09.11.2019
4680 Clouds 5 1006 65 10000 4.1 60 13:40 09.11.2019
4681 Clouds 5 1006 69 10000 4.1 60 13:21 09.11.2019
4682 Clouds 4 1006 69 10000 4.1 60 12:58 09.11.2019
4683 Clouds 5 1006 69 10000 4.1 70 12:40 09.11.2019
4684 Clouds 4 1006 69 10000 4.1 60 12:22 09.11.2019
4685 Clouds 4 1006 69 10000 4.1 60 11:48 09.11.2019
4686 Clouds 3 1005 81 10000 5.1 70 11:23 09.11.2019
4687 Clouds 3 1005 81 10000 5.1 70 10:59 09.11.2019
4688 Clouds 2 1006 81 10000 4.6 70 10:39 09.11.2019
4689 Clouds 2 1006 81 10000 4.6 70 10:19 09.11.2019
4690 Clouds 1 1006 86 10000 4.6 70 09:45 09.11.2019
4691 Clouds 1 1006 86 10000 4.6 70 09:27 09.11.2019
4692 Clouds 1 1006 86 10000 2.6 80 08:57 09.11.2019
4693 Clouds 1 1006 86 10000 2.6 80 08:39 09.11.2019
4694 Clouds 0 1006 86 10000 3.6 80 08:19 09.11.2019
4695 Clouds 0 1007 86 10000 3.6 70 07:44 09.11.2019
4696 Clouds 0 1007 86 10000 2.6 80 07:22 09.11.2019
4697 Clouds -1 1007 86 10000 3.6 70 06:49 09.11.2019
4698 Clouds -1 1007 86 10000 3.6 70 06:30 09.11.2019
4699 Clouds -1 1008 86 10000 4.6 60 05:42 09.11.2019
4700 Clouds -1 1008 93 10000 4.1 70 04:56 09.11.2019
4701 Clouds -1 1009 92 10000 1.5 110 03:35 09.11.2019
4702 Clouds -1 1010 100 10000 0.5 0 02:41 09.11.2019
4703 Clouds -1 1011 92 10000 1.5 100 01:55 09.11.2019
4704 Clouds -1 1013 92 10000 1.5 280 00:49 09.11.2019
4705 Clouds -1 1013 92 10000 1.5 280 00:31 09.11.2019
4706 Clouds -1 1013 92 10000 1.5 0 23:57 08.11.2019
4707 Clouds -1 1013 92 10000 1.5 0 23:38 08.11.2019
4708 Clouds 0 1012 92 10000 1.5 0 23:19 08.11.2019
4709 Clouds 0 1013 92 10000 1 0 22:42 08.11.2019
4710 Clouds 0 1013 92 10000 1 240 22:21 08.11.2019
4711 Clouds 0 1013 92 10000 1.5 250 21:56 08.11.2019
4712 Clouds 0 1013 92 10000 1.5 250 21:56 08.11.2019
4713 Clouds 0 1013 92 10000 1.5 250 21:37 08.11.2019
4714 Clouds 0 1013 92 10000 1.5 230 21:18 08.11.2019
4715 Clouds 0 1014 92 10000 1.5 260 20:41 08.11.2019
4716 Clear 1 1013 86 10000 0.5 0 20:21 08.11.2019
4717 Clear 1 1014 87 10000 1.5 230 19:58 08.11.2019
4718 Clear 1 1014 87 10000 1.5 230 19:38 08.11.2019
4719 Clear 2 1014 87 10000 1 40 19:18 08.11.2019
4720 Clear 2 1014 87 10000 1.5 20 18:55 08.11.2019
4721 Clear 2 1014 87 10000 1.5 20 18:37 08.11.2019
4722 Clear 3 1014 74 10000 1.5 0 18:19 08.11.2019
4723 Clouds 4 1014 65 10000 2.1 70 17:55 08.11.2019
4724 Clouds 4 1014 65 10000 2.1 70 17:36 08.11.2019
4725 Clear 5 1013 60 10000 2.1 90 17:18 08.11.2019
4726 Clear 6 1013 73 10000 2.6 70 16:57 08.11.2019
4727 Clear 6 1013 73 10000 2.6 70 16:57 08.11.2019
4728 Clear 6 1013 73 10000 2.6 70 16:38 08.11.2019
4729 Clouds 6 1013 73 10000 2.1 60 16:19 08.11.2019
4730 -273 0 0 0 0 0 15:55 08.11.2019
4731 Clouds 6 1013 56 10000 2.1 80 15:36 08.11.2019
4732 Clouds 6 1013 56 10000 2.1 80 15:36 08.11.2019
4733 Clouds 6 1013 56 10000 1.5 0 15:18 08.11.2019
4734 Clear 6 1013 56 10000 1.5 0 14:54 08.11.2019
4735 Clear 6 1013 56 10000 1.5 0 14:36 08.11.2019
4736 Clear 6 1013 56 10000 1.5 0 14:36 08.11.2019
4737 Clear 6 1013 56 10000 2.1 40 14:18 08.11.2019
4738 Clear 6 1014 60 10000 2.6 40 13:42 08.11.2019
4739 Clear 5 1014 60 10000 2.1 10 13:22 08.11.2019
4740 Clear 5 1014 60 10000 2.6 310 12:49 08.11.2019
4741 Clear 5 1014 60 10000 2.6 310 12:31 08.11.2019
4742 Clear 4 1014 65 10000 2.6 240 11:59 08.11.2019
4743 Clear 3 1014 69 10000 2.1 280 11:41 08.11.2019
4744 Clear 2 1014 80 10000 2.1 260 11:22 08.11.2019
4745 Clear 2 1014 80 10000 2.1 260 10:59 08.11.2019
4746 Clear 1 1013 80 10000 1.5 220 10:41 08.11.2019
4747 Clear 0 1013 92 10000 2.1 260 10:22 08.11.2019
4748 Clear 0 1013 92 10000 2.1 260 09:58 08.11.2019
4749 Clear -1 1013 86 10000 1 220 09:38 08.11.2019
4750 Clear -2 1013 92 10000 1.5 0 09:19 08.11.2019
4751 Clear -1 1013 86 10000 1.5 0 08:45 08.11.2019
4752 Clear 0 1012 80 10000 1.5 0 08:23 08.11.2019
4753 Clear 0 1012 80 10000 1 0 07:45 08.11.2019
4754 Clear 1 1012 80 10000 2.1 360 07:24 08.11.2019
4755 Clear 1 1012 74 10000 2.1 360 06:58 08.11.2019
4756 Clear 1 1012 74 10000 2.1 360 06:38 08.11.2019
4757 Clear 1 1012 74 10000 1 0 06:19 08.11.2019
4758 Clear 2 1011 74 10000 1.5 0 05:32 08.11.2019
4759 Clear 3 1011 74 10000 3.1 320 04:29 08.11.2019
4760 Clear 4 1010 69 10000 1.5 0 03:42 08.11.2019
4761 Clear 4 1010 69 10000 2.6 20 03:19 08.11.2019
4762 Clouds 4 1009 69 10000 5.1 30 01:54 08.11.2019
4763 Clouds 4 1009 69 10000 5.1 30 01:36 08.11.2019
4764 Clouds 4 1009 65 10000 6.2 30 00:46 08.11.2019
4765 Clouds 4 1008 84 10000 7.2 30 00:22 08.11.2019
4766 Clouds 4 1008 84 10000 7.2 30 00:22 08.11.2019
4767 Clouds 4 1008 84 10000 8.2 30 23:49 07.11.2019
4768 -273 0 0 0 0 0 23:28 07.11.2019
4769 Clouds 4 1007 82 10000 6.7 40 22:58 07.11.2019
4770 Clouds 4 1007 82 10000 6.7 40 22:40 07.11.2019
4771 Clouds 4 1007 82 10000 5.7 40 22:20 07.11.2019
4772 Clouds 5 1006 82 10000 6.7 50 21:39 07.11.2019
4773 Clouds 5 1006 75 10000 7.2 40 21:21 07.11.2019
4774 Clouds 5 1005 75 10000 5.7 50 20:59 07.11.2019
4775 Clouds 5 1005 75 10000 5.7 50 20:40 07.11.2019
4776 Clouds 5 1005 75 10000 4.6 50 20:22 07.11.2019
4777 Clouds 5 1005 75 10000 8.2 40 19:58 07.11.2019
4778 Clouds 5 1005 75 10000 8.2 40 19:39 07.11.2019
4779 Clouds 5 1004 75 10000 6.7 40 19:20 07.11.2019
4780 Clouds 6 1004 81 10000 7.7 40 18:57 07.11.2019
4781 Clouds 6 1004 81 10000 7.7 40 18:38 07.11.2019
4782 Rain 6 1003 81 10000 7.7 30 18:19 07.11.2019
4783 Clouds 6 1002 75 10000 7.2 40 17:56 07.11.2019
4784 Clouds 7 1002 75 10000 7.2 40 17:37 07.11.2019
4785 Clouds 7 1002 75 10000 7.2 40 17:19 07.11.2019
4786 Clouds 7 1001 75 10000 8.2 50 16:54 07.11.2019
4787 Rain 7 1001 75 10000 9.8 50 16:36 07.11.2019
4788 Rain 7 1001 75 10000 9.8 50 16:18 07.11.2019
4789 Rain 7 1000 87 10000 8.7 60 15:40 07.11.2019
4790 Rain 7 1000 87 10000 8.7 60 15:20 07.11.2019
4791 Rain 7 999 87 10000 9.8 50 14:56 07.11.2019
4792 Rain 7 999 87 5000 5.7 50 14:37 07.11.2019
4793 Rain 7 999 87 5000 5.7 50 14:19 07.11.2019
4794 Rain 7 999 87 10000 7.7 60 13:54 07.11.2019
4795 Rain 7 999 81 10000 9.8 60 13:36 07.11.2019
4796 Rain 7 999 81 10000 9.8 60 13:18 07.11.2019
4797 Rain 7 998 87 10000 7.2 50 12:55 07.11.2019
4798 Rain 7 998 87 10000 7.7 50 12:36 07.11.2019
4799 Rain 7 998 87 10000 7.7 50 12:36 07.11.2019
4800 Rain 7 998 87 10000 7.7 50 12:18 07.11.2019
4801 Rain 6 997 93 10000 7.2 60 11:40 07.11.2019
4802 Rain 6 997 93 10000 7.2 60 11:22 07.11.2019
4803 Rain 6 997 87 10000 7.2 60 10:42 07.11.2019
4804 Rain 6 997 93 8000 5.7 50 10:19 07.11.2019
4805 Rain 6 996 93 10000 6.7 60 09:45 07.11.2019
4806 Clouds 6 996 87 10000 5.7 60 09:25 07.11.2019
4807 Clouds 6 996 87 10000 5.7 50 08:59 07.11.2019
4808 Clouds 6 996 87 10000 5.7 50 08:59 07.11.2019
4809 Rain 6 996 87 10000 4.1 50 08:40 07.11.2019
4810 Rain 5 996 87 10000 4.1 50 08:22 07.11.2019
4811 Clouds 5 995 87 10000 6.2 50 07:56 07.11.2019
4812 Clouds 5 995 93 10000 4.6 70 07:37 07.11.2019
4813 Clouds 5 995 93 10000 4.6 70 07:19 07.11.2019
4814 Clouds 5 995 93 10000 4.6 60 06:42 07.11.2019
4815 Clouds 5 995 93 10000 5.7 60 06:23 07.11.2019
4816 Clouds 5 995 93 10000 5.7 60 06:22 07.11.2019
4817 Clouds 5 995 93 10000 3.6 70 05:47 07.11.2019
4818 -273 0 0 0 0 0 05:29 07.11.2019
4819 Clouds 5 995 93 10000 4.1 70 05:29 07.11.2019
4820 Clouds 5 995 93 10000 4.1 60 04:42 07.11.2019
4821 -273 0 0 0 0 0 03:01 07.11.2019
4822 Rain 4 996 93 10000 4.1 60 00:58 07.11.2019
4823 Rain 4 996 93 10000 3.6 70 00:22 07.11.2019
4824 Rain 4 997 93 10000 3.6 70 23:48 06.11.2019
4825 Rain 4 997 93 10000 4.1 70 23:23 06.11.2019
4826 Rain 4 997 93 10000 4.1 70 23:22 06.11.2019
4827 Rain 4 997 93 10000 3.6 70 22:58 06.11.2019
4828 Rain 5 997 93 10000 3.1 60 22:39 06.11.2019
4829 Rain 5 997 93 10000 3.1 60 22:19 06.11.2019
4830 Rain 5 997 93 10000 4.6 70 21:56 06.11.2019
4831 Rain 5 998 93 10000 4.1 70 21:38 06.11.2019
4832 Rain 5 998 93 10000 4.1 70 21:38 06.11.2019
4833 Rain 5 998 93 10000 4.1 70 21:18 06.11.2019
4834 Rain 5 998 93 10000 3.6 70 20:41 06.11.2019
4835 Rain 5 998 93 10000 4.6 60 20:23 06.11.2019
4836 Rain 5 998 93 10000 3.6 70 19:59 06.11.2019
4837 Rain 5 998 87 9000 3.6 70 19:40 06.11.2019
4838 Rain 5 998 87 9000 3.6 70 19:21 06.11.2019
4839 Rain 5 998 87 9000 3.6 70 19:21 06.11.2019
4840 Rain 5 998 87 9000 3.6 70 18:58 06.11.2019
4841 Rain 5 999 87 6000 4.6 70 18:39 06.11.2019
4842 Rain 5 999 87 7000 4.6 70 18:19 06.11.2019
4843 Rain 5 999 87 10000 3.6 80 17:58 06.11.2019
4844 Rain 5 999 87 10000 3.6 80 17:40 06.11.2019
4845 Rain 6 999 87 10000 4.1 50 17:21 06.11.2019
4846 Clouds 6 999 81 10000 3.6 60 16:55 06.11.2019
4847 Clouds 6 999 81 10000 3.6 60 16:37 06.11.2019
4848 Clouds 6 1000 75 10000 4.1 70 16:18 06.11.2019
4849 Clouds 6 1000 87 10000 3.1 50 15:55 06.11.2019
4850 Clouds 6 1000 87 10000 3.1 50 15:36 06.11.2019
4851 Clouds 6 1000 87 10000 3.6 50 15:18 06.11.2019
4852 Clouds 6 1001 87 10000 3.6 60 14:55 06.11.2019
4853 Clouds 6 1001 87 10000 3.6 60 14:37 06.11.2019
4854 Clouds 6 1001 87 10000 3.6 60 14:37 06.11.2019
4855 Rain 6 1001 87 10000 2.6 60 14:19 06.11.2019
4856 Rain 6 1002 81 10000 2.6 90 13:40 06.11.2019
4857 Rain 6 1002 81 10000 2.6 90 13:40 06.11.2019
4858 Clouds 6 1002 81 10000 3.1 80 13:22 06.11.2019
4859 Clouds 6 1003 81 10000 3.1 70 12:58 06.11.2019
4860 Clouds 6 1003 81 10000 3.1 70 12:39 06.11.2019
4861 Clouds 6 1003 81 10000 3.1 70 12:39 06.11.2019
4862 Clouds 6 1003 86 10000 3.1 60 12:21 06.11.2019
4863 Clouds 5 1003 86 10000 3.1 60 11:58 06.11.2019
4864 Clouds 5 1003 86 10000 3.1 60 11:37 06.11.2019
4865 Clouds 5 1004 86 7000 2.6 60 11:18 06.11.2019
4866 Mist 4 1004 93 5000 1.5 0 10:56 06.11.2019
4867 Mist 4 1004 93 5000 1.5 0 10:38 06.11.2019
4868 Mist 4 1004 93 5000 3.1 50 10:19 06.11.2019
4869 Mist 3 1004 100 5000 1.5 50 09:44 06.11.2019
4870 Mist 3 1004 93 5000 1 40 09:22 06.11.2019
4871 Mist 3 1004 93 5000 1 40 08:59 06.11.2019
4872 Mist 3 1004 93 5000 1 0 08:38 06.11.2019
4873 Haze 3 1004 93 2300 0.5 0 08:20 06.11.2019
4874 Mist 3 1005 100 1900 2.1 70 07:56 06.11.2019
4875 Mist 3 1005 100 1900 2.1 70 07:37 06.11.2019
4876 Mist 3 1005 100 1900 2.1 70 07:37 06.11.2019
4877 Haze 3 1005 93 5000 2.1 60 07:19 06.11.2019
4878 Mist 3 1005 100 4700 1.5 90 06:42 06.11.2019
4879 Mist 4 1006 100 2400 1 120 06:23 06.11.2019
4880 Mist 4 1007 93 2500 0.5 220 03:58 06.11.2019
4881 Haze 4 1007 93 4000 0.5 130 02:19 06.11.2019
4882 Haze 4 1008 93 4800 0.5 110 01:31 06.11.2019
4883 Clouds 4 1008 93 6000 0.5 0 00:27 06.11.2019
4884 Clouds 4 1008 93 10000 1.5 60 23:57 05.11.2019
4885 Clouds 4 1008 93 10000 1.5 60 23:37 05.11.2019
4886 Clouds 4 1008 93 10000 1.5 60 23:37 05.11.2019
4887 Clouds 5 1008 93 10000 0.5 210 23:18 05.11.2019
4888 Clouds 5 1008 93 10000 1 0 22:42 05.11.2019
4889 Clouds 5 1008 93 10000 1 0 22:42 05.11.2019
4890 Clouds 5 1008 93 10000 1 270 22:19 05.11.2019
4891 Clouds 5 1008 93 10000 1 0 21:57 05.11.2019
4892 Clouds 5 1008 93 10000 1 0 21:39 05.11.2019
4893 Clouds 5 1008 93 10000 1.5 290 21:20 05.11.2019
4894 Clouds 5 1008 86 10000 2.1 220 20:56 05.11.2019
4895 Clouds 5 1008 86 10000 2.1 220 20:38 05.11.2019
4896 Clouds 5 1008 86 10000 2.1 220 20:38 05.11.2019
4897 Clouds 6 1009 87 10000 1.5 260 20:20 05.11.2019
4898 Clouds 6 1009 87 10000 0.5 350 19:54 05.11.2019
4899 Clouds 6 1009 87 10000 0.5 350 19:54 05.11.2019
4900 Clouds 6 1009 87 10000 0.5 350 19:36 05.11.2019
4901 Rain 6 1009 75 10000 1 40 19:18 05.11.2019
4902 Rain 6 1008 81 10000 1 30 18:55 05.11.2019
4903 Rain 6 1008 81 10000 1 30 18:37 05.11.2019
4904 Rain 7 1008 65 10000 1 110 18:18 05.11.2019
4905 Rain 7 1008 70 10000 1.5 0 17:39 05.11.2019
4906 Rain 8 1008 66 10000 1.5 0 17:21 05.11.2019
4907 Clouds 8 1008 66 10000 2.1 70 16:58 05.11.2019
4908 Clouds 8 1008 66 10000 2.1 70 16:40 05.11.2019
4909 Clouds 8 1008 70 10000 2.1 40 16:20 05.11.2019
4910 Clouds 9 1008 66 10000 3.1 50 15:39 05.11.2019
4911 Clouds 9 1008 66 10000 4.1 60 15:20 05.11.2019
4912 Clouds 9 1008 66 10000 4.1 60 15:20 05.11.2019
4913 Clouds 9 1008 66 10000 4.1 60 15:20 05.11.2019
4914 Clouds 9 1008 66 10000 4.1 60 14:59 05.11.2019
4915 Clouds 9 1008 66 10000 3.1 50 14:40 05.11.2019
4916 Clouds 9 1008 70 10000 3.6 40 14:21 05.11.2019
4917 Clouds 9 1008 66 10000 4.1 20 13:58 05.11.2019
4918 Clouds 9 1008 66 10000 4.1 20 13:58 05.11.2019
4919 Clouds 9 1008 66 10000 4.1 20 13:39 05.11.2019
4920 Clouds 9 1008 61 10000 5.7 40 13:21 05.11.2019
4921 Clouds 8 1008 66 10000 4.1 40 12:40 05.11.2019
4922 Clouds 8 1007 66 10000 5.1 30 12:21 05.11.2019
4923 Clouds 8 1007 66 10000 5.1 30 12:21 05.11.2019
4924 Clouds 8 1007 66 10000 5.1 30 11:56 05.11.2019
4925 Clouds 8 1007 70 10000 4.1 40 11:37 05.11.2019
4926 Clouds 8 1007 75 10000 2.1 360 11:19 05.11.2019
4927 Clouds 8 1007 75 10000 3.1 10 10:45 05.11.2019
4928 Clouds 8 1007 75 10000 0.5 0 10:27 05.11.2019
4929 Clouds 7 1007 75 10000 0.5 0 09:59 05.11.2019
4930 Clouds 7 1006 75 10000 2.1 360 09:40 05.11.2019
4931 Clouds 7 1006 75 10000 2.1 30 09:20 05.11.2019
4932 Clouds 7 1005 81 10000 2.1 240 08:55 05.11.2019
4933 Clouds 7 1005 81 10000 2.1 240 08:37 05.11.2019
4934 Clouds 7 1005 75 10000 2.6 20 08:18 05.11.2019
4935 Clouds 7 1005 75 10000 2.6 20 07:44 05.11.2019
4936 Clouds 7 1004 75 10000 4.1 40 07:25 05.11.2019
4937 Clouds 7 1004 75 10000 4.1 40 06:51 05.11.2019
4938 Clouds 7 1003 81 10000 3.6 50 06:26 05.11.2019
4939 Clouds 8 1003 76 10000 3.6 30 05:39 05.11.2019
4940 Clouds 8 1003 76 10000 4.6 30 05:19 05.11.2019
4941 Clouds 8 1002 76 10000 6.7 30 04:20 05.11.2019
4942 Clouds 8 1001 76 10000 5.1 30 03:24 05.11.2019
4943 Clouds 7 1001 81 10000 5.7 30 02:41 05.11.2019
4944 Clouds 8 1000 76 10000 5.7 30 01:48 05.11.2019
4945 Clouds 8 999 76 10000 7.7 30 00:41 05.11.2019
4946 Clouds 8 999 76 10000 7.7 30 00:18 05.11.2019
4947 Clouds 8 999 76 10000 7.7 30 23:41 04.11.2019
4948 Clouds 8 998 87 10000 8.2 30 23:19 04.11.2019
4949 Clouds 8 998 81 10000 8.7 40 22:55 04.11.2019
4950 Clouds 8 998 81 10000 8.7 40 22:36 04.11.2019
4951 Clouds 8 997 81 10000 9.8 40 22:18 04.11.2019
4952 Clouds 8 997 81 10000 9.8 40 21:54 04.11.2019
4953 Clouds 8 997 81 10000 9.8 40 21:54 04.11.2019
4954 Clouds 8 997 81 10000 9.8 40 21:36 04.11.2019
4955 Clouds 8 996 81 10000 9.3 40 21:18 04.11.2019
4956 Clouds 8 996 81 10000 10.8 40 20:54 04.11.2019
4957 Clouds 8 996 81 10000 10.8 40 20:36 04.11.2019
4958 Clouds 8 995 81 10000 9.3 40 20:18 04.11.2019
4959 Clouds 8 994 81 10000 9.3 30 19:42 04.11.2019
4960 Rain 8 993 81 10000 11.3 40 19:23 04.11.2019
4961 Rain 8 993 81 10000 10.8 40 18:58 04.11.2019
4962 Rain 8 993 81 10000 10.8 40 18:39 04.11.2019
4963 Rain 8 992 81 10000 10.3 40 18:21 04.11.2019
4964 Rain 8 992 87 10000 9.3 40 17:56 04.11.2019
4965 Rain 9 992 87 10000 9.3 40 17:36 04.11.2019
4966 Rain 9 991 87 10000 9.3 40 17:18 04.11.2019
4967 Rain 9 991 93 10000 8.2 40 16:41 04.11.2019
4968 Rain 9 990 93 10000 8.7 40 16:23 04.11.2019
4969 Rain 9 990 93 10000 5.1 40 15:57 04.11.2019
4970 Rain 9 990 93 10000 5.1 40 15:39 04.11.2019
4971 Rain 9 989 93 4900 4.6 50 15:21 04.11.2019
4972 Rain 9 989 93 4900 4.6 50 14:57 04.11.2019
4973 Rain 9 989 81 10000 4.6 30 14:39 04.11.2019
4974 Rain 9 989 87 10000 4.6 40 14:19 04.11.2019
4975 Rain 9 989 87 10000 4.6 40 13:56 04.11.2019
4976 Rain 9 988 87 10000 5.1 50 13:38 04.11.2019
4977 Rain 9 988 93 10000 5.7 50 13:19 04.11.2019
4978 Rain 9 987 87 10000 5.7 50 12:44 04.11.2019
4979 Rain 9 987 93 10000 3.6 40 12:25 04.11.2019
4980 Rain 9 987 93 10000 3.6 40 11:58 04.11.2019
4981 Rain 9 987 87 10000 4.1 50 11:58 04.11.2019
4982 Rain 9 987 87 10000 4.1 50 11:40 04.11.2019
4983 Rain 9 986 93 10000 4.6 60 11:21 04.11.2019
4984 Rain 9 986 93 10000 4.1 50 10:47 04.11.2019
4985 Rain 9 986 93 10000 5.1 50 10:26 04.11.2019
4986 Rain 9 985 93 10000 4.6 60 09:56 04.11.2019
4987 Rain 8 985 93 10000 4.6 60 09:38 04.11.2019
4988 Clouds 8 985 87 10000 5.1 50 09:19 04.11.2019
4989 Clouds 8 985 93 10000 4.1 60 08:42 04.11.2019
4990 Clouds 9 984 93 10000 5.7 60 08:21 04.11.2019
4991 Rain 8 984 93 10000 4.1 70 07:49 04.11.2019
4992 Rain 9 984 87 10000 4.1 70 07:25 04.11.2019
4993 Rain 9 984 87 10000 4.1 70 06:59 04.11.2019
4994 Rain 9 983 87 10000 4.1 60 06:38 04.11.2019
4995 Rain 8 983 87 10000 5.1 50 05:59 04.11.2019
4996 Clouds 8 983 87 10000 5.1 70 05:23 04.11.2019
4997 Clouds 9 982 87 10000 5.1 70 04:25 04.11.2019
4998 Clouds 9 982 87 10000 6.7 60 03:23 04.11.2019
4999 Clouds 9 981 93 10000 5.7 60 01:23 04.11.2019
5000 Clouds 9 981 87 10000 7.2 60 00:52 04.11.2019
5001 Clouds 9 981 87 10000 6.7 60 00:21 04.11.2019
5002 Clouds 9 981 87 10000 6.7 60 23:58 03.11.2019
5003 Clouds 9 981 87 10000 6.2 70 23:37 03.11.2019
5004 Clouds 9 981 93 10000 6.7 60 23:18 03.11.2019
5005 Clouds 9 981 93 10000 6.7 60 23:18 03.11.2019
5006 Rain 9 981 93 10000 5.7 50 22:55 03.11.2019
5007 Rain 9 981 93 10000 5.7 50 22:37 03.11.2019
5008 Clouds 9 982 93 10000 7.2 60 22:18 03.11.2019
5009 Clouds 9 982 93 10000 7.2 60 22:18 03.11.2019
5010 Clouds 9 982 93 10000 5.7 50 21:42 03.11.2019
5011 Clouds 9 981 93 10000 5.1 70 21:21 03.11.2019
5012 Clouds 9 981 93 10000 4.6 70 20:57 03.11.2019
5013 Clouds 9 981 93 10000 4.6 70 20:37 03.11.2019
5014 Clouds 9 981 93 10000 5.7 60 20:19 03.11.2019
5015 Clouds 9 981 93 10000 5.7 60 19:57 03.11.2019
5016 Clouds 9 981 93 8000 6.7 60 19:38 03.11.2019
5017 Rain 9 981 93 10000 6.2 60 19:20 03.11.2019
5018 Rain 9 981 93 10000 4.6 60 18:39 03.11.2019
5019 Clouds 9 981 87 10000 3.6 50 18:19 03.11.2019
5020 Clouds 9 981 87 10000 3.6 50 17:59 03.11.2019
5021 Clouds 9 980 87 10000 5.7 50 17:41 03.11.2019
5022 Clouds 9 980 93 10000 4.1 50 17:20 03.11.2019
5023 Clouds 9 980 93 10000 4.1 50 16:56 03.11.2019
5024 Drizzle 10 980 93 4200 4.1 20 16:38 03.11.2019
5025 Clouds 10 981 87 10000 3.6 10 16:20 03.11.2019
5026 Clouds 10 981 87 10000 3.6 10 15:57 03.11.2019
5027 Rain 10 981 93 9000 4.1 20 15:39 03.11.2019
5028 Rain 10 981 81 10000 4.1 20 15:20 03.11.2019
5029 Clouds 10 981 81 10000 3.6 20 14:42 03.11.2019
5030 Clouds 10 981 81 10000 4.6 10 14:19 03.11.2019
5031 Clouds 10 981 87 10000 5.7 10 13:58 03.11.2019
5032 Clouds 10 981 87 10000 5.7 10 13:40 03.11.2019
5033 Clouds 10 981 81 10000 5.7 10 13:18 03.11.2019
5034 Clouds 10 981 81 10000 4.1 20 12:38 03.11.2019
5035 Rain 10 981 87 10000 2.6 360 12:20 03.11.2019
5036 Rain 10 981 87 10000 2.6 360 12:20 03.11.2019
5037 Rain 10 981 81 10000 2.1 340 11:57 03.11.2019
5038 Rain 9 981 81 10000 2.1 340 11:39 03.11.2019
5039 Clouds 9 981 81 10000 3.6 330 11:20 03.11.2019
5040 Clouds 9 981 81 10000 2.1 330 10:42 03.11.2019
5041 Clouds 9 980 76 10000 4.1 330 10:22 03.11.2019
5042 Clouds 9 980 76 10000 4.1 330 09:59 03.11.2019
5043 Clouds 9 980 76 10000 2.1 340 09:41 03.11.2019
5044 Clouds 8 980 81 10000 2.1 300 09:23 03.11.2019
5045 Clouds 8 980 76 10000 2.1 260 08:53 03.11.2019
5046 Clouds 8 980 81 10000 2.6 250 08:26 03.11.2019
5047 Clouds 8 980 76 10000 3.6 300 07:55 03.11.2019
5048 Clouds 8 980 76 10000 3.6 300 07:37 03.11.2019
5049 Clouds 8 980 87 10000 4.1 280 07:18 03.11.2019
5050 Clouds 7 979 93 10000 3.6 320 06:38 03.11.2019
5051 Clouds 7 979 93 10000 2.6 270 05:41 03.11.2019
5052 Clouds 7 979 100 10000 3.1 270 05:18 03.11.2019
5053 Clouds 7 979 93 10000 1.5 0 04:47 03.11.2019
5054 Clear 7 979 87 10000 3.6 50 03:40 03.11.2019
5055 Clouds 7 978 93 10000 4.1 40 02:46 03.11.2019
5056 Mist 7 978 100 5000 1 0 02:21 03.11.2019
5057 Mist 7 978 100 5000 1 0 02:21 03.11.2019
5058 Clouds 8 977 93 10000 1.5 0 01:44 03.11.2019
5059 Fog 7 978 100 8000 1 0 01:21 03.11.2019
5060 Clouds 8 977 100 10000 1 140 00:46 03.11.2019
5061 Clouds 8 977 100 10000 1 140 00:28 03.11.2019
5062 Fog 8 977 93 8000 1 0 23:58 02.11.2019
5063 Fog 8 977 100 8000 1.5 0 23:39 02.11.2019
5064 Rain 8 977 93 8000 1 0 23:19 02.11.2019
5065 Clouds 8 976 100 8000 1 0 22:56 02.11.2019
5066 Clouds 8 976 100 8000 1 0 22:38 02.11.2019
5067 Clouds 8 976 93 9000 0.5 310 22:19 02.11.2019
5068 Clouds 8 975 93 9000 1 250 21:56 02.11.2019
5069 Clouds 8 975 93 9000 1 250 21:38 02.11.2019
5070 Clouds 8 975 100 10000 1 20 21:18 02.11.2019
5071 Clouds 8 975 100 10000 1.5 40 20:59 02.11.2019
5072 Clouds 8 975 100 10000 1.5 40 20:39 02.11.2019
5073 Clouds 8 975 100 8000 2.1 30 20:20 02.11.2019
5074 Fog 9 975 100 8000 2.6 30 19:55 02.11.2019
5075 Fog 8 975 100 8000 2.6 30 19:36 02.11.2019
5076 Fog 9 974 100 8000 1.5 40 19:18 02.11.2019
5077 Rain 9 974 93 10000 1 60 18:42 02.11.2019
5078 Rain 9 974 93 10000 0.5 0 18:24 02.11.2019
5079 Rain 10 974 93 10000 1 0 17:59 02.11.2019
5080 Rain 10 974 93 10000 1 0 17:39 02.11.2019
5081 Rain 10 974 93 10000 1 0 17:39 02.11.2019
5082 Rain 10 973 87 10000 3.1 60 17:21 02.11.2019
5083 Rain 10 973 87 10000 3.1 60 16:57 02.11.2019
5084 Rain 10 973 87 10000 2.1 60 16:37 02.11.2019
5085 Rain 10 973 87 10000 3.1 60 16:18 02.11.2019
5086 Clouds 10 973 87 10000 2.6 50 15:42 02.11.2019
5087 Clouds 11 973 87 10000 3.1 60 15:20 02.11.2019
5088 Clouds 11 973 87 10000 3.1 60 15:20 02.11.2019
5089 Clouds 11 973 87 10000 2.6 30 14:43 02.11.2019
5090 Clouds 11 973 93 10000 1 0 14:24 02.11.2019
5091 Clouds 11 973 93 10000 1 0 13:58 02.11.2019
5092 Clouds 11 973 93 10000 1 0 13:58 02.11.2019
5093 Clouds 11 973 93 10000 0.5 0 13:39 02.11.2019
5094 Clouds 11 973 93 10000 0.5 0 13:19 02.11.2019
5095 Clouds 10 973 93 10000 1.5 0 12:41 02.11.2019
5096 Clouds 10 973 93 10000 1.5 0 12:41 02.11.2019
5097 Clouds 10 974 100 10000 0.5 0 12:23 02.11.2019
5098 Clouds 10 974 100 10000 1 0 11:58 02.11.2019
5099 Clouds 10 974 100 10000 1 0 11:39 02.11.2019
5100 Clouds 10 974 100 10000 1 0 11:39 02.11.2019
5101 Clouds 10 974 93 10000 2.6 160 11:21 02.11.2019
5102 Clouds 10 974 100 10000 1.5 0 10:50 02.11.2019
5103 Clouds 10 974 100 10000 1.5 0 10:29 02.11.2019
5104 Fog 9 974 100 10000 1 30 09:59 02.11.2019
5105 Fog 9 974 100 10000 1 30 09:40 02.11.2019
5106 Clouds 9 974 93 10000 1 0 09:20 02.11.2019
5107 Clouds 10 974 100 10000 1.5 0 08:46 02.11.2019
5108 Clouds 10 974 100 10000 1.5 0 08:22 02.11.2019
5109 Clouds 10 974 100 9000 1.5 70 07:50 02.11.2019
5110 Clouds 10 974 100 9000 1.5 70 07:32 02.11.2019
5111 Clouds 10 974 93 10000 1.5 0 06:58 02.11.2019
5112 Clouds 10 974 93 10000 2.1 170 06:39 02.11.2019
5113 Clouds 11 974 93 7000 0.5 0 05:59 02.11.2019
5114 Rain 11 974 93 7000 4.1 90 05:25 02.11.2019
5115 Rain 10 975 93 10000 4.6 70 04:23 02.11.2019
5116 Rain 10 975 100 10000 4.6 70 03:50 02.11.2019
5117 Rain 10 976 100 3200 6.2 70 02:44 02.11.2019
5118 Rain 10 977 93 9000 5.7 70 01:55 02.11.2019
5119 Rain 10 978 93 9000 4.1 70 01:24 02.11.2019
5120 Rain 10 979 93 7000 4.6 80 00:51 02.11.2019
5121 Rain 10 979 93 6000 4.6 80 00:27 02.11.2019
5122 Rain 9 980 93 9000 5.1 70 23:48 01.11.2019
5123 Clouds 9 981 100 10000 4.1 70 23:23 01.11.2019
5124 Clouds 9 981 100 10000 4.1 70 22:58 01.11.2019
5125 Clouds 9 981 100 10000 3.6 80 22:39 01.11.2019
5126 Drizzle 9 982 100 4700 3.6 70 22:20 01.11.2019
5127 Drizzle 9 982 100 2200 3.1 70 21:41 01.11.2019
5128 Drizzle 9 983 100 2200 2.6 70 21:23 01.11.2019
5129 Drizzle 9 983 93 9000 2.1 70 20:57 01.11.2019
5130 Drizzle 9 983 93 9000 2.1 70 20:39 01.11.2019
5131 Drizzle 9 984 93 4600 2.1 70 20:19 01.11.2019
5132 Drizzle 9 984 93 3200 2.6 70 19:56 01.11.2019
5133 Drizzle 9 984 93 3200 2.6 70 19:37 01.11.2019
5134 Drizzle 9 984 93 3200 2.6 70 19:37 01.11.2019
5135 Drizzle 9 985 93 3200 3.6 70 19:18 01.11.2019
5136 Drizzle 9 985 93 1800 3.1 70 18:39 01.11.2019
5137 Drizzle 9 986 93 2600 3.6 70 18:20 01.11.2019
5138 Drizzle 9 986 93 3000 3.6 70 17:55 01.11.2019
5139 Drizzle 9 986 93 3000 3.6 70 17:37 01.11.2019
5140 Drizzle 9 987 93 2500 3.1 70 17:18 01.11.2019
5141 Drizzle 9 987 93 2300 3.6 70 16:38 01.11.2019
5142 Drizzle 9 987 93 2300 3.6 70 16:38 01.11.2019
5143 Drizzle 9 987 93 2300 3.6 70 16:38 01.11.2019
5144 Drizzle 9 988 93 2400 4.6 70 16:19 01.11.2019
5145 Drizzle 9 989 93 2500 4.1 70 15:41 01.11.2019
5146 Drizzle 9 989 93 4000 4.6 70 15:23 01.11.2019
5147 Drizzle 8 990 100 3900 5.1 70 14:59 01.11.2019
5148 Drizzle 8 990 100 3900 5.1 70 14:41 01.11.2019
5149 Drizzle 8 991 100 2500 5.7 70 14:23 01.11.2019
5150 Drizzle 8 991 100 3900 5.7 70 13:57 01.11.2019
5151 Drizzle 8 991 100 3900 5.7 70 13:37 01.11.2019
5152 Drizzle 8 992 93 3800 5.1 70 13:19 01.11.2019
5153 Drizzle 8 993 93 3500 5.1 70 12:43 01.11.2019
5154 Rain 8 994 93 3300 5.1 80 12:25 01.11.2019
5155 Drizzle 7 994 100 3000 5.1 60 11:44 01.11.2019
5156 Drizzle 7 994 100 3000 5.1 60 11:44 01.11.2019
5157 Drizzle 7 995 100 2700 5.7 70 11:25 01.11.2019
5158 Drizzle 7 995 100 2700 5.7 70 10:59 01.11.2019
5159 Drizzle 7 996 100 2500 5.1 70 10:40 01.11.2019
5160 Drizzle 7 997 93 2300 5.1 70 10:21 01.11.2019
5161 Drizzle 7 997 93 2300 5.1 70 09:56 01.11.2019
5162 Drizzle 7 997 93 2300 5.1 70 09:56 01.11.2019
5163 Rain 7 997 93 3700 4.6 70 09:36 01.11.2019
5164 Drizzle 6 998 93 5000 4.6 70 09:18 01.11.2019
5165 Rain 6 999 93 7000 3.6 80 08:42 01.11.2019
5166 Rain 6 999 93 7000 3.6 70 08:21 01.11.2019
5167 Rain 6 1000 100 7000 3.6 80 07:53 01.11.2019
5168 Rain 6 1001 100 7000 3.1 70 07:26 01.11.2019
5169 Rain 6 1001 100 6000 3.6 80 06:56 01.11.2019
5170 Rain 6 1001 100 6000 3.6 80 06:37 01.11.2019
5171 Rain 6 1002 100 4300 3.6 70 06:18 01.11.2019
5172 Rain 6 1002 100 4300 3.6 70 06:18 01.11.2019
5173 Rain 6 1003 100 3700 3.1 80 05:41 01.11.2019
5174 Drizzle 6 1006 93 3500 3.6 70 03:33 01.11.2019
5175 Drizzle 6 1009 93 3900 2.6 70 01:51 01.11.2019
5176 Rain 6 1009 87 7000 3.6 80 01:26 01.11.2019
5177 Rain 6 1010 81 10000 3.1 70 00:21 01.11.2019
5178 Clouds 6 1011 81 10000 3.1 70 23:55 31.10.2019
5179 Clouds 6 1011 81 10000 3.1 70 23:36 31.10.2019
5180 Rain 7 1012 81 10000 3.6 60 23:18 31.10.2019
5181 Rain 7 1012 81 10000 3.1 60 22:42 31.10.2019
5182 Rain 7 1013 75 10000 4.1 70 22:23 31.10.2019
5183 Rain 7 1013 81 10000 3.6 60 21:56 31.10.2019
5184 Rain 7 1013 81 10000 3.6 60 21:38 31.10.2019
5185 Rain 7 1013 70 10000 3.6 70 21:18 31.10.2019
5186 Rain 7 1013 70 10000 3.6 70 21:18 31.10.2019
5187 Rain 7 1014 75 10000 3.6 70 20:41 31.10.2019
5188 Rain 7 1014 75 10000 3.6 70 20:41 31.10.2019
5189 Clouds 7 1014 75 10000 3.6 70 20:22 31.10.2019
5190 Clouds 7 1015 75 10000 4.1 60 19:56 31.10.2019
5191 Clouds 7 1015 75 10000 4.1 60 19:38 31.10.2019
5192 Rain 7 1015 81 10000 3.6 60 19:18 31.10.2019
5193 Rain 7 1015 81 10000 2.1 60 18:43 31.10.2019
5194 Clouds 7 1016 66 10000 1.5 0 18:25 31.10.2019
5195 Clouds 8 1016 66 10000 3.1 110 17:56 31.10.2019
5196 Clouds 8 1016 66 10000 3.1 110 17:37 31.10.2019
5197 Clouds 8 1016 66 10000 4.1 120 17:19 31.10.2019
5198 Clouds 9 1017 66 10000 4.6 110 16:41 31.10.2019
5199 Clouds 9 1017 57 10000 5.1 110 16:20 31.10.2019
5200 Clouds 9 1017 57 10000 5.1 110 15:59 31.10.2019
5201 Clouds 9 1018 61 10000 5.1 110 15:40 31.10.2019
5202 Clouds 10 1018 61 10000 5.7 100 15:20 31.10.2019
5203 Clouds 9 1018 61 10000 5.7 100 14:57 31.10.2019
5204 Clouds 10 1019 61 10000 4.6 100 14:39 31.10.2019
5205 Clouds 9 1019 66 10000 5.1 90 14:21 31.10.2019
5206 Clouds 9 1019 66 10000 4.6 90 13:59 31.10.2019
5207 Clouds 9 1019 66 10000 5.1 90 13:59 31.10.2019
5208 Clouds 9 1019 66 10000 4.6 90 13:38 31.10.2019
5209 Clouds 8 1020 70 10000 4.1 70 13:19 31.10.2019
5210 Clouds 9 1021 70 10000 4.1 80 12:55 31.10.2019
5211 Clouds 9 1021 70 10000 4.1 80 12:55 31.10.2019
5212 Clouds 9 1021 70 10000 4.1 80 12:37 31.10.2019
5213 Clouds 8 1021 75 10000 3.6 80 12:18 31.10.2019
5214 Clouds 7 1021 80 10000 1.5 0 11:44 31.10.2019
5215 Clear 5 1022 93 10000 1.5 0 11:20 31.10.2019
5216 Clear 4 1022 91 9000 1 0 10:57 31.10.2019
5217 Clear 4 1022 91 9000 1 0 10:38 31.10.2019
5218 Clear 3 1022 100 7000 1.5 230 10:20 31.10.2019
5219 Clear 2 1022 80 10000 2.6 70 09:44 31.10.2019
5220 Clear 2 1022 80 10000 2.6 70 09:44 31.10.2019
5221 Clear 2 1022 91 10000 2.1 70 09:19 31.10.2019
5222 Clear 1 1022 91 10000 2.1 70 08:56 31.10.2019
5223 Clouds 1 1022 86 10000 1.5 60 08:38 31.10.2019
5224 Fog 0 1023 100 800 1 0 08:19 31.10.2019
5225 Clouds 1 1022 96 10000 2.1 60 07:43 31.10.2019
5226 Fog 0 1023 100 400 1.5 240 07:24 31.10.2019
5227 Fog 1 1023 100 100 0.5 30 06:39 31.10.2019
5228 Fog 1 1023 92 750 0.5 260 06:20 31.10.2019
5229 Mist 2 1024 100 2900 1 0 04:40 31.10.2019
5230 Clouds 3 1025 92 10000 1 240 02:46 31.10.2019
5231 Clear 3 1025 92 10000 1 0 01:54 31.10.2019
5232 Mist 4 1025 93 4100 2.6 70 00:42 31.10.2019
5233 Clear 4 1025 93 10000 2.6 50 00:23 31.10.2019
5234 Clear 4 1026 86 10000 3.1 60 23:34 30.10.2019
5235 Clear 5 1026 86 10000 3.6 70 22:56 30.10.2019
5236 Clear 5 1026 86 10000 3.6 70 22:38 30.10.2019
5237 Clear 5 1026 86 10000 3.6 70 22:18 30.10.2019
5238 Clear 5 1026 86 10000 2.6 60 21:54 30.10.2019
5239 Clear 5 1026 86 10000 2.6 60 21:36 30.10.2019
5240 Clear 5 1026 80 10000 3.1 80 21:18 30.10.2019
5241 Clouds 5 1026 81 10000 4.1 80 20:42 30.10.2019
5242 Clouds 6 1026 81 10000 3.6 80 20:22 30.10.2019
5243 Clouds 6 1026 81 10000 3.6 80 20:22 30.10.2019
5244 Clouds 6 1026 81 10000 3.6 80 19:59 30.10.2019
5245 Clouds 6 1026 81 10000 4.1 70 19:39 30.10.2019
5246 Clouds 6 1026 81 10000 4.1 60 19:21 30.10.2019
5247 Clouds 6 1026 81 10000 3.6 70 18:58 30.10.2019
5248 Clouds 6 1026 81 10000 3.6 70 18:37 30.10.2019
5249 Clouds 7 1026 81 10000 4.1 50 18:18 30.10.2019
5250 Clouds 8 1026 70 10000 4.6 60 17:42 30.10.2019
5251 Clouds 8 1027 66 10000 4.1 90 17:20 30.10.2019
5252 Clouds 8 1027 66 10000 4.1 90 16:59 30.10.2019
5253 Clouds 9 1027 66 10000 4.6 90 16:41 30.10.2019
5254 Clouds 9 1027 61 10000 5.1 100 16:22 30.10.2019
5255 Clouds 9 1027 61 10000 5.1 100 15:57 30.10.2019
5256 Clouds 9 1027 61 10000 5.1 100 15:38 30.10.2019
5257 Clouds 9 1028 66 10000 4.6 100 15:19 30.10.2019
5258 Clouds 9 1028 76 10000 5.1 70 14:56 30.10.2019
5259 Clouds 9 1028 66 10000 4.6 100 14:56 30.10.2019
5260 Clouds 9 1028 76 10000 5.1 70 14:38 30.10.2019
5261 Clouds 9 1028 66 10000 4.6 110 14:19 30.10.2019
5262 Clouds 9 1029 76 10000 3.6 90 13:42 30.10.2019
5263 Clouds 9 1029 76 10000 2.6 90 13:21 30.10.2019
5264 Clouds 9 1029 76 10000 2.6 90 12:59 30.10.2019
5265 Clouds 9 1029 76 10000 2.6 90 12:59 30.10.2019
5266 Clear 8 1029 81 10000 3.1 120 12:41 30.10.2019
5267 Clear 8 1029 87 10000 2.1 100 12:23 30.10.2019
5268 Clouds 7 1030 87 10000 1.5 0 11:43 30.10.2019
5269 Clouds 6 1030 93 9000 1.5 0 11:25 30.10.2019
5270 Clouds 5 1030 93 9000 1.5 0 10:59 30.10.2019
5271 Clouds 5 1030 100 10000 2.6 90 10:41 30.10.2019
5272 Clouds 4 1030 93 8000 3.1 70 10:22 30.10.2019
5273 Clouds 3 1030 100 8000 3.1 70 09:40 30.10.2019
5274 Clouds 3 1030 100 6000 1.5 0 09:22 30.10.2019
5275 Mist 3 1030 100 5000 2.1 110 08:55 30.10.2019
5276 Mist 3 1030 100 5000 2.1 110 08:37 30.10.2019
5277 Clouds 3 1030 100 6000 1.5 0 08:18 30.10.2019
5278 Mist 2 1030 100 2600 1 0 07:43 30.10.2019
5279 Fog 2 1030 100 400 1.63 40 06:56 30.10.2019
5280 Fog 2 1030 100 400 1.63 40 06:56 30.10.2019
5281 Fog 2 1030 100 400 1.63 40 06:37 30.10.2019
5282 Mist 2 1030 94 3700 0.5 0 05:56 30.10.2019
5283 Mist 2 1030 94 3700 0.5 0 05:56 30.10.2019
5284 Mist 2 1030 94 3700 0.5 0 05:56 30.10.2019
5285 Mist 2 1030 94 3700 0.5 0 05:37 30.10.2019
5286 Fog 2 1031 92 400 1 0 03:54 30.10.2019
5287 Fog 3 1031 94 350 1 330 03:23 30.10.2019
5288 Fog 3 1031 94 800 1 0 02:49 30.10.2019
5289 Fog 3 1031 93 650 0.5 0 01:49 30.10.2019
5290 Mist 4 1032 100 3200 0.5 90 00:37 30.10.2019
5291 Clouds 4 1032 93 10000 1 50 00:19 30.10.2019
5292 Clouds 4 1032 93 10000 2.1 90 23:39 29.10.2019
5293 Clouds 4 1032 86 10000 1.5 120 23:19 29.10.2019
5294 Clouds 5 1032 86 10000 3.6 70 22:42 29.10.2019
5295 Clouds 5 1032 87 10000 3.6 70 22:19 29.10.2019
5296 Clouds 5 1032 87 10000 3.6 70 22:19 29.10.2019
5297 Clouds 5 1032 87 10000 3.6 70 21:55 29.10.2019
5298 Clouds 5 1032 87 10000 3.6 70 21:37 29.10.2019
5299 Clouds 5 1032 87 10000 2.6 80 21:19 29.10.2019
5300 Clouds 5 1032 86 10000 2.6 60 20:42 29.10.2019
5301 Rain 5 1031 87 10000 3.6 70 20:23 29.10.2019
5302 Rain 5 1031 87 10000 3.6 70 19:59 29.10.2019
5303 Clouds 6 1031 87 10000 2.6 70 19:40 29.10.2019
5304 Clouds 6 1031 81 10000 3.6 80 19:22 29.10.2019
5305 Clouds 7 1031 75 10000 2.6 60 18:58 29.10.2019
5306 Clouds 6 1031 75 10000 2.6 60 18:40 29.10.2019
5307 Clouds 7 1031 75 10000 2.1 90 18:20 29.10.2019
5308 Clouds 7 1031 75 10000 3.6 70 17:57 29.10.2019
5309 Clouds 7 1031 75 10000 3.6 70 17:38 29.10.2019
5310 Clouds 8 1031 75 10000 3.1 60 17:20 29.10.2019
5311 Clouds 8 1031 70 10000 5.1 70 16:57 29.10.2019
5312 Clouds 8 1031 70 10000 4.6 70 16:38 29.10.2019
5313 Clouds 8 1031 70 10000 4.6 70 16:18 29.10.2019
5314 Clouds 8 1031 70 10000 4.6 60 15:42 29.10.2019
5315 Clouds 9 1031 66 10000 4.1 70 15:21 29.10.2019
5316 Clouds 9 1031 70 10000 4.1 80 14:57 29.10.2019
5317 Clouds 9 1031 70 10000 4.1 80 14:39 29.10.2019
5318 Clouds 9 1031 70 10000 4.1 80 14:21 29.10.2019
5319 Clouds 8 1032 75 10000 4.1 60 13:57 29.10.2019
5320 Clouds 8 1032 75 10000 4.1 60 13:36 29.10.2019
5321 Clouds 8 1032 75 10000 1.5 0 13:18 29.10.2019
5322 Clouds 8 1032 75 10000 1.5 0 13:18 29.10.2019
5323 Clouds 8 1032 75 10000 1.5 0 12:42 29.10.2019
5324 Clouds 7 1032 86 10000 1 0 12:24 29.10.2019
5325 Clouds 7 1032 81 10000 3.1 40 11:54 29.10.2019
5326 Clouds 6 1032 81 10000 3.1 40 11:36 29.10.2019
5327 Clouds 4 1032 93 10000 0.5 0 11:18 29.10.2019
5328 Clouds 3 1032 83 10000 1 0 10:55 29.10.2019
5329 Clouds 3 1032 83 10000 1 0 10:36 29.10.2019
5330 Clear 2 1032 83 10000 1 0 10:18 29.10.2019
5331 Clear 2 1032 100 10000 1.5 0 09:41 29.10.2019
5332 Clouds 1 1032 100 10000 1 0 09:22 29.10.2019
5333 Clouds 1 1031 92 10000 1 0 08:55 29.10.2019
5334 Clouds 1 1031 92 10000 1 0 08:36 29.10.2019
5335 Clouds 1 1031 100 10000 1 0 08:18 29.10.2019
5336 Clear 1 1031 100 10000 1 0 07:47 29.10.2019
5337 Clear 1 1031 92 10000 1 0 07:19 29.10.2019
5338 Clouds 1 1031 100 10000 0.5 330 06:46 29.10.2019
5339 Clouds 1 1031 100 10000 1 150 06:26 29.10.2019
5340 Clouds 1 1031 100 10000 0.5 40 05:52 29.10.2019
5341 Clouds 1 1031 100 10000 0.5 40 05:34 29.10.2019
5342 Clouds 0 1031 100 10000 0.5 0 04:32 29.10.2019
5343 Clear 1 1031 100 10000 1 0 02:34 29.10.2019
5344 Clear 0 1031 100 10000 1 230 01:49 29.10.2019
5345 Clear 0 1030 100 10000 2.1 230 01:22 29.10.2019
5346 Clear 1 1030 92 10000 1.5 0 00:48 29.10.2019
5347 Clear 1 1030 100 10000 1.5 0 23:44 28.10.2019
5348 Clear 1 1030 92 10000 2.6 220 23:21 28.10.2019
5349 Clear 2 1030 88 10000 1.5 0 22:59 28.10.2019
5350 Clear 2 1030 88 10000 1.5 0 22:38 28.10.2019
5351 Clouds 2 1030 88 10000 1.5 230 22:18 28.10.2019
5352 Clear 2 1030 88 10000 2.1 240 21:56 28.10.2019
5353 Clouds 2 1030 88 10000 1.5 230 21:56 28.10.2019
5354 Clear 2 1030 88 10000 2.1 240 21:38 28.10.2019
5355 Clouds 3 1029 86 10000 1 0 21:20 28.10.2019
5356 Clear 2 1029 88 10000 1.5 0 20:54 28.10.2019
5357 Clear 2 1029 88 10000 1.5 0 20:36 28.10.2019
5358 Clear 3 1029 81 10000 1.5 20 20:18 28.10.2019
5359 Clear 4 1029 80 10000 2.1 20 19:39 28.10.2019
5360 Clear 5 1029 80 10000 1.5 360 19:21 28.10.2019
5361 Clear 5 1029 80 10000 1.5 360 18:59 28.10.2019
5362 Clear 5 1029 70 10000 1.5 350 18:40 28.10.2019
5363 Clouds 5 1028 70 10000 2.1 340 18:21 28.10.2019
5364 Clouds 6 1028 65 10000 2.1 10 17:57 28.10.2019
5365 Clouds 7 1028 65 10000 2.1 10 17:38 28.10.2019
5366 Clouds 7 1028 61 10000 2.1 360 17:19 28.10.2019
5367 Clouds 8 1028 57 10000 3.1 20 16:57 28.10.2019
5368 Clouds 8 1028 57 10000 3.1 20 16:57 28.10.2019
5369 Clouds 8 1028 57 10000 3.1 20 16:39 28.10.2019
5370 Clouds 8 1028 61 10000 2.6 360 16:20 28.10.2019
5371 Clouds 8 1029 57 10000 2.6 10 15:58 28.10.2019
5372 Clouds 8 1029 57 10000 2.6 10 15:39 28.10.2019
5373 Clouds 9 1029 61 10000 2.6 280 15:20 28.10.2019
5374 Clouds 8 1029 61 10000 2.6 280 14:57 28.10.2019
5375 Clouds 8 1029 61 10000 2.6 280 14:38 28.10.2019
5376 Clear 8 1029 61 10000 3.1 300 14:18 28.10.2019
5377 Clear 8 1029 65 10000 3.6 300 13:54 28.10.2019
5378 Clear 8 1029 65 10000 3.6 300 13:36 28.10.2019
5379 Clear 8 1029 70 10000 2.6 290 13:18 28.10.2019
5380 Clear 8 1029 70 10000 2.6 290 13:18 28.10.2019
5381 Clear 7 1029 75 10000 1.5 0 12:41 28.10.2019
5382 Clear 7 1029 86 10000 1 0 12:20 28.10.2019
5383 Clear 5 1029 86 10000 1 0 11:40 28.10.2019
5384 Clear 4 1029 93 10000 0.5 0 11:21 28.10.2019
5385 Clear 3 1029 93 10000 0.5 0 10:57 28.10.2019
5386 Clear 2 1029 93 10000 1.13 286 10:38 28.10.2019
5387 Clear 1 1029 82 10000 0.5 200 10:20 28.10.2019
5388 Clear 0 1029 100 10000 2.1 180 09:55 28.10.2019
5389 Clear 0 1029 100 10000 2.1 180 09:55 28.10.2019
5390 Clear 0 1029 100 10000 2.1 180 09:36 28.10.2019
5391 Clear -1 1029 100 10000 0.5 0 09:18 28.10.2019
5392 Fog -1 1028 92 10000 0.5 0 08:56 28.10.2019
5393 Fog -1 1028 92 10000 0.5 0 08:37 28.10.2019
5394 Fog -1 1028 100 10000 1 0 08:18 28.10.2019
5395 Fog -1 1028 100 10000 0.5 0 07:43 28.10.2019
5396 Clear -1 1028 100 10000 1 0 07:23 28.10.2019
5397 Clear -1 1028 100 10000 1 0 06:59 28.10.2019
5398 Clear -1 1028 100 10000 1 0 06:37 28.10.2019
5399 Clear 0 1027 100 10000 1 0 05:19 28.10.2019
5400 Clear 1 1027 92 10000 1.5 240 03:44 28.10.2019
5401 Clear 2 1027 93 10000 3.1 260 02:45 28.10.2019
5402 Clear 2 1027 91 10000 2.1 210 01:36 28.10.2019
5403 Clear 2 1026 91 10000 3.1 210 00:47 28.10.2019
5404 Clear 2 1026 91 10000 2.1 250 00:24 28.10.2019
5405 Clear 3 1026 93 10000 2.6 240 23:44 27.10.2019
5406 Clear 3 1026 93 10000 2.6 230 23:21 27.10.2019
5407 Clear 4 1026 86 10000 2.1 210 22:56 27.10.2019
5408 Clear 4 1026 86 10000 2.1 210 22:37 27.10.2019
5409 Clear 4 1025 86 10000 3.1 250 22:19 27.10.2019
5410 Clear 4 1025 93 10000 1.5 0 21:40 27.10.2019
5411 Clear 5 1025 86 10000 2.6 290 21:22 27.10.2019
5412 Clear 5 1025 86 10000 4.1 260 20:59 27.10.2019
5413 Clear 5 1025 86 10000 4.1 260 20:40 27.10.2019
5414 Clear 5 1025 86 10000 3.1 260 20:22 27.10.2019
5415 Clear 6 1024 86 10000 3.6 250 19:57 27.10.2019
5416 Clear 6 1024 86 10000 3.6 250 19:37 27.10.2019
5417 Clear 6 1024 86 10000 3.6 250 19:37 27.10.2019
5418 Clear 6 1024 86 10000 3.6 250 19:19 27.10.2019
5419 Clear 7 1024 81 10000 3.6 260 18:56 27.10.2019
5420 Clear 7 1024 81 10000 3.6 260 18:38 27.10.2019
5421 Clear 7 1023 70 10000 4.6 280 18:19 27.10.2019
5422 Clear 7 1023 70 10000 4.6 280 18:19 27.10.2019
5423 Clear 8 1023 75 10000 6.2 270 17:54 27.10.2019
5424 Clear 8 1023 75 10000 6.2 270 17:36 27.10.2019
5425 Clear 9 1023 70 10000 5.1 270 17:18 27.10.2019
5426 Clear 10 1022 61 10000 7.2 280 16:41 27.10.2019
5427 Clouds 10 1022 66 10000 5.1 280 16:23 27.10.2019
5428 Clear 10 1021 66 10000 7.7 280 15:58 27.10.2019
5429 Clear 10 1021 66 10000 7.7 280 15:40 27.10.2019
5430 Clear 10 1022 61 10000 5.1 270 15:20 27.10.2019
5431 Clear 11 1021 62 10000 6.2 280 14:59 27.10.2019
5432 Clear 11 1021 62 10000 6.2 280 14:40 27.10.2019
5433 Clear 11 1021 66 10000 5.7 280 14:18 27.10.2019
5434 Clear 10 1020 66 10000 8.7 270 13:42 27.10.2019
5435 Clouds 10 1020 66 10000 6.7 280 13:24 27.10.2019
5436 Clouds 10 1020 66 10000 6.7 280 12:59 27.10.2019
5437 Clouds 10 1020 70 10000 5.1 290 12:41 27.10.2019
5438 Clouds 9 1020 76 10000 4.6 280 12:23 27.10.2019
5439 Clouds 9 1019 76 10000 5.1 280 11:43 27.10.2019
5440 Clear 9 1018 70 10000 7.2 260 11:24 27.10.2019
5441 Clear 8 1018 75 10000 7.7 260 10:57 27.10.2019
5442 Clear 8 1018 75 10000 7.7 260 10:38 27.10.2019
5443 Clear 7 1018 75 10000 7.7 260 10:38 27.10.2019
5444 Clear 7 1018 81 10000 6.7 260 10:19 27.10.2019
5445 Rain 7 1018 81 10000 7.7 260 09:43 27.10.2019
5446 Clear 6 1017 81 10000 6.7 250 09:19 27.10.2019
5447 Clear 6 1017 81 10000 6.7 250 09:19 27.10.2019
5448 Clear 6 1017 81 10000 5.1 260 08:57 27.10.2019
5449 Clear 6 1017 81 10000 5.1 260 08:37 27.10.2019
5450 Clear 6 1016 81 10000 5.7 260 08:18 27.10.2019
5451 Rain 6 1016 75 10000 6.7 260 07:45 27.10.2019
5452 Clear 6 1015 87 10000 7.2 260 07:25 27.10.2019
5453 Rain 6 1015 81 10000 7.2 270 06:52 27.10.2019
5454 Rain 6 1015 81 10000 7.2 270 06:29 27.10.2019
5455 Clear 6 1014 87 10000 7.2 250 05:46 27.10.2019
5456 Clear 6 1013 81 10000 6.7 270 04:56 27.10.2019
5457 Rain 6 1013 87 4900 5.7 250 03:34 27.10.2019
5458 Rain 6 1010 81 10000 6.2 240 02:25 27.10.2019
5459 Rain 6 1009 87 10000 6.2 250 01:24 27.10.2019
5460 Rain 6 1009 87 10000 6.2 250 00:52 27.10.2019
5461 Rain 6 1009 87 10000 6.2 250 00:52 27.10.2019
5462 Rain 6 1009 87 10000 6.2 250 00:32 27.10.2019
5463 Rain 6 1008 87 10000 4.6 250 23:57 26.10.2019
5464 Rain 6 1008 87 10000 4.6 250 23:57 26.10.2019
5465 Rain 6 1008 87 10000 4.6 250 23:39 26.10.2019
5466 Rain 6 1008 81 10000 7.2 240 23:21 26.10.2019
5467 Rain 6 1008 81 10000 7.2 240 22:56 26.10.2019
5468 Rain 5 1007 81 10000 6.7 240 22:38 26.10.2019
5469 Rain 5 1007 81 10000 7.2 240 22:19 26.10.2019
5470 Rain 5 1007 81 10000 6.7 240 21:44 26.10.2019
5471 Rain 5 1007 87 10000 5.7 250 21:22 26.10.2019
5472 Rain 5 1006 81 10000 6.7 240 20:59 26.10.2019
5473 Rain 5 1006 81 10000 6.7 240 20:39 26.10.2019
5474 Rain 5 1006 81 10000 7.7 230 20:18 26.10.2019
5475 Rain 5 1005 80 10000 6.2 220 19:42 26.10.2019
5476 Rain 5 1005 80 10000 6.2 220 19:42 26.10.2019
5477 Rain 5 1005 75 10000 4.6 240 19:21 26.10.2019
5478 Rain 6 1005 81 10000 6.2 220 18:57 26.10.2019
5479 Rain 6 1005 81 10000 6.2 220 18:39 26.10.2019
5480 Clear 6 1005 70 10000 5.7 220 18:19 26.10.2019
5481 Clear 7 1005 65 10000 6.2 260 17:57 26.10.2019
5482 Clear 7 1005 65 10000 6.2 260 17:38 26.10.2019
5483 Clouds 8 1004 65 10000 6.7 250 17:20 26.10.2019
5484 Clear 8 1004 61 10000 5.1 240 16:44 26.10.2019
5485 Clear 8 1004 61 10000 7.7 260 16:25 26.10.2019
5486 Clear 8 1004 61 10000 7.7 260 15:59 26.10.2019
5487 Clear 8 1004 65 10000 8.2 240 15:37 26.10.2019
5488 Clear 8 1004 57 10000 6.7 260 15:18 26.10.2019
5489 Clear 8 1004 61 10000 6.7 260 14:38 26.10.2019
5490 Clear 9 1004 61 10000 7.7 250 14:19 26.10.2019
5491 Clear 8 1004 65 0 5.49 258 13:55 26.10.2019
5492 Clouds 8 1004 61 10000 6.7 250 13:36 26.10.2019
5493 Clear 8 1004 66 10000 5.7 260 13:18 26.10.2019
5494 Clear 8 1004 65 0 5.49 258 13:18 26.10.2019
5495 Clear 5 1004 80 0 5.49 258 12:42 26.10.2019
5496 Clear 6 1004 80 10000 0.5 0 12:18 26.10.2019
5497 Clear 5 1004 80 10000 0.5 0 11:45 26.10.2019
5498 Clear 5 1004 80 10000 0.5 0 11:24 26.10.2019
5499 Clear 5 1004 80 10000 0.5 0 10:46 26.10.2019
5500 Clear 4 1004 86 10000 1.5 0 10:25 26.10.2019
5501 Clear 4 1004 86 10000 1.5 310 09:49 26.10.2019
5502 Clouds 4 1004 93 10000 2.1 320 09:29 26.10.2019
5503 Clouds 5 1004 80 10000 1.5 230 08:48 26.10.2019
5504 Clouds 5 1004 86 10000 1 0 08:27 26.10.2019
5505 Clouds 5 1004 86 10000 2.6 260 07:57 26.10.2019
5506 Clouds 5 1004 86 10000 2.6 260 07:34 26.10.2019
5507 Clouds 5 1004 86 10000 1.5 0 06:56 26.10.2019
5508 Clouds 5 1004 86 10000 1.5 0 06:38 26.10.2019
5509 Clouds 5 1004 86 10000 3.6 250 05:24 26.10.2019
5510 Clouds 5 1004 86 10000 3.6 250 04:59 26.10.2019
5511 Clouds 4 1004 100 10000 3.1 230 03:25 26.10.2019
5512 Clouds 3 1004 100 10000 1 230 02:23 26.10.2019
5513 Clouds 3 1003 100 10000 1.5 210 01:44 26.10.2019
5514 Clouds 3 1004 100 8000 1.5 230 00:33 26.10.2019
5515 Clouds 3 1004 100 10000 1.5 0 23:47 25.10.2019
5516 Clouds 4 1003 93 10000 1.5 0 23:22 25.10.2019
5517 Clouds 4 1003 93 10000 1.5 0 23:22 25.10.2019
5518 Clouds 4 1003 93 10000 2.6 240 22:56 25.10.2019
5519 Clouds 4 1003 93 10000 2.6 240 22:56 25.10.2019
5520 Clouds 4 1003 93 10000 2.6 240 22:38 25.10.2019
5521 Clouds 4 1003 93 10000 2.6 240 22:38 25.10.2019
5522 Clouds 4 1003 100 10000 3.6 220 22:20 25.10.2019
5523 Clouds 4 1003 93 10000 2.1 220 21:55 25.10.2019
5524 Clouds 4 1003 93 10000 2.1 220 21:37 25.10.2019
5525 Rain 5 1003 93 10000 2.1 250 21:18 25.10.2019
5526 Rain 5 1004 93 10000 1.5 260 20:42 25.10.2019
5527 Rain 6 1003 86 10000 1.5 240 20:19 25.10.2019
5528 Rain 6 1004 87 10000 1 0 19:45 25.10.2019
5529 Rain 6 1004 87 10000 1 0 19:27 25.10.2019
5530 Rain 6 1004 75 10000 3.6 200 18:47 25.10.2019
5531 Clouds 6 1004 81 10000 3.1 210 18:29 25.10.2019
5532 Clouds 7 1004 75 10000 2.6 180 17:56 25.10.2019
5533 Clouds 7 1004 75 10000 2.6 180 17:36 25.10.2019
5534 Rain 7 1004 70 10000 3.1 190 17:18 25.10.2019
5535 Rain 7 1005 70 10000 4.1 190 16:43 25.10.2019
5536 Rain 7 1005 70 10000 3.6 190 16:22 25.10.2019
5537 Rain 7 1005 70 10000 4.1 190 15:55 25.10.2019
5538 Rain 7 1005 70 10000 4.1 190 15:37 25.10.2019
5539 Rain 7 1006 70 10000 4.6 190 15:18 25.10.2019
5540 Rain 7 1006 75 10000 4.6 180 14:42 25.10.2019
5541 Rain 7 1007 75 10000 3.6 170 14:23 25.10.2019
5542 Rain 7 1007 75 10000 3.6 190 13:44 25.10.2019
5543 Rain 6 1007 75 10000 4.6 180 13:25 25.10.2019
5544 Rain 6 1007 75 10000 4.6 180 12:59 25.10.2019
5545 Rain 6 1007 70 10000 5.7 210 12:41 25.10.2019
5546 Clouds 6 1008 81 10000 3.6 210 12:20 25.10.2019
5547 Clouds 6 1008 81 10000 4.1 210 11:56 25.10.2019
5548 Clouds 5 1008 81 10000 4.1 210 11:37 25.10.2019
5549 Clouds 5 1008 75 10000 4.1 210 11:18 25.10.2019
5550 Clouds 5 1007 80 10000 3.6 240 10:40 25.10.2019
5551 Clouds 5 1007 80 10000 5.1 220 10:21 25.10.2019
5552 Clouds 5 1007 80 10000 5.1 220 09:57 25.10.2019
5553 Rain 4 1007 80 10000 5.7 220 09:38 25.10.2019
5554 Clear 4 1007 80 10000 6.2 220 09:19 25.10.2019
5555 Clear 4 1007 80 10000 6.2 220 09:19 25.10.2019
5556 Clear 4 1006 80 10000 6.2 230 08:45 25.10.2019
5557 Clear 3 1007 82 10000 3.6 240 08:26 25.10.2019
5558 Clear 3 1007 86 10000 1 0 07:53 25.10.2019
5559 Clear 3 1007 86 10000 1 0 07:34 25.10.2019
5560 Clear 2 1007 82 10000 2.6 220 06:41 25.10.2019
5561 Clear 2 1007 86 10000 2.6 240 05:51 25.10.2019
5562 Clear 2 1007 86 10000 2.6 240 05:33 25.10.2019
5563 Clear 2 1007 81 10000 2.6 240 04:42 25.10.2019
5564 Clear 2 1006 93 10000 2.1 250 03:29 25.10.2019
5565 Clouds 4 1006 86 10000 2.6 250 01:53 25.10.2019
5566 Clouds 4 1005 86 10000 3.6 290 00:47 25.10.2019
5567 Clear 4 1005 86 10000 3.1 290 00:18 25.10.2019
5568 Clear 4 1004 93 10000 3.6 230 23:40 24.10.2019
5569 Clear 4 1004 86 10000 4.6 230 23:21 24.10.2019
5570 Clear 4 1003 93 10000 2.1 240 22:54 24.10.2019
5571 Clear 4 1003 93 10000 2.1 240 22:36 24.10.2019
5572 Clear 4 1003 93 10000 2.1 240 22:36 24.10.2019
5573 Clear 5 1003 86 10000 3.1 260 22:18 24.10.2019
5574 Clear 5 1003 80 10000 4.1 260 21:54 24.10.2019
5575 Clear 5 1003 80 10000 4.1 260 21:54 24.10.2019
5576 Clouds 5 1003 80 10000 4.1 260 21:36 24.10.2019
5577 Clouds 5 1003 80 10000 4.1 260 21:36 24.10.2019
5578 Clouds 6 1002 80 10000 2.1 260 21:18 24.10.2019
5579 Clouds 6 1002 86 10000 2.1 250 20:54 24.10.2019
5580 Clouds 6 1002 86 10000 2.1 250 20:36 24.10.2019
5581 Clouds 6 1002 81 10000 3.1 270 20:18 24.10.2019
5582 Clouds 7 1002 81 10000 2.6 260 19:42 24.10.2019
5583 Clouds 8 1001 75 10000 2.6 280 19:23 24.10.2019
5584 Clouds 9 1001 76 10000 3.6 270 18:58 24.10.2019
5585 Clouds 9 1001 76 10000 3.6 270 18:58 24.10.2019
5586 Clouds 8 1001 75 10000 2.6 280 18:58 24.10.2019
5587 Clouds 9 1001 76 10000 3.6 270 18:39 24.10.2019
5588 Rain 10 1000 71 10000 3.6 290 18:21 24.10.2019
5589 Rain 10 1000 71 10000 4.1 260 17:56 24.10.2019
5590 Rain 10 1000 71 10000 4.1 260 17:37 24.10.2019
5591 Clouds 11 1000 71 10000 5.1 280 17:18 24.10.2019
5592 Clouds 10 999 71 10000 5.7 280 16:42 24.10.2019
5593 Clouds 11 999 66 10000 6.2 260 16:23 24.10.2019
5594 Clouds 11 999 66 10000 6.2 260 16:23 24.10.2019
5595 Clouds 11 999 66 10000 6.2 260 15:59 24.10.2019
5596 Rain 11 999 81 10000 5.1 260 15:40 24.10.2019
5597 Rain 11 999 87 10000 5.1 250 15:22 24.10.2019
5598 Rain 12 999 87 10000 4.1 240 14:59 24.10.2019
5599 Rain 12 999 87 10000 4.1 240 14:40 24.10.2019
5600 Rain 12 998 87 4900 5.7 230 14:21 24.10.2019
5601 Clouds 12 998 87 10000 6.7 220 13:42 24.10.2019
5602 Clouds 11 999 81 10000 6.2 220 13:20 24.10.2019
5603 Clouds 11 999 81 10000 6.2 220 12:58 24.10.2019
5604 Clouds 11 999 87 10000 6.7 200 12:40 24.10.2019
5605 Clouds 11 998 81 10000 7.2 210 12:20 24.10.2019
5606 Clouds 11 998 87 10000 6.7 210 11:57 24.10.2019
5607 Clouds 10 998 87 10000 6.7 210 11:38 24.10.2019
5608 Clouds 10 998 87 10000 4.6 210 11:20 24.10.2019
5609 Clouds 10 998 87 10000 4.6 210 10:59 24.10.2019
5610 Clouds 10 998 87 10000 4.1 200 10:39 24.10.2019
5611 Clouds 10 998 87 10000 4.1 200 10:20 24.10.2019
5612 Clouds 10 999 93 10000 4.1 200 09:39 24.10.2019
5613 Clouds 10 998 93 10000 3.1 220 09:19 24.10.2019
5614 Clouds 10 998 93 10000 3.6 210 08:55 24.10.2019
5615 Clouds 10 998 93 10000 3.6 210 08:37 24.10.2019
5616 Clouds 10 998 87 10000 5.1 210 08:18 24.10.2019
5617 Clouds 10 998 87 10000 4.6 190 07:45 24.10.2019
5618 Clouds 10 998 87 10000 4.1 200 07:22 24.10.2019
5619 Clouds 11 998 93 10000 1.5 0 06:46 24.10.2019
5620 Rain 11 998 93 10000 3.1 210 06:23 24.10.2019
5621 Clouds 11 998 87 10000 3.6 200 05:48 24.10.2019
5622 Clouds 11 998 87 10000 3.6 200 05:28 24.10.2019
5623 Clouds 11 998 93 10000 6.2 220 03:37 24.10.2019
5624 Clouds 11 999 87 10000 6.7 220 02:55 24.10.2019
5625 Rain 12 999 87 10000 7.7 220 02:25 24.10.2019
5626 Rain 11 999 93 10000 8.7 210 01:49 24.10.2019
5627 Drizzle 11 999 87 4100 9.3 200 01:27 24.10.2019
5628 Rain 11 999 93 6000 8.2 190 00:41 24.10.2019
5629 Rain 11 999 93 6000 9.3 190 00:18 24.10.2019
5630 Rain 11 1000 93 6000 6.7 190 23:43 23.10.2019
5631 Rain 11 1000 93 5000 6.7 190 23:23 23.10.2019
5632 Rain 11 1000 93 6000 5.1 180 22:57 23.10.2019
5633 Rain 11 1000 93 6000 5.1 180 22:38 23.10.2019
5634 Rain 11 1000 93 6000 5.1 180 22:38 23.10.2019
5635 Drizzle 11 1001 87 3500 5.7 170 22:19 23.10.2019
5636 Drizzle 11 1001 87 3500 5.7 170 21:57 23.10.2019
5637 Rain 11 1001 87 10000 4.6 180 21:38 23.10.2019
5638 Rain 11 1001 87 10000 4.1 180 21:19 23.10.2019
5639 Rain 11 1002 87 10000 4.1 190 20:56 23.10.2019
5640 Rain 11 1002 87 10000 4.1 190 20:38 23.10.2019
5641 Rain 11 1002 87 10000 5.1 200 20:20 23.10.2019
5642 Rain 12 1002 81 10000 6.2 190 19:55 23.10.2019
5643 Rain 12 1002 81 10000 6.2 190 19:36 23.10.2019
5644 Haze 12 1002 76 4800 6.2 190 19:18 23.10.2019
5645 Clouds 12 1003 71 10000 6.2 180 18:40 23.10.2019
5646 Clouds 13 1003 71 10000 7.7 180 18:19 23.10.2019
5647 Clouds 13 1003 71 10000 7.7 180 17:59 23.10.2019
5648 Clouds 13 1003 71 10000 8.2 190 17:41 23.10.2019
5649 Rain 13 1004 66 10000 7.7 190 17:19 23.10.2019
5650 Rain 13 1004 66 10000 7.7 190 17:19 23.10.2019
5651 -273 0 0 0 0 0 16:54 23.10.2019
5652 Rain 13 1004 62 10000 7.7 180 16:36 23.10.2019
5653 Rain 13 1004 67 10000 8.7 190 16:18 23.10.2019
5654 Rain 13 1005 67 10000 9.8 190 15:40 23.10.2019
5655 Rain 13 1005 67 10000 9.3 200 15:21 23.10.2019
5656 Rain 13 1006 67 10000 10.8 200 14:57 23.10.2019
5657 Rain 13 1006 67 10000 10.8 200 14:38 23.10.2019
5658 Clouds 13 1007 67 10000 10.8 200 14:19 23.10.2019
5659 Clouds 13 1007 67 10000 10.8 200 14:19 23.10.2019
5660 Clouds 13 1007 71 10000 10.3 200 13:54 23.10.2019
5661 Clouds 13 1007 71 10000 10.3 200 13:36 23.10.2019
5662 Clouds 13 1007 76 10000 8.7 200 13:18 23.10.2019
5663 Clouds 13 1008 76 10000 8.7 190 12:41 23.10.2019
5664 Clouds 13 1008 76 10000 8.7 190 12:20 23.10.2019
5665 Clouds 12 1008 81 10000 8.7 200 11:58 23.10.2019
5666 Clouds 12 1008 81 10000 8.7 200 11:40 23.10.2019
5667 Clouds 12 1009 81 10000 8.2 200 11:21 23.10.2019
5668 Clouds 11 1009 81 10000 8.2 200 10:59 23.10.2019
5669 Clouds 11 1009 81 10000 5.7 190 10:40 23.10.2019
5670 Clouds 11 1009 76 10000 5.1 190 10:22 23.10.2019
5671 Clouds 11 1009 81 10000 5.1 190 09:40 23.10.2019
5672 Clouds 11 1009 81 10000 6.2 190 09:22 23.10.2019
5673 Clouds 11 1009 81 10000 5.1 200 08:55 23.10.2019
5674 Clouds 11 1009 81 10000 5.1 200 08:55 23.10.2019
5675 Clouds 11 1009 81 10000 5.1 200 08:37 23.10.2019
5676 Clouds 11 1010 81 10000 3.1 190 08:18 23.10.2019
5677 Clouds 10 1010 81 10000 4.6 200 07:44 23.10.2019
5678 Clouds 11 1010 81 10000 4.6 200 07:20 23.10.2019
5679 Clouds 10 1010 81 10000 4.1 210 06:43 23.10.2019
5680 Clouds 10 1010 81 10000 4.1 230 06:19 23.10.2019
5681 Clouds 10 1011 81 10000 5.1 220 05:20 23.10.2019
5682 Clouds 10 1013 81 10000 6.2 210 03:47 23.10.2019
5683 Clouds 10 1013 81 10000 6.7 220 02:43 23.10.2019
5684 Clouds 10 1013 81 10000 5.7 220 01:40 23.10.2019
5685 Clouds 10 1013 81 10000 5.7 220 01:40 23.10.2019
5686 Clouds 10 1014 81 10000 4.6 230 01:18 23.10.2019
5687 Clouds 10 1014 81 10000 6.2 210 00:34 23.10.2019
5688 Clouds 10 1014 81 10000 6.7 210 23:55 22.10.2019
5689 Clouds 10 1014 81 10000 6.7 210 23:37 22.10.2019
5690 Clouds 10 1014 81 10000 6.7 210 23:18 22.10.2019
5691 Clouds 10 1014 81 10000 7.7 220 22:40 22.10.2019
5692 Rain 10 1015 81 10000 6.2 230 22:22 22.10.2019
5693 Clouds 10 1015 81 10000 6.2 220 21:57 22.10.2019
5694 Clouds 10 1015 81 10000 6.2 220 21:38 22.10.2019
5695 Clouds 10 1015 81 10000 5.1 220 21:19 22.10.2019
5696 Clouds 10 1015 81 10000 5.1 220 20:58 22.10.2019
5697 Clouds 10 1015 81 10000 3.6 240 20:40 22.10.2019
5698 Clouds 10 1015 87 10000 5.7 230 20:22 22.10.2019
5699 Clouds 10 1015 81 10000 6.7 220 19:56 22.10.2019
5700 Clouds 10 1015 81 10000 6.7 220 19:38 22.10.2019
5701 Clouds 10 1015 81 10000 6.2 220 19:20 22.10.2019
5702 Clouds 10 1015 81 10000 7.7 210 18:55 22.10.2019
5703 Clouds 11 1015 81 10000 7.7 210 18:37 22.10.2019
5704 Clouds 11 1015 81 10000 7.2 220 18:19 22.10.2019
5705 Clouds 11 1015 81 10000 8.7 210 17:39 22.10.2019
5706 Clouds 11 1015 81 10000 7.7 210 17:20 22.10.2019
5707 Clouds 11 1015 81 10000 7.7 210 16:59 22.10.2019
5708 Clouds 11 1015 81 10000 8.7 210 16:39 22.10.2019
5709 Clouds 11 1015 81 10000 8.7 210 16:39 22.10.2019
5710 Clouds 11 1015 81 10000 8.7 210 16:39 22.10.2019
5711 Clouds 11 1016 81 10000 8.2 220 16:20 22.10.2019
5712 Clouds 11 1016 81 10000 8.2 220 16:20 22.10.2019
5713 Clouds 11 1016 81 10000 8.2 220 15:58 22.10.2019
5714 Clouds 11 1016 81 10000 7.2 220 15:40 22.10.2019
5715 Clouds 11 1016 81 10000 8.2 220 15:19 22.10.2019
5716 Clouds 11 1017 81 10000 8.2 220 14:44 22.10.2019
5717 Clouds 11 1017 81 10000 8.2 220 14:21 22.10.2019
5718 Clouds 11 1017 81 10000 7.7 220 13:43 22.10.2019
5719 Clouds 11 1017 81 10000 6.7 220 13:23 22.10.2019
5720 Clouds 10 1017 81 10000 6.7 220 12:59 22.10.2019
5721 Clouds 10 1017 81 10000 8.7 220 12:41 22.10.2019
5722 Clouds 10 1017 81 10000 10.8 220 12:21 22.10.2019
5723 Clouds 10 1017 81 10000 10.8 220 11:57 22.10.2019
5724 Clouds 10 1017 81 10000 9.3 220 11:38 22.10.2019
5725 Clouds 10 1017 81 10000 9.3 220 11:38 22.10.2019
5726 Clouds 9 1017 81 10000 8.7 220 11:20 22.10.2019
5727 Clouds 9 1017 81 10000 8.7 220 10:57 22.10.2019
5728 Clouds 9 1017 81 10000 8.7 220 10:37 22.10.2019
5729 Clouds 9 1017 81 10000 7.2 220 10:18 22.10.2019
5730 Clouds 9 1016 87 10000 7.2 210 09:55 22.10.2019
5731 Clouds 9 1016 87 10000 7.2 210 09:36 22.10.2019
5732 Clouds 9 1016 87 10000 7.7 230 09:18 22.10.2019
5733 Clouds 9 1016 87 10000 6.7 220 08:42 22.10.2019
5734 Clouds 9 1016 87 10000 6.2 230 08:21 22.10.2019
5735 Clouds 9 1016 81 10000 6.7 240 07:46 22.10.2019
5736 Clouds 9 1016 87 10000 6.2 240 07:26 22.10.2019
5737 Clouds 9 1016 81 10000 6.7 230 06:48 22.10.2019
5738 Clouds 9 1016 81 10000 6.7 230 06:30 22.10.2019
5739 Clouds 9 1017 81 10000 6.7 230 05:50 22.10.2019
5740 Clouds 9 1017 81 10000 8.2 220 05:19 22.10.2019
5741 Clouds 8 1019 76 10000 6.7 230 02:33 22.10.2019
5742 Clouds 8 1019 76 10000 5.7 230 01:51 22.10.2019
5743 Clouds 8 1019 76 10000 5.7 230 01:26 22.10.2019
5744 Clouds 8 1019 76 10000 6.7 220 00:57 22.10.2019
5745 Clouds 8 1020 76 10000 6.7 220 00:39 22.10.2019
5746 Clouds 8 1020 81 10000 6.2 220 00:20 22.10.2019
5747 Clouds 8 1020 81 10000 5.1 220 23:39 21.10.2019
5748 Clouds 8 1020 81 10000 4.6 220 23:20 21.10.2019
5749 Clouds 8 1020 81 10000 4.6 220 22:59 21.10.2019
5750 Clouds 8 1020 81 10000 3.6 230 22:40 21.10.2019
5751 Clouds 8 1021 75 10000 2.6 240 22:20 21.10.2019
5752 Clouds 8 1021 75 10000 2.6 240 21:58 21.10.2019
5753 Clouds 8 1021 75 10000 2.6 250 21:39 21.10.2019
5754 Clouds 8 1021 70 10000 3.1 250 21:20 21.10.2019
5755 Clouds 8 1021 70 10000 3.1 250 20:58 21.10.2019
5756 Clouds 8 1021 70 10000 3.1 260 20:39 21.10.2019
5757 Clouds 8 1021 81 10000 4.1 230 20:20 21.10.2019
5758 Clouds 8 1021 81 10000 4.1 230 20:20 21.10.2019
5759 Clouds 8 1021 81 10000 4.1 230 19:57 21.10.2019
5760 Clouds 8 1021 81 10000 3.1 220 19:38 21.10.2019
5761 Clouds 8 1021 81 10000 3.6 230 19:20 21.10.2019
5762 Clouds 8 1022 76 10000 3.6 230 18:55 21.10.2019
5763 Clouds 8 1022 76 10000 3.6 230 18:36 21.10.2019
5764 Clouds 9 1022 76 10000 3.6 240 18:18 21.10.2019
5765 Clouds 9 1022 70 10000 3.1 260 17:39 21.10.2019
5766 Clouds 9 1022 70 10000 3.1 270 17:20 21.10.2019
5767 Clouds 9 1022 70 10000 3.1 270 16:59 21.10.2019
5768 Clouds 9 1022 70 10000 3.1 270 16:41 21.10.2019
5769 Clouds 9 1023 70 10000 3.6 270 16:22 21.10.2019
5770 Clouds 9 1023 66 10000 3.6 260 15:58 21.10.2019
5771 Clouds 9 1023 66 10000 3.6 260 15:39 21.10.2019
5772 Clouds 9 1024 81 10000 1.5 0 15:20 21.10.2019
5773 Clouds 9 1024 81 10000 1 0 14:55 21.10.2019
5774 Clouds 9 1024 81 10000 1 0 14:36 21.10.2019
5775 Clouds 9 1024 81 10000 0.5 0 14:18 21.10.2019
5776 Clouds 8 1024 81 10000 1 0 13:42 21.10.2019
5777 Clouds 7 1024 86 10000 0.5 0 13:20 21.10.2019
5778 Clouds 7 1024 86 10000 0.5 0 12:59 21.10.2019
5779 Clouds 6 1025 86 10000 0.5 0 12:40 21.10.2019
5780 Clouds 5 1025 100 10000 0.5 0 12:20 21.10.2019
5781 Clouds 5 1025 93 10000 0.5 350 11:54 21.10.2019
5782 Clouds 5 1025 93 10000 0.5 350 11:54 21.10.2019
5783 Clouds 5 1025 93 10000 0.5 350 11:54 21.10.2019
5784 Clouds 4 1025 93 10000 0.5 350 11:36 21.10.2019
5785 Clouds 4 1025 100 10000 0.5 0 11:18 21.10.2019
5786 Rain 2 1025 100 10000 1 0 10:54 21.10.2019
5787 Rain 2 1025 100 10000 1 0 10:36 21.10.2019
5788 Clouds 1 1025 80 10000 1 90 10:18 21.10.2019
5789 Clouds 0 1024 80 10000 0.5 0 09:41 21.10.2019
5790 Fog 0 1024 100 400 0.5 0 09:22 21.10.2019
5791 Fog 0 1024 100 750 0.5 260 08:42 21.10.2019
5792 Fog 0 1024 100 750 0.5 250 08:23 21.10.2019
5793 Fog 1 1024 92 450 0.5 0 07:55 21.10.2019
5794 Fog 1 1024 92 450 0.5 0 07:36 21.10.2019
5795 Mist 1 1024 100 1400 0.5 140 07:18 21.10.2019
5796 Mist 1 1024 100 2900 0.5 0 06:43 21.10.2019
5797 Clouds 1 1024 100 10000 1 230 06:24 21.10.2019
5798 Fog 1 1024 100 800 0.5 0 05:33 21.10.2019
5799 Clear 3 1024 90 10000 1 240 03:41 21.10.2019
5800 Clear 3 1024 87 10000 1.5 200 02:40 21.10.2019
5801 Clear 4 1024 87 10000 1 0 02:20 21.10.2019
5802 Clear 3 1024 87 10000 1.5 240 01:45 21.10.2019
5803 Clear 4 1023 86 10000 2.1 220 00:55 21.10.2019
5804 Clear 4 1023 86 10000 2.1 220 00:28 21.10.2019
5805 Clear 4 1023 93 10000 3.1 240 23:58 20.10.2019
5806 Clear 5 1023 93 10000 3.1 220 23:39 20.10.2019
5807 Clear 5 1023 86 10000 1.5 0 23:21 20.10.2019
5808 Clear 5 1022 93 10000 1 240 22:43 20.10.2019
5809 Clear 6 1022 86 10000 0.5 0 22:24 20.10.2019
5810 Clear 6 1022 86 10000 0.5 0 22:24 20.10.2019
5811 Clear 6 1021 80 10000 1.77 355.487 21:59 20.10.2019
5812 Clear 6 1021 80 10000 1.77 355.487 21:40 20.10.2019
5813 Clouds 7 1021 75 10000 1 350 21:22 20.10.2019
5814 Clouds 7 1021 75 10000 1 350 20:57 20.10.2019
5815 Clouds 7 1021 81 10000 2.1 20 20:38 20.10.2019
5816 Clouds 8 1021 75 10000 1.5 10 20:18 20.10.2019
5817 Clouds 8 1021 75 10000 1.5 10 20:18 20.10.2019
5818 Clouds 8 1020 75 10000 2.1 360 19:55 20.10.2019
5819 Clouds 8 1020 75 10000 2.1 360 19:37 20.10.2019
5820 Clouds 9 1020 70 10000 3.1 30 19:18 20.10.2019
5821 Clouds 9 1020 70 10000 4.1 20 18:40 20.10.2019
5822 Clouds 10 1019 57 10000 5.1 10 18:22 20.10.2019
5823 Clouds 10 1019 57 10000 5.1 10 17:57 20.10.2019
5824 Clouds 10 1019 62 10000 1.5 0 17:39 20.10.2019
5825 Clouds 10 1018 57 10000 4.6 20 17:20 20.10.2019
5826 Clouds 11 1018 62 10000 3.1 30 16:43 20.10.2019
5827 Clouds 11 1018 57 10000 3.6 360 16:24 20.10.2019
5828 Clouds 11 1018 57 10000 3.6 360 15:59 20.10.2019
5829 Clouds 11 1018 54 10000 4.6 10 15:40 20.10.2019
5830 Clouds 11 1018 54 10000 4.6 10 15:40 20.10.2019
5831 Clouds 11 1018 54 10000 4.1 40 15:21 20.10.2019
5832 Clouds 11 1018 54 10000 4.1 40 14:58 20.10.2019
5833 Clouds 11 1017 54 10000 3.6 30 14:38 20.10.2019
5834 Clouds 11 1017 54 10000 3.6 30 14:38 20.10.2019
5835 Clouds 10 1017 57 10000 3.6 30 14:19 20.10.2019
5836 Clouds 10 1017 57 10000 3.6 30 13:56 20.10.2019
5837 Clouds 10 1017 57 10000 2.6 20 13:37 20.10.2019
5838 Clouds 10 1017 57 10000 4.1 360 13:18 20.10.2019
5839 Clouds 10 1017 57 10000 4.1 360 12:56 20.10.2019
5840 Clouds 9 1016 61 10000 3.1 10 12:38 20.10.2019
5841 Clouds 9 1016 61 10000 1.5 0 12:20 20.10.2019
5842 Clouds 8 1016 66 10000 2.1 300 11:55 20.10.2019
5843 Clouds 8 1016 66 10000 2.1 300 11:37 20.10.2019
5844 Clouds 7 1015 75 10000 3.1 300 11:19 20.10.2019
5845 Clouds 7 1015 81 10000 3.1 330 10:41 20.10.2019
5846 Clouds 6 1015 86 10000 2.1 270 10:22 20.10.2019
5847 Clouds 6 1015 86 10000 2.1 270 09:58 20.10.2019
5848 Clouds 6 1014 80 10000 1.5 220 09:40 20.10.2019
5849 Clear 5 1014 86 10000 2.6 320 09:21 20.10.2019
5850 Clouds 6 1013 80 10000 1.5 240 08:48 20.10.2019
5851 Clouds 6 1013 80 10000 1.5 240 08:48 20.10.2019
5852 Clear 5 1013 86 10000 3.6 270 08:23 20.10.2019
5853 Clear 5 1013 80 10000 2.6 280 07:50 20.10.2019
5854 Clear 6 1013 80 10000 2.6 280 07:30 20.10.2019
5855 Clear 5 1012 80 10000 1.5 250 06:35 20.10.2019
5856 Clouds 6 1012 80 10000 2.6 280 05:59 20.10.2019
5857 Clouds 6 1011 70 10000 3.6 350 04:27 20.10.2019
5858 Clear 7 1010 70 10000 3.6 350 03:43 20.10.2019
5859 Clouds 7 1010 81 10000 0.5 0 03:20 20.10.2019
5860 Clouds 7 1009 86 10000 2.6 360 02:38 20.10.2019
5861 Clouds 7 1009 81 10000 1.5 0 01:58 20.10.2019
5862 Clouds 8 1008 81 10000 2.1 330 01:23 20.10.2019
5863 Clouds 8 1008 87 10000 2.1 300 00:55 20.10.2019
5864 Rain 8 1008 71 10000 2.6 330 00:22 20.10.2019
5865 Rain 8 1008 81 10000 1.96 332.704 23:59 19.10.2019
5866 Clouds 8 1007 81 10000 1.96 332.704 23:41 19.10.2019
5867 Rain 8 1007 76 10000 2.6 360 23:22 19.10.2019
5868 Clouds 8 1006 81 10000 2.6 330 22:55 19.10.2019
5869 Clouds 8 1006 81 10000 2.6 330 22:37 19.10.2019
5870 Clouds 8 1006 81 10000 2.1 320 22:18 19.10.2019
5871 Clouds 8 1006 81 10000 2.1 320 22:18 19.10.2019
5872 Clouds 8 1005 76 10000 2.6 330 21:45 19.10.2019
5873 Rain 8 1005 71 10000 3.1 330 21:21 19.10.2019
5874 Clouds 9 1005 81 10000 3.6 340 20:44 19.10.2019
5875 Clouds 9 1004 76 10000 2.6 330 20:22 19.10.2019
5876 Clouds 9 1004 76 10000 2.6 330 19:57 19.10.2019
5877 Clouds 9 1004 76 10000 2.6 320 19:38 19.10.2019
5878 Clouds 9 1004 81 10000 2.6 240 19:20 19.10.2019
5879 Clouds 10 1003 66 10000 1.5 0 18:41 19.10.2019
5880 Clouds 10 1003 66 10000 1.5 0 18:41 19.10.2019
5881 Clouds 10 1003 66 10000 2.1 310 18:23 19.10.2019
5882 Clouds 11 1003 71 10000 3.1 340 17:55 19.10.2019
5883 Clouds 11 1003 71 10000 3.1 340 17:55 19.10.2019
5884 Clouds 11 1003 71 10000 3.1 340 17:36 19.10.2019
5885 Clouds 11 1003 66 10000 4.1 360 17:18 19.10.2019
5886 Clouds 11 1002 62 10000 4.1 360 16:38 19.10.2019
5887 Clouds 11 1002 62 10000 5.1 350 16:20 19.10.2019
5888 Clouds 11 1002 62 10000 3.6 10 15:44 19.10.2019
5889 Clouds 11 1002 62 10000 3.6 10 15:26 19.10.2019
5890 Clouds 11 1001 62 10000 2.1 330 14:40 19.10.2019
5891 Clouds 11 1001 71 10000 2.1 320 14:21 19.10.2019
5892 Clouds 10 1001 71 10000 2.1 320 13:59 19.10.2019
5893 Clouds 10 1001 71 10000 1.5 0 13:41 19.10.2019
5894 Clouds 10 1001 66 10000 3.1 350 13:23 19.10.2019
5895 Clouds 10 1001 66 10000 3.1 350 12:59 19.10.2019
5896 Clouds 10 1000 71 10000 2.6 360 12:39 19.10.2019
5897 Rain 9 1000 71 10000 2.6 330 12:20 19.10.2019
5898 Rain 9 1000 76 10000 1.5 0 11:42 19.10.2019
5899 Rain 9 1000 76 10000 3.1 360 11:23 19.10.2019
5900 Clouds 8 1000 76 10000 3.1 360 10:58 19.10.2019
5901 Rain 9 999 76 10000 3.1 30 10:40 19.10.2019
5902 Rain 9 999 76 10000 3.1 30 10:22 19.10.2019
5903 Rain 9 999 76 10000 3.1 30 10:22 19.10.2019
5904 Rain 9 998 81 10000 2.6 330 09:56 19.10.2019
5905 Rain 9 998 87 10000 2.1 350 09:37 19.10.2019
5906 Rain 9 998 87 10000 2.1 350 09:19 19.10.2019
5907 Rain 9 998 93 9000 1 300 08:40 19.10.2019
5908 Rain 9 998 93 9000 1 300 08:21 19.10.2019
5909 Rain 9 997 87 10000 1 0 07:46 19.10.2019
5910 Rain 9 997 87 10000 1 0 07:26 19.10.2019
5911 Rain 9 997 87 10000 1 0 07:26 19.10.2019
5912 Rain 9 997 93 10000 1.5 0 06:48 19.10.2019
5913 Rain 9 997 93 10000 1.5 0 06:28 19.10.2019
5914 Rain 8 996 87 10000 1.5 0 05:34 19.10.2019
5915 Rain 9 996 87 10000 2.1 30 04:26 19.10.2019
5916 Rain 9 995 87 10000 3.1 20 02:49 19.10.2019
5917 Rain 9 995 87 10000 2.1 330 01:54 19.10.2019
5918 Rain 9 995 87 10000 2.1 330 01:33 19.10.2019
5919 Clouds 9 995 93 10000 1.5 0 00:49 19.10.2019
5920 Clouds 8 995 93 10000 1.5 0 00:27 19.10.2019
5921 Rain 8 995 100 9000 1 300 23:45 18.10.2019
5922 Rain 8 995 100 9000 1 300 23:27 18.10.2019
5923 Drizzle 8 995 100 10000 1.5 270 22:58 18.10.2019
5924 Rain 8 995 100 8000 1.5 250 22:40 18.10.2019
5925 Rain 8 995 100 10000 1.5 270 22:20 18.10.2019
5926 Rain 8 995 100 10000 1.5 270 21:58 18.10.2019
5927 Rain 8 995 93 9000 1.5 270 21:39 18.10.2019
5928 Rain 8 995 93 10000 2.1 190 21:20 18.10.2019
5929 Rain 8 995 93 10000 2.1 190 20:56 18.10.2019
5930 Rain 8 994 93 10000 1.5 100 20:38 18.10.2019
5931 Rain 9 994 93 10000 5.1 80 20:20 18.10.2019
5932 Rain 9 994 93 10000 1 210 19:55 18.10.2019
5933 Rain 9 994 93 10000 1 210 19:37 18.10.2019
5934 Rain 9 994 93 10000 1 210 19:37 18.10.2019
5935 Rain 9 994 93 10000 1.5 250 19:19 18.10.2019
5936 Rain 10 994 93 10000 2.1 240 18:43 18.10.2019
5937 Rain 10 994 87 10000 2.1 200 18:24 18.10.2019
5938 Rain 10 994 87 10000 2.1 200 17:59 18.10.2019
5939 Rain 10 994 87 10000 1.5 280 17:38 18.10.2019
5940 Rain 10 994 93 10000 1.5 270 17:20 18.10.2019
5941 Rain 10 994 93 10000 1.5 270 17:20 18.10.2019
5942 Rain 11 994 87 10000 2.1 270 16:44 18.10.2019
5943 Rain 11 994 87 10000 2.1 270 16:44 18.10.2019
5944 Rain 11 994 87 10000 2.1 270 16:43 18.10.2019
5945 Rain 11 994 87 10000 2.1 270 16:43 18.10.2019
5946 Rain 11 994 81 10000 2.6 330 16:21 18.10.2019
5947 Rain 11 994 81 10000 2.6 330 15:58 18.10.2019
5948 Rain 11 994 76 10000 2.1 120 15:38 18.10.2019
5949 Rain 11 994 81 10000 2.6 80 15:20 18.10.2019
5950 Rain 11 994 81 10000 2.6 80 14:57 18.10.2019
5951 Rain 11 994 81 10000 2.1 100 14:38 18.10.2019
5952 Rain 11 994 81 10000 2.1 100 14:38 18.10.2019
5953 Rain 11 994 76 10000 2.1 110 14:19 18.10.2019
5954 Rain 11 994 76 10000 2.1 110 13:56 18.10.2019
5955 Rain 11 994 76 10000 2.6 100 13:37 18.10.2019
5956 Clouds 10 994 87 10000 2.6 60 13:18 18.10.2019
5957 Clouds 10 994 81 10000 2.6 100 12:55 18.10.2019
5958 Clouds 10 994 81 10000 2.6 100 12:37 18.10.2019
5959 Clouds 10 994 81 10000 2.6 90 12:18 18.10.2019
5960 Rain 9 994 87 10000 3.1 80 11:41 18.10.2019
5961 Clouds 9 994 93 10000 3.1 60 11:20 18.10.2019
5962 Clouds 8 994 93 10000 3.1 60 10:57 18.10.2019
5963 Clouds 8 994 93 10000 3.1 60 10:39 18.10.2019
5964 Rain 8 995 93 10000 2.6 80 10:19 18.10.2019
5965 Rain 8 995 93 10000 2.6 80 09:57 18.10.2019
5966 Rain 8 994 93 10000 2.6 60 09:39 18.10.2019
5967 Rain 8 994 93 10000 2.6 50 09:19 18.10.2019
5968 Clouds 7 994 93 10000 2.6 70 08:44 18.10.2019
5969 Clouds 7 994 93 10000 3.1 80 08:24 18.10.2019
5970 Rain 7 994 93 10000 3.6 70 07:51 18.10.2019
5971 Rain 7 994 93 10000 3.6 70 07:33 18.10.2019
5972 Rain 7 994 93 10000 3.1 70 06:48 18.10.2019
5973 Rain 7 994 93 10000 3.1 70 06:30 18.10.2019
5974 Clouds 7 994 93 10000 3.6 80 05:59 18.10.2019
5975 Clouds 7 994 93 10000 3.1 70 05:41 18.10.2019
5976 Clouds 7 994 93 10000 3.6 70 05:18 18.10.2019
5977 Clouds 8 995 93 10000 3.1 80 03:35 18.10.2019
5978 Rain 8 995 93 10000 3.1 60 02:51 18.10.2019
5979 Rain 8 995 93 10000 3.1 60 02:32 18.10.2019
5980 Rain 8 995 93 10000 2.6 80 01:38 18.10.2019
5981 Rain 9 995 93 10000 2.6 100 00:56 18.10.2019
5982 Rain 9 996 87 10000 3.1 130 00:38 18.10.2019
5983 Rain 9 996 93 6000 3.6 130 00:18 18.10.2019
5984 Rain 9 995 93 10000 4.1 60 23:38 17.10.2019
5985 Rain 10 995 87 10000 4.6 90 23:19 17.10.2019
5986 Rain 10 996 87 10000 4.1 100 22:55 17.10.2019
5987 Rain 10 996 87 10000 4.1 100 22:37 17.10.2019
5988 Rain 10 996 87 10000 5.1 90 22:19 17.10.2019
5989 Rain 10 996 87 10000 5.1 90 21:56 17.10.2019
5990 Rain 10 996 87 10000 4.6 90 21:37 17.10.2019
5991 Rain 10 996 87 10000 4.1 90 21:19 17.10.2019
5992 Rain 10 996 87 10000 4.1 90 20:57 17.10.2019
5993 Clouds 10 996 93 10000 3.6 90 20:38 17.10.2019
5994 Rain 10 997 93 10000 3.6 70 20:19 17.10.2019
5995 Rain 10 997 87 10000 3.1 80 19:56 17.10.2019
5996 Rain 10 997 87 10000 3.1 80 19:37 17.10.2019
5997 Rain 10 997 87 8000 3.6 100 19:18 17.10.2019
5998 Rain 10 997 87 8000 3.6 100 19:18 17.10.2019
5999 Rain 11 997 81 10000 3.1 110 18:42 17.10.2019
6000 Rain 11 997 76 10000 5.7 120 18:21 17.10.2019
6001 Rain 11 997 71 10000 5.1 120 17:55 17.10.2019
6002 Rain 11 997 71 10000 5.1 120 17:37 17.10.2019
6003 Rain 12 998 71 10000 5.7 130 17:19 17.10.2019
6004 Rain 12 998 66 10000 5.1 120 16:42 17.10.2019
6005 Rain 12 998 66 10000 5.1 120 16:42 17.10.2019
6006 Rain 12 998 66 10000 6.7 120 16:19 17.10.2019
6007 Rain 12 998 66 10000 6.7 120 15:59 17.10.2019
6008 -273 0 0 0 0 0 15:41 17.10.2019
6009 Rain 12 998 71 10000 4.6 130 15:20 17.10.2019
6010 Rain 12 998 71 10000 4.6 130 14:58 17.10.2019
6011 Clouds 12 999 76 10000 5.1 130 14:39 17.10.2019
6012 Rain 12 999 76 10000 5.7 130 14:20 17.10.2019
6013 Clouds 11 999 81 10000 5.7 120 13:41 17.10.2019
6014 Clouds 11 999 81 10000 4.6 100 13:21 17.10.2019
6015 Clouds 11 999 81 10000 4.6 100 12:58 17.10.2019
6016 Clouds 10 999 93 10000 4.1 70 12:39 17.10.2019
6017 Rain 10 999 93 10000 4.6 50 12:19 17.10.2019
6018 Rain 9 1000 93 10000 4.1 70 11:56 17.10.2019
6019 Rain 8 1000 93 10000 4.1 70 11:37 17.10.2019
6020 Clouds 8 1000 93 10000 4.1 70 11:18 17.10.2019
6021 Clouds 7 1000 93 10000 3.6 60 10:42 17.10.2019
6022 Clouds 6 1000 93 10000 2.6 70 10:20 17.10.2019
6023 Clouds 5 1000 93 10000 2.6 70 09:57 17.10.2019
6024 Clouds 5 1000 100 10000 3.6 70 09:38 17.10.2019
6025 Clouds 5 1000 93 10000 3.1 50 09:19 17.10.2019
6026 Clouds 4 1000 100 10000 1 0 08:49 17.10.2019
6027 Clouds 4 1000 100 10000 1 0 08:27 17.10.2019
6028 Clouds 4 1000 100 9000 1 0 08:00 17.10.2019
6029 Clouds 4 1000 100 10000 3.1 50 07:41 17.10.2019
6030 Fog 4 1000 100 10000 2.1 40 07:21 17.10.2019
6031 Clouds 4 1000 100 10000 1.5 120 06:51 17.10.2019
6032 Clouds 4 1000 100 10000 1.5 120 06:31 17.10.2019
6033 Clouds 4 1000 93 10000 1.5 0 05:59 17.10.2019
6034 Mist 4 1000 100 5000 1.5 90 05:37 17.10.2019
6035 Fog 4 1000 93 10000 1.5 50 05:19 17.10.2019
6036 Fog 4 1001 100 10000 2.1 70 04:46 17.10.2019
6037 Clear 4 1001 93 10000 2.1 80 03:45 17.10.2019
6038 Clouds 6 1001 100 10000 1.5 0 01:57 17.10.2019
6039 Clouds 5 1001 93 10000 1 50 00:42 17.10.2019
6040 Clouds 6 1000 93 10000 1 30 00:21 17.10.2019
6041 Clouds 6 1000 93 10000 1 30 23:58 16.10.2019
6042 Clouds 7 1000 93 10000 1 0 23:39 16.10.2019
6043 Clouds 7 1000 93 10000 1.5 0 23:18 16.10.2019
6044 Clouds 7 1000 93 10000 1.5 0 22:54 16.10.2019
6045 Clouds 7 1000 93 10000 1.5 0 22:36 16.10.2019
6046 Clouds 7 1000 93 10000 1.5 0 22:18 16.10.2019
6047 Clouds 7 1000 100 10000 0.5 0 21:54 16.10.2019
6048 Clouds 7 1000 100 10000 0.5 0 21:54 16.10.2019
6049 Clouds 7 1000 100 10000 0.5 0 21:54 16.10.2019
6050 Clouds 7 1000 100 10000 0.5 0 21:54 16.10.2019
6051 Clouds 8 1000 100 10000 0.5 0 21:36 16.10.2019
6052 Clouds 8 1000 93 10000 1 0 21:18 16.10.2019
6053 Clear 8 1000 87 10000 1.5 0 20:54 16.10.2019
6054 Clear 9 1000 87 10000 1.5 0 20:36 16.10.2019
6055 Clear 9 999 81 10000 2.1 220 20:18 16.10.2019
6056 Clear 9 999 81 10000 2.6 220 19:40 16.10.2019
6057 Clear 10 999 76 10000 3.6 240 19:21 16.10.2019
6058 Clear 11 999 76 10000 3.6 240 18:57 16.10.2019
6059 Clear 11 999 66 10000 3.6 250 18:37 16.10.2019
6060 Clouds 12 998 71 10000 4.1 250 18:18 16.10.2019
6061 Clouds 12 998 71 10000 4.1 260 17:55 16.10.2019
6062 Clouds 13 998 71 10000 4.1 260 17:36 16.10.2019
6063 Clouds 13 998 71 10000 4.1 260 17:18 16.10.2019
6064 Clouds 13 998 66 10000 6.2 250 16:43 16.10.2019
6065 Clouds 13 998 71 10000 6.7 250 16:23 16.10.2019
6066 Clouds 13 998 71 10000 6.7 250 15:59 16.10.2019
6067 Clouds 13 998 76 10000 4.1 270 15:39 16.10.2019
6068 Clouds 13 998 76 10000 4.1 270 15:39 16.10.2019
6069 Clouds 12 997 71 10000 5.1 260 15:19 16.10.2019
6070 Clouds 12 997 71 10000 5.1 260 14:58 16.10.2019
6071 Clouds 12 997 71 10000 5.1 260 14:39 16.10.2019
6072 Clouds 11 997 76 10000 3.1 300 14:20 16.10.2019
6073 Clouds 11 997 76 10000 3.1 300 13:57 16.10.2019
6074 Clouds 11 997 76 10000 3.6 280 13:39 16.10.2019
6075 Clouds 11 997 87 10000 4.1 260 13:21 16.10.2019
6076 Clouds 11 996 93 10000 4.6 280 12:42 16.10.2019
6077 Clouds 11 996 93 10000 4.6 280 12:42 16.10.2019
6078 Rain 11 996 87 10000 4.6 290 12:20 16.10.2019
6079 Rain 11 995 100 10000 3.6 280 11:55 16.10.2019
6080 Rain 10 995 100 10000 3.6 280 11:36 16.10.2019
6081 Rain 10 995 100 4000 2.6 270 11:18 16.10.2019
6082 Rain 10 995 100 4000 3.1 70 10:36 16.10.2019
6083 Rain 10 995 100 4000 3.1 70 10:36 16.10.2019
6084 Drizzle 10 995 93 3500 2.1 30 10:18 16.10.2019
6085 Drizzle 10 995 93 3400 2.6 60 09:40 16.10.2019
6086 Drizzle 10 994 93 4400 2.6 40 09:22 16.10.2019
6087 Drizzle 10 994 93 4400 2.6 40 08:56 16.10.2019
6088 Drizzle 10 994 93 4400 2.6 40 08:56 16.10.2019
6089 Rain 10 994 93 5000 3.6 60 08:38 16.10.2019
6090 Rain 10 994 93 9000 3.6 70 08:19 16.10.2019
6091 Rain 10 995 93 10000 4.6 60 07:41 16.10.2019
6092 Rain 10 995 93 10000 4.6 60 07:23 16.10.2019
6093 Clouds 10 995 87 10000 4.1 80 06:47 16.10.2019
6094 Clouds 10 995 87 10000 4.1 80 06:28 16.10.2019
6095 Clouds 9 997 87 10000 4.6 70 04:25 16.10.2019
6096 Clouds 10 998 81 10000 4.6 90 02:51 16.10.2019
6097 Clouds 10 998 81 10000 3.6 100 01:20 16.10.2019
6098 Clouds 10 998 81 10000 3.6 100 00:58 16.10.2019
6099 Clouds 10 998 87 10000 3.6 90 00:39 16.10.2019
6100 Clouds 10 999 87 10000 2.6 80 23:58 15.10.2019
6101 Clouds 10 999 81 10000 3.6 90 23:38 15.10.2019
6102 Clouds 10 999 81 10000 2.6 0 23:19 15.10.2019
6103 Clouds 10 999 81 10000 2.6 90 22:55 15.10.2019
6104 Clouds 10 999 81 10000 2.6 90 22:37 15.10.2019
6105 Clouds 10 999 81 10000 2.6 110 22:18 15.10.2019
6106 Clouds 10 999 81 10000 3.1 110 21:54 15.10.2019
6107 Clouds 10 999 81 10000 3.1 110 21:36 15.10.2019
6108 Clouds 10 999 76 10000 2.6 110 21:18 15.10.2019
6109 Clouds 11 1000 76 10000 3.1 140 20:54 15.10.2019
6110 -273 0 0 0 0 0 20:54 15.10.2019
6111 Clouds 11 1000 76 10000 3.1 140 20:54 15.10.2019
6112 Clouds 11 1000 76 10000 3.1 140 20:36 15.10.2019
6113 Clouds 11 1000 76 10000 3.1 170 20:18 15.10.2019
6114 Clouds 11 1000 76 10000 4.1 150 19:41 15.10.2019
6115 Clouds 11 1000 71 10000 3.1 170 19:20 15.10.2019
6116 Clouds 12 1000 76 10000 3.1 120 18:57 15.10.2019
6117 Clouds 12 1000 76 10000 3.1 120 18:39 15.10.2019
6118 Clouds 12 1000 71 10000 3.1 110 18:20 15.10.2019
6119 Clouds 13 1000 71 10000 2.6 100 17:42 15.10.2019
6120 Clouds 13 1000 71 10000 2.6 100 17:41 15.10.2019
6121 Clouds 13 1000 71 10000 2.6 100 17:41 15.10.2019
6122 Clouds 13 1000 67 10000 3.1 90 17:21 15.10.2019
6123 Clouds 13 1000 67 10000 3.1 90 16:59 15.10.2019
6124 Clouds 13 1001 76 10000 3.1 90 16:40 15.10.2019
6125 Clouds 13 1001 71 10000 3.1 100 16:21 15.10.2019
6126 Clouds 12 1001 81 10000 4.6 130 15:55 15.10.2019
6127 Clouds 12 1001 81 10000 4.6 130 15:37 15.10.2019
6128 Clouds 12 1001 76 10000 4.1 100 15:18 15.10.2019
6129 Clouds 12 1001 76 10000 3.1 120 14:38 15.10.2019
6130 Clouds 12 1001 76 10000 3.1 120 14:38 15.10.2019
6131 Clouds 12 1001 81 10000 2.6 100 14:20 15.10.2019
6132 Clouds 12 1001 81 10000 2.6 100 13:58 15.10.2019
6133 Clouds 12 1002 87 10000 3.1 130 13:40 15.10.2019
6134 Clouds 11 1002 87 10000 3.1 140 13:19 15.10.2019
6135 Clouds 11 1002 87 10000 3.6 120 12:44 15.10.2019
6136 Clouds 10 1003 93 10000 2.6 130 12:22 15.10.2019
6137 Clouds 9 1003 93 10000 2.6 130 11:57 15.10.2019
6138 Clouds 9 1003 93 8000 3.1 130 11:38 15.10.2019
6139 Clouds 9 1003 93 10000 3.1 110 11:19 15.10.2019
6140 Clouds 8 1003 93 8000 3.6 90 10:45 15.10.2019
6141 Mist 8 1003 100 5000 1.5 0 10:22 15.10.2019
6142 Mist 8 1003 100 5000 0.5 0 09:58 15.10.2019
6143 Mist 8 1003 100 5000 0.5 0 09:38 15.10.2019
6144 Mist 7 1003 93 5000 1 0 09:20 15.10.2019
6145 Clouds 8 1003 100 10000 1 0 08:55 15.10.2019
6146 Mist 7 1003 100 4500 1 0 08:36 15.10.2019
6147 Mist 7 1003 100 4500 1 0 08:36 15.10.2019
6148 Mist 7 1003 100 4500 1 0 08:18 15.10.2019
6149 Mist 7 1003 100 3600 1 0 07:41 15.10.2019
6150 Mist 7 1003 100 3500 1.5 130 07:21 15.10.2019
6151 Mist 7 1003 100 3700 2.6 130 06:45 15.10.2019
6152 Mist 7 1003 93 4200 2.6 130 06:27 15.10.2019
6153 Mist 7 1004 93 4900 3.1 110 05:44 15.10.2019
6154 Clouds 7 1004 93 6000 3.1 90 05:24 15.10.2019
6155 Clouds 7 1004 93 7000 1.5 80 04:33 15.10.2019
6156 Fog 7 1005 93 7000 2.1 80 03:38 15.10.2019
6157 Fog 7 1005 93 7000 2.1 80 03:38 15.10.2019
6158 Clouds 7 1005 93 6000 2.6 40 02:42 15.10.2019
6159 Mist 7 1005 93 7000 3.6 70 01:49 15.10.2019
6160 Fog 7 1005 100 8000 3.1 60 01:22 15.10.2019
6161 Fog 7 1006 100 8000 2.6 70 00:49 15.10.2019
6162 Fog 8 1006 93 9000 2.6 80 00:22 15.10.2019
6163 Fog 8 1006 93 10000 2.1 90 23:45 14.10.2019
6164 Fog 8 1006 93 10000 3.6 80 23:20 14.10.2019
6165 Fog 8 1006 93 10000 3.6 80 23:20 14.10.2019
6166 Fog 8 1006 93 10000 3.1 70 22:57 14.10.2019
6167 Fog 8 1006 93 10000 3.1 70 22:38 14.10.2019
6168 Clouds 8 1006 93 10000 4.1 70 22:18 14.10.2019
6169 Clouds 8 1006 93 10000 4.1 70 22:18 14.10.2019
6170 Clouds 8 1006 93 10000 3.1 80 21:55 14.10.2019
6171 Clouds 9 1006 93 10000 3.1 80 21:36 14.10.2019
6172 Clouds 9 1006 87 10000 4.6 80 21:18 14.10.2019
6173 Clouds 9 1006 87 10000 4.1 80 20:40 14.10.2019
6174 Clouds 9 1006 87 10000 4.1 70 20:22 14.10.2019
6175 Clouds 10 1006 76 10000 4.1 70 19:59 14.10.2019
6176 Clouds 10 1006 76 10000 4.1 70 19:41 14.10.2019
6177 Clouds 10 1006 76 10000 4.1 70 19:41 14.10.2019
6178 Clouds 10 1006 81 10000 3.6 70 19:23 14.10.2019
6179 Clouds 11 1006 81 10000 4.1 70 18:58 14.10.2019
6180 Clouds 11 1006 81 10000 4.1 70 18:39 14.10.2019
6181 Clouds 11 1006 81 10000 3.6 70 18:19 14.10.2019
6182 Clouds 12 1007 81 10000 4.1 60 17:56 14.10.2019
6183 Clouds 12 1007 81 10000 4.1 60 17:37 14.10.2019
6184 Clouds 12 1007 81 10000 4.6 60 17:19 14.10.2019
6185 -273 0 0 0 0 0 16:40 14.10.2019
6186 Clouds 12 1007 76 10000 3.1 70 16:21 14.10.2019
6187 Clouds 12 1007 76 10000 3.1 70 15:42 14.10.2019
6188 Clouds 11 1007 81 10000 3.1 60 15:22 14.10.2019
6189 Clouds 11 1008 81 10000 2.6 70 14:56 14.10.2019
6190 Clouds 11 1008 81 10000 2.6 70 14:56 14.10.2019
6191 Clouds 12 1008 81 10000 2.6 70 14:38 14.10.2019
6192 Clouds 11 1008 81 10000 2.6 80 14:19 14.10.2019
6193 Clouds 11 1008 81 10000 2.6 100 13:43 14.10.2019
6194 Clouds 10 1008 81 10000 2.1 110 13:21 14.10.2019
6195 Clouds 10 1008 87 10000 2.6 90 12:55 14.10.2019
6196 Clouds 10 1008 87 10000 2.6 90 12:36 14.10.2019
6197 Clouds 9 1008 81 10000 2.6 70 12:18 14.10.2019
6198 Clouds 8 1008 93 10000 2.1 90 11:43 14.10.2019
6199 Clouds 7 1008 93 10000 1.5 0 11:24 14.10.2019
6200 Fog 7 1008 93 10000 1.5 0 10:55 14.10.2019
6201 Fog 7 1008 93 10000 1.5 0 10:37 14.10.2019
6202 Fog 6 1008 93 10000 1.5 0 10:18 14.10.2019
6203 -273 0 0 0 0 0 09:41 14.10.2019
6204 Fog 6 1008 100 9000 1.5 0 09:21 14.10.2019
6205 Fog 6 1007 100 8000 1.5 0 08:50 14.10.2019
6206 Fog 6 1007 100 10000 2.1 50 08:23 14.10.2019
6207 Fog 6 1007 93 8000 1 350 07:47 14.10.2019
6208 Clouds 6 1007 100 6000 1.5 60 07:25 14.10.2019
6209 Mist 6 1007 100 4700 1.5 70 06:58 14.10.2019
6210 Mist 6 1007 100 4700 1.5 70 06:28 14.10.2019
6211 Mist 7 1007 100 4800 1.5 80 05:56 14.10.2019
6212 Mist 7 1007 100 4900 2.1 20 05:25 14.10.2019
6213 Fog 7 1006 100 5000 0.5 0 03:50 14.10.2019
6214 Mist 7 1006 100 4900 1 0 03:23 14.10.2019
6215 Fog 8 1005 100 750 1 0 02:31 14.10.2019
6216 Mist 8 1005 100 5000 1.5 220 01:21 14.10.2019
6217 Clouds 8 1004 100 9000 1.5 240 00:42 14.10.2019
6218 Rain 8 1004 100 10000 1 0 00:18 14.10.2019
6219 Rain 9 1004 100 10000 2.1 240 23:40 13.10.2019
6220 Rain 9 1004 93 8000 2.6 240 23:19 13.10.2019
6221 Rain 9 1003 93 7000 2.6 240 22:56 13.10.2019
6222 Rain 9 1003 93 7000 2.6 240 22:38 13.10.2019
6223 Rain 9 1003 93 10000 3.1 260 22:19 13.10.2019
6224 Rain 9 1002 93 7000 1 250 21:56 13.10.2019
6225 Rain 9 1002 93 7000 1 250 21:36 13.10.2019
6226 Rain 9 1002 93 7000 1 250 21:36 13.10.2019
6227 Rain 9 1002 93 7000 1 0 21:18 13.10.2019
6228 Rain 9 1002 93 7000 1 0 21:18 13.10.2019
6229 Rain 9 1002 100 7000 2.1 270 20:55 13.10.2019
6230 Rain 9 1002 100 7000 2.1 270 20:37 13.10.2019
6231 Rain 10 1001 100 6000 2.1 270 20:18 13.10.2019
6232 Rain 10 1001 100 3600 1 270 19:54 13.10.2019
6233 Rain 10 1001 100 3600 1 270 19:54 13.10.2019
6234 Rain 10 1001 100 3600 1 270 19:36 13.10.2019
6235 Rain 10 1001 100 3600 1 270 19:36 13.10.2019
6236 Rain 10 1001 100 6000 1.5 250 19:18 13.10.2019
6237 Rain 10 1000 100 6000 2.1 280 18:40 13.10.2019
6238 Rain 10 1000 93 6000 1.5 0 18:20 13.10.2019
6239 Rain 10 1000 93 9000 1.5 320 17:59 13.10.2019
6240 Rain 10 1000 93 9000 1.5 320 17:41 13.10.2019
6241 Rain 10 1000 93 6000 1.5 320 17:22 13.10.2019
6242 Rain 11 1000 93 10000 1.5 40 16:43 13.10.2019
6243 Rain 11 1000 93 10000 3.6 60 16:19 13.10.2019
6244 -273 0 0 0 0 0 15:57 13.10.2019
6245 Rain 11 1000 87 10000 3.6 60 15:39 13.10.2019
6246 Rain 11 1000 87 10000 4.1 70 15:20 13.10.2019
6247 Rain 11 1000 87 10000 4.1 70 15:20 13.10.2019
6248 Clouds 11 1001 87 10000 3.6 60 14:58 13.10.2019
6249 Clouds 11 1001 87 10000 3.6 60 14:39 13.10.2019
6250 Clouds 10 1001 87 10000 4.1 70 14:20 13.10.2019
6251 Clouds 10 1001 87 10000 4.1 80 13:55 13.10.2019
6252 Clouds 10 1001 87 10000 4.1 80 13:37 13.10.2019
6253 Clouds 10 1001 87 10000 4.1 80 13:37 13.10.2019
6254 Clouds 10 1001 93 10000 3.6 80 13:18 13.10.2019
6255 Clouds 10 1001 93 10000 3.6 80 13:18 13.10.2019
6256 Rain 10 1001 100 10000 2.6 80 12:55 13.10.2019
6257 Rain 10 1001 100 10000 2.6 80 12:55 13.10.2019
6258 Rain 10 1001 100 10000 2.6 80 12:55 13.10.2019
6259 Rain 9 1001 100 10000 2.6 80 12:36 13.10.2019
6260 Rain 9 1001 100 10000 2.6 80 12:36 13.10.2019
6261 Clouds 9 1002 100 10000 1.5 0 12:18 13.10.2019
6262 Clear 8 1002 93 10000 0.5 0 11:54 13.10.2019
6263 Clear 8 1002 93 10000 0.5 0 11:36 13.10.2019
6264 Clouds 7 1002 93 8000 1.63 44.603 11:18 13.10.2019
6265 Clouds 6 1002 100 8000 1.63 44.603 10:40 13.10.2019
6266 Mist 6 1002 100 5000 0.5 0 10:22 13.10.2019
6267 Mist 6 1002 100 5000 0.5 0 09:40 13.10.2019
6268 Mist 6 1002 100 1400 1 260 09:21 13.10.2019
6269 Mist 6 1002 100 5000 1.5 230 08:55 13.10.2019
6270 Mist 6 1002 100 3900 0.5 0 08:27 13.10.2019
6271 Mist 6 1002 100 5000 1.5 230 08:27 13.10.2019
6272 Mist 6 1002 100 2900 1 260 07:56 13.10.2019
6273 Mist 6 1002 100 2900 1 260 07:38 13.10.2019
6274 Fog 6 1002 100 250 0.5 200 06:54 13.10.2019
6275 Fog 6 1002 100 400 1 210 06:26 13.10.2019
6276 Mist 6 1003 100 1500 1.5 230 05:29 13.10.2019
6277 Mist 6 1003 93 1100 1 220 04:35 13.10.2019
6278 Fog 6 1003 100 10000 0.5 0 03:35 13.10.2019
6279 Clouds 7 1003 100 10000 1 0 02:32 13.10.2019
6280 Clouds 7 1003 87 10000 2.6 160 01:47 13.10.2019
6281 Fog 7 1003 100 10000 1.5 0 01:21 13.10.2019
6282 Fog 8 1003 100 200 1.5 50 00:42 13.10.2019
6283 Mist 8 1003 93 3400 1.5 100 00:19 13.10.2019
6284 Clear 8 1003 93 10000 1 0 23:42 12.10.2019
6285 Clouds 9 1003 93 10000 1.5 0 23:23 12.10.2019
6286 Clouds 9 1003 93 10000 1.5 0 23:23 12.10.2019
6287 Clouds 9 1003 93 10000 1.5 0 22:59 12.10.2019
6288 Clouds 9 1003 93 10000 1.5 0 22:59 12.10.2019
6289 Rain 9 1003 93 10000 1 0 22:40 12.10.2019
6290 Clear 9 1003 93 10000 1 260 22:22 12.10.2019
6291 Clear 9 1003 93 10000 1 260 21:59 12.10.2019
6292 Clear 9 1003 93 10000 1.5 220 21:40 12.10.2019
6293 Rain 9 1003 87 10000 2.1 240 21:22 12.10.2019
6294 Rain 10 1002 87 10000 3.6 180 20:55 12.10.2019
6295 Rain 10 1002 87 10000 3.6 180 20:36 12.10.2019
6296 Rain 10 1002 87 10000 3.1 200 20:18 12.10.2019
6297 Rain 10 1002 87 10000 3.1 200 19:36 12.10.2019
6298 Rain 11 1002 87 10000 3.6 220 19:18 12.10.2019
6299 Clouds 11 1002 81 10000 5.7 220 18:43 12.10.2019
6300 Clouds 12 1002 81 10000 7.2 220 18:24 12.10.2019
6301 Clouds 12 1002 81 10000 6.7 210 17:46 12.10.2019
6302 Rain 12 1002 76 10000 7.2 220 17:22 12.10.2019
6303 Rain 12 1002 76 10000 7.2 220 16:59 12.10.2019
6304 Rain 12 1002 76 10000 7.2 220 16:59 12.10.2019
6305 Rain 12 1002 81 10000 8.7 210 16:40 12.10.2019
6306 Rain 13 1002 76 10000 7.7 210 16:21 12.10.2019
6307 Rain 13 1002 76 10000 7.7 210 15:56 12.10.2019
6308 Clouds 13 1002 76 10000 8.2 210 15:37 12.10.2019
6309 Clouds 13 1002 76 10000 7.2 230 15:18 12.10.2019
6310 Clouds 13 1002 76 10000 6.7 220 14:39 12.10.2019
6311 Rain 13 1002 76 10000 8.7 220 14:20 12.10.2019
6312 Rain 12 1002 76 10000 7.7 220 13:50 12.10.2019
6313 Rain 12 1002 76 10000 7.7 220 13:32 12.10.2019
6314 Rain 12 1002 76 10000 2.6 280 12:55 12.10.2019
6315 Rain 12 1002 76 10000 2.6 280 12:37 12.10.2019
6316 Clouds 11 1001 87 10000 6.7 230 12:18 12.10.2019
6317 Clouds 11 1001 87 10000 6.2 230 11:41 12.10.2019
6318 Clouds 10 1001 87 10000 5.7 230 11:22 12.10.2019
6319 Clouds 10 1001 87 10000 5.7 230 10:58 12.10.2019
6320 Rain 10 1001 93 10000 5.1 230 10:38 12.10.2019
6321 Clouds 9 1000 93 10000 3.1 250 10:19 12.10.2019
6322 Clouds 8 1000 93 10000 3.1 250 09:56 12.10.2019
6323 Clouds 8 1000 93 10000 3.1 250 09:37 12.10.2019
6324 Clear 8 1000 93 10000 3.6 230 09:19 12.10.2019
6325 Clouds 7 1000 93 10000 4.1 230 08:43 12.10.2019
6326 Rain 8 1000 100 10000 4.6 230 08:23 12.10.2019
6327 Clouds 7 1000 93 10000 4.6 230 07:49 12.10.2019
6328 Clouds 7 1000 93 10000 4.6 230 07:30 12.10.2019
6329 Clouds 7 999 93 10000 3.1 250 05:54 12.10.2019
6330 Clear 7 999 93 10000 5.1 230 05:26 12.10.2019
6331 Clear 8 999 87 10000 3.6 250 04:31 12.10.2019
6332 Clouds 8 999 87 10000 4.6 240 03:53 12.10.2019
6333 Clouds 8 998 93 10000 4.1 230 02:37 12.10.2019
6334 Clouds 9 997 93 10000 6.2 230 01:31 12.10.2019
6335 Clouds 9 997 93 10000 5.1 220 00:54 12.10.2019
6336 Clouds 9 997 93 10000 5.1 220 00:35 12.10.2019
6337 Rain 9 996 93 10000 6.2 230 23:54 11.10.2019
6338 Rain 9 996 93 10000 6.2 230 23:36 11.10.2019
6339 Rain 10 996 87 10000 7.2 240 23:18 11.10.2019
6340 Rain 10 995 87 10000 9.8 230 22:37 11.10.2019
6341 Rain 10 995 87 10000 10.3 240 22:18 11.10.2019
6342 Rain 10 995 87 10000 7.7 240 21:42 11.10.2019
6343 Rain 10 995 87 10000 9.8 260 21:21 11.10.2019
6344 Rain 10 994 76 10000 12.3 230 20:55 11.10.2019
6345 Rain 10 994 76 10000 12.3 230 20:37 11.10.2019
6346 Rain 10 994 81 10000 7.7 220 20:18 11.10.2019
6347 Rain 11 994 76 10000 8.7 230 19:54 11.10.2019
6348 Rain 11 994 76 10000 8.7 230 19:54 11.10.2019
6349 Rain 11 994 76 10000 8.7 230 19:36 11.10.2019
6350 Rain 11 995 76 10000 9.8 230 19:18 11.10.2019
6351 Rain 11 995 76 10000 9.8 230 19:18 11.10.2019
6352 Rain 11 995 81 10000 7.2 240 18:39 11.10.2019
6353 Rain 11 995 76 10000 6.7 220 18:19 11.10.2019
6354 Rain 11 994 76 10000 7.7 240 17:59 11.10.2019
6355 Rain 11 994 76 10000 7.7 240 17:38 11.10.2019
6356 Rain 11 994 81 10000 7.2 250 17:19 11.10.2019
6357 Rain 11 994 81 10000 7.2 250 17:19 11.10.2019
6358 Rain 12 994 81 10000 7.7 240 16:59 11.10.2019
6359 Rain 12 994 81 10000 7.7 240 16:39 11.10.2019
6360 Rain 12 994 81 10000 9.3 230 16:19 11.10.2019
6361 Rain 13 994 66 10000 10.8 230 15:42 11.10.2019
6362 Rain 13 994 67 10000 10.3 230 15:22 11.10.2019
6363 Clouds 13 994 71 10000 9.8 230 14:59 11.10.2019
6364 Clouds 13 994 71 10000 9.8 230 14:40 11.10.2019
6365 Clouds 13 994 66 10000 10.8 230 14:21 11.10.2019
6366 Clouds 13 994 71 10000 10.3 220 13:45 11.10.2019
6367 Clouds 13 994 71 10000 9.3 230 13:25 11.10.2019
6368 Clouds 13 994 71 10000 9.8 220 12:57 11.10.2019
6369 Clouds 13 994 71 10000 9.8 220 12:39 11.10.2019
6370 Clouds 13 994 71 10000 9.8 220 12:39 11.10.2019
6371 Clouds 12 994 76 10000 9.3 230 12:20 11.10.2019
6372 Clouds 12 994 76 10000 9.3 230 11:58 11.10.2019
6373 Clouds 12 994 76 10000 8.7 230 11:38 11.10.2019
6374 Clouds 11 994 76 10000 8.2 220 11:20 11.10.2019
6375 Clouds 11 994 81 10000 8.2 220 10:54 11.10.2019
6376 Clouds 11 994 81 10000 8.2 220 10:36 11.10.2019
6377 Rain 10 994 81 10000 7.7 220 10:18 11.10.2019
6378 Clouds 10 994 81 10000 8.2 220 09:41 11.10.2019
6379 Clouds 10 993 76 10000 9.3 220 09:21 11.10.2019
6380 Clouds 10 993 81 10000 9.3 220 08:56 11.10.2019
6381 Clouds 10 993 81 10000 9.3 220 08:38 11.10.2019
6382 Clouds 10 993 81 10000 9.3 220 08:20 11.10.2019
6383 Clouds 10 993 81 10000 9.3 220 07:51 11.10.2019
6384 Clouds 10 993 81 10000 9.3 220 07:33 11.10.2019
6385 Rain 10 994 81 10000 8.7 220 06:50 11.10.2019
6386 Clouds 11 994 81 10000 8.2 220 06:25 11.10.2019
6387 Rain 10 994 81 10000 8.7 210 05:46 11.10.2019
6388 Clouds 11 994 81 10000 8.2 220 05:27 11.10.2019
6389 Rain 11 994 81 7000 11.3 230 04:50 11.10.2019
6390 Rain 11 995 81 10000 6.2 250 03:20 11.10.2019
6391 Rain 11 994 93 10000 6.7 220 00:54 11.10.2019
6392 Rain 11 994 93 10000 6.7 220 00:31 11.10.2019
6393 Rain 11 994 87 10000 8.2 220 23:57 10.10.2019
6394 Rain 11 994 87 10000 8.2 220 23:39 10.10.2019
6395 Rain 11 994 87 10000 8.7 210 23:18 10.10.2019
6396 Rain 12 994 93 10000 10.3 210 22:54 10.10.2019
6397 Rain 12 994 93 10000 10.3 210 22:36 10.10.2019
6398 Rain 12 994 82 10000 8.7 210 22:18 10.10.2019
6399 Rain 12 995 87 5000 8.2 210 21:42 10.10.2019
6400 Rain 12 995 87 10000 7.2 210 21:22 10.10.2019
6401 Rain 12 995 87 10000 7.2 210 21:22 10.10.2019
6402 Rain 12 995 87 10000 7.2 210 20:58 10.10.2019
6403 Rain 12 995 87 10000 6.2 210 20:39 10.10.2019
6404 Rain 12 995 87 10000 6.2 210 20:39 10.10.2019
6405 Rain 12 996 87 10000 6.2 210 20:19 10.10.2019
6406 Rain 12 996 87 10000 6.2 220 19:55 10.10.2019
6407 Rain 12 996 87 10000 6.2 220 19:55 10.10.2019
6408 Rain 12 996 87 10000 6.2 220 19:37 10.10.2019
6409 Rain 12 996 87 10000 8.2 230 19:19 10.10.2019
6410 Drizzle 11 996 93 4500 2.6 0 18:42 10.10.2019
6411 Drizzle 11 996 100 3800 1.5 0 18:20 10.10.2019
6412 Rain 11 997 93 4100 2.6 110 17:56 10.10.2019
6413 Rain 10 997 93 4100 2.6 110 17:37 10.10.2019
6414 Rain 10 997 87 5000 2.6 150 17:18 10.10.2019
6415 Rain 10 998 87 10000 2.6 200 16:48 10.10.2019
6416 Rain 10 998 87 10000 2.6 200 16:26 10.10.2019
6417 Rain 11 1000 93 10000 6.2 210 15:58 10.10.2019
6418 Rain 11 1000 93 10000 6.2 210 15:38 10.10.2019
6419 Rain 11 1000 93 10000 5.7 210 15:20 10.10.2019
6420 Rain 11 1000 81 10000 8.2 220 14:55 10.10.2019
6421 Rain 11 1000 81 10000 8.2 220 14:36 10.10.2019
6422 Rain 12 1000 81 10000 8.2 220 14:18 10.10.2019
6423 Clouds 12 1001 81 10000 9.3 220 13:46 10.10.2019
6424 Clouds 12 1001 81 10000 7.2 220 13:27 10.10.2019
6425 Clouds 11 1001 81 10000 9.3 220 12:58 10.10.2019
6426 Clouds 11 1001 81 10000 9.3 220 12:40 10.10.2019
6427 Rain 11 1001 81 10000 7.7 230 12:20 10.10.2019
6428 Clouds 11 1001 87 10000 4.6 240 11:58 10.10.2019
6429 Clouds 11 1001 87 10000 4.6 240 11:38 10.10.2019
6430 Rain 11 1000 87 7000 6.7 250 11:19 10.10.2019
6431 Rain 11 1000 87 7000 6.7 250 11:19 10.10.2019
6432 Rain 11 1000 87 10000 7.7 250 10:44 10.10.2019
6433 Rain 10 1000 87 10000 8.2 240 10:26 10.10.2019
6434 Rain 10 1000 87 8000 7.7 240 09:56 10.10.2019
6435 Rain 10 1000 87 8000 7.7 240 09:38 10.10.2019
6436 Rain 10 999 87 7000 6.7 240 09:20 10.10.2019
6437 Rain 10 999 87 10000 6.7 240 08:57 10.10.2019
6438 Rain 10 999 87 10000 6.7 240 08:37 10.10.2019
6439 Rain 10 999 87 10000 6.7 230 08:18 10.10.2019
6440 Rain 10 998 87 10000 5.7 250 07:44 10.10.2019
6441 Rain 10 998 87 10000 7.7 250 07:21 10.10.2019
6442 Rain 10 997 87 10000 6.2 250 06:48 10.10.2019
6443 Rain 10 997 87 10000 5.7 240 06:29 10.10.2019
6444 Rain 10 997 87 10000 7.7 240 05:27 10.10.2019
6445 Rain 10 996 87 9000 8.7 250 04:39 10.10.2019
6446 Rain 10 996 87 10000 8.2 250 04:21 10.10.2019
6447 Rain 10 996 87 10000 7.7 230 01:43 10.10.2019
6448 Rain 10 996 87 10000 7.7 240 01:24 10.10.2019
6449 Rain 10 995 87 10000 7.2 230 00:54 10.10.2019
6450 Rain 10 995 81 9000 7.2 240 00:22 10.10.2019
6451 Rain 10 995 87 10000 5.7 230 23:40 09.10.2019
6452 Rain 10 995 87 10000 7.7 240 23:20 09.10.2019
6453 Clouds 10 995 87 10000 7.7 240 22:56 09.10.2019
6454 Clouds 10 995 87 10000 7.7 240 22:37 09.10.2019
6455 Clouds 10 995 87 10000 7.7 230 22:19 09.10.2019
6456 Rain 10 995 87 10000 7.2 230 21:40 09.10.2019
6457 Rain 9 995 87 10000 5.1 230 21:20 09.10.2019
6458 Rain 9 995 87 7000 5.7 260 20:56 09.10.2019
6459 Rain 9 995 87 7000 5.7 260 20:38 09.10.2019
6460 Rain 9 995 87 7000 5.7 260 20:38 09.10.2019
6461 Rain 9 995 93 10000 6.2 230 20:19 09.10.2019
6462 Rain 9 995 93 10000 6.2 230 20:19 09.10.2019
6463 Clear 9 994 87 10000 7.2 240 19:57 09.10.2019
6464 Clear 9 994 87 10000 7.2 240 19:39 09.10.2019
6465 Rain 10 995 87 10000 7.2 230 19:20 09.10.2019
6466 Rain 10 995 81 10000 6.7 250 18:38 09.10.2019
6467 Rain 11 994 76 10000 7.7 210 18:19 09.10.2019
6468 Rain 11 994 81 10000 8.2 220 17:57 09.10.2019
6469 Rain 11 994 81 10000 8.2 220 17:37 09.10.2019
6470 Rain 10 994 81 10000 7.7 220 17:19 09.10.2019
6471 Rain 10 994 81 10000 6.7 240 16:55 09.10.2019
6472 Rain 10 994 81 10000 6.7 240 16:36 09.10.2019
6473 Rain 11 994 81 9000 8.7 250 16:18 09.10.2019
6474 Rain 11 994 76 10000 7.2 220 15:54 09.10.2019
6475 Rain 11 994 76 10000 7.2 220 15:36 09.10.2019
6476 Rain 11 994 81 10000 8.7 230 15:18 09.10.2019
6477 Rain 11 994 81 10000 8.7 230 15:18 09.10.2019
6478 Drizzle 11 994 81 10000 7.7 240 14:41 09.10.2019
6479 Clouds 11 994 93 10000 10.8 230 14:18 09.10.2019
6480 Rain 11 994 81 10000 8.2 230 13:40 09.10.2019
6481 Rain 11 994 87 10000 9.8 230 13:22 09.10.2019
6482 Rain 11 994 81 10000 9.8 220 12:59 09.10.2019
6483 Rain 11 994 81 10000 9.8 220 12:41 09.10.2019
6484 Rain 11 993 81 10000 7.2 230 12:22 09.10.2019
6485 Rain 11 993 81 10000 7.2 230 12:22 09.10.2019
6486 Rain 10 994 87 10000 7.7 220 11:56 09.10.2019
6487 Rain 10 994 87 10000 7.7 220 11:37 09.10.2019
6488 Rain 10 994 93 10000 7.2 220 11:19 09.10.2019
6489 Rain 10 994 87 10000 6.2 220 10:44 09.10.2019
6490 Rain 10 994 93 9000 7.7 230 10:22 09.10.2019
6491 Rain 10 993 100 6000 6.7 220 09:59 09.10.2019
6492 Rain 10 993 100 6000 6.7 220 09:41 09.10.2019
6493 Rain 10 993 100 6000 6.7 220 09:41 09.10.2019
6494 Rain 10 993 93 10000 7.7 220 09:19 09.10.2019
6495 Rain 10 993 93 6000 8.7 220 08:43 09.10.2019
6496 Clouds 10 993 87 10000 7.2 220 08:23 09.10.2019
6497 Rain 10 993 87 10000 7.2 230 07:59 09.10.2019
6498 Rain 10 993 87 10000 7.2 230 07:39 09.10.2019
6499 Clouds 10 993 87 10000 6.2 230 07:20 09.10.2019
6500 Rain 10 993 87 10000 7.2 230 06:51 09.10.2019
6501 Rain 10 993 87 10000 7.2 230 06:51 09.10.2019
6502 Clouds 9 993 87 10000 6.2 210 05:56 09.10.2019
6503 Clouds 9 993 87 10000 6.2 210 05:37 09.10.2019
6504 Rain 10 993 87 9000 7.2 220 04:25 09.10.2019
6505 Rain 10 993 87 10000 7.7 220 02:52 09.10.2019
6506 Rain 10 993 87 10000 8.2 230 01:43 09.10.2019
6507 Rain 10 992 93 10000 9.3 240 01:20 09.10.2019
6508 Rain 10 992 93 10000 9.3 240 01:20 09.10.2019
6509 Rain 10 992 93 10000 8.7 240 00:56 09.10.2019
6510 Rain 10 992 93 10000 8.7 240 00:38 09.10.2019
6511 Rain 10 992 93 10000 8.7 230 00:19 09.10.2019
6512 Rain 10 992 100 10000 8.2 230 23:39 08.10.2019
6513 Rain 10 992 93 10000 7.2 230 23:19 08.10.2019
6514 Rain 10 992 87 10000 7.2 230 22:56 08.10.2019
6515 Rain 10 992 87 10000 7.2 230 22:38 08.10.2019
6516 Rain 10 992 93 10000 7.7 230 22:19 08.10.2019
6517 Rain 10 992 93 10000 7.7 230 21:57 08.10.2019
6518 Rain 10 992 87 3000 8.7 260 21:38 08.10.2019
6519 Rain 10 992 93 10000 8.7 230 21:18 08.10.2019
6520 Rain 10 992 93 10000 9.3 220 20:55 08.10.2019
6521 Rain 10 992 93 10000 9.3 220 20:37 08.10.2019
6522 Rain 10 992 93 10000 9.3 220 20:37 08.10.2019
6523 Rain 10 992 87 10000 7.2 230 20:19 08.10.2019
6524 Rain 10 992 87 3400 8.2 280 19:56 08.10.2019
6525 Rain 10 992 87 3400 8.2 280 19:36 08.10.2019
6526 Clouds 11 992 87 10000 5.7 230 19:18 08.10.2019
6527 Rain 11 992 93 10000 7.2 220 18:45 08.10.2019
6528 Rain 11 992 93 5000 6.7 260 18:25 08.10.2019
6529 Rain 11 992 87 10000 9.8 230 17:58 08.10.2019
6530 Rain 12 992 87 10000 9.8 230 17:39 08.10.2019
6531 Rain 12 992 87 6000 13.4 220 17:20 08.10.2019
6532 Rain 12 992 93 8000 10.8 220 16:56 08.10.2019
6533 Rain 12 992 93 8000 10.8 220 16:56 08.10.2019
6534 Rain 12 992 93 8000 10.8 220 16:56 08.10.2019
6535 Rain 12 992 93 8000 10.8 220 16:37 08.10.2019
6536 Rain 12 992 93 7000 11.8 220 16:18 08.10.2019
6537 Rain 12 992 81 7000 12.3 220 15:39 08.10.2019
6538 Rain 12 992 81 7000 12.3 220 15:39 08.10.2019
6539 Rain 12 993 81 10000 12.3 220 15:20 08.10.2019
6540 Rain 12 993 81 10000 12.3 220 15:20 08.10.2019
6541 Rain 12 993 76 8000 10.8 210 14:56 08.10.2019
6542 Rain 12 993 76 8000 10.8 210 14:37 08.10.2019
6543 Clouds 12 993 76 10000 10.8 210 14:19 08.10.2019
6544 -273 0 0 0 0 0 13:55 08.10.2019
6545 Clouds 12 993 76 10000 10.8 220 13:37 08.10.2019
6546 Clouds 12 993 71 10000 13.4 220 13:18 08.10.2019
6547 Clouds 12 993 71 10000 13.4 220 13:18 08.10.2019
6548 Clouds 12 994 76 10000 12.3 220 12:41 08.10.2019
6549 Clouds 12 995 81 10000 10.3 220 12:20 08.10.2019
6550 Clouds 11 995 81 10000 7.7 230 11:57 08.10.2019
6551 Clouds 11 995 81 10000 7.7 230 11:57 08.10.2019
6552 Clouds 11 995 81 10000 7.7 230 11:38 08.10.2019
6553 Clouds 11 995 81 10000 8.7 220 11:20 08.10.2019
6554 Clouds 10 995 81 10000 8.7 220 10:42 08.10.2019
6555 Rain 10 995 81 10000 8.2 220 10:23 08.10.2019
6556 Rain 10 995 81 10000 8.2 220 09:59 08.10.2019
6557 Rain 10 995 81 10000 6.7 240 09:40 08.10.2019
6558 Rain 10 995 87 10000 8.2 220 09:22 08.10.2019
6559 Rain 10 995 87 10000 9.3 220 08:45 08.10.2019
6560 Rain 10 995 87 10000 8.7 220 08:25 08.10.2019
6561 Rain 11 995 93 10000 10.8 220 07:48 08.10.2019
6562 Rain 11 995 93 5000 8.7 220 07:24 08.10.2019
6563 Rain 11 995 87 4500 10.3 200 06:59 08.10.2019
6564 Rain 11 995 87 4500 10.3 200 06:39 08.10.2019
6565 Rain 11 996 81 10000 8.7 210 06:21 08.10.2019
6566 Rain 11 996 87 10000 9.3 210 05:43 08.10.2019
6567 Rain 11 996 87 10000 9.3 210 05:43 08.10.2019
6568 Rain 11 997 87 10000 9.3 220 05:19 08.10.2019
6569 Clouds 11 998 81 10000 7.7 210 03:31 08.10.2019
6570 Rain 11 999 81 10000 7.2 210 02:42 08.10.2019
6571 Rain 11 999 81 10000 8.7 230 01:58 08.10.2019
6572 Rain 11 999 81 10000 8.7 230 01:40 08.10.2019
6573 Rain 11 999 87 10000 7.7 220 00:55 08.10.2019
6574 Rain 11 999 87 10000 6.7 230 00:23 08.10.2019
6575 Rain 12 1000 87 10000 7.7 220 23:46 07.10.2019
6576 Rain 12 1000 82 5000 8.7 210 23:21 07.10.2019
6577 Rain 12 1000 82 5000 8.7 210 23:21 07.10.2019
6578 Rain 12 1000 87 10000 5.7 220 22:59 07.10.2019
6579 Rain 12 1000 87 10000 5.7 220 22:41 07.10.2019
6580 Rain 12 1000 87 9000 7.7 220 22:23 07.10.2019
6581 Rain 12 1001 93 10000 6.2 210 21:59 07.10.2019
6582 Rain 12 1001 93 10000 6.2 210 21:40 07.10.2019
6583 Thunderstorm 12 1001 87 10000 3.6 220 21:21 07.10.2019
6584 Thunderstorm 12 1001 87 10000 3.6 220 20:59 07.10.2019
6585 Clear 12 1001 87 10000 5.1 210 20:40 07.10.2019
6586 Clear 12 1001 87 10000 5.1 210 20:40 07.10.2019
6587 Rain 13 1001 87 10000 4.6 240 20:21 07.10.2019
6588 Rain 13 1001 87 10000 4.6 240 19:59 07.10.2019
6589 Rain 13 1001 82 10000 5.1 220 19:41 07.10.2019
6590 Clouds 13 1001 87 10000 4.6 260 19:20 07.10.2019
6591 Rain 14 1001 82 10000 6.7 210 18:59 07.10.2019
6592 Rain 14 1001 82 10000 6.7 210 18:40 07.10.2019
6593 Clouds 15 1001 77 10000 7.2 220 18:19 07.10.2019
6594 Clouds 15 1001 77 10000 7.2 220 17:54 07.10.2019
6595 Clouds 15 1001 77 10000 7.2 220 17:54 07.10.2019
6596 Clouds 15 1001 77 10000 7.2 220 17:36 07.10.2019
6597 Clouds 16 1001 72 10000 8.2 220 17:18 07.10.2019
6598 Clouds 15 1001 77 10000 9.3 220 16:43 07.10.2019
6599 Clouds 15 1002 82 10000 8.7 210 16:25 07.10.2019
6600 Clouds 15 1002 82 10000 9.3 210 15:46 07.10.2019
6601 Clouds 14 1002 82 10000 7.7 210 15:26 07.10.2019
6602 Clouds 13 1002 82 10000 7.7 210 14:58 07.10.2019
6603 Clouds 13 1002 87 10000 8.2 210 14:40 07.10.2019
6604 Rain 13 1003 87 10000 7.2 200 14:22 07.10.2019
6605 Rain 12 1003 87 6000 9.3 190 13:43 07.10.2019
6606 Rain 12 1003 87 10000 7.2 190 13:21 07.10.2019
6607 Rain 12 1004 87 7000 5.7 180 12:57 07.10.2019
6608 Rain 12 1004 87 7000 5.7 180 12:39 07.10.2019
6609 Rain 11 1004 87 10000 5.7 170 12:19 07.10.2019
6610 Rain 11 1004 87 10000 5.7 170 11:58 07.10.2019
6611 Rain 11 1004 87 7000 6.7 170 11:38 07.10.2019
6612 Drizzle 11 1005 87 4400 6.2 170 11:20 07.10.2019
6613 Drizzle 11 1005 93 4900 3.1 160 10:42 07.10.2019
6614 Drizzle 11 1006 93 4100 3.1 160 10:21 07.10.2019
6615 Rain 11 1006 87 3900 5.7 170 09:55 07.10.2019
6616 -273 0 0 0 0 0 09:54 07.10.2019
6617 Rain 11 1006 87 3900 5.7 170 09:36 07.10.2019
6618 Rain 12 1007 81 5000 6.7 170 09:18 07.10.2019
6619 Rain 12 1007 81 10000 5.7 170 08:41 07.10.2019
6620 Clouds 12 1007 76 10000 4.6 160 08:20 07.10.2019
6621 Rain 12 1008 76 10000 4.1 150 07:44 07.10.2019
6622 Rain 12 1008 81 10000 5.1 130 07:25 07.10.2019
6623 Clouds 12 1009 87 10000 3.1 130 06:55 07.10.2019
6624 Clouds 12 1009 87 10000 3.1 130 06:37 07.10.2019
6625 Rain 12 1010 87 10000 4.6 130 05:50 07.10.2019
6626 Rain 11 1010 81 10000 5.1 130 05:24 07.10.2019
6627 Clouds 11 1011 87 10000 5.7 120 04:42 07.10.2019
6628 Clouds 11 1012 87 10000 3.1 110 03:45 07.10.2019
6629 Clouds 11 1012 87 10000 3.1 110 03:45 07.10.2019
6630 Clouds 11 1012 87 10000 4.1 100 03:23 07.10.2019
6631 Clouds 11 1013 87 10000 5.1 110 02:23 07.10.2019
6632 Clouds 11 1013 87 10000 4.1 110 01:57 07.10.2019
6633 Clouds 10 1013 93 10000 4.1 80 01:22 07.10.2019
6634 Clouds 10 1014 87 10000 3.1 70 00:44 07.10.2019
6635 Clouds 10 1014 93 10000 3.6 70 00:22 07.10.2019
6636 Clouds 10 1014 93 10000 4.1 60 23:56 06.10.2019
6637 Clouds 10 1014 93 10000 4.1 60 23:38 06.10.2019
6638 Clouds 10 1015 93 10000 3.1 70 23:18 06.10.2019
6639 Clouds 10 1015 87 10000 3.1 70 22:42 06.10.2019
6640 Clouds 10 1015 87 10000 3.6 80 22:22 06.10.2019
6641 Clouds 10 1014 93 10000 3.6 80 21:58 06.10.2019
6642 Clouds 10 1014 93 10000 3.6 80 21:58 06.10.2019
6643 Clouds 10 1014 93 10000 3.6 80 21:38 06.10.2019
6644 Clouds 10 1014 93 10000 4.1 70 21:19 06.10.2019
6645 Clouds 10 1014 93 10000 5.7 70 20:58 06.10.2019
6646 Clouds 10 1014 93 10000 5.7 70 20:40 06.10.2019
6647 Rain 10 1014 93 10000 6.2 70 20:21 06.10.2019
6648 Rain 10 1015 87 10000 5.7 60 19:58 06.10.2019
6649 Rain 10 1015 87 10000 5.7 60 19:38 06.10.2019
6650 Rain 10 1015 87 10000 5.1 60 19:20 06.10.2019
6651 Rain 10 1015 87 10000 4.6 60 18:57 06.10.2019
6652 Rain 10 1015 87 10000 4.6 60 18:39 06.10.2019
6653 Rain 10 1014 87 10000 4.6 60 18:20 06.10.2019
6654 Rain 11 1014 87 10000 5.7 60 17:58 06.10.2019
6655 Rain 10 1014 87 10000 5.7 60 17:39 06.10.2019
6656 Rain 11 1013 87 10000 5.7 60 17:19 06.10.2019
6657 Clouds 11 1013 87 10000 5.7 60 16:42 06.10.2019
6658 Rain 11 1013 87 10000 5.1 50 16:24 06.10.2019
6659 Rain 11 1012 87 10000 5.7 60 15:58 06.10.2019
6660 Rain 11 1012 87 10000 5.7 60 15:39 06.10.2019
6661 Rain 11 1012 93 10000 6.2 60 15:18 06.10.2019
6662 Rain 11 1012 93 10000 6.2 60 15:18 06.10.2019
6663 Rain 11 1011 87 10000 5.7 60 14:43 06.10.2019
6664 Rain 11 1011 87 10000 5.7 50 14:24 06.10.2019
6665 Rain 11 1011 87 10000 5.7 50 13:58 06.10.2019
6666 Rain 11 1010 87 10000 3.6 30 13:39 06.10.2019
6667 Rain 11 1010 87 10000 4.1 20 13:20 06.10.2019
6668 Rain 11 1010 93 10000 4.1 20 12:57 06.10.2019
6669 Rain 11 1010 93 10000 4.1 20 12:57 06.10.2019
6670 Rain 11 1010 93 10000 4.1 20 12:57 06.10.2019
6671 Rain 11 1010 93 10000 4.1 20 12:38 06.10.2019
6672 Rain 10 1010 93 10000 3.6 10 12:20 06.10.2019
6673 Rain 10 1009 93 10000 4.6 10 11:56 06.10.2019
6674 Rain 10 1009 93 10000 4.6 10 11:37 06.10.2019
6675 Rain 10 1009 93 10000 3.6 360 11:18 06.10.2019
6676 Rain 10 1009 93 10000 3.6 360 10:43 06.10.2019
6677 Rain 10 1008 93 10000 3.1 10 10:24 06.10.2019
6678 Rain 10 1008 93 10000 3.6 30 09:56 06.10.2019
6679 Rain 10 1008 93 10000 3.6 30 09:38 06.10.2019
6680 Rain 9 1007 93 8000 3.6 30 09:18 06.10.2019
6681 Rain 9 1007 93 10000 4.6 50 08:40 06.10.2019
6682 Rain 9 1006 93 9000 5.1 60 08:20 06.10.2019
6683 Rain 10 1006 100 10000 4.1 60 07:44 06.10.2019
6684 Rain 10 1006 100 6000 5.1 60 07:19 06.10.2019
6685 Rain 10 1005 93 9000 5.1 60 06:20 06.10.2019
6686 Rain 10 1005 93 10000 5.1 60 05:33 06.10.2019
6687 Rain 11 1006 100 8000 4.6 70 03:41 06.10.2019
6688 Rain 11 1007 93 10000 4.6 70 02:42 06.10.2019
6689 Rain 11 1007 93 8000 4.6 70 02:20 06.10.2019
6690 Rain 11 1007 93 7000 4.1 70 01:40 06.10.2019
6691 Rain 11 1008 93 6000 5.7 60 01:21 06.10.2019
6692 Rain 11 1008 93 7000 4.6 70 00:45 06.10.2019
6693 Rain 11 1009 93 6000 5.1 70 00:24 06.10.2019
6694 Rain 11 1009 93 8000 5.1 60 23:44 05.10.2019
6695 Rain 11 1009 93 10000 5.7 60 23:22 05.10.2019
6696 Rain 11 1009 93 10000 5.7 60 22:58 05.10.2019
6697 Rain 11 1010 93 6000 5.1 70 22:39 05.10.2019
6698 Rain 11 1010 93 7000 5.1 60 22:20 05.10.2019
6699 Drizzle 11 1011 93 3200 4.1 70 21:43 05.10.2019
6700 Rain 11 1011 93 3500 4.1 70 21:24 05.10.2019
6701 Rain 11 1011 93 3500 4.1 70 20:59 05.10.2019
6702 Rain 11 1011 87 6000 4.1 70 20:40 05.10.2019
6703 Clouds 11 1011 87 10000 4.6 70 20:20 05.10.2019
6704 Rain 12 1011 87 10000 5.7 70 19:58 05.10.2019
6705 Rain 12 1011 87 10000 5.7 70 19:37 05.10.2019
6706 Rain 11 1011 87 10000 4.6 60 19:18 05.10.2019
6707 Rain 12 1011 87 10000 4.1 60 18:55 05.10.2019
6708 Rain 12 1011 87 10000 4.1 60 18:36 05.10.2019
6709 Rain 12 1011 87 10000 4.6 70 18:18 05.10.2019
6710 Rain 12 1011 87 10000 4.6 80 17:42 05.10.2019
6711 Rain 12 1012 87 10000 4.6 70 17:22 05.10.2019
6712 Rain 12 1012 87 10000 4.6 70 16:56 05.10.2019
6713 Rain 12 1012 87 10000 4.6 70 16:37 05.10.2019
6714 Rain 12 1012 81 10000 4.1 80 16:19 05.10.2019
6715 Rain 12 1012 81 10000 4.6 80 15:56 05.10.2019
6716 Rain 12 1012 81 10000 4.6 80 15:38 05.10.2019
6717 Rain 12 1012 81 10000 4.6 70 15:19 05.10.2019
6718 Rain 12 1013 81 10000 4.1 70 14:42 05.10.2019
6719 Rain 12 1013 87 10000 4.6 70 14:24 05.10.2019
6720 Rain 12 1013 81 10000 5.1 70 13:44 05.10.2019
6721 Rain 11 1013 87 10000 5.1 80 13:26 05.10.2019
6722 Rain 11 1013 87 10000 5.1 80 13:26 05.10.2019
6723 Rain 11 1013 87 10000 5.1 80 12:59 05.10.2019
6724 Rain 11 1013 87 10000 5.1 80 12:59 05.10.2019
6725 Rain 11 1013 87 10000 4.6 70 12:41 05.10.2019
6726 Rain 11 1014 87 10000 4.6 70 12:19 05.10.2019
6727 Rain 11 1014 87 10000 4.6 80 11:41 05.10.2019
6728 Clouds 11 1014 81 10000 4.1 70 11:20 05.10.2019
6729 Clouds 10 1014 93 10000 4.1 80 10:57 05.10.2019
6730 Clouds 10 1014 93 10000 4.1 80 10:38 05.10.2019
6731 Clouds 10 1014 93 10000 4.1 70 10:20 05.10.2019
6732 Clouds 10 1014 93 10000 4.6 70 09:41 05.10.2019
6733 Clouds 10 1014 87 10000 3.6 70 09:23 05.10.2019
6734 Clouds 9 1013 87 10000 3.6 70 08:42 05.10.2019
6735 Clouds 9 1013 87 10000 4.1 70 08:23 05.10.2019
6736 Clouds 9 1013 93 10000 5.1 60 07:59 05.10.2019
6737 Clouds 9 1013 93 10000 5.1 60 07:39 05.10.2019
6738 Clouds 9 1013 93 10000 4.6 60 07:20 05.10.2019
6739 Clouds 9 1013 93 10000 4.1 70 06:52 05.10.2019
6740 Clouds 9 1013 93 10000 4.1 70 06:52 05.10.2019
6741 Clouds 9 1013 93 10000 4.1 60 06:20 05.10.2019
6742 Clouds 10 1014 93 10000 4.1 60 04:46 05.10.2019
6743 Clouds 9 1014 93 10000 3.6 80 03:31 05.10.2019
6744 Clouds 9 1014 93 10000 4.6 70 02:25 05.10.2019
6745 Rain 10 1013 87 10000 4.6 70 01:25 05.10.2019
6746 Rain 10 1013 87 10000 4.6 70 01:25 05.10.2019
6747 Rain 10 1013 87 10000 4.6 70 00:47 05.10.2019
6748 Drizzle 10 1013 87